<?xml version='1.0' encoding='UTF-8'?><gpx version="1.1" creator="JPX - https://github.com/jenetics/jpx" xmlns="http://www.topografix.com/GPX/1/1"><trk><trkseg><trkpt lat="45.36250341316256" lon="7.645876131319153"><ele>394.00000000000006</ele><time>2026-05-02T11:46:29Z</time></trkpt><trkpt lat="45.36251611920966" lon="7.645779937390646"><ele>394.0</ele><time>2026-05-02T11:46:31Z</time></trkpt><trkpt lat="45.36257290856362" lon="7.64570720206414"><ele>394.0</ele><time>2026-05-02T11:46:33Z</time></trkpt><trkpt lat="45.3626354221" lon="7.645677522270533"><ele>394.0</ele><time>2026-05-02T11:46:35Z</time></trkpt><trkpt lat="45.36267692950863" lon="7.6455681065523065"><ele>394.00000000000006</ele><time>2026-05-02T11:46:39Z</time></trkpt><trkpt lat="45.3626804744043" lon="7.645473997415397"><ele>394.0</ele><time>2026-05-02T11:47:10Z</time></trkpt><trkpt lat="45.362707394355745" lon="7.645357238184192"><ele>394.00000000000006</ele><time>2026-05-02T11:47:25Z</time></trkpt><trkpt lat="45.362587426348014" lon="7.64535906250312"><ele>394.0</ele><time>2026-05-02T11:47:27Z</time></trkpt><trkpt lat="45.36256219579945" lon="7.645444803195322"><ele>394.0</ele><time>2026-05-02T11:47:30Z</time></trkpt><trkpt lat="45.36247004077038" lon="7.645431903176834"><ele>394.0</ele><time>2026-05-02T11:47:32Z</time></trkpt><trkpt lat="45.362366713233996" lon="7.645430174298064"><ele>394.00000000000006</ele><time>2026-05-02T11:47:34Z</time></trkpt><trkpt lat="45.36230463471323" lon="7.64544914157659"><ele>394.0</ele><time>2026-05-02T11:47:36Z</time></trkpt><trkpt lat="45.36226329321096" lon="7.645567056938819"><ele>394.0</ele><time>2026-05-02T11:47:38Z</time></trkpt><trkpt lat="45.36226112642656" lon="7.645720859610968"><ele>394.0</ele><time>2026-05-02T11:47:42Z</time></trkpt><trkpt lat="45.362193853081465" lon="7.64585322119605"><ele>394.0</ele><time>2026-05-02T11:47:44Z</time></trkpt><trkpt lat="45.36214561583312" lon="7.6459187961517685"><ele>394.0</ele><time>2026-05-02T11:47:46Z</time></trkpt><trkpt lat="45.36209093913639" lon="7.645993834437602"><ele>394.0</ele><time>2026-05-02T11:47:48Z</time></trkpt><trkpt lat="45.362045388284834" lon="7.646142860260102"><ele>390.6</ele><time>2026-05-02T11:47:50Z</time></trkpt><trkpt lat="45.362006239745654" lon="7.646283567516222"><ele>387.2</ele><time>2026-05-02T11:47:52Z</time></trkpt><trkpt lat="45.36192508008024" lon="7.646429244832488"><ele>383.8</ele><time>2026-05-02T11:47:54Z</time></trkpt><trkpt lat="45.36189948072161" lon="7.646526033645899"><ele>380.40000000000003</ele><time>2026-05-02T11:47:55Z</time></trkpt><trkpt lat="45.361875566973886" lon="7.646618013813918"><ele>377.0</ele><time>2026-05-02T11:47:56Z</time></trkpt><trkpt lat="45.36184774949941" lon="7.646723169756261"><ele>377.0</ele><time>2026-05-02T11:47:57Z</time></trkpt><trkpt lat="45.361827573009705" lon="7.646826410354787"><ele>377.0</ele><time>2026-05-02T11:47:58Z</time></trkpt><trkpt lat="45.36181756262326" lon="7.646928840611106"><ele>377.0</ele><time>2026-05-02T11:47:59Z</time></trkpt><trkpt lat="45.36181745514223" lon="7.647042024768076"><ele>377.0</ele><time>2026-05-02T11:48:00Z</time></trkpt><trkpt lat="45.36182413743867" lon="7.647149510538566"><ele>377.0</ele><time>2026-05-02T11:48:01Z</time></trkpt><trkpt lat="45.36183403328533" lon="7.647263159034071"><ele>377.0</ele><time>2026-05-02T11:48:02Z</time></trkpt><trkpt lat="45.36184626077786" lon="7.647368790969747"><ele>376.40000000000003</ele><time>2026-05-02T11:48:03Z</time></trkpt><trkpt lat="45.36186526754383" lon="7.6475374141216745"><ele>375.8</ele><time>2026-05-02T11:48:05Z</time></trkpt><trkpt lat="45.36189574543767" lon="7.64768279020057"><ele>375.2</ele><time>2026-05-02T11:48:07Z</time></trkpt><trkpt lat="45.36189575813242" lon="7.647796422551901"><ele>374.6</ele><time>2026-05-02T11:48:09Z</time></trkpt><trkpt lat="45.36188050076593" lon="7.647946855263564"><ele>374.0</ele><time>2026-05-02T11:48:11Z</time></trkpt><trkpt lat="45.36182151939803" lon="7.64809752090057"><ele>373.33333333333337</ele><time>2026-05-02T11:48:13Z</time></trkpt><trkpt lat="45.36182892774521" lon="7.648206705946804"><ele>372.6666666666667</ele><time>2026-05-02T11:48:14Z</time></trkpt><trkpt lat="45.361843975830034" lon="7.648310130004242"><ele>372.0</ele><time>2026-05-02T11:48:15Z</time></trkpt><trkpt lat="45.36186927529795" lon="7.648420141511669"><ele>371.3333333333333</ele><time>2026-05-02T11:48:16Z</time></trkpt><trkpt lat="45.361860974457024" lon="7.648558835656216"><ele>370.66666666666663</ele><time>2026-05-02T11:48:18Z</time></trkpt><trkpt lat="45.36179147405857" lon="7.648670912466685"><ele>370.0</ele><time>2026-05-02T11:48:20Z</time></trkpt><trkpt lat="45.36171955752368" lon="7.648713217680271"><ele>369.6</ele><time>2026-05-02T11:48:21Z</time></trkpt><trkpt lat="45.36165735711542" lon="7.6487499881386585"><ele>369.2</ele><time>2026-05-02T11:48:22Z</time></trkpt><trkpt lat="45.36155085187551" lon="7.6488778232005945"><ele>368.79999999999995</ele><time>2026-05-02T11:48:24Z</time></trkpt><trkpt lat="45.361538886080154" lon="7.649011756662822"><ele>368.4</ele><time>2026-05-02T11:48:25Z</time></trkpt><trkpt lat="45.36153845512705" lon="7.649121758572231"><ele>368.0</ele><time>2026-05-02T11:48:26Z</time></trkpt><trkpt lat="45.36154242691704" lon="7.649236549288687"><ele>368.0</ele><time>2026-05-02T11:48:27Z</time></trkpt><trkpt lat="45.3615465959881" lon="7.649348356243199"><ele>368.0</ele><time>2026-05-02T11:48:28Z</time></trkpt><trkpt lat="45.361553587872564" lon="7.649467362674922"><ele>368.0</ele><time>2026-05-02T11:48:29Z</time></trkpt><trkpt lat="45.361560189813055" lon="7.649564941952974"><ele>368.0</ele><time>2026-05-02T11:48:30Z</time></trkpt><trkpt lat="45.36156629805182" lon="7.649655224107267"><ele>368.0</ele><time>2026-05-02T11:48:31Z</time></trkpt><trkpt lat="45.361573045701995" lon="7.649754957034386"><ele>368.0</ele><time>2026-05-02T11:48:32Z</time></trkpt><trkpt lat="45.36157109801611" lon="7.649942763132628"><ele>367.6666666666667</ele><time>2026-05-02T11:48:34Z</time></trkpt><trkpt lat="45.36153564074744" lon="7.650028173519585"><ele>367.33333333333337</ele><time>2026-05-02T11:48:35Z</time></trkpt><trkpt lat="45.361500876918264" lon="7.6501360817656145"><ele>367.0</ele><time>2026-05-02T11:48:36Z</time></trkpt><trkpt lat="45.36146287698635" lon="7.6502410510261605"><ele>366.6666666666667</ele><time>2026-05-02T11:48:37Z</time></trkpt><trkpt lat="45.36141902250357" lon="7.650347447457694"><ele>366.3333333333333</ele><time>2026-05-02T11:48:38Z</time></trkpt><trkpt lat="45.36137210035345" lon="7.650455107036819"><ele>366.0</ele><time>2026-05-02T11:48:39Z</time></trkpt><trkpt lat="45.36132675179977" lon="7.650575167309681"><ele>366.0</ele><time>2026-05-02T11:48:40Z</time></trkpt><trkpt lat="45.36129097996235" lon="7.650704135909067"><ele>366.0</ele><time>2026-05-02T11:48:41Z</time></trkpt><trkpt lat="45.36126611417173" lon="7.650839018050422"><ele>366.0</ele><time>2026-05-02T11:48:42Z</time></trkpt><trkpt lat="45.361253808606136" lon="7.650991247451728"><ele>366.0</ele><time>2026-05-02T11:48:43Z</time></trkpt><trkpt lat="45.36124353570985" lon="7.651109560671042"><ele>366.0</ele><time>2026-05-02T11:48:44Z</time></trkpt><trkpt lat="45.36122788748711" lon="7.651232125140816"><ele>366.0</ele><time>2026-05-02T11:48:45Z</time></trkpt><trkpt lat="45.36120551753011" lon="7.651343577239345"><ele>366.0</ele><time>2026-05-02T11:48:46Z</time></trkpt><trkpt lat="45.36117373308803" lon="7.651450866946284"><ele>366.0</ele><time>2026-05-02T11:48:47Z</time></trkpt><trkpt lat="45.36113225470437" lon="7.651557595328515"><ele>366.0</ele><time>2026-05-02T11:48:48Z</time></trkpt><trkpt lat="45.361080493322405" lon="7.651673971810817"><ele>366.0</ele><time>2026-05-02T11:48:49Z</time></trkpt><trkpt lat="45.36102123476066" lon="7.65180021517358"><ele>366.0</ele><time>2026-05-02T11:48:50Z</time></trkpt><trkpt lat="45.36095963526697" lon="7.651929952346986"><ele>366.0</ele><time>2026-05-02T11:48:51Z</time></trkpt><trkpt lat="45.36091297256937" lon="7.652064968170088"><ele>366.0</ele><time>2026-05-02T11:48:52Z</time></trkpt><trkpt lat="45.36084332367018" lon="7.6521474563700185"><ele>366.0</ele><time>2026-05-02T11:48:53Z</time></trkpt><trkpt lat="45.360769312152" lon="7.65222685674833"><ele>366.0</ele><time>2026-05-02T11:48:54Z</time></trkpt><trkpt lat="45.3607165862835" lon="7.652305521799083"><ele>366.0</ele><time>2026-05-02T11:48:55Z</time></trkpt><trkpt lat="45.36066605123572" lon="7.652360761536235"><ele>366.0</ele><time>2026-05-02T11:48:56Z</time></trkpt><trkpt lat="45.36063623526069" lon="7.65253955846117"><ele>366.0</ele><time>2026-05-02T11:48:58Z</time></trkpt><trkpt lat="45.36066253152478" lon="7.652659697666906"><ele>366.0</ele><time>2026-05-02T11:48:59Z</time></trkpt><trkpt lat="45.360711150329514" lon="7.652776029942481"><ele>366.0</ele><time>2026-05-02T11:49:00Z</time></trkpt><trkpt lat="45.36075753590141" lon="7.652893355272786"><ele>366.0</ele><time>2026-05-02T11:49:01Z</time></trkpt><trkpt lat="45.360803002094244" lon="7.653021384759054"><ele>366.0</ele><time>2026-05-02T11:49:02Z</time></trkpt><trkpt lat="45.360851218714615" lon="7.65314794991914"><ele>366.0</ele><time>2026-05-02T11:49:03Z</time></trkpt><trkpt lat="45.360890701663074" lon="7.653259397891199"><ele>366.0</ele><time>2026-05-02T11:49:04Z</time></trkpt><trkpt lat="45.3609268447728" lon="7.653349969915516"><ele>366.0</ele><time>2026-05-02T11:49:05Z</time></trkpt><trkpt lat="45.36097786877203" lon="7.653445263647622"><ele>366.0</ele><time>2026-05-02T11:49:06Z</time></trkpt><trkpt lat="45.36102362736793" lon="7.653538289916827"><ele>365.6</ele><time>2026-05-02T11:49:07Z</time></trkpt><trkpt lat="45.36104411559047" lon="7.653625095000812"><ele>365.20000000000005</ele><time>2026-05-02T11:49:08Z</time></trkpt><trkpt lat="45.36106675728263" lon="7.653785215441041"><ele>364.79999999999995</ele><time>2026-05-02T11:49:10Z</time></trkpt><trkpt lat="45.36102851700166" lon="7.653912236785721"><ele>364.4</ele><time>2026-05-02T11:49:11Z</time></trkpt><trkpt lat="45.36096347041592" lon="7.6540204970462975"><ele>364.0</ele><time>2026-05-02T11:49:12Z</time></trkpt><trkpt lat="45.3609133796364" lon="7.654157193792927"><ele>364.0</ele><time>2026-05-02T11:49:13Z</time></trkpt><trkpt lat="45.360877225893525" lon="7.654272390299711"><ele>364.0</ele><time>2026-05-02T11:49:14Z</time></trkpt><trkpt lat="45.360848883081566" lon="7.654378113426244"><ele>364.0</ele><time>2026-05-02T11:49:15Z</time></trkpt><trkpt lat="45.36082272332237" lon="7.654511194992657"><ele>364.0</ele><time>2026-05-02T11:49:16Z</time></trkpt><trkpt lat="45.36081616635354" lon="7.654648050350795"><ele>364.0</ele><time>2026-05-02T11:49:17Z</time></trkpt><trkpt lat="45.36077995459532" lon="7.654764944710758"><ele>364.0</ele><time>2026-05-02T11:49:18Z</time></trkpt><trkpt lat="45.36076373013219" lon="7.654862004322229"><ele>364.0</ele><time>2026-05-02T11:49:19Z</time></trkpt><trkpt lat="45.36075594685448" lon="7.655039321541942"><ele>364.0</ele><time>2026-05-02T11:49:21Z</time></trkpt><trkpt lat="45.36073975641326" lon="7.655132644498765"><ele>364.0</ele><time>2026-05-02T11:49:22Z</time></trkpt><trkpt lat="45.360735792695564" lon="7.6552877302113105"><ele>364.0</ele><time>2026-05-02T11:49:24Z</time></trkpt><trkpt lat="45.360719486924516" lon="7.655390581503849"><ele>364.0</ele><time>2026-05-02T11:49:25Z</time></trkpt><trkpt lat="45.360715397668635" lon="7.655513958698653"><ele>363.75</ele><time>2026-05-02T11:49:26Z</time></trkpt><trkpt lat="45.36071327702387" lon="7.65563849320205"><ele>363.5</ele><time>2026-05-02T11:49:27Z</time></trkpt><trkpt lat="45.36070291634296" lon="7.655787312834162"><ele>363.25</ele><time>2026-05-02T11:49:28Z</time></trkpt><trkpt lat="45.3607112511983" lon="7.655963662414451"><ele>363.0</ele><time>2026-05-02T11:49:29Z</time></trkpt><trkpt lat="45.360726715909564" lon="7.656159562687991"><ele>363.0</ele><time>2026-05-02T11:49:30Z</time></trkpt><trkpt lat="45.36072738138566" lon="7.656376901283014"><ele>363.0</ele><time>2026-05-02T11:49:31Z</time></trkpt><trkpt lat="45.36072088366219" lon="7.656554820569965"><ele>363.0</ele><time>2026-05-02T11:49:32Z</time></trkpt><trkpt lat="45.36071292233443" lon="7.656718520765185"><ele>363.0</ele><time>2026-05-02T11:49:33Z</time></trkpt><trkpt lat="45.36071117953598" lon="7.656863108436219"><ele>363.4</ele><time>2026-05-02T11:49:34Z</time></trkpt><trkpt lat="45.36071364854303" lon="7.656992911849136"><ele>363.79999999999995</ele><time>2026-05-02T11:49:35Z</time></trkpt><trkpt lat="45.360710094101464" lon="7.657133321632409"><ele>364.2</ele><time>2026-05-02T11:49:36Z</time></trkpt><trkpt lat="45.36069894152423" lon="7.657280203001573"><ele>364.6</ele><time>2026-05-02T11:49:37Z</time></trkpt><trkpt lat="45.36068827809145" lon="7.6574338685011565"><ele>365.0</ele><time>2026-05-02T11:49:38Z</time></trkpt><trkpt lat="45.360688550486714" lon="7.657587514837596"><ele>365.0</ele><time>2026-05-02T11:49:39Z</time></trkpt><trkpt lat="45.36068692613643" lon="7.657717536638493"><ele>365.0</ele><time>2026-05-02T11:49:40Z</time></trkpt><trkpt lat="45.36067419462117" lon="7.657837016555087"><ele>365.0</ele><time>2026-05-02T11:49:41Z</time></trkpt><trkpt lat="45.36063040106541" lon="7.657960234375338"><ele>365.0</ele><time>2026-05-02T11:49:42Z</time></trkpt><trkpt lat="45.36057879485175" lon="7.65809783009961"><ele>365.0</ele><time>2026-05-02T11:49:43Z</time></trkpt><trkpt lat="45.360533491540046" lon="7.658226400025684"><ele>364.33333333333337</ele><time>2026-05-02T11:49:44Z</time></trkpt><trkpt lat="45.360493718980536" lon="7.6583141790564015"><ele>363.6666666666667</ele><time>2026-05-02T11:49:45Z</time></trkpt><trkpt lat="45.360447247885645" lon="7.658385451328216"><ele>363.0</ele><time>2026-05-02T11:49:46Z</time></trkpt><trkpt lat="45.36037518701395" lon="7.658449681293172"><ele>362.3333333333333</ele><time>2026-05-02T11:49:47Z</time></trkpt><trkpt lat="45.36027145401351" lon="7.658491072740272"><ele>361.66666666666663</ele><time>2026-05-02T11:49:48Z</time></trkpt><trkpt lat="45.36017756994171" lon="7.658533363033066"><ele>361.0</ele><time>2026-05-02T11:49:49Z</time></trkpt><trkpt lat="45.36007627637134" lon="7.658562477353012"><ele>361.0</ele><time>2026-05-02T11:49:50Z</time></trkpt><trkpt lat="45.35996615148673" lon="7.658577410542037"><ele>361.0</ele><time>2026-05-02T11:49:51Z</time></trkpt><trkpt lat="45.35985043251716" lon="7.658574198336737"><ele>361.0</ele><time>2026-05-02T11:49:52Z</time></trkpt><trkpt lat="45.359734347576904" lon="7.658552667305932"><ele>361.0</ele><time>2026-05-02T11:49:53Z</time></trkpt><trkpt lat="45.35961578037125" lon="7.658518281279361"><ele>361.0</ele><time>2026-05-02T11:49:54Z</time></trkpt><trkpt lat="45.35949438332048" lon="7.658492940977873"><ele>361.0</ele><time>2026-05-02T11:49:55Z</time></trkpt><trkpt lat="45.359363830254345" lon="7.658478347683024"><ele>361.0</ele><time>2026-05-02T11:49:56Z</time></trkpt><trkpt lat="45.359236808540594" lon="7.6584612540205494"><ele>361.0</ele><time>2026-05-02T11:49:57Z</time></trkpt><trkpt lat="45.35910853451208" lon="7.658437890585692"><ele>361.0</ele><time>2026-05-02T11:49:58Z</time></trkpt><trkpt lat="45.35898060470045" lon="7.658413426190939"><ele>361.0</ele><time>2026-05-02T11:49:59Z</time></trkpt><trkpt lat="45.358850433170204" lon="7.658393974641185"><ele>361.0</ele><time>2026-05-02T11:50:00Z</time></trkpt><trkpt lat="45.358715698938774" lon="7.658377070328821"><ele>361.0</ele><time>2026-05-02T11:50:01Z</time></trkpt><trkpt lat="45.358576877448826" lon="7.658359042822809"><ele>360.25</ele><time>2026-05-02T11:50:02Z</time></trkpt><trkpt lat="45.358433020230756" lon="7.658333866368424"><ele>359.5</ele><time>2026-05-02T11:50:03Z</time></trkpt><trkpt lat="45.35828740817711" lon="7.6583124200366814"><ele>358.75</ele><time>2026-05-02T11:50:04Z</time></trkpt><trkpt lat="45.358140841663804" lon="7.658291820978626"><ele>358.0</ele><time>2026-05-02T11:50:05Z</time></trkpt><trkpt lat="45.3579970656881" lon="7.658259414175715"><ele>357.75</ele><time>2026-05-02T11:50:06Z</time></trkpt><trkpt lat="45.35783765676065" lon="7.658226348899461"><ele>357.5</ele><time>2026-05-02T11:50:07Z</time></trkpt><trkpt lat="45.35769096754629" lon="7.658189884133904"><ele>357.25</ele><time>2026-05-02T11:50:08Z</time></trkpt><trkpt lat="45.35756456641919" lon="7.658150859658079"><ele>357.0</ele><time>2026-05-02T11:50:09Z</time></trkpt><trkpt lat="45.35746165015712" lon="7.65810647115181"><ele>357.0</ele><time>2026-05-02T11:50:10Z</time></trkpt><trkpt lat="45.35738346892566" lon="7.65804866452765"><ele>357.0</ele><time>2026-05-02T11:50:11Z</time></trkpt><trkpt lat="45.35731968453001" lon="7.657977086344436"><ele>357.0</ele><time>2026-05-02T11:50:12Z</time></trkpt><trkpt lat="45.35727484014751" lon="7.657902477951723"><ele>357.0</ele><time>2026-05-02T11:50:13Z</time></trkpt><trkpt lat="45.35728682544026" lon="7.657754719094218"><ele>357.0</ele><time>2026-05-02T11:50:15Z</time></trkpt><trkpt lat="45.35715734020363" lon="7.6578545300072305"><ele>354.0</ele><time>2026-05-02T11:50:16Z</time></trkpt><trkpt lat="45.35712927987137" lon="7.657773588174728"><ele>353.0</ele><time>2026-05-02T11:55:38.999Z</time></trkpt></trkseg><trkseg><trkpt lat="45.357121983610874" lon="7.657897477637391"><ele>354.0</ele><time>2026-05-02T12:07:05Z</time></trkpt><trkpt lat="45.35705281790657" lon="7.6578290181404824"><ele>354.0</ele><time>2026-05-02T12:08:22Z</time></trkpt><trkpt lat="45.357111824408044" lon="7.657789204109034"><ele>354.0</ele><time>2026-05-02T12:08:50.001Z</time></trkpt><trkpt lat="45.357166443002" lon="7.6579198263092865"><ele>354.0</ele><time>2026-05-02T12:09:11Z</time></trkpt><trkpt lat="45.35713484993317" lon="7.657801943488108"><ele>354.0</ele><time>2026-05-02T12:10:20Z</time></trkpt><trkpt lat="45.357037780550804" lon="7.657767360727325"><ele>354.0</ele><time>2026-05-02T12:11:09Z</time></trkpt><trkpt lat="45.35693364918744" lon="7.657817714823666"><ele>354.0</ele><time>2026-05-02T12:11:10Z</time></trkpt><trkpt lat="45.356860072471285" lon="7.657912504226632"><ele>354.0</ele><time>2026-05-02T12:11:11Z</time></trkpt><trkpt lat="45.35681717184239" lon="7.6579847852737295"><ele>354.0</ele><time>2026-05-02T12:11:12Z</time></trkpt><trkpt lat="45.35687560820907" lon="7.6580923187273084"><ele>354.0</ele><time>2026-05-02T12:11:16Z</time></trkpt><trkpt lat="45.35698958225418" lon="7.6581082312487565"><ele>354.0</ele><time>2026-05-02T12:11:17Z</time></trkpt><trkpt lat="45.35713071086402" lon="7.65813914532215"><ele>354.75</ele><time>2026-05-02T12:11:18Z</time></trkpt><trkpt lat="45.35728968976243" lon="7.658170845525674"><ele>355.5</ele><time>2026-05-02T12:11:19Z</time></trkpt><trkpt lat="45.35742033283339" lon="7.658206234085749"><ele>356.25</ele><time>2026-05-02T12:11:20Z</time></trkpt><trkpt lat="45.357576048055904" lon="7.658217252913158"><ele>357.0</ele><time>2026-05-02T12:11:21Z</time></trkpt><trkpt lat="45.35775088536614" lon="7.658240875264727"><ele>357.0</ele><time>2026-05-02T12:11:22Z</time></trkpt><trkpt lat="45.35793035817101" lon="7.658274643792861"><ele>357.0</ele><time>2026-05-02T12:11:23Z</time></trkpt><trkpt lat="45.358138323839576" lon="7.658317613697582"><ele>357.0</ele><time>2026-05-02T12:11:24Z</time></trkpt><trkpt lat="45.358350610255144" lon="7.6583566396246745"><ele>357.5</ele><time>2026-05-02T12:11:25Z</time></trkpt><trkpt lat="45.358572662924566" lon="7.658392850023267"><ele>358.0</ele><time>2026-05-02T12:11:26Z</time></trkpt><trkpt lat="45.358810263068506" lon="7.658425290296003"><ele>359.5</ele><time>2026-05-02T12:11:27Z</time></trkpt><trkpt lat="45.35906003363893" lon="7.658461765637898"><ele>361.0</ele><time>2026-05-02T12:11:28Z</time></trkpt><trkpt lat="45.35928548909253" lon="7.658503474180196"><ele>361.0</ele><time>2026-05-02T12:11:29Z</time></trkpt><trkpt lat="45.35948060078366" lon="7.658533857269508"><ele>361.0</ele><time>2026-05-02T12:11:30Z</time></trkpt><trkpt lat="45.3596576553201" lon="7.658563199502677"><ele>361.0</ele><time>2026-05-02T12:11:31Z</time></trkpt><trkpt lat="45.35983047569409" lon="7.658595112042804"><ele>361.5</ele><time>2026-05-02T12:11:32Z</time></trkpt><trkpt lat="45.35998777604373" lon="7.658632603495448"><ele>362.0</ele><time>2026-05-02T12:11:33Z</time></trkpt><trkpt lat="45.36011874671454" lon="7.658696070175088"><ele>362.5</ele><time>2026-05-02T12:11:34Z</time></trkpt><trkpt lat="45.36021011987931" lon="7.658768636471667"><ele>363.0</ele><time>2026-05-02T12:11:35Z</time></trkpt><trkpt lat="45.3603040875419" lon="7.658853235618332"><ele>363.0</ele><time>2026-05-02T12:11:36Z</time></trkpt><trkpt lat="45.36037788087878" lon="7.658902520508042"><ele>363.0</ele><time>2026-05-02T12:11:37Z</time></trkpt><trkpt lat="45.36044349918195" lon="7.658898072017316"><ele>363.0</ele><time>2026-05-02T12:11:38Z</time></trkpt><trkpt lat="45.36049518536489" lon="7.658843766897701"><ele>363.0</ele><time>2026-05-02T12:11:39Z</time></trkpt><trkpt lat="45.36054145857924" lon="7.658764967002411"><ele>363.0</ele><time>2026-05-02T12:11:40Z</time></trkpt><trkpt lat="45.3605512566982" lon="7.658649161830447"><ele>363.0</ele><time>2026-05-02T12:11:41Z</time></trkpt><trkpt lat="45.36054238596577" lon="7.658510424799016"><ele>362.5</ele><time>2026-05-02T12:11:42Z</time></trkpt><trkpt lat="45.360494430710816" lon="7.6583702706502645"><ele>362.0</ele><time>2026-05-02T12:11:43Z</time></trkpt><trkpt lat="45.36057213581922" lon="7.658217984338044"><ele>361.5</ele><time>2026-05-02T12:11:44Z</time></trkpt><trkpt lat="45.36064136361861" lon="7.658029280167116"><ele>361.0</ele><time>2026-05-02T12:11:45Z</time></trkpt><trkpt lat="45.360696319163324" lon="7.657816397104004"><ele>362.3333333333333</ele><time>2026-05-02T12:11:46Z</time></trkpt><trkpt lat="45.36071482492942" lon="7.657592876500877"><ele>363.6666666666667</ele><time>2026-05-02T12:11:47Z</time></trkpt><trkpt lat="45.36072639963921" lon="7.657320833270215"><ele>365.0</ele><time>2026-05-02T12:11:48Z</time></trkpt><trkpt lat="45.36072681034315" lon="7.656988914376749"><ele>364.0</ele><time>2026-05-02T12:11:49Z</time></trkpt><trkpt lat="45.36072990742464" lon="7.656636670838717"><ele>363.0</ele><time>2026-05-02T12:11:50Z</time></trkpt><trkpt lat="45.36072864887835" lon="7.656278765238955"><ele>363.0</ele><time>2026-05-02T12:11:51Z</time></trkpt><trkpt lat="45.360734816094165" lon="7.65596690700868"><ele>363.0</ele><time>2026-05-02T12:11:52Z</time></trkpt><trkpt lat="45.36073423930979" lon="7.655692392148676"><ele>363.0</ele><time>2026-05-02T12:11:53Z</time></trkpt><trkpt lat="45.36075113382389" lon="7.655441258825507"><ele>363.3333333333333</ele><time>2026-05-02T12:11:54Z</time></trkpt><trkpt lat="45.36076010813945" lon="7.655205925351909"><ele>363.66666666666663</ele><time>2026-05-02T12:11:55Z</time></trkpt><trkpt lat="45.36077808373987" lon="7.6549938355994644"><ele>364.0</ele><time>2026-05-02T12:11:56Z</time></trkpt><trkpt lat="45.36081320146795" lon="7.654770723122085"><ele>364.0</ele><time>2026-05-02T12:11:57Z</time></trkpt><trkpt lat="45.36084339191474" lon="7.654520591334784"><ele>364.0</ele><time>2026-05-02T12:11:58Z</time></trkpt><trkpt lat="45.36089323447079" lon="7.654309384653269"><ele>364.0</ele><time>2026-05-02T12:11:59Z</time></trkpt><trkpt lat="45.36094028077234" lon="7.6541362296314785"><ele>364.0</ele><time>2026-05-02T12:12:00Z</time></trkpt><trkpt lat="45.36100970492374" lon="7.654004133708891"><ele>364.0</ele><time>2026-05-02T12:12:01Z</time></trkpt><trkpt lat="45.36106373511018" lon="7.653882155997804"><ele>364.0</ele><time>2026-05-02T12:12:02Z</time></trkpt><trkpt lat="45.36111441770521" lon="7.653782076326912"><ele>364.0</ele><time>2026-05-02T12:12:03Z</time></trkpt><trkpt lat="45.36105929797424" lon="7.653575180492392"><ele>364.4</ele><time>2026-05-02T12:12:05Z</time></trkpt><trkpt lat="45.36101464066866" lon="7.653458350753461"><ele>364.79999999999995</ele><time>2026-05-02T12:12:06Z</time></trkpt><trkpt lat="45.360953419865645" lon="7.6533470250608095"><ele>365.20000000000005</ele><time>2026-05-02T12:12:07Z</time></trkpt><trkpt lat="45.36090808475614" lon="7.653218808993376"><ele>365.6</ele><time>2026-05-02T12:12:08Z</time></trkpt><trkpt lat="45.360855765426024" lon="7.653089800098157"><ele>366.0</ele><time>2026-05-02T12:12:09Z</time></trkpt><trkpt lat="45.360805629722805" lon="7.652946198184583"><ele>366.0</ele><time>2026-05-02T12:12:10Z</time></trkpt><trkpt lat="45.36075348374447" lon="7.6528084638372045"><ele>366.0</ele><time>2026-05-02T12:12:11Z</time></trkpt><trkpt lat="45.36069770773387" lon="7.652705494526726"><ele>366.0</ele><time>2026-05-02T12:12:12Z</time></trkpt><trkpt lat="45.36068345624014" lon="7.652606834367178"><ele>366.0</ele><time>2026-05-02T12:12:13Z</time></trkpt><trkpt lat="45.36066699934156" lon="7.652444127602284"><ele>366.0</ele><time>2026-05-02T12:12:15Z</time></trkpt><trkpt lat="45.36073836087862" lon="7.6523158373889455"><ele>366.0</ele><time>2026-05-02T12:12:17Z</time></trkpt><trkpt lat="45.36082020095426" lon="7.652214225020442"><ele>366.0</ele><time>2026-05-02T12:12:18Z</time></trkpt><trkpt lat="45.3609353366732" lon="7.652085689480885"><ele>366.0</ele><time>2026-05-02T12:12:19Z</time></trkpt><trkpt lat="45.361008689085295" lon="7.6519617406254445"><ele>366.0</ele><time>2026-05-02T12:12:20Z</time></trkpt><trkpt lat="45.36105428001499" lon="7.651846992006417"><ele>366.0</ele><time>2026-05-02T12:12:21Z</time></trkpt><trkpt lat="45.36108866534947" lon="7.651761450956969"><ele>366.0</ele><time>2026-05-02T12:12:22Z</time></trkpt><trkpt lat="45.3611560095074" lon="7.651610263385729"><ele>366.0</ele><time>2026-05-02T12:12:24Z</time></trkpt><trkpt lat="45.36122565031694" lon="7.6514506904049515"><ele>366.0</ele><time>2026-05-02T12:12:26Z</time></trkpt><trkpt lat="45.36125915197074" lon="7.651349250137378"><ele>366.0</ele><time>2026-05-02T12:12:27Z</time></trkpt><trkpt lat="45.36127640234791" lon="7.651257335957683"><ele>365.8</ele><time>2026-05-02T12:12:28Z</time></trkpt><trkpt lat="45.3612941832108" lon="7.651097642086105"><ele>365.6</ele><time>2026-05-02T12:12:30Z</time></trkpt><trkpt lat="45.36127057700232" lon="7.650995400382205"><ele>365.4</ele><time>2026-05-02T12:12:32Z</time></trkpt><trkpt lat="45.361142160461974" lon="7.650967590321658"><ele>365.2</ele><time>2026-05-02T12:12:34Z</time></trkpt><trkpt lat="45.36103900741158" lon="7.6509616795244915"><ele>365.0</ele><time>2026-05-02T12:12:35Z</time></trkpt><trkpt lat="45.36090079477838" lon="7.6509375020952755"><ele>365.0</ele><time>2026-05-02T12:12:36Z</time></trkpt><trkpt lat="45.36073033159403" lon="7.650916714394333"><ele>365.0</ele><time>2026-05-02T12:12:37Z</time></trkpt><trkpt lat="45.360549819302584" lon="7.650894460222008"><ele>365.0</ele><time>2026-05-02T12:12:38Z</time></trkpt><trkpt lat="45.36039993860231" lon="7.6508887999145285"><ele>364.6</ele><time>2026-05-02T12:12:39Z</time></trkpt><trkpt lat="45.36027525762293" lon="7.6508940506693826"><ele>364.2</ele><time>2026-05-02T12:12:40Z</time></trkpt><trkpt lat="45.3601659169228" lon="7.650908683718348"><ele>363.79999999999995</ele><time>2026-05-02T12:12:41Z</time></trkpt><trkpt lat="45.36005540096386" lon="7.650941592379417"><ele>363.4</ele><time>2026-05-02T12:12:42Z</time></trkpt><trkpt lat="45.359961601169054" lon="7.650963223515376"><ele>363.0</ele><time>2026-05-02T12:12:43Z</time></trkpt><trkpt lat="45.359894732904316" lon="7.650972218823286"><ele>363.0</ele><time>2026-05-02T12:12:44Z</time></trkpt><trkpt lat="45.35983545954311" lon="7.6509250025613165"><ele>363.0</ele><time>2026-05-02T12:12:46Z</time></trkpt><trkpt lat="45.359826149940005" lon="7.650826839241688"><ele>363.0</ele><time>2026-05-02T12:12:47Z</time></trkpt><trkpt lat="45.359811419046714" lon="7.65070140404024"><ele>363.0</ele><time>2026-05-02T12:12:48Z</time></trkpt><trkpt lat="45.35978678381411" lon="7.650534871014049"><ele>363.0</ele><time>2026-05-02T12:12:49Z</time></trkpt><trkpt lat="45.35975368249477" lon="7.6504291930074055"><ele>363.0</ele><time>2026-05-02T12:12:50Z</time></trkpt><trkpt lat="45.359664133711696" lon="7.65034323511772"><ele>361.75</ele><time>2026-05-02T12:12:52Z</time></trkpt><trkpt lat="45.35956923487171" lon="7.650347329746954"><ele>360.5</ele><time>2026-05-02T12:12:53Z</time></trkpt><trkpt lat="45.35942001959786" lon="7.6503642105985"><ele>359.25</ele><time>2026-05-02T12:12:54Z</time></trkpt><trkpt lat="45.35925643254618" lon="7.650361319891816"><ele>358.0</ele><time>2026-05-02T12:12:55Z</time></trkpt><trkpt lat="45.359093017680586" lon="7.65032985693243"><ele>358.59999999999997</ele><time>2026-05-02T12:12:56Z</time></trkpt><trkpt lat="45.358962549391094" lon="7.650285460261689"><ele>359.2</ele><time>2026-05-02T12:12:57Z</time></trkpt><trkpt lat="45.35886177318973" lon="7.6502410913072145"><ele>359.8</ele><time>2026-05-02T12:12:58Z</time></trkpt><trkpt lat="45.35877509770063" lon="7.650225034497121"><ele>360.4</ele><time>2026-05-02T12:12:59Z</time></trkpt><trkpt lat="45.35868592692533" lon="7.6502354141900994"><ele>361.0</ele><time>2026-05-02T12:13:00Z</time></trkpt><trkpt lat="45.358564253701445" lon="7.650273043189669"><ele>360.75</ele><time>2026-05-02T12:13:01Z</time></trkpt><trkpt lat="45.358419945584934" lon="7.650334030744964"><ele>360.5</ele><time>2026-05-02T12:13:02Z</time></trkpt><trkpt lat="45.358316779035626" lon="7.650377989107153"><ele>360.25</ele><time>2026-05-02T12:13:03Z</time></trkpt><trkpt lat="45.358230602883744" lon="7.650441470625487"><ele>360.0</ele><time>2026-05-02T12:13:04Z</time></trkpt><trkpt lat="45.35814286529744" lon="7.650506407343385"><ele>360.0</ele><time>2026-05-02T12:13:05Z</time></trkpt><trkpt lat="45.35804038851475" lon="7.650593876663709"><ele>360.0</ele><time>2026-05-02T12:13:06Z</time></trkpt><trkpt lat="45.35792675397111" lon="7.650699285265256"><ele>360.0</ele><time>2026-05-02T12:13:07Z</time></trkpt><trkpt lat="45.35781493263543" lon="7.650807953111693"><ele>360.0</ele><time>2026-05-02T12:13:08Z</time></trkpt><trkpt lat="45.35771318828497" lon="7.650909369428457"><ele>359.4</ele><time>2026-05-02T12:13:09Z</time></trkpt><trkpt lat="45.35761865146407" lon="7.6509971225489455"><ele>358.8</ele><time>2026-05-02T12:13:10Z</time></trkpt><trkpt lat="45.35753422376306" lon="7.651061687790308"><ele>358.20000000000005</ele><time>2026-05-02T12:13:11Z</time></trkpt><trkpt lat="45.35745789775978" lon="7.651094945213302"><ele>357.6</ele><time>2026-05-02T12:13:12Z</time></trkpt><trkpt lat="45.35735887404878" lon="7.651113566194844"><ele>357.0</ele><time>2026-05-02T12:13:13Z</time></trkpt><trkpt lat="45.357258533747356" lon="7.651121471521412"><ele>357.0</ele><time>2026-05-02T12:13:14Z</time></trkpt><trkpt lat="45.357176932702686" lon="7.651126142872686"><ele>357.0</ele><time>2026-05-02T12:13:15Z</time></trkpt><trkpt lat="45.357077171989914" lon="7.651099518336026"><ele>357.0</ele><time>2026-05-02T12:13:17Z</time></trkpt><trkpt lat="45.35707138252937" lon="7.650942670927948"><ele>357.0</ele><time>2026-05-02T12:13:19Z</time></trkpt><trkpt lat="45.35709016485448" lon="7.650759758315883"><ele>357.0</ele><time>2026-05-02T12:13:20Z</time></trkpt><trkpt lat="45.35710166200659" lon="7.650573664547707"><ele>357.0</ele><time>2026-05-02T12:13:21Z</time></trkpt><trkpt lat="45.35709921609999" lon="7.650426264337986"><ele>357.0</ele><time>2026-05-02T12:13:22Z</time></trkpt><trkpt lat="45.35708202822771" lon="7.650311264635423"><ele>357.0</ele><time>2026-05-02T12:13:23Z</time></trkpt><trkpt lat="45.35705459728255" lon="7.650200794571042"><ele>357.0</ele><time>2026-05-02T12:13:24Z</time></trkpt><trkpt lat="45.35702185599601" lon="7.6501081661988515"><ele>357.0</ele><time>2026-05-02T12:13:25Z</time></trkpt><trkpt lat="45.35697603097618" lon="7.650032068460502"><ele>357.0</ele><time>2026-05-02T12:13:26Z</time></trkpt><trkpt lat="45.356916515261396" lon="7.649984529026504"><ele>357.6</ele><time>2026-05-02T12:13:27Z</time></trkpt><trkpt lat="45.35682343150333" lon="7.649927040820153"><ele>358.20000000000005</ele><time>2026-05-02T12:13:29Z</time></trkpt><trkpt lat="45.35678538738546" lon="7.649846977058767"><ele>358.8</ele><time>2026-05-02T12:13:30Z</time></trkpt><trkpt lat="45.35673820181688" lon="7.649704137147227"><ele>359.4</ele><time>2026-05-02T12:13:31Z</time></trkpt><trkpt lat="45.35667049647306" lon="7.649535610348832"><ele>360.0</ele><time>2026-05-02T12:13:32Z</time></trkpt><trkpt lat="45.35660564464949" lon="7.649389406023284"><ele>360.0</ele><time>2026-05-02T12:13:33Z</time></trkpt><trkpt lat="45.356565207149075" lon="7.649270056422369"><ele>360.0</ele><time>2026-05-02T12:13:34Z</time></trkpt><trkpt lat="45.3565429015422" lon="7.649154248582433"><ele>360.0</ele><time>2026-05-02T12:13:35Z</time></trkpt><trkpt lat="45.356539842094094" lon="7.649030286049313"><ele>360.0</ele><time>2026-05-02T12:13:36Z</time></trkpt><trkpt lat="45.356541379923236" lon="7.648861003512983"><ele>360.0</ele><time>2026-05-02T12:13:37Z</time></trkpt><trkpt lat="45.35654248057781" lon="7.648656942307447"><ele>359.8</ele><time>2026-05-02T12:13:38Z</time></trkpt><trkpt lat="45.35653771405393" lon="7.648492832238356"><ele>359.6</ele><time>2026-05-02T12:13:39Z</time></trkpt><trkpt lat="45.35651865525745" lon="7.648366820044759"><ele>359.4</ele><time>2026-05-02T12:13:40Z</time></trkpt><trkpt lat="45.356474687440794" lon="7.648232216549945"><ele>359.2</ele><time>2026-05-02T12:13:41Z</time></trkpt><trkpt lat="45.35642146979496" lon="7.648091623365074"><ele>359.0</ele><time>2026-05-02T12:13:42Z</time></trkpt><trkpt lat="45.35638464158512" lon="7.647981861120412"><ele>358.33333333333337</ele><time>2026-05-02T12:13:43Z</time></trkpt><trkpt lat="45.35634001512417" lon="7.647838781382352"><ele>357.6666666666667</ele><time>2026-05-02T12:13:45Z</time></trkpt><trkpt lat="45.356296350607444" lon="7.647766958236384"><ele>357.0</ele><time>2026-05-02T12:13:47Z</time></trkpt><trkpt lat="45.356234685609756" lon="7.647723657791705"><ele>356.3333333333333</ele><time>2026-05-02T12:13:49Z</time></trkpt><trkpt lat="45.35616656719556" lon="7.647682532744674"><ele>355.66666666666663</ele><time>2026-05-02T12:13:50Z</time></trkpt><trkpt lat="45.35608070544958" lon="7.647638714623168"><ele>355.0</ele><time>2026-05-02T12:13:51Z</time></trkpt><trkpt lat="45.35597668627155" lon="7.64761146466415"><ele>355.0</ele><time>2026-05-02T12:13:52Z</time></trkpt><trkpt lat="45.35588138403024" lon="7.647596514316556"><ele>355.0</ele><time>2026-05-02T12:13:53Z</time></trkpt><trkpt lat="45.35578982498202" lon="7.647577961325137"><ele>355.0</ele><time>2026-05-02T12:13:54Z</time></trkpt><trkpt lat="45.35569629221122" lon="7.647562859213772"><ele>355.0</ele><time>2026-05-02T12:13:55Z</time></trkpt><trkpt lat="45.355612373465135" lon="7.647536831767674"><ele>355.0</ele><time>2026-05-02T12:13:56Z</time></trkpt><trkpt lat="45.35553693177191" lon="7.647493024953229"><ele>355.0</ele><time>2026-05-02T12:13:57Z</time></trkpt><trkpt lat="45.35546475540136" lon="7.647433903388777"><ele>355.0</ele><time>2026-05-02T12:13:58Z</time></trkpt><trkpt lat="45.35538625549589" lon="7.647370037835455"><ele>355.0</ele><time>2026-05-02T12:13:59Z</time></trkpt><trkpt lat="45.35530203136494" lon="7.64729743606378"><ele>355.0</ele><time>2026-05-02T12:14:00Z</time></trkpt><trkpt lat="45.355221246253514" lon="7.6472222702744554"><ele>355.0</ele><time>2026-05-02T12:14:01Z</time></trkpt><trkpt lat="45.35513787609733" lon="7.647146313389694"><ele>355.0</ele><time>2026-05-02T12:14:02Z</time></trkpt><trkpt lat="45.355054946814946" lon="7.647080246180529"><ele>355.0</ele><time>2026-05-02T12:14:03Z</time></trkpt><trkpt lat="45.354968415393834" lon="7.647015087424364"><ele>355.0</ele><time>2026-05-02T12:14:04Z</time></trkpt><trkpt lat="45.35488929616114" lon="7.646950731170524"><ele>355.0</ele><time>2026-05-02T12:14:05Z</time></trkpt><trkpt lat="45.35481298103934" lon="7.646878421012651"><ele>355.0</ele><time>2026-05-02T12:14:06Z</time></trkpt><trkpt lat="45.354725530790724" lon="7.6467967004233826"><ele>354.8</ele><time>2026-05-02T12:14:07Z</time></trkpt><trkpt lat="45.35463688696222" lon="7.646717207440825"><ele>354.6</ele><time>2026-05-02T12:14:08Z</time></trkpt><trkpt lat="45.35454894328441" lon="7.6466434475493665"><ele>354.4</ele><time>2026-05-02T12:14:09Z</time></trkpt><trkpt lat="45.35445706047595" lon="7.646590431980682"><ele>354.2</ele><time>2026-05-02T12:14:10Z</time></trkpt><trkpt lat="45.354328037802446" lon="7.646533823418295"><ele>354.0</ele><time>2026-05-02T12:14:11Z</time></trkpt><trkpt lat="45.35417789868195" lon="7.646461584784198"><ele>354.0</ele><time>2026-05-02T12:14:12Z</time></trkpt><trkpt lat="45.35406070251684" lon="7.646406272554957"><ele>354.0</ele><time>2026-05-02T12:14:13Z</time></trkpt><trkpt lat="45.35397220718343" lon="7.646367102634068"><ele>354.0</ele><time>2026-05-02T12:14:14Z</time></trkpt><trkpt lat="45.35389737254981" lon="7.646339186503562"><ele>354.0</ele><time>2026-05-02T12:14:15Z</time></trkpt><trkpt lat="45.35380841767836" lon="7.646311364231325"><ele>354.0</ele><time>2026-05-02T12:14:17Z</time></trkpt><trkpt lat="45.353741161838904" lon="7.646221358262755"><ele>353.0</ele><time>2026-05-02T12:14:30Z</time></trkpt><trkpt lat="45.35372071290838" lon="7.646111998032513"><ele>352.0</ele><time>2026-05-02T12:14:31Z</time></trkpt><trkpt lat="45.353682428238905" lon="7.645975031027271"><ele>351.0</ele><time>2026-05-02T12:14:32Z</time></trkpt><trkpt lat="45.353640332926545" lon="7.645809050311861"><ele>350.0</ele><time>2026-05-02T12:14:33Z</time></trkpt><trkpt lat="45.35360628960379" lon="7.645628691006636"><ele>349.0</ele><time>2026-05-02T12:14:34Z</time></trkpt><trkpt lat="45.35357218215666" lon="7.645442409451506"><ele>350.0</ele><time>2026-05-02T12:14:35Z</time></trkpt><trkpt lat="45.35356382630989" lon="7.645208964599789"><ele>351.0</ele><time>2026-05-02T12:14:36Z</time></trkpt><trkpt lat="45.353559830914286" lon="7.644936799485015"><ele>352.0</ele><time>2026-05-02T12:14:37Z</time></trkpt><trkpt lat="45.35354945075609" lon="7.644622142281444"><ele>352.66666666666663</ele><time>2026-05-02T12:14:38Z</time></trkpt><trkpt lat="45.353557900886145" lon="7.644283189002182"><ele>353.3333333333333</ele><time>2026-05-02T12:14:39Z</time></trkpt><trkpt lat="45.35356329714696" lon="7.644001935002364"><ele>354.0</ele><time>2026-05-02T12:14:40Z</time></trkpt><trkpt lat="45.353570263978035" lon="7.6437666520998615"><ele>354.75</ele><time>2026-05-02T12:14:41Z</time></trkpt><trkpt lat="45.353574971129824" lon="7.643546430191514"><ele>355.5</ele><time>2026-05-02T12:14:42Z</time></trkpt><trkpt lat="45.35357484617641" lon="7.643358856381993"><ele>356.25</ele><time>2026-05-02T12:14:43Z</time></trkpt><trkpt lat="45.35358405001839" lon="7.643194522863966"><ele>357.0</ele><time>2026-05-02T12:14:44Z</time></trkpt><trkpt lat="45.35364049915069" lon="7.643011734559309"><ele>357.6666666666667</ele><time>2026-05-02T12:14:45Z</time></trkpt><trkpt lat="45.353712244059466" lon="7.642774980672151"><ele>358.33333333333337</ele><time>2026-05-02T12:14:46Z</time></trkpt><trkpt lat="45.35376996228158" lon="7.642572162360863"><ele>359.0</ele><time>2026-05-02T12:14:47Z</time></trkpt><trkpt lat="45.353825552845" lon="7.642417904526137"><ele>359.0</ele><time>2026-05-02T12:14:48Z</time></trkpt><trkpt lat="45.35386549544331" lon="7.642294239780337"><ele>359.0</ele><time>2026-05-02T12:14:49Z</time></trkpt><trkpt lat="45.353890017971906" lon="7.6422007230478926"><ele>359.0</ele><time>2026-05-02T12:14:50Z</time></trkpt><trkpt lat="45.353816045418505" lon="7.642075121312172"><ele>359.0</ele><time>2026-05-02T12:14:53Z</time></trkpt><trkpt lat="45.35371392946023" lon="7.6420374806421485"><ele>359.0</ele><time>2026-05-02T12:14:54Z</time></trkpt><trkpt lat="45.3535829393017" lon="7.641984880761079"><ele>359.25</ele><time>2026-05-02T12:14:55Z</time></trkpt><trkpt lat="45.353449372073115" lon="7.6419113996448615"><ele>359.5</ele><time>2026-05-02T12:14:56Z</time></trkpt><trkpt lat="45.353322519961935" lon="7.641861849887093"><ele>359.75</ele><time>2026-05-02T12:14:57Z</time></trkpt><trkpt lat="45.353182713447964" lon="7.641822567978979"><ele>360.0</ele><time>2026-05-02T12:14:58Z</time></trkpt><trkpt lat="45.35301770889226" lon="7.641806600136919"><ele>360.0</ele><time>2026-05-02T12:14:59Z</time></trkpt><trkpt lat="45.352860440377384" lon="7.641764687164217"><ele>360.0</ele><time>2026-05-02T12:15:00Z</time></trkpt><trkpt lat="45.35266554243985" lon="7.6417200174567315"><ele>360.0</ele><time>2026-05-02T12:15:01Z</time></trkpt><trkpt lat="45.352480712115955" lon="7.6416716541202145"><ele>360.0</ele><time>2026-05-02T12:15:02Z</time></trkpt><trkpt lat="45.35231090103379" lon="7.641622575115936"><ele>360.0</ele><time>2026-05-02T12:15:03Z</time></trkpt><trkpt lat="45.35214894940907" lon="7.64154877929149"><ele>360.0</ele><time>2026-05-02T12:15:04Z</time></trkpt><trkpt lat="45.35201521261091" lon="7.641452291888583"><ele>358.3333333333333</ele><time>2026-05-02T12:15:05Z</time></trkpt><trkpt lat="45.35186926504917" lon="7.641377840074078"><ele>356.66666666666663</ele><time>2026-05-02T12:15:06Z</time></trkpt><trkpt lat="45.35172268419834" lon="7.6412704009449115"><ele>355.0</ele><time>2026-05-02T12:15:07Z</time></trkpt><trkpt lat="45.35158655786838" lon="7.641159297135364"><ele>355.25</ele><time>2026-05-02T12:15:08Z</time></trkpt><trkpt lat="45.35145262183187" lon="7.6410357706678464"><ele>355.5</ele><time>2026-05-02T12:15:09Z</time></trkpt><trkpt lat="45.35133348808852" lon="7.640939579566218"><ele>355.75</ele><time>2026-05-02T12:15:10Z</time></trkpt><trkpt lat="45.3512186281297" lon="7.640862974969631"><ele>356.0</ele><time>2026-05-02T12:15:11Z</time></trkpt><trkpt lat="45.3511179007721" lon="7.640851168499809"><ele>356.0</ele><time>2026-05-02T12:15:12Z</time></trkpt><trkpt lat="45.35101451524266" lon="7.640898542666234"><ele>356.0</ele><time>2026-05-02T12:15:13Z</time></trkpt><trkpt lat="45.3508766953884" lon="7.6409583738441755"><ele>356.0</ele><time>2026-05-02T12:15:14Z</time></trkpt><trkpt lat="45.35070897728318" lon="7.641094947503195"><ele>356.0</ele><time>2026-05-02T12:15:15Z</time></trkpt><trkpt lat="45.350522595837475" lon="7.641249353429797"><ele>354.6666666666667</ele><time>2026-05-02T12:15:16Z</time></trkpt><trkpt lat="45.35033086186089" lon="7.64140611156891"><ele>353.3333333333333</ele><time>2026-05-02T12:15:17Z</time></trkpt><trkpt lat="45.35014873516427" lon="7.641536614510222"><ele>352.0</ele><time>2026-05-02T12:15:18Z</time></trkpt><trkpt lat="45.34998746760555" lon="7.641642499935851"><ele>352.0</ele><time>2026-05-02T12:15:19Z</time></trkpt><trkpt lat="45.3498318660357" lon="7.64173933423918"><ele>352.0</ele><time>2026-05-02T12:15:20Z</time></trkpt><trkpt lat="45.34966349916731" lon="7.641798659208763"><ele>352.0</ele><time>2026-05-02T12:15:21Z</time></trkpt><trkpt lat="45.34951304050025" lon="7.64189879443029"><ele>351.3333333333333</ele><time>2026-05-02T12:15:22Z</time></trkpt><trkpt lat="45.34934970867857" lon="7.641968959630347"><ele>350.6666666666667</ele><time>2026-05-02T12:15:23Z</time></trkpt><trkpt lat="45.349179748640175" lon="7.642039712808109"><ele>350.0</ele><time>2026-05-02T12:15:24Z</time></trkpt><trkpt lat="45.34900819395993" lon="7.6420992522948605"><ele>349.0</ele><time>2026-05-02T12:15:25Z</time></trkpt><trkpt lat="45.348829031985794" lon="7.642174276155592"><ele>348.0</ele><time>2026-05-02T12:15:26Z</time></trkpt><trkpt lat="45.34865623416983" lon="7.642233978774494"><ele>347.0</ele><time>2026-05-02T12:15:27Z</time></trkpt><trkpt lat="45.348487566576935" lon="7.6422608102257605"><ele>347.0</ele><time>2026-05-02T12:15:28Z</time></trkpt><trkpt lat="45.3483158340316" lon="7.642224943045442"><ele>347.0</ele><time>2026-05-02T12:15:29Z</time></trkpt><trkpt lat="45.348138429048205" lon="7.642190496379833"><ele>347.0</ele><time>2026-05-02T12:15:30Z</time></trkpt><trkpt lat="45.34795691964187" lon="7.642132798027768"><ele>346.6666666666667</ele><time>2026-05-02T12:15:31Z</time></trkpt><trkpt lat="45.347772731082976" lon="7.642046197761713"><ele>346.3333333333333</ele><time>2026-05-02T12:15:32Z</time></trkpt><trkpt lat="45.34758393008543" lon="7.6419478928723645"><ele>346.0</ele><time>2026-05-02T12:15:33Z</time></trkpt><trkpt lat="45.34738172443468" lon="7.641812124349201"><ele>345.0</ele><time>2026-05-02T12:15:34Z</time></trkpt><trkpt lat="45.347203070582665" lon="7.641685177843094"><ele>344.0</ele><time>2026-05-02T12:15:35Z</time></trkpt><trkpt lat="45.347038936720615" lon="7.641599273692037"><ele>343.0</ele><time>2026-05-02T12:15:36Z</time></trkpt><trkpt lat="45.346896154639126" lon="7.641503646670951"><ele>343.0</ele><time>2026-05-02T12:15:37Z</time></trkpt><trkpt lat="45.34674751766153" lon="7.641409685818066"><ele>343.0</ele><time>2026-05-02T12:15:38Z</time></trkpt><trkpt lat="45.34658224208164" lon="7.641328354397057"><ele>343.0</ele><time>2026-05-02T12:15:39Z</time></trkpt><trkpt lat="45.34643812304191" lon="7.641262492077142"><ele>343.25</ele><time>2026-05-02T12:15:40Z</time></trkpt><trkpt lat="45.34630419122534" lon="7.6412286960955935"><ele>343.5</ele><time>2026-05-02T12:15:41Z</time></trkpt><trkpt lat="45.346177483380885" lon="7.64120472985383"><ele>343.75</ele><time>2026-05-02T12:15:42Z</time></trkpt><trkpt lat="45.34604711995214" lon="7.641212953237165"><ele>344.0</ele><time>2026-05-02T12:15:43Z</time></trkpt><trkpt lat="45.34590623306462" lon="7.641256229386378"><ele>344.0</ele><time>2026-05-02T12:15:44Z</time></trkpt><trkpt lat="45.345770503103644" lon="7.641317694375867"><ele>344.0</ele><time>2026-05-02T12:15:45Z</time></trkpt><trkpt lat="45.345639586968865" lon="7.641385365770986"><ele>344.0</ele><time>2026-05-02T12:15:46Z</time></trkpt><trkpt lat="45.34552972703966" lon="7.641452014392507"><ele>344.0</ele><time>2026-05-02T12:15:47Z</time></trkpt><trkpt lat="45.345428333356864" lon="7.641510679043576"><ele>343.83333333333337</ele><time>2026-05-02T12:15:48Z</time></trkpt><trkpt lat="45.34532885926118" lon="7.641563179340666"><ele>343.6666666666667</ele><time>2026-05-02T12:15:49Z</time></trkpt><trkpt lat="45.34523891851098" lon="7.641586846111211"><ele>343.5</ele><time>2026-05-02T12:15:50Z</time></trkpt><trkpt lat="45.34516064384877" lon="7.64159389157989"><ele>343.3333333333333</ele><time>2026-05-02T12:15:51Z</time></trkpt><trkpt lat="45.3450728132771" lon="7.6415841845844765"><ele>343.16666666666663</ele><time>2026-05-02T12:15:52Z</time></trkpt><trkpt lat="45.34499816314321" lon="7.641560791555609"><ele>343.0</ele><time>2026-05-02T12:15:53Z</time></trkpt><trkpt lat="45.34493374243454" lon="7.641551283838632"><ele>343.0</ele><time>2026-05-02T12:15:54Z</time></trkpt><trkpt lat="45.34489838264948" lon="7.641654071271638"><ele>343.0</ele><time>2026-05-02T12:15:55Z</time></trkpt><trkpt lat="45.34487786709882" lon="7.641851160462833"><ele>343.0</ele><time>2026-05-02T12:15:57Z</time></trkpt><trkpt lat="45.34483006133332" lon="7.641970015021027"><ele>343.0</ele><time>2026-05-02T12:15:58Z</time></trkpt><trkpt lat="45.34474066545007" lon="7.642010917341359"><ele>343.0</ele><time>2026-05-02T12:15:59Z</time></trkpt><trkpt lat="45.344680269564236" lon="7.6420850256325"><ele>342.0</ele><time>2026-05-02T12:16:00Z</time></trkpt><trkpt lat="45.344608183902814" lon="7.6421734777053425"><ele>341.0</ele><time>2026-05-02T12:16:01Z</time></trkpt><trkpt lat="45.344503705731526" lon="7.642302866561069"><ele>340.0</ele><time>2026-05-02T12:16:02Z</time></trkpt><trkpt lat="45.34439360455972" lon="7.642440755177177"><ele>339.0</ele><time>2026-05-02T12:16:03Z</time></trkpt><trkpt lat="45.34427058212864" lon="7.642597075539799"><ele>339.0</ele><time>2026-05-02T12:16:04Z</time></trkpt><trkpt lat="45.3441352594671" lon="7.642769025516103"><ele>339.0</ele><time>2026-05-02T12:16:05Z</time></trkpt><trkpt lat="45.34400459185439" lon="7.6429297132730785"><ele>339.0</ele><time>2026-05-02T12:16:06Z</time></trkpt><trkpt lat="45.34390960045629" lon="7.6430741821525805"><ele>338.79999999999995</ele><time>2026-05-02T12:16:07Z</time></trkpt><trkpt lat="45.34381764761044" lon="7.643183384213484"><ele>338.59999999999997</ele><time>2026-05-02T12:16:08Z</time></trkpt><trkpt lat="45.34374795318024" lon="7.643289479857955"><ele>338.4</ele><time>2026-05-02T12:16:09Z</time></trkpt><trkpt lat="45.34368051484695" lon="7.643415481891849"><ele>338.2</ele><time>2026-05-02T12:16:10Z</time></trkpt><trkpt lat="45.34361489565082" lon="7.643462251690677"><ele>338.0</ele><time>2026-05-02T12:16:11Z</time></trkpt><trkpt lat="45.34355237380873" lon="7.643506454433458"><ele>338.0</ele><time>2026-05-02T12:16:12Z</time></trkpt><trkpt lat="45.343477068773545" lon="7.643511016818959"><ele>338.0</ele><time>2026-05-02T12:16:13Z</time></trkpt><trkpt lat="45.343371593431904" lon="7.643550444861505"><ele>338.0</ele><time>2026-05-02T12:16:14Z</time></trkpt><trkpt lat="45.34321937051087" lon="7.6436265267009516"><ele>338.0</ele><time>2026-05-02T12:16:15Z</time></trkpt><trkpt lat="45.343082277658525" lon="7.643721909299389"><ele>337.0</ele><time>2026-05-02T12:16:16Z</time></trkpt><trkpt lat="45.342959262412215" lon="7.643857394484234"><ele>336.0</ele><time>2026-05-02T12:16:17Z</time></trkpt><trkpt lat="45.3428372557309" lon="7.644038101055023"><ele>335.0</ele><time>2026-05-02T12:16:18Z</time></trkpt><trkpt lat="45.34269714395187" lon="7.644250076221073"><ele>334.33333333333337</ele><time>2026-05-02T12:16:19Z</time></trkpt><trkpt lat="45.342546180771606" lon="7.644479660717294"><ele>333.6666666666667</ele><time>2026-05-02T12:16:20Z</time></trkpt><trkpt lat="45.34242216382982" lon="7.644668264329426"><ele>333.0</ele><time>2026-05-02T12:16:21Z</time></trkpt><trkpt lat="45.34231270396232" lon="7.644836810613084"><ele>333.0</ele><time>2026-05-02T12:16:22Z</time></trkpt><trkpt lat="45.34222757134725" lon="7.645005181777968"><ele>333.0</ele><time>2026-05-02T12:16:23Z</time></trkpt><trkpt lat="45.34218107723784" lon="7.645170831582604"><ele>333.0</ele><time>2026-05-02T12:16:24Z</time></trkpt><trkpt lat="45.34212573388513" lon="7.64531728295904"><ele>333.0</ele><time>2026-05-02T12:16:25Z</time></trkpt><trkpt lat="45.34204441617971" lon="7.645464235358722"><ele>333.6666666666667</ele><time>2026-05-02T12:16:26Z</time></trkpt><trkpt lat="45.3419346257679" lon="7.645639038256582"><ele>334.33333333333337</ele><time>2026-05-02T12:16:27Z</time></trkpt><trkpt lat="45.341815561951904" lon="7.645831677820091"><ele>335.0</ele><time>2026-05-02T12:16:28Z</time></trkpt><trkpt lat="45.34170523059277" lon="7.646007561866425"><ele>335.0</ele><time>2026-05-02T12:16:29Z</time></trkpt><trkpt lat="45.34160736920584" lon="7.646151650905968"><ele>335.0</ele><time>2026-05-02T12:16:30Z</time></trkpt><trkpt lat="45.34152769766072" lon="7.646261356328086"><ele>335.0</ele><time>2026-05-02T12:16:31Z</time></trkpt><trkpt lat="45.3414694996244" lon="7.6463559046765335"><ele>335.0</ele><time>2026-05-02T12:16:32Z</time></trkpt><trkpt lat="45.341417269218674" lon="7.646447772059446"><ele>335.0</ele><time>2026-05-02T12:16:33Z</time></trkpt><trkpt lat="45.34139527801406" lon="7.646560899354316"><ele>335.0</ele><time>2026-05-02T12:16:34Z</time></trkpt><trkpt lat="45.34137949677863" lon="7.646716540852172"><ele>335.0</ele><time>2026-05-02T12:16:35Z</time></trkpt><trkpt lat="45.34138725888107" lon="7.6468975865132"><ele>335.0</ele><time>2026-05-02T12:16:36Z</time></trkpt><trkpt lat="45.341392459522574" lon="7.647039223166705"><ele>335.0</ele><time>2026-05-02T12:16:37Z</time></trkpt><trkpt lat="45.341381226444575" lon="7.647131866146191"><ele>335.0</ele><time>2026-05-02T12:16:38Z</time></trkpt><trkpt lat="45.34130600476441" lon="7.647168591718094"><ele>334.2</ele><time>2026-05-02T12:16:40Z</time></trkpt><trkpt lat="45.34120428367791" lon="7.647192838708151"><ele>333.4</ele><time>2026-05-02T12:16:41Z</time></trkpt><trkpt lat="45.34108004085419" lon="7.647236014264733"><ele>332.6</ele><time>2026-05-02T12:16:42Z</time></trkpt><trkpt lat="45.34097555726218" lon="7.647226465879486"><ele>331.8</ele><time>2026-05-02T12:16:43Z</time></trkpt><trkpt lat="45.340884643517114" lon="7.647181634631242"><ele>331.0</ele><time>2026-05-02T12:16:44Z</time></trkpt><trkpt lat="45.3407574171874" lon="7.647091459883971"><ele>331.0</ele><time>2026-05-02T12:16:45Z</time></trkpt><trkpt lat="45.340622494052674" lon="7.647036568762878"><ele>331.0</ele><time>2026-05-02T12:16:46Z</time></trkpt><trkpt lat="45.34049826763225" lon="7.647027692912595"><ele>331.0</ele><time>2026-05-02T12:16:47Z</time></trkpt><trkpt lat="45.34034901276965" lon="7.647050346915782"><ele>331.0</ele><time>2026-05-02T12:16:48Z</time></trkpt><trkpt lat="45.34022723765923" lon="7.6470874197121965"><ele>330.75</ele><time>2026-05-02T12:16:49Z</time></trkpt><trkpt lat="45.34011130937709" lon="7.647143473791993"><ele>330.5</ele><time>2026-05-02T12:16:50Z</time></trkpt><trkpt lat="45.33997381097219" lon="7.647205459993768"><ele>330.25</ele><time>2026-05-02T12:16:51Z</time></trkpt><trkpt lat="45.33986530842515" lon="7.647250189775529"><ele>330.0</ele><time>2026-05-02T12:16:52Z</time></trkpt><trkpt lat="45.339782556041655" lon="7.647273792505367"><ele>330.0</ele><time>2026-05-02T12:16:53Z</time></trkpt><trkpt lat="45.33972641082067" lon="7.647329021454626"><ele>330.0</ele><time>2026-05-02T12:16:54Z</time></trkpt><trkpt lat="45.33968222280826" lon="7.6474056760213225"><ele>330.0</ele><time>2026-05-02T12:16:55Z</time></trkpt><trkpt lat="45.339635212140756" lon="7.647565355787628"><ele>330.0</ele><time>2026-05-02T12:16:56Z</time></trkpt><trkpt lat="45.33961841035497" lon="7.64771609684439"><ele>330.0</ele><time>2026-05-02T12:16:57Z</time></trkpt><trkpt lat="45.339643465484656" lon="7.647857413228269"><ele>330.0</ele><time>2026-05-02T12:16:58Z</time></trkpt><trkpt lat="45.33967374722061" lon="7.648002859751261"><ele>330.0</ele><time>2026-05-02T12:16:59Z</time></trkpt><trkpt lat="45.339712688706825" lon="7.648161409790166"><ele>330.0</ele><time>2026-05-02T12:17:00Z</time></trkpt><trkpt lat="45.33972877586021" lon="7.6482911692659385"><ele>330.0</ele><time>2026-05-02T12:17:02Z</time></trkpt><trkpt lat="45.339572354956104" lon="7.648286385295655"><ele>329.8</ele><time>2026-05-02T12:17:05Z</time></trkpt><trkpt lat="45.3394392540167" lon="7.648201906491485"><ele>329.6</ele><time>2026-05-02T12:17:06Z</time></trkpt><trkpt lat="45.339343181234824" lon="7.648171846452767"><ele>329.4</ele><time>2026-05-02T12:17:07Z</time></trkpt><trkpt lat="45.33925404082332" lon="7.648250364287817"><ele>329.2</ele><time>2026-05-02T12:17:09Z</time></trkpt><trkpt lat="45.339229631747784" lon="7.6483818670685055"><ele>329.0</ele><time>2026-05-02T12:17:10Z</time></trkpt><trkpt lat="45.339176513538696" lon="7.648514516273633"><ele>328.79999999999995</ele><time>2026-05-02T12:17:11Z</time></trkpt><trkpt lat="45.339100018474014" lon="7.648630349503466"><ele>328.59999999999997</ele><time>2026-05-02T12:17:12Z</time></trkpt><trkpt lat="45.339005353550355" lon="7.64877049410062"><ele>328.4</ele><time>2026-05-02T12:17:13Z</time></trkpt><trkpt lat="45.33895430262705" lon="7.64888180137249"><ele>328.2</ele><time>2026-05-02T12:17:14Z</time></trkpt><trkpt lat="45.338922552146144" lon="7.648986479372478"><ele>328.0</ele><time>2026-05-02T12:17:15Z</time></trkpt><trkpt lat="45.33889946273513" lon="7.6491320933294205"><ele>328.0</ele><time>2026-05-02T12:17:16Z</time></trkpt><trkpt lat="45.33893400944363" lon="7.649319863381463"><ele>328.0</ele><time>2026-05-02T12:17:17Z</time></trkpt><trkpt lat="45.33893768704991" lon="7.649522868969725"><ele>328.0</ele><time>2026-05-02T12:17:18Z</time></trkpt><trkpt lat="45.33895072722904" lon="7.649698386950623"><ele>328.0</ele><time>2026-05-02T12:17:19Z</time></trkpt><trkpt lat="45.3389656732562" lon="7.649831731800075"><ele>327.79999999999995</ele><time>2026-05-02T12:17:20Z</time></trkpt><trkpt lat="45.33899146619459" lon="7.649940993399969"><ele>327.6</ele><time>2026-05-02T12:17:21Z</time></trkpt><trkpt lat="45.339035919820624" lon="7.650021151794524"><ele>327.4</ele><time>2026-05-02T12:17:22Z</time></trkpt><trkpt lat="45.33911269570234" lon="7.650105958488136"><ele>327.20000000000005</ele><time>2026-05-02T12:17:23Z</time></trkpt><trkpt lat="45.33919936858078" lon="7.650231470476818"><ele>327.0</ele><time>2026-05-02T12:17:24Z</time></trkpt><trkpt lat="45.33927204084213" lon="7.650424198024488"><ele>327.6666666666667</ele><time>2026-05-02T12:17:25Z</time></trkpt><trkpt lat="45.33934486354537" lon="7.650677980019538"><ele>328.33333333333337</ele><time>2026-05-02T12:17:26Z</time></trkpt><trkpt lat="45.33944734706208" lon="7.650942143734514"><ele>329.0</ele><time>2026-05-02T12:17:27Z</time></trkpt><trkpt lat="45.33955398787325" lon="7.651191542836371"><ele>329.0</ele><time>2026-05-02T12:17:28Z</time></trkpt><trkpt lat="45.33967770018464" lon="7.65143618284269"><ele>329.0</ele><time>2026-05-02T12:17:29Z</time></trkpt><trkpt lat="45.33980182747291" lon="7.6516964310809135"><ele>329.0</ele><time>2026-05-02T12:17:30Z</time></trkpt><trkpt lat="45.33991032469194" lon="7.651896338345996"><ele>329.0</ele><time>2026-05-02T12:17:31Z</time></trkpt><trkpt lat="45.339980657282695" lon="7.652039840867873"><ele>329.0</ele><time>2026-05-02T12:17:32Z</time></trkpt><trkpt lat="45.34004461711193" lon="7.652168434284317"><ele>329.0</ele><time>2026-05-02T12:17:33Z</time></trkpt><trkpt lat="45.34010278214253" lon="7.6522821785029524"><ele>329.0</ele><time>2026-05-02T12:17:34Z</time></trkpt><trkpt lat="45.34016064926178" lon="7.652357521746196"><ele>329.0</ele><time>2026-05-02T12:17:35Z</time></trkpt><trkpt lat="45.34024498665026" lon="7.652407368535334"><ele>329.0</ele><time>2026-05-02T12:17:37Z</time></trkpt><trkpt lat="45.34039465541641" lon="7.652415762507847"><ele>329.0</ele><time>2026-05-02T12:17:39Z</time></trkpt><trkpt lat="45.34051141077891" lon="7.652437123277189"><ele>329.0</ele><time>2026-05-02T12:17:40Z</time></trkpt><trkpt lat="45.34058529484822" lon="7.652461551901652"><ele>329.0</ele><time>2026-05-02T12:17:41Z</time></trkpt><trkpt lat="45.340639322024366" lon="7.6525503783653015"><ele>329.0</ele><time>2026-05-02T12:17:43Z</time></trkpt><trkpt lat="45.34065734254713" lon="7.652650617332848"><ele>329.5</ele><time>2026-05-02T12:17:44Z</time></trkpt><trkpt lat="45.34067742063492" lon="7.652792048927299"><ele>330.0</ele><time>2026-05-02T12:17:45Z</time></trkpt><trkpt lat="45.34068928183632" lon="7.6529632388809326"><ele>330.5</ele><time>2026-05-02T12:17:46Z</time></trkpt><trkpt lat="45.34070769422119" lon="7.65316713820325"><ele>331.0</ele><time>2026-05-02T12:17:47Z</time></trkpt><trkpt lat="45.340738948324955" lon="7.653421263340753"><ele>331.25</ele><time>2026-05-02T12:17:48Z</time></trkpt><trkpt lat="45.340757593430396" lon="7.653667862174826"><ele>331.5</ele><time>2026-05-02T12:17:49Z</time></trkpt><trkpt lat="45.34077140699662" lon="7.653866319043613"><ele>331.75</ele><time>2026-05-02T12:17:50Z</time></trkpt><trkpt lat="45.34077750718428" lon="7.65404375171541"><ele>332.0</ele><time>2026-05-02T12:17:51Z</time></trkpt><trkpt lat="45.34078240153365" lon="7.654221890233432"><ele>332.0</ele><time>2026-05-02T12:17:52Z</time></trkpt><trkpt lat="45.34078950092167" lon="7.65440548932843"><ele>332.0</ele><time>2026-05-02T12:17:53Z</time></trkpt><trkpt lat="45.34079647546443" lon="7.654585685930888"><ele>332.0</ele><time>2026-05-02T12:17:54Z</time></trkpt><trkpt lat="45.34076267233454" lon="7.654760711831227"><ele>332.0</ele><time>2026-05-02T12:17:55Z</time></trkpt><trkpt lat="45.34083343615222" lon="7.654892529738236"><ele>332.0</ele><time>2026-05-02T12:17:56Z</time></trkpt><trkpt lat="45.34083452878697" lon="7.65502100542176"><ele>332.0</ele><time>2026-05-02T12:17:57Z</time></trkpt><trkpt lat="45.34084007494944" lon="7.655144149823966"><ele>332.0</ele><time>2026-05-02T12:17:58Z</time></trkpt><trkpt lat="45.34083821552783" lon="7.655247951229847"><ele>332.0</ele><time>2026-05-02T12:17:59Z</time></trkpt><trkpt lat="45.340840691768875" lon="7.655382809717284"><ele>332.0</ele><time>2026-05-02T12:18:01Z</time></trkpt><trkpt lat="45.34065375750386" lon="7.6554497393555865"><ele>332.0</ele><time>2026-05-02T12:18:41Z</time></trkpt><trkpt lat="45.340542423079306" lon="7.655423281280127"><ele>332.0</ele><time>2026-05-02T12:18:42Z</time></trkpt><trkpt lat="45.34042379871414" lon="7.655394858223547"><ele>332.0</ele><time>2026-05-02T12:18:43Z</time></trkpt><trkpt lat="45.340298777993745" lon="7.655377664330946"><ele>332.0</ele><time>2026-05-02T12:18:44Z</time></trkpt><trkpt lat="45.340154748139476" lon="7.655356460653154"><ele>332.0</ele><time>2026-05-02T12:18:45Z</time></trkpt><trkpt lat="45.34000430828688" lon="7.6553335266095095"><ele>332.0</ele><time>2026-05-02T12:18:46Z</time></trkpt><trkpt lat="45.33985671170176" lon="7.655306873438385"><ele>332.0</ele><time>2026-05-02T12:18:47Z</time></trkpt><trkpt lat="45.339706003934616" lon="7.655278014428352"><ele>331.0</ele><time>2026-05-02T12:18:48Z</time></trkpt><trkpt lat="45.339549505199734" lon="7.655257240925544"><ele>330.0</ele><time>2026-05-02T12:18:49Z</time></trkpt><trkpt lat="45.33939734665735" lon="7.65524442162618"><ele>329.0</ele><time>2026-05-02T12:18:50Z</time></trkpt><trkpt lat="45.339236236857175" lon="7.655216712285979"><ele>329.0</ele><time>2026-05-02T12:18:51Z</time></trkpt><trkpt lat="45.33908326872221" lon="7.655191208892188"><ele>329.0</ele><time>2026-05-02T12:18:52Z</time></trkpt><trkpt lat="45.33893090350867" lon="7.655165194132362"><ele>329.0</ele><time>2026-05-02T12:18:53Z</time></trkpt><trkpt lat="45.33877742260075" lon="7.655140081155605"><ele>328.33333333333337</ele><time>2026-05-02T12:18:54Z</time></trkpt><trkpt lat="45.33862965550229" lon="7.655115828814578"><ele>327.6666666666667</ele><time>2026-05-02T12:18:55Z</time></trkpt><trkpt lat="45.33847039393926" lon="7.655091010065048"><ele>327.0</ele><time>2026-05-02T12:18:56Z</time></trkpt><trkpt lat="45.33831315296377" lon="7.655059638378335"><ele>327.0</ele><time>2026-05-02T12:18:57Z</time></trkpt><trkpt lat="45.33815389996985" lon="7.655038694332806"><ele>327.0</ele><time>2026-05-02T12:18:58Z</time></trkpt><trkpt lat="45.33800011604006" lon="7.655015815810267"><ele>327.0</ele><time>2026-05-02T12:18:59Z</time></trkpt><trkpt lat="45.337837583902434" lon="7.6549879969516095"><ele>327.3333333333333</ele><time>2026-05-02T12:19:00Z</time></trkpt><trkpt lat="45.337662360966675" lon="7.6549576108761395"><ele>327.66666666666663</ele><time>2026-05-02T12:19:01Z</time></trkpt><trkpt lat="45.33748999450319" lon="7.654930375685323"><ele>328.0</ele><time>2026-05-02T12:19:02Z</time></trkpt><trkpt lat="45.33731840195196" lon="7.654906567166744"><ele>328.0</ele><time>2026-05-02T12:19:03Z</time></trkpt><trkpt lat="45.33714643039674" lon="7.654877667282169"><ele>328.0</ele><time>2026-05-02T12:19:04Z</time></trkpt><trkpt lat="45.336974138240734" lon="7.654846541887967"><ele>328.0</ele><time>2026-05-02T12:19:05Z</time></trkpt><trkpt lat="45.33679579345836" lon="7.654819316741127"><ele>328.0</ele><time>2026-05-02T12:19:06Z</time></trkpt><trkpt lat="45.336617431149755" lon="7.654793251722691"><ele>328.0</ele><time>2026-05-02T12:19:07Z</time></trkpt><trkpt lat="45.33644174116784" lon="7.654753487637362"><ele>328.0</ele><time>2026-05-02T12:19:08Z</time></trkpt><trkpt lat="45.33626890137592" lon="7.654733216648332"><ele>327.0</ele><time>2026-05-02T12:19:09Z</time></trkpt><trkpt lat="45.33609473312564" lon="7.654710109104915"><ele>326.0</ele><time>2026-05-02T12:19:10Z</time></trkpt><trkpt lat="45.33591960808346" lon="7.654684353793123"><ele>325.0</ele><time>2026-05-02T12:19:11Z</time></trkpt><trkpt lat="45.33574448106227" lon="7.6546557537059075"><ele>325.0</ele><time>2026-05-02T12:19:12Z</time></trkpt><trkpt lat="45.33557519734242" lon="7.65462567259326"><ele>325.0</ele><time>2026-05-02T12:19:13Z</time></trkpt><trkpt lat="45.335402497995645" lon="7.654596293598456"><ele>325.0</ele><time>2026-05-02T12:19:14Z</time></trkpt><trkpt lat="45.33521877003853" lon="7.654562660955538"><ele>325.0</ele><time>2026-05-02T12:19:15Z</time></trkpt><trkpt lat="45.335023838750004" lon="7.654532341848196"><ele>325.0</ele><time>2026-05-02T12:19:16Z</time></trkpt><trkpt lat="45.33485346339621" lon="7.654502626041789"><ele>325.0</ele><time>2026-05-02T12:19:17Z</time></trkpt><trkpt lat="45.33469707853638" lon="7.654481551909671"><ele>325.0</ele><time>2026-05-02T12:19:18Z</time></trkpt><trkpt lat="45.33455378565747" lon="7.654471561517353"><ele>325.0</ele><time>2026-05-02T12:19:19Z</time></trkpt><trkpt lat="45.334423661723974" lon="7.654476771220383"><ele>325.0</ele><time>2026-05-02T12:19:20Z</time></trkpt><trkpt lat="45.33430090151614" lon="7.654496035803968"><ele>325.0</ele><time>2026-05-02T12:19:21Z</time></trkpt><trkpt lat="45.33418987601536" lon="7.654515297792187"><ele>325.0</ele><time>2026-05-02T12:19:22Z</time></trkpt><trkpt lat="45.33408285322364" lon="7.65451205929383"><ele>325.0</ele><time>2026-05-02T12:19:23Z</time></trkpt><trkpt lat="45.33399238335318" lon="7.654443964765091"><ele>325.0</ele><time>2026-05-02T12:19:24Z</time></trkpt><trkpt lat="45.33387030053086" lon="7.654411118156589"><ele>325.0</ele><time>2026-05-02T12:19:25Z</time></trkpt><trkpt lat="45.33372036922837" lon="7.654351112441227"><ele>324.3333333333333</ele><time>2026-05-02T12:19:26Z</time></trkpt><trkpt lat="45.333564855682795" lon="7.654307578750647"><ele>323.6666666666667</ele><time>2026-05-02T12:19:27Z</time></trkpt><trkpt lat="45.33339643461011" lon="7.654286169726405"><ele>323.0</ele><time>2026-05-02T12:19:28Z</time></trkpt><trkpt lat="45.33321756424904" lon="7.654238575107572"><ele>322.33333333333337</ele><time>2026-05-02T12:19:29Z</time></trkpt><trkpt lat="45.33303732084296" lon="7.654208970281186"><ele>321.6666666666667</ele><time>2026-05-02T12:19:30Z</time></trkpt><trkpt lat="45.33285720237939" lon="7.65417938800415"><ele>321.0</ele><time>2026-05-02T12:19:31Z</time></trkpt><trkpt lat="45.33268112767235" lon="7.654150467900102"><ele>321.0</ele><time>2026-05-02T12:19:32Z</time></trkpt><trkpt lat="45.33249975969467" lon="7.654120678370124"><ele>321.0</ele><time>2026-05-02T12:19:33Z</time></trkpt><trkpt lat="45.332318267868615" lon="7.654090869405524"><ele>321.0</ele><time>2026-05-02T12:19:34Z</time></trkpt><trkpt lat="45.33213124254453" lon="7.654059621845819"><ele>320.3333333333333</ele><time>2026-05-02T12:19:35Z</time></trkpt><trkpt lat="45.331951401803714" lon="7.654030163575591"><ele>319.66666666666663</ele><time>2026-05-02T12:19:36Z</time></trkpt><trkpt lat="45.33176374300119" lon="7.654023048067719"><ele>319.0</ele><time>2026-05-02T12:19:37Z</time></trkpt><trkpt lat="45.33157815166005" lon="7.653968731862928"><ele>319.3333333333333</ele><time>2026-05-02T12:19:38Z</time></trkpt><trkpt lat="45.33138742671599" lon="7.653960101835282"><ele>319.6666666666667</ele><time>2026-05-02T12:19:39Z</time></trkpt><trkpt lat="45.33120088569888" lon="7.653907866492761"><ele>320.0</ele><time>2026-05-02T12:19:40Z</time></trkpt><trkpt lat="45.33100671255506" lon="7.653898967816984"><ele>320.0</ele><time>2026-05-02T12:19:41Z</time></trkpt><trkpt lat="45.330834295725104" lon="7.6538711514980085"><ele>320.0</ele><time>2026-05-02T12:19:42Z</time></trkpt><trkpt lat="45.330677169854575" lon="7.653823256733459"><ele>320.0</ele><time>2026-05-02T12:19:43Z</time></trkpt><trkpt lat="45.33053325833687" lon="7.65380000686823"><ele>320.0</ele><time>2026-05-02T12:19:44Z</time></trkpt><trkpt lat="45.3304007774885" lon="7.653788531413318"><ele>320.0</ele><time>2026-05-02T12:19:45Z</time></trkpt><trkpt lat="45.33028802886806" lon="7.653740118045188"><ele>320.0</ele><time>2026-05-02T12:19:46Z</time></trkpt><trkpt lat="45.330206475037386" lon="7.653665782429538"><ele>320.0</ele><time>2026-05-02T12:19:47Z</time></trkpt><trkpt lat="45.33014253269854" lon="7.653513566389871"><ele>319.0</ele><time>2026-05-02T12:19:48Z</time></trkpt><trkpt lat="45.33006151977248" lon="7.653321273525158"><ele>318.0</ele><time>2026-05-02T12:19:49Z</time></trkpt><trkpt lat="45.32996505351107" lon="7.653135156043288"><ele>317.0</ele><time>2026-05-02T12:19:50Z</time></trkpt><trkpt lat="45.3298866236927" lon="7.652944657846194"><ele>316.33333333333337</ele><time>2026-05-02T12:19:51Z</time></trkpt><trkpt lat="45.32980352044453" lon="7.652760028382925"><ele>315.6666666666667</ele><time>2026-05-02T12:19:52Z</time></trkpt><trkpt lat="45.329723849391804" lon="7.652561186051628"><ele>315.0</ele><time>2026-05-02T12:19:53Z</time></trkpt><trkpt lat="45.32963990884127" lon="7.652368796097481"><ele>314.6666666666667</ele><time>2026-05-02T12:19:54Z</time></trkpt><trkpt lat="45.32955596917837" lon="7.652176289464828"><ele>314.33333333333337</ele><time>2026-05-02T12:19:55Z</time></trkpt><trkpt lat="45.329468513351955" lon="7.651990386791516"><ele>314.0</ele><time>2026-05-02T12:19:56Z</time></trkpt><trkpt lat="45.32940119224438" lon="7.651813627778811"><ele>314.5</ele><time>2026-05-02T12:19:57Z</time></trkpt><trkpt lat="45.329302187120106" lon="7.651687014280599"><ele>315.0</ele><time>2026-05-02T12:19:58Z</time></trkpt><trkpt lat="45.32920392163183" lon="7.651566909648534"><ele>315.5</ele><time>2026-05-02T12:19:59Z</time></trkpt><trkpt lat="45.329106844880286" lon="7.6514752933247"><ele>316.0</ele><time>2026-05-02T12:20:00Z</time></trkpt><trkpt lat="45.32904031146573" lon="7.651389654143728"><ele>316.0</ele><time>2026-05-02T12:20:01Z</time></trkpt><trkpt lat="45.32901255857375" lon="7.651291491356836"><ele>316.0</ele><time>2026-05-02T12:20:02Z</time></trkpt><trkpt lat="45.32904885491144" lon="7.6511335968926835"><ele>316.0</ele><time>2026-05-02T12:20:03Z</time></trkpt><trkpt lat="45.329070393109376" lon="7.650940534361188"><ele>316.0</ele><time>2026-05-02T12:20:04Z</time></trkpt><trkpt lat="45.32908798891333" lon="7.650721089380418"><ele>316.0</ele><time>2026-05-02T12:20:05Z</time></trkpt><trkpt lat="45.32911489091247" lon="7.650495749406964"><ele>316.0</ele><time>2026-05-02T12:20:06Z</time></trkpt><trkpt lat="45.329140744053646" lon="7.650258816219027"><ele>316.0</ele><time>2026-05-02T12:20:07Z</time></trkpt><trkpt lat="45.32916772632379" lon="7.650022579331056"><ele>317.0</ele><time>2026-05-02T12:20:08Z</time></trkpt><trkpt lat="45.329198267279374" lon="7.649783036808168"><ele>318.0</ele><time>2026-05-02T12:20:09Z</time></trkpt><trkpt lat="45.32922516095302" lon="7.6495321372998255"><ele>319.0</ele><time>2026-05-02T12:20:10Z</time></trkpt><trkpt lat="45.32925632237057" lon="7.649282204744011"><ele>319.3333333333333</ele><time>2026-05-02T12:20:11Z</time></trkpt><trkpt lat="45.32928528079337" lon="7.649040524481256"><ele>319.6666666666667</ele><time>2026-05-02T12:20:12Z</time></trkpt><trkpt lat="45.32932225900827" lon="7.648795177086079"><ele>320.0</ele><time>2026-05-02T12:20:13Z</time></trkpt><trkpt lat="45.32935988597988" lon="7.648558347910515"><ele>320.6666666666667</ele><time>2026-05-02T12:20:14Z</time></trkpt><trkpt lat="45.32942571641827" lon="7.648319316661741"><ele>321.3333333333333</ele><time>2026-05-02T12:20:15Z</time></trkpt><trkpt lat="45.32948024509351" lon="7.648057351547809"><ele>322.0</ele><time>2026-05-02T12:20:16Z</time></trkpt><trkpt lat="45.32952828411517" lon="7.64781171306478"><ele>322.0</ele><time>2026-05-02T12:20:17Z</time></trkpt><trkpt lat="45.32956927570615" lon="7.647576828646954"><ele>322.0</ele><time>2026-05-02T12:20:18Z</time></trkpt><trkpt lat="45.32960560683897" lon="7.647348479712"><ele>322.0</ele><time>2026-05-02T12:20:19Z</time></trkpt><trkpt lat="45.32961539328511" lon="7.647127805749276"><ele>322.0</ele><time>2026-05-02T12:20:20Z</time></trkpt><trkpt lat="45.32963561632765" lon="7.646940052261928"><ele>322.0</ele><time>2026-05-02T12:20:21Z</time></trkpt><trkpt lat="45.329628285541496" lon="7.6467319046337705"><ele>322.0</ele><time>2026-05-02T12:20:22Z</time></trkpt><trkpt lat="45.329601974166216" lon="7.64651926374239"><ele>322.0</ele><time>2026-05-02T12:20:23Z</time></trkpt><trkpt lat="45.3295392429052" lon="7.6462846803311075"><ele>322.3333333333333</ele><time>2026-05-02T12:20:24Z</time></trkpt><trkpt lat="45.32948266241032" lon="7.64606423104592"><ele>322.6666666666667</ele><time>2026-05-02T12:20:25Z</time></trkpt><trkpt lat="45.32942955388773" lon="7.645856253950683"><ele>323.0</ele><time>2026-05-02T12:20:26Z</time></trkpt><trkpt lat="45.32938383326327" lon="7.645675216261843"><ele>323.0</ele><time>2026-05-02T12:20:27Z</time></trkpt><trkpt lat="45.3293362476246" lon="7.645512585530101"><ele>323.0</ele><time>2026-05-02T12:20:28Z</time></trkpt><trkpt lat="45.329293023835405" lon="7.6453624997197505"><ele>323.0</ele><time>2026-05-02T12:20:29Z</time></trkpt><trkpt lat="45.32924659156463" lon="7.645204270816624"><ele>323.0</ele><time>2026-05-02T12:20:30Z</time></trkpt><trkpt lat="45.32920254814663" lon="7.64502737895221"><ele>324.0</ele><time>2026-05-02T12:20:31Z</time></trkpt><trkpt lat="45.329167371121315" lon="7.644842362656038"><ele>325.0</ele><time>2026-05-02T12:20:32Z</time></trkpt><trkpt lat="45.32914025200501" lon="7.644679025920681"><ele>326.0</ele><time>2026-05-02T12:20:33Z</time></trkpt><trkpt lat="45.329117958183616" lon="7.644534051645937"><ele>327.0</ele><time>2026-05-02T12:20:34Z</time></trkpt><trkpt lat="45.32910537710703" lon="7.644415702748381"><ele>328.0</ele><time>2026-05-02T12:20:35Z</time></trkpt><trkpt lat="45.329077902387056" lon="7.644313426299005"><ele>328.4</ele><time>2026-05-02T12:20:36Z</time></trkpt><trkpt lat="45.32906277746459" lon="7.64415071785909"><ele>328.79999999999995</ele><time>2026-05-02T12:20:38Z</time></trkpt><trkpt lat="45.329058422507934" lon="7.644050891257852"><ele>329.2</ele><time>2026-05-02T12:20:39Z</time></trkpt><trkpt lat="45.32904980226245" lon="7.64392685377501"><ele>329.6</ele><time>2026-05-02T12:20:40Z</time></trkpt><trkpt lat="45.329034438523685" lon="7.643795838890553"><ele>330.0</ele><time>2026-05-02T12:20:41Z</time></trkpt><trkpt lat="45.32900217649449" lon="7.64367022788667"><ele>330.0</ele><time>2026-05-02T12:20:42Z</time></trkpt><trkpt lat="45.32901958201557" lon="7.643504204482907"><ele>330.0</ele><time>2026-05-02T12:20:43Z</time></trkpt><trkpt lat="45.329026327459836" lon="7.643326218049909"><ele>330.0</ele><time>2026-05-02T12:20:44Z</time></trkpt><trkpt lat="45.32902290076659" lon="7.6431418607850645"><ele>330.0</ele><time>2026-05-02T12:20:45Z</time></trkpt><trkpt lat="45.3290343659825" lon="7.642959514315385"><ele>330.25</ele><time>2026-05-02T12:20:46Z</time></trkpt><trkpt lat="45.32903443739242" lon="7.642743259118922"><ele>330.5</ele><time>2026-05-02T12:20:47Z</time></trkpt><trkpt lat="45.32903612798998" lon="7.642518642615268"><ele>330.75</ele><time>2026-05-02T12:20:48Z</time></trkpt><trkpt lat="45.32903926952373" lon="7.642321921619938"><ele>331.0</ele><time>2026-05-02T12:20:49Z</time></trkpt><trkpt lat="45.32904691102146" lon="7.6421294854911554"><ele>331.75</ele><time>2026-05-02T12:20:50Z</time></trkpt><trkpt lat="45.32905426532853" lon="7.641915669795504"><ele>332.5</ele><time>2026-05-02T12:20:51Z</time></trkpt><trkpt lat="45.32906303921044" lon="7.641713209694492"><ele>333.25</ele><time>2026-05-02T12:20:52Z</time></trkpt><trkpt lat="45.32905919249307" lon="7.641514560457421"><ele>334.0</ele><time>2026-05-02T12:20:53Z</time></trkpt><trkpt lat="45.329050213332515" lon="7.641329809868865"><ele>334.0</ele><time>2026-05-02T12:20:54Z</time></trkpt><trkpt lat="45.3290369707818" lon="7.641134368046919"><ele>334.0</ele><time>2026-05-02T12:20:55Z</time></trkpt><trkpt lat="45.32902825295931" lon="7.640941575721334"><ele>334.0</ele><time>2026-05-02T12:20:56Z</time></trkpt><trkpt lat="45.32902324482281" lon="7.640755420932006"><ele>334.0</ele><time>2026-05-02T12:20:57Z</time></trkpt><trkpt lat="45.32901460647087" lon="7.640566453908597"><ele>334.25</ele><time>2026-05-02T12:20:58Z</time></trkpt><trkpt lat="45.329006295983895" lon="7.640385472411053"><ele>334.5</ele><time>2026-05-02T12:20:59Z</time></trkpt><trkpt lat="45.32899294013423" lon="7.6402049423176575"><ele>334.75</ele><time>2026-05-02T12:21:00Z</time></trkpt><trkpt lat="45.32899166787623" lon="7.640006847764361"><ele>335.0</ele><time>2026-05-02T12:21:01Z</time></trkpt><trkpt lat="45.32899281767532" lon="7.63983107203066"><ele>335.4</ele><time>2026-05-02T12:21:02Z</time></trkpt><trkpt lat="45.32900139047117" lon="7.639673274969412"><ele>335.8</ele><time>2026-05-02T12:21:03Z</time></trkpt><trkpt lat="45.32903854178252" lon="7.639534043341057"><ele>336.20000000000005</ele><time>2026-05-02T12:21:04Z</time></trkpt><trkpt lat="45.32907738152472" lon="7.639406559412567"><ele>336.6</ele><time>2026-05-02T12:21:05Z</time></trkpt><trkpt lat="45.32912457035269" lon="7.639317949076874"><ele>337.0</ele><time>2026-05-02T12:21:06Z</time></trkpt><trkpt lat="45.329080112728334" lon="7.639146811479482"><ele>337.40000000000003</ele><time>2026-05-02T12:21:09Z</time></trkpt><trkpt lat="45.32899242920259" lon="7.63902493754849"><ele>337.8</ele><time>2026-05-02T12:21:11Z</time></trkpt><trkpt lat="45.32896985964683" lon="7.638932033820248"><ele>338.2</ele><time>2026-05-02T12:21:12Z</time></trkpt><trkpt lat="45.32894444585725" lon="7.638818278319509"><ele>338.6</ele><time>2026-05-02T12:21:13Z</time></trkpt><trkpt lat="45.328908859932554" lon="7.638707211567875"><ele>339.0</ele><time>2026-05-02T12:21:14Z</time></trkpt><trkpt lat="45.328879779217395" lon="7.638582401904464"><ele>339.1666666666667</ele><time>2026-05-02T12:21:16Z</time></trkpt><trkpt lat="45.32882156605235" lon="7.638467465343445"><ele>339.3333333333333</ele><time>2026-05-02T12:21:55Z</time></trkpt><trkpt lat="45.32877561911138" lon="7.638379952252262"><ele>339.5</ele><time>2026-05-02T12:21:56Z</time></trkpt><trkpt lat="45.328721404512805" lon="7.638291312969829"><ele>339.66666666666663</ele><time>2026-05-02T12:21:57Z</time></trkpt><trkpt lat="45.32864305827911" lon="7.638214412708563"><ele>339.8333333333333</ele><time>2026-05-02T12:21:58Z</time></trkpt><trkpt lat="45.328571644886075" lon="7.638152723653066"><ele>340.0</ele><time>2026-05-02T12:21:59Z</time></trkpt><trkpt lat="45.328497984937236" lon="7.6380716239967485"><ele>340.0</ele><time>2026-05-02T12:22:00Z</time></trkpt><trkpt lat="45.328419402749" lon="7.637978382836343"><ele>340.0</ele><time>2026-05-02T12:22:01Z</time></trkpt><trkpt lat="45.328335466442276" lon="7.637875580056099"><ele>340.0</ele><time>2026-05-02T12:22:02Z</time></trkpt><trkpt lat="45.328234618103494" lon="7.63778011935823"><ele>340.0</ele><time>2026-05-02T12:22:03Z</time></trkpt><trkpt lat="45.328129560522086" lon="7.637678110564706"><ele>339.75</ele><time>2026-05-02T12:22:04Z</time></trkpt><trkpt lat="45.32802396820669" lon="7.6375726184839134"><ele>339.5</ele><time>2026-05-02T12:22:05Z</time></trkpt><trkpt lat="45.32793264956877" lon="7.63746721220527"><ele>339.25</ele><time>2026-05-02T12:22:06Z</time></trkpt><trkpt lat="45.327837852947376" lon="7.637376446380664"><ele>339.0</ele><time>2026-05-02T12:22:07Z</time></trkpt><trkpt lat="45.327771007758145" lon="7.6372502124806685"><ele>339.0</ele><time>2026-05-02T12:22:08Z</time></trkpt><trkpt lat="45.32769811026418" lon="7.63712446251131"><ele>339.0</ele><time>2026-05-02T12:22:09Z</time></trkpt><trkpt lat="45.32762132704144" lon="7.636984666588004"><ele>339.0</ele><time>2026-05-02T12:22:10Z</time></trkpt><trkpt lat="45.327542566228374" lon="7.636842065435681"><ele>339.0</ele><time>2026-05-02T12:22:11Z</time></trkpt><trkpt lat="45.32745257330362" lon="7.636721757679926"><ele>339.25</ele><time>2026-05-02T12:22:12Z</time></trkpt><trkpt lat="45.32737871311721" lon="7.636587089030248"><ele>339.5</ele><time>2026-05-02T12:22:13Z</time></trkpt><trkpt lat="45.3272858250724" lon="7.636461835165099"><ele>339.75</ele><time>2026-05-02T12:22:14Z</time></trkpt><trkpt lat="45.327190707468034" lon="7.6363053404521954"><ele>340.0</ele><time>2026-05-02T12:22:15Z</time></trkpt><trkpt lat="45.32707219988217" lon="7.636178664455243"><ele>339.8</ele><time>2026-05-02T12:22:16Z</time></trkpt><trkpt lat="45.326986243668266" lon="7.63603643082151"><ele>339.6</ele><time>2026-05-02T12:22:17Z</time></trkpt><trkpt lat="45.326929350714195" lon="7.635904410986082"><ele>339.4</ele><time>2026-05-02T12:22:18Z</time></trkpt><trkpt lat="45.326870601246334" lon="7.635822723542165"><ele>339.2</ele><time>2026-05-02T12:22:19Z</time></trkpt><trkpt lat="45.326830769887565" lon="7.635729036276659"><ele>339.0</ele><time>2026-05-02T12:22:20Z</time></trkpt><trkpt lat="45.32678521454543" lon="7.6356397754439955"><ele>339.0</ele><time>2026-05-02T12:22:22Z</time></trkpt><trkpt lat="45.326719667509295" lon="7.635661696364897"><ele>339.0</ele><time>2026-05-02T12:22:37Z</time></trkpt><trkpt lat="45.326597731131024" lon="7.635801598883849"><ele>339.0</ele><time>2026-05-02T12:22:39Z</time></trkpt><trkpt lat="45.3265246329826" lon="7.6359081114878515"><ele>339.0</ele><time>2026-05-02T12:22:40Z</time></trkpt><trkpt lat="45.32642379699355" lon="7.635978322515862"><ele>339.0</ele><time>2026-05-02T12:22:41Z</time></trkpt><trkpt lat="45.326330451880985" lon="7.636079920245251"><ele>338.5</ele><time>2026-05-02T12:22:42Z</time></trkpt><trkpt lat="45.32622491588147" lon="7.63619478675536"><ele>338.0</ele><time>2026-05-02T12:22:43Z</time></trkpt><trkpt lat="45.32612000116321" lon="7.6363089771088815"><ele>337.5</ele><time>2026-05-02T12:22:44Z</time></trkpt><trkpt lat="45.32600887666724" lon="7.63642399074671"><ele>337.0</ele><time>2026-05-02T12:22:45Z</time></trkpt><trkpt lat="45.325906632740555" lon="7.63652966817357"><ele>337.0</ele><time>2026-05-02T12:22:46Z</time></trkpt><trkpt lat="45.32583273066866" lon="7.636635446697174"><ele>337.0</ele><time>2026-05-02T12:22:47Z</time></trkpt><trkpt lat="45.32577224883962" lon="7.636691579594536"><ele>337.0</ele><time>2026-05-02T12:22:48Z</time></trkpt><trkpt lat="45.325690214341506" lon="7.636773337184503"><ele>337.0</ele><time>2026-05-02T12:22:50Z</time></trkpt><trkpt lat="45.32562155189774" lon="7.636849654880006"><ele>337.0</ele><time>2026-05-02T12:22:52Z</time></trkpt><trkpt lat="45.3255382383856" lon="7.636916923707474"><ele>336.5</ele><time>2026-05-02T12:22:54Z</time></trkpt><trkpt lat="45.32548989673863" lon="7.636994695482079"><ele>336.0</ele><time>2026-05-02T12:22:55Z</time></trkpt><trkpt lat="45.32543486705485" lon="7.637043817985816"><ele>335.5</ele><time>2026-05-02T12:22:56Z</time></trkpt><trkpt lat="45.325371673445915" lon="7.637099372900658"><ele>335.0</ele><time>2026-05-02T12:22:57Z</time></trkpt><trkpt lat="45.325310359273374" lon="7.637163366532882"><ele>334.5</ele><time>2026-05-02T12:22:58Z</time></trkpt><trkpt lat="45.32524434284231" lon="7.6372295525862475"><ele>334.0</ele><time>2026-05-02T12:22:59Z</time></trkpt><trkpt lat="45.32517588594689" lon="7.6373027852543425"><ele>334.0</ele><time>2026-05-02T12:23:00Z</time></trkpt><trkpt lat="45.32510048208483" lon="7.637373729344281"><ele>334.0</ele><time>2026-05-02T12:23:01Z</time></trkpt><trkpt lat="45.325017814381624" lon="7.6374630529938825"><ele>334.0</ele><time>2026-05-02T12:23:02Z</time></trkpt><trkpt lat="45.324933998604386" lon="7.637543255090764"><ele>334.0</ele><time>2026-05-02T12:23:03Z</time></trkpt><trkpt lat="45.32482158806251" lon="7.637576247528942"><ele>334.0</ele><time>2026-05-02T12:23:04Z</time></trkpt><trkpt lat="45.324681405417856" lon="7.637645085110054"><ele>333.25</ele><time>2026-05-02T12:23:05Z</time></trkpt><trkpt lat="45.32453725306175" lon="7.6377628878484085"><ele>332.5</ele><time>2026-05-02T12:23:06Z</time></trkpt><trkpt lat="45.32440236835527" lon="7.637831073413576"><ele>331.75</ele><time>2026-05-02T12:23:07Z</time></trkpt><trkpt lat="45.32427940120028" lon="7.637836208381499"><ele>331.0</ele><time>2026-05-02T12:23:08Z</time></trkpt><trkpt lat="45.32415373693631" lon="7.637803796350553"><ele>331.0</ele><time>2026-05-02T12:23:09Z</time></trkpt><trkpt lat="45.32402382409553" lon="7.637792203115346"><ele>331.0</ele><time>2026-05-02T12:23:10Z</time></trkpt><trkpt lat="45.32391373637909" lon="7.637823155789181"><ele>331.0</ele><time>2026-05-02T12:23:11Z</time></trkpt><trkpt lat="45.32379696366612" lon="7.637894537810884"><ele>331.0</ele><time>2026-05-02T12:23:12Z</time></trkpt><trkpt lat="45.32367481018277" lon="7.638004866299029"><ele>330.25</ele><time>2026-05-02T12:23:13Z</time></trkpt><trkpt lat="45.32357756165528" lon="7.638120799839169"><ele>329.5</ele><time>2026-05-02T12:23:14Z</time></trkpt><trkpt lat="45.323507009967486" lon="7.6382592582088655"><ele>328.75</ele><time>2026-05-02T12:23:15Z</time></trkpt><trkpt lat="45.323447877696175" lon="7.638444799925037"><ele>328.0</ele><time>2026-05-02T12:23:16Z</time></trkpt><trkpt lat="45.32337711516602" lon="7.638664465147197"><ele>327.66666666666663</ele><time>2026-05-02T12:23:17Z</time></trkpt><trkpt lat="45.3232869206141" lon="7.6388728092258535"><ele>327.3333333333333</ele><time>2026-05-02T12:23:18Z</time></trkpt><trkpt lat="45.323176565509186" lon="7.63909711499981"><ele>327.0</ele><time>2026-05-02T12:23:19Z</time></trkpt><trkpt lat="45.32305262838328" lon="7.639302836339221"><ele>326.6666666666667</ele><time>2026-05-02T12:23:20Z</time></trkpt><trkpt lat="45.32296519066242" lon="7.639499974202948"><ele>326.33333333333337</ele><time>2026-05-02T12:23:21Z</time></trkpt><trkpt lat="45.32286954832235" lon="7.639699689189308"><ele>326.0</ele><time>2026-05-02T12:23:22Z</time></trkpt><trkpt lat="45.32275335009927" lon="7.639930558976589"><ele>326.0</ele><time>2026-05-02T12:23:23Z</time></trkpt><trkpt lat="45.322640362534116" lon="7.640144596186134"><ele>326.0</ele><time>2026-05-02T12:23:24Z</time></trkpt><trkpt lat="45.322528177125164" lon="7.640319475810157"><ele>326.0</ele><time>2026-05-02T12:23:25Z</time></trkpt><trkpt lat="45.32240963568133" lon="7.640451014335206"><ele>326.33333333333337</ele><time>2026-05-02T12:23:26Z</time></trkpt><trkpt lat="45.3223107144291" lon="7.640607438806562"><ele>326.6666666666667</ele><time>2026-05-02T12:23:27Z</time></trkpt><trkpt lat="45.32220074486642" lon="7.640745937888304"><ele>327.0</ele><time>2026-05-02T12:23:28Z</time></trkpt><trkpt lat="45.32207000048426" lon="7.6408812147955"><ele>326.3333333333333</ele><time>2026-05-02T12:23:29Z</time></trkpt><trkpt lat="45.321946180156765" lon="7.64102986993198"><ele>325.66666666666663</ele><time>2026-05-02T12:23:30Z</time></trkpt><trkpt lat="45.32182167554115" lon="7.641176025496758"><ele>325.0</ele><time>2026-05-02T12:23:31Z</time></trkpt><trkpt lat="45.32169276091682" lon="7.641327358848271"><ele>324.0</ele><time>2026-05-02T12:23:32Z</time></trkpt><trkpt lat="45.321566232353156" lon="7.641483830088107"><ele>323.0</ele><time>2026-05-02T12:23:33Z</time></trkpt><trkpt lat="45.32145566261201" lon="7.6416601466220975"><ele>322.0</ele><time>2026-05-02T12:23:34Z</time></trkpt><trkpt lat="45.3213343344044" lon="7.641825041909006"><ele>321.66666666666663</ele><time>2026-05-02T12:23:35Z</time></trkpt><trkpt lat="45.32121768343208" lon="7.641988926018586"><ele>321.3333333333333</ele><time>2026-05-02T12:23:36Z</time></trkpt><trkpt lat="45.32110289993039" lon="7.64214149331676"><ele>321.0</ele><time>2026-05-02T12:23:37Z</time></trkpt><trkpt lat="45.32096905342084" lon="7.642268429087513"><ele>321.0</ele><time>2026-05-02T12:23:38Z</time></trkpt><trkpt lat="45.3208451490569" lon="7.642402215874416"><ele>321.0</ele><time>2026-05-02T12:23:39Z</time></trkpt><trkpt lat="45.320724013291766" lon="7.6425320304531565"><ele>321.0</ele><time>2026-05-02T12:23:40Z</time></trkpt><trkpt lat="45.320604126844" lon="7.642660506224106"><ele>320.8</ele><time>2026-05-02T12:23:41Z</time></trkpt><trkpt lat="45.32050021811734" lon="7.642771859562609"><ele>320.6</ele><time>2026-05-02T12:23:42Z</time></trkpt><trkpt lat="45.3204161413514" lon="7.6428848055568315"><ele>320.4</ele><time>2026-05-02T12:23:43Z</time></trkpt><trkpt lat="45.32032455287364" lon="7.642964428072987"><ele>320.2</ele><time>2026-05-02T12:23:44Z</time></trkpt><trkpt lat="45.320251252663574" lon="7.643027457769156"><ele>320.0</ele><time>2026-05-02T12:23:45Z</time></trkpt><trkpt lat="45.32018225077235" lon="7.643055928803625"><ele>320.0</ele><time>2026-05-02T12:23:46Z</time></trkpt><trkpt lat="45.32007942164851" lon="7.643043675793432"><ele>320.0</ele><time>2026-05-02T12:23:47Z</time></trkpt><trkpt lat="45.3199865711068" lon="7.642997660283401"><ele>320.0</ele><time>2026-05-02T12:23:48Z</time></trkpt><trkpt lat="45.319885284590846" lon="7.642943017672311"><ele>320.0</ele><time>2026-05-02T12:23:49Z</time></trkpt><trkpt lat="45.31977433624737" lon="7.642886007424153"><ele>320.0</ele><time>2026-05-02T12:23:50Z</time></trkpt><trkpt lat="45.31965625516867" lon="7.642829366461633"><ele>321.0</ele><time>2026-05-02T12:23:51Z</time></trkpt><trkpt lat="45.319527026490455" lon="7.642776057251166"><ele>322.0</ele><time>2026-05-02T12:23:52Z</time></trkpt><trkpt lat="45.319386600788086" lon="7.64273787792997"><ele>323.0</ele><time>2026-05-02T12:23:53Z</time></trkpt><trkpt lat="45.31924027260065" lon="7.6427237566644575"><ele>324.0</ele><time>2026-05-02T12:23:54Z</time></trkpt><trkpt lat="45.3190992810409" lon="7.642688025015788"><ele>324.0</ele><time>2026-05-02T12:23:55Z</time></trkpt><trkpt lat="45.31895597182249" lon="7.642674624818692"><ele>324.0</ele><time>2026-05-02T12:23:56Z</time></trkpt><trkpt lat="45.31883412361892" lon="7.6426628303976765"><ele>324.0</ele><time>2026-05-02T12:23:57Z</time></trkpt><trkpt lat="45.318724693234635" lon="7.642652237974843"><ele>324.0</ele><time>2026-05-02T12:23:58Z</time></trkpt><trkpt lat="45.318630820689435" lon="7.642642522300536"><ele>322.8</ele><time>2026-05-02T12:23:59Z</time></trkpt><trkpt lat="45.31854484715506" lon="7.642647467107648"><ele>321.59999999999997</ele><time>2026-05-02T12:24:00Z</time></trkpt><trkpt lat="45.31846465500953" lon="7.6426133178061955"><ele>320.4</ele><time>2026-05-02T12:24:01Z</time></trkpt><trkpt lat="45.318390088787595" lon="7.642563389241683"><ele>319.2</ele><time>2026-05-02T12:24:02Z</time></trkpt><trkpt lat="45.31832857419286" lon="7.642454443688121"><ele>318.0</ele><time>2026-05-02T12:24:03Z</time></trkpt><trkpt lat="45.31825360342951" lon="7.642337494515278"><ele>318.0</ele><time>2026-05-02T12:24:04Z</time></trkpt><trkpt lat="45.31817971605299" lon="7.642210151894506"><ele>318.0</ele><time>2026-05-02T12:24:05Z</time></trkpt><trkpt lat="45.31810713711374" lon="7.6420680524919975"><ele>318.0</ele><time>2026-05-02T12:24:06Z</time></trkpt><trkpt lat="45.318044110047474" lon="7.641910354394723"><ele>318.0</ele><time>2026-05-02T12:24:07Z</time></trkpt><trkpt lat="45.31796874598374" lon="7.641747791506699"><ele>317.75</ele><time>2026-05-02T12:24:08Z</time></trkpt><trkpt lat="45.31790918709288" lon="7.6415869578599915"><ele>317.5</ele><time>2026-05-02T12:24:09Z</time></trkpt><trkpt lat="45.31785098137646" lon="7.641408943477821"><ele>317.25</ele><time>2026-05-02T12:24:10Z</time></trkpt><trkpt lat="45.31779162521206" lon="7.641229142460946"><ele>317.0</ele><time>2026-05-02T12:24:11Z</time></trkpt><trkpt lat="45.317730950702625" lon="7.641051050877936"><ele>317.0</ele><time>2026-05-02T12:24:12Z</time></trkpt><trkpt lat="45.31767030857629" lon="7.640876581973899"><ele>317.0</ele><time>2026-05-02T12:24:13Z</time></trkpt><trkpt lat="45.31761070827379" lon="7.640708543631637"><ele>317.0</ele><time>2026-05-02T12:24:14Z</time></trkpt><trkpt lat="45.31755637633179" lon="7.640567119106563"><ele>317.0</ele><time>2026-05-02T12:24:15Z</time></trkpt><trkpt lat="45.31749416340604" lon="7.6404370849807375"><ele>317.0</ele><time>2026-05-02T12:24:16Z</time></trkpt><trkpt lat="45.31741604264547" lon="7.640315039037654"><ele>317.0</ele><time>2026-05-02T12:24:17Z</time></trkpt><trkpt lat="45.31733109400605" lon="7.640208662100835"><ele>317.0</ele><time>2026-05-02T12:24:18Z</time></trkpt><trkpt lat="45.3172442340228" lon="7.640127482234268"><ele>317.0</ele><time>2026-05-02T12:24:19Z</time></trkpt><trkpt lat="45.31715219326895" lon="7.64006536400744"><ele>317.0</ele><time>2026-05-02T12:24:20Z</time></trkpt><trkpt lat="45.317037435062836" lon="7.640015029098482"><ele>316.5</ele><time>2026-05-02T12:24:21Z</time></trkpt><trkpt lat="45.31692132598462" lon="7.639959641942921"><ele>316.0</ele><time>2026-05-02T12:24:22Z</time></trkpt><trkpt lat="45.31680554807464" lon="7.639898384766922"><ele>315.5</ele><time>2026-05-02T12:24:23Z</time></trkpt><trkpt lat="45.31669686499213" lon="7.639827902732648"><ele>315.0</ele><time>2026-05-02T12:24:24Z</time></trkpt><trkpt lat="45.316594106060805" lon="7.639755174011185"><ele>315.0</ele><time>2026-05-02T12:24:25Z</time></trkpt><trkpt lat="45.31650013062124" lon="7.639688661910215"><ele>315.0</ele><time>2026-05-02T12:24:26Z</time></trkpt><trkpt lat="45.31639826339949" lon="7.639619391346626"><ele>315.0</ele><time>2026-05-02T12:24:27Z</time></trkpt><trkpt lat="45.31629208898833" lon="7.639551688108395"><ele>315.0</ele><time>2026-05-02T12:24:28Z</time></trkpt><trkpt lat="45.31617918822612" lon="7.639480465574536"><ele>315.0</ele><time>2026-05-02T12:24:29Z</time></trkpt><trkpt lat="45.31606591530194" lon="7.639413501060793"><ele>315.0</ele><time>2026-05-02T12:24:30Z</time></trkpt><trkpt lat="45.31595797091349" lon="7.6393772816222"><ele>315.0</ele><time>2026-05-02T12:24:31Z</time></trkpt><trkpt lat="45.315876273848794" lon="7.639321463286966"><ele>315.0</ele><time>2026-05-02T12:24:32Z</time></trkpt><trkpt lat="45.31582115690203" lon="7.639266690421554"><ele>315.0</ele><time>2026-05-02T12:24:33Z</time></trkpt><trkpt lat="45.3157618799209" lon="7.6392054938849805"><ele>315.0</ele><time>2026-05-02T12:24:34Z</time></trkpt><trkpt lat="45.3157178819735" lon="7.63911365008556"><ele>315.0</ele><time>2026-05-02T12:24:35Z</time></trkpt><trkpt lat="45.3156682756726" lon="7.639015562522492"><ele>315.0</ele><time>2026-05-02T12:24:37Z</time></trkpt><trkpt lat="45.315590467393605" lon="7.639004643791273"><ele>315.0</ele><time>2026-05-02T12:24:41Z</time></trkpt><trkpt lat="45.31565665450345" lon="7.638994681446384"><ele>315.0</ele><time>2026-05-02T12:24:44Z</time></trkpt><trkpt lat="45.31570820698043" lon="7.639087310715805"><ele>315.0</ele><time>2026-05-02T12:24:46Z</time></trkpt><trkpt lat="45.315781920837715" lon="7.639219759104896"><ele>315.0</ele><time>2026-05-02T12:24:48Z</time></trkpt><trkpt lat="45.315853402254845" lon="7.6392867657841865"><ele>315.0</ele><time>2026-05-02T12:24:50Z</time></trkpt><trkpt lat="45.315692958086416" lon="7.639579278964563"><ele>315.0</ele><time>2026-05-02T12:24:53Z</time></trkpt><trkpt lat="45.31561786237019" lon="7.63966010746947"><ele>315.0</ele><time>2026-05-02T12:24:54Z</time></trkpt><trkpt lat="45.31554556073556" lon="7.639749477628596"><ele>314.2</ele><time>2026-05-02T12:24:55Z</time></trkpt><trkpt lat="45.31546978502934" lon="7.639841828980367"><ele>313.4</ele><time>2026-05-02T12:24:56Z</time></trkpt><trkpt lat="45.3153967364709" lon="7.639929295326949"><ele>312.6</ele><time>2026-05-02T12:24:57Z</time></trkpt><trkpt lat="45.31532952193928" lon="7.640008362291362"><ele>311.8</ele><time>2026-05-02T12:24:58Z</time></trkpt><trkpt lat="45.31525042710899" lon="7.640088516209485"><ele>311.0</ele><time>2026-05-02T12:24:59Z</time></trkpt><trkpt lat="45.31517555504554" lon="7.640172189688402"><ele>311.0</ele><time>2026-05-02T12:25:00Z</time></trkpt><trkpt lat="45.31510355418034" lon="7.64025779672672"><ele>311.0</ele><time>2026-05-02T12:25:01Z</time></trkpt><trkpt lat="45.315029740335646" lon="7.640346957341611"><ele>311.0</ele><time>2026-05-02T12:25:02Z</time></trkpt><trkpt lat="45.314952969212015" lon="7.6404401938007815"><ele>311.0</ele><time>2026-05-02T12:25:03Z</time></trkpt><trkpt lat="45.31486787830136" lon="7.6405352628034375"><ele>311.0</ele><time>2026-05-02T12:25:04Z</time></trkpt><trkpt lat="45.3147855974272" lon="7.640626025904201"><ele>311.0</ele><time>2026-05-02T12:25:05Z</time></trkpt><trkpt lat="45.31470096710727" lon="7.640723998268974"><ele>311.0</ele><time>2026-05-02T12:25:06Z</time></trkpt><trkpt lat="45.314626915002385" lon="7.6408072913323934"><ele>311.0</ele><time>2026-05-02T12:25:07Z</time></trkpt><trkpt lat="45.314536958780856" lon="7.640900157854309"><ele>311.0</ele><time>2026-05-02T12:25:08Z</time></trkpt><trkpt lat="45.3144486787526" lon="7.640988902619119"><ele>311.0</ele><time>2026-05-02T12:25:09Z</time></trkpt><trkpt lat="45.31435010464216" lon="7.641063406629115"><ele>311.0</ele><time>2026-05-02T12:25:10Z</time></trkpt><trkpt lat="45.31425152804471" lon="7.641131027606822"><ele>311.0</ele><time>2026-05-02T12:25:11Z</time></trkpt><trkpt lat="45.31416272008552" lon="7.641188967852438"><ele>311.0</ele><time>2026-05-02T12:25:12Z</time></trkpt><trkpt lat="45.31407593457407" lon="7.641221538336717"><ele>311.0</ele><time>2026-05-02T12:25:13Z</time></trkpt><trkpt lat="45.31399122837063" lon="7.641232916315643"><ele>311.0</ele><time>2026-05-02T12:25:14Z</time></trkpt><trkpt lat="45.31390088709539" lon="7.64122163236903"><ele>310.0</ele><time>2026-05-02T12:25:15Z</time></trkpt><trkpt lat="45.3137926121956" lon="7.641197751995199"><ele>309.0</ele><time>2026-05-02T12:25:16Z</time></trkpt><trkpt lat="45.313674773498256" lon="7.641175640611483"><ele>308.0</ele><time>2026-05-02T12:25:17Z</time></trkpt><trkpt lat="45.31355014671259" lon="7.641167600381416"><ele>307.0</ele><time>2026-05-02T12:25:18Z</time></trkpt><trkpt lat="45.313419141023445" lon="7.641161424695619"><ele>307.0</ele><time>2026-05-02T12:25:19Z</time></trkpt><trkpt lat="45.313292747680165" lon="7.641155201215551"><ele>307.0</ele><time>2026-05-02T12:25:20Z</time></trkpt><trkpt lat="45.31316457889074" lon="7.641150914143765"><ele>307.0</ele><time>2026-05-02T12:25:21Z</time></trkpt><trkpt lat="45.31303556234032" lon="7.64114923638003"><ele>307.0</ele><time>2026-05-02T12:25:22Z</time></trkpt><trkpt lat="45.31290953258166" lon="7.641146453487894"><ele>306.25</ele><time>2026-05-02T12:25:23Z</time></trkpt><trkpt lat="45.31279122004921" lon="7.641153320483413"><ele>305.5</ele><time>2026-05-02T12:25:24Z</time></trkpt><trkpt lat="45.31266266544336" lon="7.6411358550168424"><ele>304.75</ele><time>2026-05-02T12:25:25Z</time></trkpt><trkpt lat="45.31253553046687" lon="7.641188614249987"><ele>304.0</ele><time>2026-05-02T12:25:26Z</time></trkpt><trkpt lat="45.31241696670011" lon="7.641255782392916"><ele>304.0</ele><time>2026-05-02T12:25:27Z</time></trkpt><trkpt lat="45.3123022509254" lon="7.641318567172017"><ele>304.0</ele><time>2026-05-02T12:25:28Z</time></trkpt><trkpt lat="45.31219659053561" lon="7.641393960613721"><ele>304.0</ele><time>2026-05-02T12:25:29Z</time></trkpt><trkpt lat="45.31207430111321" lon="7.6414274466965795"><ele>304.0</ele><time>2026-05-02T12:25:30Z</time></trkpt><trkpt lat="45.31195879751714" lon="7.641405994919673"><ele>305.0</ele><time>2026-05-02T12:25:31Z</time></trkpt><trkpt lat="45.31183969987184" lon="7.641375580167148"><ele>306.0</ele><time>2026-05-02T12:25:32Z</time></trkpt><trkpt lat="45.31172003980477" lon="7.641344643850814"><ele>307.0</ele><time>2026-05-02T12:25:33Z</time></trkpt><trkpt lat="45.31159979857998" lon="7.641313075730682"><ele>308.0</ele><time>2026-05-02T12:25:34Z</time></trkpt><trkpt lat="45.31148149856022" lon="7.641282017243252"><ele>308.5</ele><time>2026-05-02T12:25:35Z</time></trkpt><trkpt lat="45.31136116013629" lon="7.641253538938773"><ele>309.0</ele><time>2026-05-02T12:25:36Z</time></trkpt><trkpt lat="45.31123787236084" lon="7.6412460070004204"><ele>309.5</ele><time>2026-05-02T12:25:37Z</time></trkpt><trkpt lat="45.31111281309385" lon="7.641213683925678"><ele>310.0</ele><time>2026-05-02T12:25:38Z</time></trkpt><trkpt lat="45.310982663610076" lon="7.64118763956602"><ele>310.0</ele><time>2026-05-02T12:25:39Z</time></trkpt><trkpt lat="45.310854987397384" lon="7.641157951752048"><ele>310.0</ele><time>2026-05-02T12:25:40Z</time></trkpt><trkpt lat="45.31072810475853" lon="7.641183449574221"><ele>310.0</ele><time>2026-05-02T12:25:41Z</time></trkpt><trkpt lat="45.310604716695266" lon="7.6411903991760735"><ele>310.0</ele><time>2026-05-02T12:25:42Z</time></trkpt><trkpt lat="45.3104747566227" lon="7.641196381350995"><ele>309.75</ele><time>2026-05-02T12:25:43Z</time></trkpt><trkpt lat="45.31033921219221" lon="7.6411948511907415"><ele>309.5</ele><time>2026-05-02T12:25:44Z</time></trkpt><trkpt lat="45.31020413127951" lon="7.641166882503302"><ele>309.25</ele><time>2026-05-02T12:25:45Z</time></trkpt><trkpt lat="45.31006707404664" lon="7.6411542056538435"><ele>309.0</ele><time>2026-05-02T12:25:46Z</time></trkpt><trkpt lat="45.3099266507473" lon="7.641143518380734"><ele>309.0</ele><time>2026-05-02T12:25:47Z</time></trkpt><trkpt lat="45.309789070490304" lon="7.641134528863246"><ele>309.0</ele><time>2026-05-02T12:25:48Z</time></trkpt><trkpt lat="45.309659004722064" lon="7.641129445995019"><ele>309.0</ele><time>2026-05-02T12:25:49Z</time></trkpt><trkpt lat="45.30955261882465" lon="7.6411251392994295"><ele>309.0</ele><time>2026-05-02T12:25:50Z</time></trkpt><trkpt lat="45.309450864390854" lon="7.641129368371847"><ele>308.5</ele><time>2026-05-02T12:25:51Z</time></trkpt><trkpt lat="45.30935068489536" lon="7.641122312688102"><ele>308.0</ele><time>2026-05-02T12:25:52Z</time></trkpt><trkpt lat="45.30924436572952" lon="7.641072138143177"><ele>307.5</ele><time>2026-05-02T12:25:53Z</time></trkpt><trkpt lat="45.309126503692696" lon="7.641029939894991"><ele>307.0</ele><time>2026-05-02T12:25:54Z</time></trkpt><trkpt lat="45.30900606469993" lon="7.64099585824331"><ele>306.8333333333333</ele><time>2026-05-02T12:25:55Z</time></trkpt><trkpt lat="45.308897554668384" lon="7.64098869947106"><ele>306.66666666666663</ele><time>2026-05-02T12:25:56Z</time></trkpt><trkpt lat="45.308806439408215" lon="7.640961749612277"><ele>306.5</ele><time>2026-05-02T12:25:57Z</time></trkpt><trkpt lat="45.3087261799911" lon="7.640943803463346"><ele>306.3333333333333</ele><time>2026-05-02T12:25:58Z</time></trkpt><trkpt lat="45.30865970138312" lon="7.640933116963771"><ele>306.1666666666667</ele><time>2026-05-02T12:25:59Z</time></trkpt><trkpt lat="45.30858341413969" lon="7.640859430066823"><ele>306.0</ele><time>2026-05-02T12:26:01Z</time></trkpt><trkpt lat="45.308583873272056" lon="7.640720025259388"><ele>306.0</ele><time>2026-05-02T12:26:03Z</time></trkpt><trkpt lat="45.30860739951113" lon="7.640597730437218"><ele>306.0</ele><time>2026-05-02T12:26:04Z</time></trkpt><trkpt lat="45.30862706525791" lon="7.6404273894054455"><ele>306.0</ele><time>2026-05-02T12:26:05Z</time></trkpt><trkpt lat="45.30864656950768" lon="7.640209397034901"><ele>306.0</ele><time>2026-05-02T12:26:06Z</time></trkpt><trkpt lat="45.30866179896968" lon="7.640013413957952"><ele>306.25</ele><time>2026-05-02T12:26:07Z</time></trkpt><trkpt lat="45.30867538457581" lon="7.639824459596795"><ele>306.5</ele><time>2026-05-02T12:26:08Z</time></trkpt><trkpt lat="45.308695830184185" lon="7.639651176581803"><ele>306.75</ele><time>2026-05-02T12:26:09Z</time></trkpt><trkpt lat="45.30871247665907" lon="7.639487418847867"><ele>307.0</ele><time>2026-05-02T12:26:10Z</time></trkpt><trkpt lat="45.30872118316574" lon="7.639318565176893"><ele>307.25</ele><time>2026-05-02T12:26:11Z</time></trkpt><trkpt lat="45.30873787138962" lon="7.639146078744069"><ele>307.5</ele><time>2026-05-02T12:26:12Z</time></trkpt><trkpt lat="45.30876768047801" lon="7.6389838671143675"><ele>307.75</ele><time>2026-05-02T12:26:13Z</time></trkpt><trkpt lat="45.30880370925677" lon="7.6388109379618125"><ele>308.0</ele><time>2026-05-02T12:26:14Z</time></trkpt><trkpt lat="45.30883331352307" lon="7.638634034440559"><ele>308.0</ele><time>2026-05-02T12:26:15Z</time></trkpt><trkpt lat="45.30886466486173" lon="7.6384553186828255"><ele>308.0</ele><time>2026-05-02T12:26:16Z</time></trkpt><trkpt lat="45.30889348331336" lon="7.638275883298443"><ele>308.0</ele><time>2026-05-02T12:26:17Z</time></trkpt><trkpt lat="45.30890843084688" lon="7.638112033177141"><ele>308.0</ele><time>2026-05-02T12:26:18Z</time></trkpt><trkpt lat="45.30893768897425" lon="7.63798665278559"><ele>308.1666666666667</ele><time>2026-05-02T12:26:19Z</time></trkpt><trkpt lat="45.308945971306706" lon="7.63789220278269"><ele>308.33333333333337</ele><time>2026-05-02T12:26:20Z</time></trkpt><trkpt lat="45.30893430783686" lon="7.637730650203569"><ele>308.5</ele><time>2026-05-02T12:26:22Z</time></trkpt><trkpt lat="45.308931811267655" lon="7.637608494757279"><ele>308.6666666666667</ele><time>2026-05-02T12:26:24Z</time></trkpt><trkpt lat="45.30892936693563" lon="7.637478963811552"><ele>308.8333333333333</ele><time>2026-05-02T12:26:26Z</time></trkpt><trkpt lat="45.30892789181352" lon="7.637349797880885"><ele>309.0</ele><time>2026-05-02T12:26:28Z</time></trkpt><trkpt lat="45.30891689867234" lon="7.637170021292117"><ele>309.2</ele><time>2026-05-02T12:26:30Z</time></trkpt><trkpt lat="45.308918312819856" lon="7.637054757433159"><ele>309.4</ele><time>2026-05-02T12:26:31Z</time></trkpt><trkpt lat="45.30892055906304" lon="7.636924360966648"><ele>309.6</ele><time>2026-05-02T12:26:32Z</time></trkpt><trkpt lat="45.30891498651364" lon="7.636774372773077"><ele>309.8</ele><time>2026-05-02T12:26:33Z</time></trkpt><trkpt lat="45.30890840472157" lon="7.636600657390415"><ele>310.0</ele><time>2026-05-02T12:26:34Z</time></trkpt><trkpt lat="45.308911780192105" lon="7.636408481722055"><ele>310.0</ele><time>2026-05-02T12:26:35Z</time></trkpt><trkpt lat="45.308939297171285" lon="7.636260521093989"><ele>310.0</ele><time>2026-05-02T12:26:36Z</time></trkpt><trkpt lat="45.308988170001136" lon="7.636089366337838"><ele>310.0</ele><time>2026-05-02T12:26:37Z</time></trkpt><trkpt lat="45.309024862114704" lon="7.635924092310062"><ele>310.0</ele><time>2026-05-02T12:26:38Z</time></trkpt><trkpt lat="45.309029924444715" lon="7.6357784905929575"><ele>310.3333333333333</ele><time>2026-05-02T12:26:39Z</time></trkpt><trkpt lat="45.30900205928928" lon="7.6356594494517545"><ele>310.66666666666663</ele><time>2026-05-02T12:26:40Z</time></trkpt><trkpt lat="45.30897859158732" lon="7.635575252761604"><ele>311.0</ele><time>2026-05-02T12:26:41Z</time></trkpt><trkpt lat="45.30895811183438" lon="7.635489486478707"><ele>311.3333333333333</ele><time>2026-05-02T12:26:42Z</time></trkpt><trkpt lat="45.30893134914755" lon="7.635352214278342"><ele>311.6666666666667</ele><time>2026-05-02T12:26:43Z</time></trkpt><trkpt lat="45.308885802545866" lon="7.635194651903605"><ele>312.0</ele><time>2026-05-02T12:26:44Z</time></trkpt><trkpt lat="45.30884027074131" lon="7.63504317904515"><ele>312.5</ele><time>2026-05-02T12:26:45Z</time></trkpt><trkpt lat="45.30879394036168" lon="7.634877675976286"><ele>313.0</ele><time>2026-05-02T12:26:46Z</time></trkpt><trkpt lat="45.30873198852359" lon="7.6346825784532015"><ele>313.5</ele><time>2026-05-02T12:26:47Z</time></trkpt><trkpt lat="45.30868275074734" lon="7.63449940128334"><ele>314.0</ele><time>2026-05-02T12:26:48Z</time></trkpt><trkpt lat="45.308641691114474" lon="7.634371480814768"><ele>314.2</ele><time>2026-05-02T12:26:49Z</time></trkpt><trkpt lat="45.30860468517619" lon="7.6342861433922975"><ele>314.4</ele><time>2026-05-02T12:26:50Z</time></trkpt><trkpt lat="45.30850127265346" lon="7.634194690432464"><ele>314.6</ele><time>2026-05-02T12:26:52Z</time></trkpt><trkpt lat="45.308418515776864" lon="7.634168610059422"><ele>314.8</ele><time>2026-05-02T12:26:53Z</time></trkpt><trkpt lat="45.30831303394233" lon="7.634160061329011"><ele>315.0</ele><time>2026-05-02T12:26:54Z</time></trkpt><trkpt lat="45.30818438532421" lon="7.634145628841744"><ele>314.6</ele><time>2026-05-02T12:26:55Z</time></trkpt><trkpt lat="45.308045036324906" lon="7.634113282525523"><ele>314.2</ele><time>2026-05-02T12:26:56Z</time></trkpt><trkpt lat="45.307916143639" lon="7.63408523072689"><ele>313.8</ele><time>2026-05-02T12:26:57Z</time></trkpt><trkpt lat="45.30783513020691" lon="7.63405344154869"><ele>313.4</ele><time>2026-05-02T12:26:58Z</time></trkpt><trkpt lat="45.30777428138466" lon="7.634025776969509"><ele>313.0</ele><time>2026-05-02T12:26:59Z</time></trkpt><trkpt lat="45.30769936825273" lon="7.6339271845437695"><ele>313.0</ele><time>2026-05-02T12:27:01Z</time></trkpt><trkpt lat="45.30768056396114" lon="7.633825042916312"><ele>313.0</ele><time>2026-05-02T12:27:02Z</time></trkpt><trkpt lat="45.30768124442978" lon="7.633685830274611"><ele>313.0</ele><time>2026-05-02T12:27:03Z</time></trkpt><trkpt lat="45.307697678319364" lon="7.633526012955152"><ele>313.0</ele><time>2026-05-02T12:27:04Z</time></trkpt><trkpt lat="45.30770610287196" lon="7.633354507453515"><ele>313.0</ele><time>2026-05-02T12:27:05Z</time></trkpt><trkpt lat="45.30770570804826" lon="7.633183153982379"><ele>313.75</ele><time>2026-05-02T12:27:06Z</time></trkpt><trkpt lat="45.30769668655277" lon="7.633002098275182"><ele>314.5</ele><time>2026-05-02T12:27:07Z</time></trkpt><trkpt lat="45.30769311313247" lon="7.632804034460745"><ele>315.25</ele><time>2026-05-02T12:27:08Z</time></trkpt><trkpt lat="45.307688062114224" lon="7.632597741881498"><ele>316.0</ele><time>2026-05-02T12:27:09Z</time></trkpt><trkpt lat="45.3076808043397" lon="7.632387478579705"><ele>316.66666666666663</ele><time>2026-05-02T12:27:10Z</time></trkpt><trkpt lat="45.30767103183518" lon="7.632160854175409"><ele>317.3333333333333</ele><time>2026-05-02T12:27:11Z</time></trkpt><trkpt lat="45.30766810007576" lon="7.631932489205316"><ele>318.0</ele><time>2026-05-02T12:27:12Z</time></trkpt><trkpt lat="45.30766122443078" lon="7.631693762313439"><ele>318.0</ele><time>2026-05-02T12:27:13Z</time></trkpt><trkpt lat="45.30766000368964" lon="7.631451650684262"><ele>318.0</ele><time>2026-05-02T12:27:14Z</time></trkpt><trkpt lat="45.3076602257698" lon="7.631199828976723"><ele>318.0</ele><time>2026-05-02T12:27:15Z</time></trkpt><trkpt lat="45.30765757571553" lon="7.6309471990559805"><ele>318.3333333333333</ele><time>2026-05-02T12:27:16Z</time></trkpt><trkpt lat="45.30764989377499" lon="7.630685652339543"><ele>318.66666666666663</ele><time>2026-05-02T12:27:17Z</time></trkpt><trkpt lat="45.307639367476845" lon="7.630411575212354"><ele>319.0</ele><time>2026-05-02T12:27:18Z</time></trkpt><trkpt lat="45.30762916149433" lon="7.63013507308909"><ele>319.66666666666663</ele><time>2026-05-02T12:27:19Z</time></trkpt><trkpt lat="45.30762578993383" lon="7.629869757617425"><ele>320.3333333333333</ele><time>2026-05-02T12:27:20Z</time></trkpt><trkpt lat="45.30762797171154" lon="7.629569633474212"><ele>321.0</ele><time>2026-05-02T12:27:21Z</time></trkpt><trkpt lat="45.30762870784788" lon="7.629282554000958"><ele>321.5</ele><time>2026-05-02T12:27:22Z</time></trkpt><trkpt lat="45.307623083611034" lon="7.629044460200407"><ele>322.0</ele><time>2026-05-02T12:27:23Z</time></trkpt><trkpt lat="45.30763723127242" lon="7.6288519537691695"><ele>322.5</ele><time>2026-05-02T12:27:24Z</time></trkpt><trkpt lat="45.30764194236769" lon="7.628673957261735"><ele>323.0</ele><time>2026-05-02T12:27:25Z</time></trkpt><trkpt lat="45.307672951080775" lon="7.628515591356029"><ele>323.5</ele><time>2026-05-02T12:27:26Z</time></trkpt><trkpt lat="45.30773449306066" lon="7.628356546124304"><ele>324.0</ele><time>2026-05-02T12:27:27Z</time></trkpt><trkpt lat="45.30779197411279" lon="7.628167258570654"><ele>324.5</ele><time>2026-05-02T12:27:28Z</time></trkpt><trkpt lat="45.30784411756765" lon="7.627946194292752"><ele>325.0</ele><time>2026-05-02T12:27:29Z</time></trkpt><trkpt lat="45.30791286914538" lon="7.627758442678609"><ele>325.5</ele><time>2026-05-02T12:27:30Z</time></trkpt><trkpt lat="45.307964265171975" lon="7.627571399164918"><ele>326.0</ele><time>2026-05-02T12:27:31Z</time></trkpt><trkpt lat="45.30802899204215" lon="7.627372561688969"><ele>326.5</ele><time>2026-05-02T12:27:32Z</time></trkpt><trkpt lat="45.30808913430936" lon="7.627197615424757"><ele>327.0</ele><time>2026-05-02T12:27:33Z</time></trkpt><trkpt lat="45.3081449879076" lon="7.627043705252896"><ele>326.40000000000003</ele><time>2026-05-02T12:27:34Z</time></trkpt><trkpt lat="45.3081989631062" lon="7.62691023343388"><ele>325.8</ele><time>2026-05-02T12:27:35Z</time></trkpt><trkpt lat="45.30825262562645" lon="7.626790274543838"><ele>325.2</ele><time>2026-05-02T12:27:36Z</time></trkpt><trkpt lat="45.30831866211394" lon="7.626709947553725"><ele>324.6</ele><time>2026-05-02T12:27:37Z</time></trkpt><trkpt lat="45.3083925050517" lon="7.6266085209255525"><ele>324.0</ele><time>2026-05-02T12:27:38Z</time></trkpt><trkpt lat="45.308481867244005" lon="7.626502799079432"><ele>324.0</ele><time>2026-05-02T12:27:39Z</time></trkpt><trkpt lat="45.30858428684176" lon="7.626391016041102"><ele>324.0</ele><time>2026-05-02T12:27:40Z</time></trkpt><trkpt lat="45.308696732258795" lon="7.626273014664234"><ele>324.0</ele><time>2026-05-02T12:27:41Z</time></trkpt><trkpt lat="45.3088131380051" lon="7.6261473130948545"><ele>324.0</ele><time>2026-05-02T12:27:42Z</time></trkpt><trkpt lat="45.308922569110194" lon="7.6260246741701305"><ele>323.75</ele><time>2026-05-02T12:27:43Z</time></trkpt><trkpt lat="45.30904880483085" lon="7.625885328822562"><ele>323.5</ele><time>2026-05-02T12:27:44Z</time></trkpt><trkpt lat="45.30916371526357" lon="7.625765630624013"><ele>323.25</ele><time>2026-05-02T12:27:45Z</time></trkpt><trkpt lat="45.309242236709686" lon="7.625677540385328"><ele>323.0</ele><time>2026-05-02T12:27:46Z</time></trkpt><trkpt lat="45.30931542355089" lon="7.625593097315268"><ele>323.0</ele><time>2026-05-02T12:27:48Z</time></trkpt><trkpt lat="45.30939041360671" lon="7.625758503394768"><ele>323.0</ele><time>2026-05-02T12:27:51Z</time></trkpt><trkpt lat="45.30947405158681" lon="7.625824731812305"><ele>323.0</ele><time>2026-05-02T12:27:52Z</time></trkpt><trkpt lat="45.30959541690278" lon="7.625918551162202"><ele>323.0</ele><time>2026-05-02T12:27:53Z</time></trkpt><trkpt lat="45.3097295655481" lon="7.62601206868568"><ele>323.5</ele><time>2026-05-02T12:27:54Z</time></trkpt><trkpt lat="45.30984665302635" lon="7.626080972314482"><ele>324.0</ele><time>2026-05-02T12:27:55Z</time></trkpt><trkpt lat="45.309989977890304" lon="7.626133006552749"><ele>324.5</ele><time>2026-05-02T12:27:56Z</time></trkpt><trkpt lat="45.310123655796644" lon="7.626170443705479"><ele>325.0</ele><time>2026-05-02T12:27:57Z</time></trkpt><trkpt lat="45.3102363752586" lon="7.626195303851736"><ele>325.0</ele><time>2026-05-02T12:27:58Z</time></trkpt><trkpt lat="45.310328092938555" lon="7.626194488847771"><ele>325.0</ele><time>2026-05-02T12:27:59Z</time></trkpt><trkpt lat="45.310427321513856" lon="7.626112216695653"><ele>325.0</ele><time>2026-05-02T12:28:00Z</time></trkpt><trkpt lat="45.310538624046494" lon="7.626014191663583"><ele>325.0</ele><time>2026-05-02T12:28:01Z</time></trkpt><trkpt lat="45.310667882147634" lon="7.62594814814878"><ele>325.0</ele><time>2026-05-02T12:28:02Z</time></trkpt><trkpt lat="45.31078792864196" lon="7.6258948752293225"><ele>325.0</ele><time>2026-05-02T12:28:03Z</time></trkpt><trkpt lat="45.31091281319819" lon="7.6258487068249945"><ele>325.0</ele><time>2026-05-02T12:28:04Z</time></trkpt><trkpt lat="45.311042094750675" lon="7.625785868938232"><ele>325.0</ele><time>2026-05-02T12:28:05Z</time></trkpt><trkpt lat="45.31115795629817" lon="7.625716037506846"><ele>325.0</ele><time>2026-05-02T12:28:06Z</time></trkpt><trkpt lat="45.31127299818637" lon="7.625615167392248"><ele>325.0</ele><time>2026-05-02T12:28:07Z</time></trkpt><trkpt lat="45.31139176684357" lon="7.625489109030075"><ele>325.0</ele><time>2026-05-02T12:28:08Z</time></trkpt><trkpt lat="45.31148009064955" lon="7.625403706926113"><ele>325.0</ele><time>2026-05-02T12:28:09Z</time></trkpt><trkpt lat="45.31155538528702" lon="7.625338152529487"><ele>325.0</ele><time>2026-05-02T12:28:10Z</time></trkpt><trkpt lat="45.31161604181632" lon="7.625311360289839"><ele>325.0</ele><time>2026-05-02T12:28:11Z</time></trkpt><trkpt lat="45.31169048116689" lon="7.625236149552738"><ele>325.0</ele><time>2026-05-02T12:28:12Z</time></trkpt><trkpt lat="45.31181548102469" lon="7.625244216169571"><ele>325.0</ele><time>2026-05-02T12:28:13Z</time></trkpt><trkpt lat="45.31193951372329" lon="7.625270591212154"><ele>325.0</ele><time>2026-05-02T12:28:14Z</time></trkpt><trkpt lat="45.312009030763946" lon="7.6252658542581075"><ele>325.0</ele><time>2026-05-02T12:28:15Z</time></trkpt><trkpt lat="45.312050902641595" lon="7.625133288064378"><ele>325.0</ele><time>2026-05-02T12:28:17Z</time></trkpt><trkpt lat="45.312051361954786" lon="7.6249544945324"><ele>325.0</ele><time>2026-05-02T12:28:18Z</time></trkpt><trkpt lat="45.31205311761983" lon="7.6247334708759285"><ele>325.0</ele><time>2026-05-02T12:28:19Z</time></trkpt><trkpt lat="45.31206272696218" lon="7.624552565289582"><ele>325.0</ele><time>2026-05-02T12:28:20Z</time></trkpt><trkpt lat="45.31207869773146" lon="7.624429531485836"><ele>325.0</ele><time>2026-05-02T12:28:21Z</time></trkpt><trkpt lat="45.312083122718164" lon="7.62431812599278"><ele>325.0</ele><time>2026-05-02T12:28:22Z</time></trkpt><trkpt lat="45.3120854473973" lon="7.62417916438414"><ele>325.0</ele><time>2026-05-02T12:28:23Z</time></trkpt><trkpt lat="45.31210641023784" lon="7.6239706116830215"><ele>325.0</ele><time>2026-05-02T12:28:24Z</time></trkpt><trkpt lat="45.31214744717646" lon="7.623709504871403"><ele>325.3333333333333</ele><time>2026-05-02T12:28:25Z</time></trkpt><trkpt lat="45.31218529797144" lon="7.623432573197407"><ele>325.6666666666667</ele><time>2026-05-02T12:28:26Z</time></trkpt><trkpt lat="45.31222767045378" lon="7.623203682371499"><ele>326.0</ele><time>2026-05-02T12:28:27Z</time></trkpt><trkpt lat="45.31226136130302" lon="7.62303775888598"><ele>326.25</ele><time>2026-05-02T12:28:28Z</time></trkpt><trkpt lat="45.31230667624329" lon="7.622876027896671"><ele>326.5</ele><time>2026-05-02T12:28:29Z</time></trkpt><trkpt lat="45.31237007449629" lon="7.622706873328491"><ele>326.75</ele><time>2026-05-02T12:28:30Z</time></trkpt><trkpt lat="45.312409371100166" lon="7.622565853487063"><ele>327.0</ele><time>2026-05-02T12:28:31Z</time></trkpt><trkpt lat="45.31242540558074" lon="7.622386353365087"><ele>327.0</ele><time>2026-05-02T12:28:32Z</time></trkpt><trkpt lat="45.312440030924165" lon="7.622158440299081"><ele>327.0</ele><time>2026-05-02T12:28:33Z</time></trkpt><trkpt lat="45.312461278952696" lon="7.6218979749532085"><ele>327.0</ele><time>2026-05-02T12:28:34Z</time></trkpt><trkpt lat="45.312480663019834" lon="7.621690333656551"><ele>327.6</ele><time>2026-05-02T12:28:35Z</time></trkpt><trkpt lat="45.31249537548932" lon="7.621550739435138"><ele>328.20000000000005</ele><time>2026-05-02T12:28:36Z</time></trkpt><trkpt lat="45.31251850275489" lon="7.621451007291307"><ele>328.8</ele><time>2026-05-02T12:28:37Z</time></trkpt><trkpt lat="45.31263838187378" lon="7.621352579281279"><ele>329.4</ele><time>2026-05-02T12:28:39Z</time></trkpt><trkpt lat="45.312773551752024" lon="7.621376181528217"><ele>330.0</ele><time>2026-05-02T12:28:40Z</time></trkpt><trkpt lat="45.31286022849409" lon="7.621332968642966"><ele>330.2</ele><time>2026-05-02T12:28:41Z</time></trkpt><trkpt lat="45.312901210232496" lon="7.621148647653993"><ele>330.4</ele><time>2026-05-02T12:28:43Z</time></trkpt><trkpt lat="45.31292534039821" lon="7.621011335499308"><ele>330.6</ele><time>2026-05-02T12:28:44Z</time></trkpt><trkpt lat="45.31296531800419" lon="7.62091228659694"><ele>330.8</ele><time>2026-05-02T12:28:45Z</time></trkpt><trkpt lat="45.31303860253124" lon="7.620906220142641"><ele>331.0</ele><time>2026-05-02T12:28:46Z</time></trkpt><trkpt lat="45.313158242237535" lon="7.620873283844472"><ele>331.0</ele><time>2026-05-02T12:28:47Z</time></trkpt><trkpt lat="45.3132887324377" lon="7.620802547853803"><ele>331.0</ele><time>2026-05-02T12:28:48Z</time></trkpt><trkpt lat="45.31336074255629" lon="7.6207401753156265"><ele>331.0</ele><time>2026-05-02T12:28:49Z</time></trkpt><trkpt lat="45.31339467435465" lon="7.6205320163636525"><ele>331.0</ele><time>2026-05-02T12:28:51Z</time></trkpt><trkpt lat="45.313420872789266" lon="7.620360817628641"><ele>331.25</ele><time>2026-05-02T12:28:52Z</time></trkpt><trkpt lat="45.3134507621557" lon="7.62015976830705"><ele>331.5</ele><time>2026-05-02T12:28:53Z</time></trkpt><trkpt lat="45.31348004649568" lon="7.619960918403796"><ele>331.75</ele><time>2026-05-02T12:28:54Z</time></trkpt><trkpt lat="45.31351181815772" lon="7.619759522575214"><ele>332.0</ele><time>2026-05-02T12:28:55Z</time></trkpt><trkpt lat="45.31353552530805" lon="7.619564417152348"><ele>332.1666666666667</ele><time>2026-05-02T12:28:56Z</time></trkpt><trkpt lat="45.313550005203275" lon="7.619411130881539"><ele>332.33333333333337</ele><time>2026-05-02T12:28:57Z</time></trkpt><trkpt lat="45.31356361619771" lon="7.619284240841581"><ele>332.5</ele><time>2026-05-02T12:28:58Z</time></trkpt><trkpt lat="45.31361965463929" lon="7.619170106707952"><ele>332.6666666666667</ele><time>2026-05-02T12:29:00Z</time></trkpt><trkpt lat="45.313693228637014" lon="7.619163551136102"><ele>332.8333333333333</ele><time>2026-05-02T12:29:01Z</time></trkpt><trkpt lat="45.313763079976766" lon="7.619160983410897"><ele>333.0</ele><time>2026-05-02T12:29:02Z</time></trkpt><trkpt lat="45.313824395175054" lon="7.6191265239811665"><ele>333.0</ele><time>2026-05-02T12:29:03Z</time></trkpt><trkpt lat="45.31387103540275" lon="7.6189248169457295"><ele>333.0</ele><time>2026-05-02T12:29:05Z</time></trkpt><trkpt lat="45.31389052140094" lon="7.618790679914847"><ele>333.0</ele><time>2026-05-02T12:29:06Z</time></trkpt><trkpt lat="45.31389949971041" lon="7.61863607281645"><ele>333.0</ele><time>2026-05-02T12:29:07Z</time></trkpt><trkpt lat="45.313896150187794" lon="7.618438779426115"><ele>332.75</ele><time>2026-05-02T12:29:08Z</time></trkpt><trkpt lat="45.31393082653896" lon="7.618220684209604"><ele>332.5</ele><time>2026-05-02T12:29:09Z</time></trkpt><trkpt lat="45.31392184585308" lon="7.618047457435976"><ele>332.25</ele><time>2026-05-02T12:29:10Z</time></trkpt><trkpt lat="45.31391380865736" lon="7.617905913717404"><ele>332.0</ele><time>2026-05-02T12:29:11Z</time></trkpt><trkpt lat="45.313888996228286" lon="7.617764930649123"><ele>332.6666666666667</ele><time>2026-05-02T12:29:12Z</time></trkpt><trkpt lat="45.31381691202165" lon="7.617586376781893"><ele>333.3333333333333</ele><time>2026-05-02T12:29:13Z</time></trkpt><trkpt lat="45.31373667070771" lon="7.617371504549398"><ele>334.0</ele><time>2026-05-02T12:29:14Z</time></trkpt><trkpt lat="45.31367103643898" lon="7.617193825459301"><ele>334.0</ele><time>2026-05-02T12:29:15Z</time></trkpt><trkpt lat="45.313633678040645" lon="7.6170539617041895"><ele>334.0</ele><time>2026-05-02T12:29:16Z</time></trkpt><trkpt lat="45.31361199195187" lon="7.616931686920463"><ele>334.0</ele><time>2026-05-02T12:29:17Z</time></trkpt><trkpt lat="45.31364228636032" lon="7.616790733460987"><ele>334.0</ele><time>2026-05-02T12:29:18Z</time></trkpt><trkpt lat="45.31363776385641" lon="7.61656671029996"><ele>334.66666666666663</ele><time>2026-05-02T12:29:19Z</time></trkpt><trkpt lat="45.31364346630902" lon="7.6162903757071225"><ele>335.3333333333333</ele><time>2026-05-02T12:29:20Z</time></trkpt><trkpt lat="45.31364053565355" lon="7.615983175728921"><ele>336.0</ele><time>2026-05-02T12:29:21Z</time></trkpt><trkpt lat="45.31363473618806" lon="7.615708549220268"><ele>336.0</ele><time>2026-05-02T12:29:22Z</time></trkpt><trkpt lat="45.31364832533715" lon="7.6154913512605"><ele>336.0</ele><time>2026-05-02T12:29:23Z</time></trkpt><trkpt lat="45.31364504440797" lon="7.615253636402409"><ele>336.0</ele><time>2026-05-02T12:29:24Z</time></trkpt><trkpt lat="45.31360345942332" lon="7.61494079636781"><ele>336.6666666666667</ele><time>2026-05-02T12:29:25Z</time></trkpt><trkpt lat="45.31359772853534" lon="7.614667271405116"><ele>337.33333333333337</ele><time>2026-05-02T12:29:26Z</time></trkpt><trkpt lat="45.31358756616065" lon="7.614420152204373"><ele>338.0</ele><time>2026-05-02T12:29:27Z</time></trkpt><trkpt lat="45.31357997169791" lon="7.614157430859535"><ele>338.33333333333337</ele><time>2026-05-02T12:29:28Z</time></trkpt><trkpt lat="45.31358359209539" lon="7.613856990893402"><ele>338.6666666666667</ele><time>2026-05-02T12:29:29Z</time></trkpt><trkpt lat="45.31357039008947" lon="7.613626585447181"><ele>339.0</ele><time>2026-05-02T12:29:30Z</time></trkpt><trkpt lat="45.31356166249323" lon="7.6134296934412555"><ele>339.6666666666667</ele><time>2026-05-02T12:29:31Z</time></trkpt><trkpt lat="45.31354310900343" lon="7.613179323102333"><ele>340.33333333333337</ele><time>2026-05-02T12:29:32Z</time></trkpt><trkpt lat="45.31352146404266" lon="7.612880000057673"><ele>341.0</ele><time>2026-05-02T12:29:33Z</time></trkpt><trkpt lat="45.313495833741065" lon="7.612562164188323"><ele>341.33333333333337</ele><time>2026-05-02T12:29:34Z</time></trkpt><trkpt lat="45.31346731116955" lon="7.612275179512457"><ele>341.6666666666667</ele><time>2026-05-02T12:29:35Z</time></trkpt><trkpt lat="45.31344380573941" lon="7.612056474703343"><ele>342.0</ele><time>2026-05-02T12:29:36Z</time></trkpt><trkpt lat="45.313426016659626" lon="7.61188070998431"><ele>342.40000000000003</ele><time>2026-05-02T12:29:37Z</time></trkpt><trkpt lat="45.31341430356514" lon="7.611718766203366"><ele>342.8</ele><time>2026-05-02T12:29:38Z</time></trkpt><trkpt lat="45.31341074508754" lon="7.611574608788082"><ele>343.2</ele><time>2026-05-02T12:29:39Z</time></trkpt><trkpt lat="45.313430612704884" lon="7.611434826490085"><ele>343.6</ele><time>2026-05-02T12:29:40Z</time></trkpt><trkpt lat="45.313458561593755" lon="7.611267829432755"><ele>344.0</ele><time>2026-05-02T12:29:41Z</time></trkpt><trkpt lat="45.31347658502547" lon="7.61105492275592"><ele>344.4</ele><time>2026-05-02T12:29:42Z</time></trkpt><trkpt lat="45.31346112306148" lon="7.610876169950475"><ele>344.79999999999995</ele><time>2026-05-02T12:29:43Z</time></trkpt><trkpt lat="45.31346161785354" lon="7.610752756181215"><ele>345.20000000000005</ele><time>2026-05-02T12:29:44Z</time></trkpt><trkpt lat="45.31346574058829" lon="7.610662713518487"><ele>345.6</ele><time>2026-05-02T12:29:46Z</time></trkpt><trkpt lat="45.31352954387091" lon="7.610492119994428"><ele>346.0</ele><time>2026-05-02T12:30:37Z</time></trkpt><trkpt lat="45.313611857088" lon="7.610383687289322"><ele>346.0</ele><time>2026-05-02T12:30:38Z</time></trkpt><trkpt lat="45.31372022688274" lon="7.61029696016907"><ele>346.0</ele><time>2026-05-02T12:30:39Z</time></trkpt><trkpt lat="45.3138735721699" lon="7.610220607768228"><ele>346.0</ele><time>2026-05-02T12:30:40Z</time></trkpt><trkpt lat="45.31399072894213" lon="7.610129776911541"><ele>346.0</ele><time>2026-05-02T12:30:41Z</time></trkpt><trkpt lat="45.314075491910124" lon="7.6100864605646645"><ele>346.0</ele><time>2026-05-02T12:30:42Z</time></trkpt><trkpt lat="45.31413932746725" lon="7.610058268970649"><ele>346.0</ele><time>2026-05-02T12:30:43Z</time></trkpt><trkpt lat="45.3142069677824" lon="7.610051548985813"><ele>346.0</ele><time>2026-05-02T12:30:46Z</time></trkpt><trkpt lat="45.314206431752666" lon="7.609909341546385"><ele>346.0</ele><time>2026-05-02T12:30:56Z</time></trkpt><trkpt lat="45.314148718311294" lon="7.609807005214016"><ele>346.0</ele><time>2026-05-02T12:30:57Z</time></trkpt><trkpt lat="45.31408913589808" lon="7.609687300530333"><ele>346.0</ele><time>2026-05-02T12:30:58Z</time></trkpt><trkpt lat="45.31402382920386" lon="7.609554386311796"><ele>346.5</ele><time>2026-05-02T12:30:59Z</time></trkpt><trkpt lat="45.31395066417071" lon="7.609397899905013"><ele>347.0</ele><time>2026-05-02T12:31:00Z</time></trkpt><trkpt lat="45.313886858568495" lon="7.609232387542705"><ele>347.5</ele><time>2026-05-02T12:31:01Z</time></trkpt><trkpt lat="45.31382521674644" lon="7.609060964714548"><ele>348.0</ele><time>2026-05-02T12:31:02Z</time></trkpt><trkpt lat="45.31377192701201" lon="7.608882762758698"><ele>348.0</ele><time>2026-05-02T12:31:03Z</time></trkpt><trkpt lat="45.313722830015344" lon="7.608688898998644"><ele>348.0</ele><time>2026-05-02T12:31:04Z</time></trkpt><trkpt lat="45.313681115203515" lon="7.608485477299944"><ele>348.0</ele><time>2026-05-02T12:31:05Z</time></trkpt><trkpt lat="45.3136535930603" lon="7.608275642788791"><ele>348.0</ele><time>2026-05-02T12:31:06Z</time></trkpt><trkpt lat="45.31361641635013" lon="7.608066024475271"><ele>348.0</ele><time>2026-05-02T12:31:07Z</time></trkpt><trkpt lat="45.313604907559885" lon="7.607846376898019"><ele>348.0</ele><time>2026-05-02T12:31:08Z</time></trkpt><trkpt lat="45.313587286730346" lon="7.607602059958804"><ele>348.0</ele><time>2026-05-02T12:31:09Z</time></trkpt><trkpt lat="45.31355943606864" lon="7.607323439601279"><ele>349.0</ele><time>2026-05-02T12:31:10Z</time></trkpt><trkpt lat="45.313537617193596" lon="7.607033610993636"><ele>350.0</ele><time>2026-05-02T12:31:11Z</time></trkpt><trkpt lat="45.313519123364294" lon="7.60672306242375"><ele>351.0</ele><time>2026-05-02T12:31:12Z</time></trkpt><trkpt lat="45.31350124294183" lon="7.6064012062559145"><ele>351.3333333333333</ele><time>2026-05-02T12:31:13Z</time></trkpt><trkpt lat="45.3134903741969" lon="7.606108262094999"><ele>351.66666666666663</ele><time>2026-05-02T12:31:14Z</time></trkpt><trkpt lat="45.31345588068433" lon="7.6058386755122065"><ele>352.0</ele><time>2026-05-02T12:31:15Z</time></trkpt><trkpt lat="45.31342981071487" lon="7.605559335495288"><ele>352.66666666666663</ele><time>2026-05-02T12:31:16Z</time></trkpt><trkpt lat="45.31341685254621" lon="7.605314434470778"><ele>353.3333333333333</ele><time>2026-05-02T12:31:17Z</time></trkpt><trkpt lat="45.31341536824379" lon="7.605071911039662"><ele>354.0</ele><time>2026-05-02T12:31:18Z</time></trkpt><trkpt lat="45.31342556845159" lon="7.604809252096063"><ele>354.0</ele><time>2026-05-02T12:31:19Z</time></trkpt><trkpt lat="45.313456366723464" lon="7.604541184245425"><ele>354.0</ele><time>2026-05-02T12:31:20Z</time></trkpt><trkpt lat="45.31350213963097" lon="7.604259438796087"><ele>354.0</ele><time>2026-05-02T12:31:21Z</time></trkpt><trkpt lat="45.313572069039864" lon="7.60393500005679"><ele>354.0</ele><time>2026-05-02T12:31:22Z</time></trkpt><trkpt lat="45.31368762762442" lon="7.603602412820249"><ele>354.0</ele><time>2026-05-02T12:31:23Z</time></trkpt><trkpt lat="45.3138209078132" lon="7.603245524560368"><ele>354.0</ele><time>2026-05-02T12:31:24Z</time></trkpt><trkpt lat="45.31396416941427" lon="7.6028917905059945"><ele>354.0</ele><time>2026-05-02T12:31:25Z</time></trkpt><trkpt lat="45.31408691879733" lon="7.602589762470486"><ele>354.0</ele><time>2026-05-02T12:31:26Z</time></trkpt><trkpt lat="45.31418124619926" lon="7.602309372930856"><ele>354.0</ele><time>2026-05-02T12:31:27Z</time></trkpt><trkpt lat="45.31429397209296" lon="7.6020705356141365"><ele>354.0</ele><time>2026-05-02T12:31:28Z</time></trkpt><trkpt lat="45.31436371882624" lon="7.601821725109296"><ele>355.3333333333333</ele><time>2026-05-02T12:31:29Z</time></trkpt><trkpt lat="45.31443392464422" lon="7.601594553309755"><ele>356.66666666666663</ele><time>2026-05-02T12:31:30Z</time></trkpt><trkpt lat="45.314489140027426" lon="7.601355955490065"><ele>358.0</ele><time>2026-05-02T12:31:31Z</time></trkpt><trkpt lat="45.314526757342925" lon="7.601103045761363"><ele>359.0</ele><time>2026-05-02T12:31:32Z</time></trkpt><trkpt lat="45.314544363379326" lon="7.600842031226227"><ele>360.0</ele><time>2026-05-02T12:31:33Z</time></trkpt><trkpt lat="45.31454164747427" lon="7.600575945478206"><ele>361.0</ele><time>2026-05-02T12:31:34Z</time></trkpt><trkpt lat="45.31452541710684" lon="7.600329830769007"><ele>361.3333333333333</ele><time>2026-05-02T12:31:35Z</time></trkpt><trkpt lat="45.31449979713687" lon="7.600093416899937"><ele>361.6666666666667</ele><time>2026-05-02T12:31:36Z</time></trkpt><trkpt lat="45.314463812704815" lon="7.5998924197584925"><ele>362.0</ele><time>2026-05-02T12:31:37Z</time></trkpt><trkpt lat="45.314405448163065" lon="7.599708570451261"><ele>362.0</ele><time>2026-05-02T12:31:38Z</time></trkpt><trkpt lat="45.314333124820024" lon="7.599508257760253"><ele>362.0</ele><time>2026-05-02T12:31:39Z</time></trkpt><trkpt lat="45.31424317226716" lon="7.599305698794208"><ele>362.0</ele><time>2026-05-02T12:31:40Z</time></trkpt><trkpt lat="45.31414140390934" lon="7.599076253029982"><ele>362.33333333333337</ele><time>2026-05-02T12:31:41Z</time></trkpt><trkpt lat="45.31402741261361" lon="7.598817115280845"><ele>362.6666666666667</ele><time>2026-05-02T12:31:42Z</time></trkpt><trkpt lat="45.3139262374719" lon="7.598588877129378"><ele>363.0</ele><time>2026-05-02T12:31:43Z</time></trkpt><trkpt lat="45.31383004723986" lon="7.598369592290675"><ele>364.0</ele><time>2026-05-02T12:31:44Z</time></trkpt><trkpt lat="45.31373070454235" lon="7.598126638222494"><ele>365.0</ele><time>2026-05-02T12:31:45Z</time></trkpt><trkpt lat="45.313646611971734" lon="7.597890061227436"><ele>366.0</ele><time>2026-05-02T12:31:46Z</time></trkpt><trkpt lat="45.313572565833745" lon="7.597644106878197"><ele>367.3333333333333</ele><time>2026-05-02T12:31:47Z</time></trkpt><trkpt lat="45.31349033312559" lon="7.597378402021268"><ele>368.66666666666663</ele><time>2026-05-02T12:31:48Z</time></trkpt><trkpt lat="45.313406101794" lon="7.597154741223639"><ele>370.0</ele><time>2026-05-02T12:31:49Z</time></trkpt><trkpt lat="45.313345713848996" lon="7.596954798241644"><ele>373.0</ele><time>2026-05-02T12:31:50Z</time></trkpt><trkpt lat="45.3133213164385" lon="7.596716060176071"><ele>376.0</ele><time>2026-05-02T12:31:51Z</time></trkpt><trkpt lat="45.31328674721114" lon="7.596424171742694"><ele>379.0</ele><time>2026-05-02T12:31:52Z</time></trkpt><trkpt lat="45.31327128349427" lon="7.596092468015592"><ele>384.5</ele><time>2026-05-02T12:31:53Z</time></trkpt><trkpt lat="45.31325392982189" lon="7.5957702652383094"><ele>390.0</ele><time>2026-05-02T12:31:54Z</time></trkpt><trkpt lat="45.313248251605486" lon="7.595444880532348"><ele>391.33333333333337</ele><time>2026-05-02T12:31:55Z</time></trkpt><trkpt lat="45.31321784722998" lon="7.595127873036896"><ele>392.6666666666667</ele><time>2026-05-02T12:31:56Z</time></trkpt><trkpt lat="45.31318649573209" lon="7.594846924982417"><ele>394.0</ele><time>2026-05-02T12:31:57Z</time></trkpt><trkpt lat="45.313131653926575" lon="7.594574184345715"><ele>391.0</ele><time>2026-05-02T12:31:58Z</time></trkpt><trkpt lat="45.31304068530351" lon="7.594297355683609"><ele>388.0</ele><time>2026-05-02T12:31:59Z</time></trkpt><trkpt lat="45.31292718574264" lon="7.593968380176788"><ele>388.0</ele><time>2026-05-02T12:32:00Z</time></trkpt><trkpt lat="45.312818695658265" lon="7.593681969331506"><ele>388.0</ele><time>2026-05-02T12:32:01Z</time></trkpt><trkpt lat="45.31272455085516" lon="7.593447191717013"><ele>388.0</ele><time>2026-05-02T12:32:02Z</time></trkpt><trkpt lat="45.31264256561532" lon="7.5932464843552365"><ele>389.25</ele><time>2026-05-02T12:32:03Z</time></trkpt><trkpt lat="45.3125658594934" lon="7.593077730099876"><ele>390.5</ele><time>2026-05-02T12:32:04Z</time></trkpt><trkpt lat="45.312492204233465" lon="7.5929429355336655"><ele>391.75</ele><time>2026-05-02T12:32:05Z</time></trkpt><trkpt lat="45.31241224004484" lon="7.592822683381098"><ele>393.0</ele><time>2026-05-02T12:32:06Z</time></trkpt><trkpt lat="45.312333765820156" lon="7.592722820284649"><ele>393.0</ele><time>2026-05-02T12:32:07Z</time></trkpt><trkpt lat="45.31225978795988" lon="7.592643643303471"><ele>393.0</ele><time>2026-05-02T12:32:08Z</time></trkpt><trkpt lat="45.31220336649954" lon="7.592586065430454"><ele>393.0</ele><time>2026-05-02T12:32:09Z</time></trkpt><trkpt lat="45.312172280180484" lon="7.592502949289744"><ele>393.0</ele><time>2026-05-02T12:32:11Z</time></trkpt><trkpt lat="45.31224857832852" lon="7.5924213081189755"><ele>393.0</ele><time>2026-05-02T12:32:14Z</time></trkpt><trkpt lat="45.312200316899784" lon="7.592314434235049"><ele>393.0</ele><time>2026-05-02T12:32:17Z</time></trkpt><trkpt lat="45.31218366286134" lon="7.592212813354011"><ele>393.0</ele><time>2026-05-02T12:32:31Z</time></trkpt><trkpt lat="45.31216754781265" lon="7.592006984184582"><ele>393.0</ele><time>2026-05-02T12:32:33Z</time></trkpt><trkpt lat="45.31216753449365" lon="7.591882788061848"><ele>393.0</ele><time>2026-05-02T12:32:34Z</time></trkpt><trkpt lat="45.31217017409576" lon="7.591783686973636"><ele>393.0</ele><time>2026-05-02T12:32:35Z</time></trkpt><trkpt lat="45.31220053344084" lon="7.591681006065076"><ele>393.0</ele><time>2026-05-02T12:32:36Z</time></trkpt><trkpt lat="45.3122148241538" lon="7.591577586341102"><ele>393.0</ele><time>2026-05-02T12:32:37Z</time></trkpt><trkpt lat="45.31218657212584" lon="7.591451497894551"><ele>393.0</ele><time>2026-05-02T12:32:38Z</time></trkpt><trkpt lat="45.312127902504066" lon="7.591269548855501"><ele>393.0</ele><time>2026-05-02T12:32:40Z</time></trkpt><trkpt lat="45.31212503710029" lon="7.591144819666327"><ele>393.0</ele><time>2026-05-02T12:32:41Z</time></trkpt><trkpt lat="45.312130167693525" lon="7.590984003556109"><ele>393.0</ele><time>2026-05-02T12:32:42Z</time></trkpt><trkpt lat="45.312130501533666" lon="7.590786631494045"><ele>393.0</ele><time>2026-05-02T12:32:43Z</time></trkpt><trkpt lat="45.312124680258876" lon="7.590618332299378"><ele>393.0</ele><time>2026-05-02T12:32:44Z</time></trkpt><trkpt lat="45.312141107794865" lon="7.590448585703667"><ele>393.0</ele><time>2026-05-02T12:32:45Z</time></trkpt><trkpt lat="45.31213495995651" lon="7.590344625922148"><ele>393.0</ele><time>2026-05-02T12:32:46Z</time></trkpt><trkpt lat="45.31213761355742" lon="7.590181988168632"><ele>393.0</ele><time>2026-05-02T12:32:47Z</time></trkpt><trkpt lat="45.31212721211953" lon="7.590037335537145"><ele>394.0</ele><time>2026-05-02T12:32:48Z</time></trkpt><trkpt lat="45.31211465224165" lon="7.589889114530195"><ele>395.0</ele><time>2026-05-02T12:32:49Z</time></trkpt><trkpt lat="45.31210601023295" lon="7.589713996619718"><ele>396.0</ele><time>2026-05-02T12:32:50Z</time></trkpt><trkpt lat="45.312103824864174" lon="7.589520669873923"><ele>397.0</ele><time>2026-05-02T12:32:51Z</time></trkpt><trkpt lat="45.312108747712" lon="7.58936743282948"><ele>398.20000000000005</ele><time>2026-05-02T12:32:52Z</time></trkpt><trkpt lat="45.312094101025274" lon="7.589237289321897"><ele>399.4</ele><time>2026-05-02T12:32:53Z</time></trkpt><trkpt lat="45.312080027995385" lon="7.589108782715726"><ele>400.6</ele><time>2026-05-02T12:32:54Z</time></trkpt><trkpt lat="45.31206684782322" lon="7.588959378197871"><ele>401.79999999999995</ele><time>2026-05-02T12:32:55Z</time></trkpt><trkpt lat="45.312030030823344" lon="7.588830066001314"><ele>403.0</ele><time>2026-05-02T12:32:56Z</time></trkpt><trkpt lat="45.31200369528716" lon="7.588722706837002"><ele>403.2</ele><time>2026-05-02T12:32:57Z</time></trkpt><trkpt lat="45.3119791720657" lon="7.588616867004332"><ele>403.4</ele><time>2026-05-02T12:32:58Z</time></trkpt><trkpt lat="45.31195476081858" lon="7.588504135486821"><ele>403.59999999999997</ele><time>2026-05-02T12:32:59Z</time></trkpt><trkpt lat="45.311957136423246" lon="7.588398751682049"><ele>403.79999999999995</ele><time>2026-05-02T12:33:01Z</time></trkpt><trkpt lat="45.31205267754708" lon="7.5882447967302324"><ele>404.0</ele><time>2026-05-02T12:33:03Z</time></trkpt><trkpt lat="45.31209107471335" lon="7.588154341306143"><ele>404.0</ele><time>2026-05-02T12:33:04Z</time></trkpt><trkpt lat="45.31211676313393" lon="7.588028431275351"><ele>404.0</ele><time>2026-05-02T12:33:06Z</time></trkpt><trkpt lat="45.312082633316464" lon="7.587856540023069"><ele>404.0</ele><time>2026-05-02T12:33:08Z</time></trkpt><trkpt lat="45.312019201818735" lon="7.587758326237109"><ele>404.0</ele><time>2026-05-02T12:33:09Z</time></trkpt><trkpt lat="45.31196018664734" lon="7.58758729136302"><ele>404.0</ele><time>2026-05-02T12:33:10Z</time></trkpt><trkpt lat="45.31190754562806" lon="7.587426492862733"><ele>404.79999999999995</ele><time>2026-05-02T12:33:11Z</time></trkpt><trkpt lat="45.31184114696203" lon="7.587310227925515"><ele>405.59999999999997</ele><time>2026-05-02T12:33:12Z</time></trkpt><trkpt lat="45.31175931676125" lon="7.5872279267251725"><ele>406.4</ele><time>2026-05-02T12:33:13Z</time></trkpt><trkpt lat="45.31166874879261" lon="7.5871451985531015"><ele>407.2</ele><time>2026-05-02T12:33:14Z</time></trkpt><trkpt lat="45.31160920455712" lon="7.587113577499681"><ele>408.0</ele><time>2026-05-02T12:33:15Z</time></trkpt><trkpt lat="45.311541763166495" lon="7.587043524156877"><ele>408.75</ele><time>2026-05-02T12:33:17Z</time></trkpt><trkpt lat="45.31156438613376" lon="7.586886149049424"><ele>409.5</ele><time>2026-05-02T12:33:19Z</time></trkpt><trkpt lat="45.31161690447826" lon="7.586670032629117"><ele>410.25</ele><time>2026-05-02T12:33:20Z</time></trkpt><trkpt lat="45.31162851974191" lon="7.586473241498349"><ele>411.0</ele><time>2026-05-02T12:33:21Z</time></trkpt><trkpt lat="45.311625958205894" lon="7.58627905674958"><ele>411.25</ele><time>2026-05-02T12:33:22Z</time></trkpt><trkpt lat="45.31161163929478" lon="7.586099985182221"><ele>411.5</ele><time>2026-05-02T12:33:23Z</time></trkpt><trkpt lat="45.311587602591324" lon="7.585953031365345"><ele>411.75</ele><time>2026-05-02T12:33:24Z</time></trkpt><trkpt lat="45.31155095194593" lon="7.585781084703576"><ele>412.0</ele><time>2026-05-02T12:33:25Z</time></trkpt><trkpt lat="45.31150717938756" lon="7.585621688792372"><ele>412.0</ele><time>2026-05-02T12:33:26Z</time></trkpt><trkpt lat="45.31147768769561" lon="7.58547325184937"><ele>412.0</ele><time>2026-05-02T12:33:27Z</time></trkpt><trkpt lat="45.31146198866819" lon="7.5852994225564565"><ele>412.0</ele><time>2026-05-02T12:33:28Z</time></trkpt><trkpt lat="45.31145413882041" lon="7.585131506794673"><ele>412.0</ele><time>2026-05-02T12:33:29Z</time></trkpt><trkpt lat="45.31145059298869" lon="7.585002318022405"><ele>412.0</ele><time>2026-05-02T12:33:30Z</time></trkpt><trkpt lat="45.31146072923566" lon="7.584897884745308"><ele>412.1666666666667</ele><time>2026-05-02T12:33:31Z</time></trkpt><trkpt lat="45.31150720866752" lon="7.584798992194864"><ele>412.33333333333337</ele><time>2026-05-02T12:33:32Z</time></trkpt><trkpt lat="45.31153426834672" lon="7.5847043058785735"><ele>412.5</ele><time>2026-05-02T12:33:33Z</time></trkpt><trkpt lat="45.31153582699455" lon="7.584607372396435"><ele>412.66666666666663</ele><time>2026-05-02T12:33:36Z</time></trkpt><trkpt lat="45.311569561673586" lon="7.58452262847687"><ele>412.8333333333333</ele><time>2026-05-02T12:33:50Z</time></trkpt><trkpt lat="45.31161354573503" lon="7.584388080990145"><ele>413.0</ele><time>2026-05-02T12:33:52Z</time></trkpt><trkpt lat="45.31163619778497" lon="7.584296181105565"><ele>413.2</ele><time>2026-05-02T12:33:53Z</time></trkpt><trkpt lat="45.311656472343955" lon="7.58417598236979"><ele>413.4</ele><time>2026-05-02T12:33:54Z</time></trkpt><trkpt lat="45.311667386535454" lon="7.5840542349723625"><ele>413.59999999999997</ele><time>2026-05-02T12:33:55Z</time></trkpt><trkpt lat="45.31168506179314" lon="7.583918186801593"><ele>413.79999999999995</ele><time>2026-05-02T12:33:56Z</time></trkpt><trkpt lat="45.31170169396502" lon="7.583771936741319"><ele>414.0</ele><time>2026-05-02T12:33:57.001Z</time></trkpt><trkpt lat="45.31170821156054" lon="7.583610215621088"><ele>414.0</ele><time>2026-05-02T12:33:58.001Z</time></trkpt><trkpt lat="45.31170625604507" lon="7.583438201845605"><ele>414.0</ele><time>2026-05-02T12:33:59.001Z</time></trkpt><trkpt lat="45.311682171088236" lon="7.583291660684785"><ele>414.0</ele><time>2026-05-02T12:34:00.001Z</time></trkpt><trkpt lat="45.311642676447256" lon="7.583141933267869"><ele>414.0</ele><time>2026-05-02T12:34:01.001Z</time></trkpt><trkpt lat="45.31158827834357" lon="7.583007027132101"><ele>414.0</ele><time>2026-05-02T12:34:02.001Z</time></trkpt><trkpt lat="45.31154597533149" lon="7.582882682620486"><ele>414.5</ele><time>2026-05-02T12:34:03.001Z</time></trkpt><trkpt lat="45.31151368832532" lon="7.582799480879344"><ele>415.0</ele><time>2026-05-02T12:34:04.001Z</time></trkpt><trkpt lat="45.31149479918306" lon="7.582710130462163"><ele>415.5</ele><time>2026-05-02T12:34:31Z</time></trkpt><trkpt lat="45.311536430887344" lon="7.58262436959048"><ele>416.0</ele><time>2026-05-02T12:34:32Z</time></trkpt><trkpt lat="45.3116141733671" lon="7.582528747868547"><ele>416.5</ele><time>2026-05-02T12:34:33Z</time></trkpt><trkpt lat="45.31171191415072" lon="7.582413976737941"><ele>417.0</ele><time>2026-05-02T12:34:34Z</time></trkpt><trkpt lat="45.31182076107062" lon="7.582274844890957"><ele>417.0</ele><time>2026-05-02T12:34:35Z</time></trkpt><trkpt lat="45.31190145398247" lon="7.58217582817479"><ele>417.0</ele><time>2026-05-02T12:34:36Z</time></trkpt><trkpt lat="45.311962080583676" lon="7.582133700434127"><ele>417.0</ele><time>2026-05-02T12:34:37Z</time></trkpt><trkpt lat="45.31202686217826" lon="7.582108440383015"><ele>417.0</ele><time>2026-05-02T12:34:39Z</time></trkpt><trkpt lat="45.312140879769046" lon="7.582169358013261"><ele>417.0</ele><time>2026-05-02T12:34:42Z</time></trkpt><trkpt lat="45.312227465876674" lon="7.582227478731703"><ele>418.75</ele><time>2026-05-02T12:34:43Z</time></trkpt><trkpt lat="45.312339209099086" lon="7.5823043217919945"><ele>420.5</ele><time>2026-05-02T12:34:44Z</time></trkpt><trkpt lat="45.312457170731854" lon="7.5823639845117405"><ele>422.25</ele><time>2026-05-02T12:34:45Z</time></trkpt><trkpt lat="45.31258610622681" lon="7.582442918438374"><ele>424.0</ele><time>2026-05-02T12:34:46Z</time></trkpt><trkpt lat="45.31267730578186" lon="7.5825208279905265"><ele>424.0</ele><time>2026-05-02T12:34:47Z</time></trkpt><trkpt lat="45.312748461563615" lon="7.582567228526555"><ele>424.0</ele><time>2026-05-02T12:34:48Z</time></trkpt><trkpt lat="45.31281261118143" lon="7.582630812177851"><ele>424.0</ele><time>2026-05-02T12:34:50Z</time></trkpt><trkpt lat="45.312846272612255" lon="7.582759422120477"><ele>424.0</ele><time>2026-05-02T12:35:35Z</time></trkpt><trkpt lat="45.312871200707235" lon="7.5828830931845905"><ele>424.0</ele><time>2026-05-02T12:35:36Z</time></trkpt><trkpt lat="45.31288450206467" lon="7.583035639961519"><ele>422.75</ele><time>2026-05-02T12:35:37Z</time></trkpt><trkpt lat="45.31292351065603" lon="7.583201309501615"><ele>421.5</ele><time>2026-05-02T12:35:38Z</time></trkpt><trkpt lat="45.31298035359279" lon="7.583384989444872"><ele>420.25</ele><time>2026-05-02T12:35:39Z</time></trkpt><trkpt lat="45.313045911275665" lon="7.583565993300508"><ele>419.0</ele><time>2026-05-02T12:35:40Z</time></trkpt><trkpt lat="45.31309092770585" lon="7.583694508391699"><ele>424.0</ele><time>2026-05-02T12:35:41Z</time></trkpt><trkpt lat="45.31309502450651" lon="7.583826278103924"><ele>429.0</ele><time>2026-05-02T12:35:42Z</time></trkpt><trkpt lat="45.313111657556625" lon="7.583923600686614"><ele>434.0</ele><time>2026-05-02T12:35:43Z</time></trkpt><trkpt lat="45.313145779874276" lon="7.584105024789964"><ele>439.0</ele><time>2026-05-02T12:35:45Z</time></trkpt><trkpt lat="45.313206239894136" lon="7.58421122297577"><ele>444.0</ele><time>2026-05-02T12:35:46Z</time></trkpt><trkpt lat="45.31324150016565" lon="7.584314269240518"><ele>444.0</ele><time>2026-05-02T12:35:47Z</time></trkpt><trkpt lat="45.31327922719292" lon="7.584402271425118"><ele>444.0</ele><time>2026-05-02T12:35:49Z</time></trkpt><trkpt lat="45.31332666222036" lon="7.584589797043121"><ele>444.0</ele><time>2026-05-02T12:35:52Z</time></trkpt><trkpt lat="45.313369549154125" lon="7.584731701990851"><ele>444.0</ele><time>2026-05-02T12:35:53Z</time></trkpt><trkpt lat="45.313408974354736" lon="7.584826969437395"><ele>444.0</ele><time>2026-05-02T12:35:54Z</time></trkpt><trkpt lat="45.31343648973421" lon="7.584963733006779"><ele>442.75</ele><time>2026-05-02T12:35:56Z</time></trkpt><trkpt lat="45.3134773665153" lon="7.585086809534948"><ele>441.5</ele><time>2026-05-02T12:35:57Z</time></trkpt><trkpt lat="45.313537869602186" lon="7.585253311036204"><ele>440.25</ele><time>2026-05-02T12:35:58Z</time></trkpt><trkpt lat="45.31360574978886" lon="7.585402282609019"><ele>439.0</ele><time>2026-05-02T12:35:59Z</time></trkpt><trkpt lat="45.31366625927307" lon="7.5855488824425965"><ele>437.75</ele><time>2026-05-02T12:36:00Z</time></trkpt><trkpt lat="45.31373849936272" lon="7.585691347704671"><ele>436.5</ele><time>2026-05-02T12:36:01Z</time></trkpt><trkpt lat="45.31382894570771" lon="7.58582175256744"><ele>435.25</ele><time>2026-05-02T12:36:02Z</time></trkpt><trkpt lat="45.31393378849517" lon="7.585926712684856"><ele>434.0</ele><time>2026-05-02T12:36:03.001Z</time></trkpt><trkpt lat="45.31404010649901" lon="7.586026965711927"><ele>434.0</ele><time>2026-05-02T12:36:04.001Z</time></trkpt><trkpt lat="45.31413527871968" lon="7.586098553818715"><ele>434.0</ele><time>2026-05-02T12:36:05.001Z</time></trkpt><trkpt lat="45.31420874363638" lon="7.586146324019454"><ele>434.0</ele><time>2026-05-02T12:36:06.001Z</time></trkpt><trkpt lat="45.314322151317796" lon="7.58611596772602"><ele>434.0</ele><time>2026-05-02T12:36:08.001Z</time></trkpt><trkpt lat="45.31437842365773" lon="7.586003928223546"><ele>434.0</ele><time>2026-05-02T12:36:09.001Z</time></trkpt><trkpt lat="45.31446152831385" lon="7.585954115504755"><ele>434.0</ele><time>2026-05-02T12:36:10.001Z</time></trkpt><trkpt lat="45.314584699135146" lon="7.586005823749198"><ele>434.0</ele><time>2026-05-02T12:36:12.001Z</time></trkpt><trkpt lat="45.314626305558406" lon="7.58615742826001"><ele>434.0</ele><time>2026-05-02T12:36:13.001Z</time></trkpt><trkpt lat="45.314713056068655" lon="7.58626189799738"><ele>434.0</ele><time>2026-05-02T12:36:14.001Z</time></trkpt><trkpt lat="45.31483759182038" lon="7.5863607693541235"><ele>435.5</ele><time>2026-05-02T12:36:15.001Z</time></trkpt><trkpt lat="45.31498803853478" lon="7.58639167219649"><ele>437.0</ele><time>2026-05-02T12:36:16.001Z</time></trkpt><trkpt lat="45.31511933291903" lon="7.586426047230312"><ele>438.5</ele><time>2026-05-02T12:36:17Z</time></trkpt><trkpt lat="45.315243998477094" lon="7.58646857894122"><ele>440.0</ele><time>2026-05-02T12:36:18Z</time></trkpt><trkpt lat="45.315346641921074" lon="7.58657768327053"><ele>440.0</ele><time>2026-05-02T12:36:19Z</time></trkpt><trkpt lat="45.31546360973399" lon="7.586632224886381"><ele>440.0</ele><time>2026-05-02T12:36:20Z</time></trkpt><trkpt lat="45.31556618409015" lon="7.586691697620085"><ele>440.0</ele><time>2026-05-02T12:36:21Z</time></trkpt><trkpt lat="45.31567363034819" lon="7.586740026297926"><ele>440.0</ele><time>2026-05-02T12:36:22Z</time></trkpt><trkpt lat="45.31579209777126" lon="7.586743330597013"><ele>443.0</ele><time>2026-05-02T12:36:23Z</time></trkpt><trkpt lat="45.31590247544187" lon="7.586738464836973"><ele>446.0</ele><time>2026-05-02T12:36:24Z</time></trkpt><trkpt lat="45.316000124466335" lon="7.586741523792971"><ele>449.0</ele><time>2026-05-02T12:36:25Z</time></trkpt><trkpt lat="45.31608844850619" lon="7.58677399729536"><ele>452.0</ele><time>2026-05-02T12:36:27Z</time></trkpt><trkpt lat="45.31601575980128" lon="7.586926746477538"><ele>455.0</ele><time>2026-05-02T12:36:29Z</time></trkpt><trkpt lat="45.31595045350963" lon="7.587010040465029"><ele>454.8</ele><time>2026-05-02T12:36:30Z</time></trkpt><trkpt lat="45.31592899522811" lon="7.5871305267883615"><ele>454.6</ele><time>2026-05-02T12:36:31Z</time></trkpt><trkpt lat="45.315927980253875" lon="7.587253336183466"><ele>454.4</ele><time>2026-05-02T12:36:32Z</time></trkpt><trkpt lat="45.31594936430329" lon="7.587392266679333"><ele>454.2</ele><time>2026-05-02T12:36:33Z</time></trkpt><trkpt lat="45.3159649785662" lon="7.5875511824127715"><ele>454.0</ele><time>2026-05-02T12:36:34Z</time></trkpt><trkpt lat="45.3159656551859" lon="7.58766798360384"><ele>454.0</ele><time>2026-05-02T12:36:35Z</time></trkpt><trkpt lat="45.315910705985324" lon="7.58782117496392"><ele>454.0</ele><time>2026-05-02T12:36:37Z</time></trkpt><trkpt lat="45.31585754978134" lon="7.587921371970088"><ele>454.0</ele><time>2026-05-02T12:36:38Z</time></trkpt><trkpt lat="45.31580748736715" lon="7.588035485379489"><ele>454.0</ele><time>2026-05-02T12:36:39Z</time></trkpt><trkpt lat="45.315804456488635" lon="7.588187088786673"><ele>454.0</ele><time>2026-05-02T12:36:40Z</time></trkpt><trkpt lat="45.31577432011902" lon="7.588340260818019"><ele>454.6666666666667</ele><time>2026-05-02T12:36:41Z</time></trkpt><trkpt lat="45.31576216341308" lon="7.588486673632453"><ele>455.33333333333337</ele><time>2026-05-02T12:36:42Z</time></trkpt><trkpt lat="45.31574245910754" lon="7.588590349142784"><ele>456.0</ele><time>2026-05-02T12:36:43Z</time></trkpt><trkpt lat="45.31572325520817" lon="7.5887293551987725"><ele>456.66666666666663</ele><time>2026-05-02T12:36:45Z</time></trkpt><trkpt lat="45.31573605272452" lon="7.58884305677759"><ele>457.3333333333333</ele><time>2026-05-02T12:36:47Z</time></trkpt><trkpt lat="45.315758060651675" lon="7.5889405320180705"><ele>458.0</ele><time>2026-05-02T12:36:49Z</time></trkpt><trkpt lat="45.315797652618954" lon="7.589031592704378"><ele>456.2</ele><time>2026-05-02T12:36:51Z</time></trkpt><trkpt lat="45.315911194243085" lon="7.589112504237218"><ele>454.4</ele><time>2026-05-02T12:36:53Z</time></trkpt><trkpt lat="45.31600745690804" lon="7.589053567474106"><ele>452.59999999999997</ele><time>2026-05-02T12:36:54Z</time></trkpt><trkpt lat="45.31608257792191" lon="7.589005470171458"><ele>450.79999999999995</ele><time>2026-05-02T12:36:55Z</time></trkpt><trkpt lat="45.316140904734574" lon="7.588900931243411"><ele>449.0</ele><time>2026-05-02T12:36:56Z</time></trkpt><trkpt lat="45.316225505416334" lon="7.588811280631842"><ele>448.99999999999994</ele><time>2026-05-02T12:36:57Z</time></trkpt><trkpt lat="45.31629555424783" lon="7.588770379414387"><ele>449.0</ele><time>2026-05-02T12:36:58Z</time></trkpt><trkpt lat="45.31640457042992" lon="7.588771660041979"><ele>449.0</ele><time>2026-05-02T12:37:00Z</time></trkpt><trkpt lat="45.31644786540759" lon="7.588847089130111"><ele>449.0</ele><time>2026-05-02T12:37:01Z</time></trkpt><trkpt lat="45.31644364063572" lon="7.5889801547475155"><ele>448.99999999999994</ele><time>2026-05-02T12:37:02Z</time></trkpt><trkpt lat="45.31650035938804" lon="7.5890838195121235"><ele>449.0</ele><time>2026-05-02T12:37:03Z</time></trkpt><trkpt lat="45.31659501410096" lon="7.589154492549266"><ele>449.79999999999995</ele><time>2026-05-02T12:37:04Z</time></trkpt><trkpt lat="45.31662898636904" lon="7.58924589912032"><ele>450.59999999999997</ele><time>2026-05-02T12:37:05Z</time></trkpt><trkpt lat="45.31662155268018" lon="7.589365546287225"><ele>451.4</ele><time>2026-05-02T12:37:07Z</time></trkpt><trkpt lat="45.3165693928412" lon="7.589447300538476"><ele>452.2</ele><time>2026-05-02T12:37:08Z</time></trkpt><trkpt lat="45.31650827419902" lon="7.589555361368875"><ele>453.0</ele><time>2026-05-02T12:37:09Z</time></trkpt><trkpt lat="45.31639037297202" lon="7.589667373869315"><ele>453.0</ele><time>2026-05-02T12:37:10Z</time></trkpt><trkpt lat="45.31623118786562" lon="7.589688475644983"><ele>453.0</ele><time>2026-05-02T12:37:11Z</time></trkpt><trkpt lat="45.31607323929809" lon="7.5897859353606965"><ele>453.0</ele><time>2026-05-02T12:37:12Z</time></trkpt><trkpt lat="45.31590907819352" lon="7.589913208121668"><ele>453.0</ele><time>2026-05-02T12:37:13Z</time></trkpt><trkpt lat="45.315775755623676" lon="7.590052774253915"><ele>453.0</ele><time>2026-05-02T12:37:14Z</time></trkpt><trkpt lat="45.31566919473599" lon="7.590139101252863"><ele>453.0</ele><time>2026-05-02T12:37:15Z</time></trkpt><trkpt lat="45.31557533127223" lon="7.590241238929443"><ele>453.0</ele><time>2026-05-02T12:37:16Z</time></trkpt><trkpt lat="45.315486451916534" lon="7.590369287432711"><ele>452.0</ele><time>2026-05-02T12:37:17Z</time></trkpt><trkpt lat="45.3153753895727" lon="7.590474883774789"><ele>451.0</ele><time>2026-05-02T12:37:18Z</time></trkpt><trkpt lat="45.31528384655887" lon="7.590591357192298"><ele>450.0</ele><time>2026-05-02T12:37:19Z</time></trkpt><trkpt lat="45.31519633533688" lon="7.590707258146124"><ele>449.0</ele><time>2026-05-02T12:37:20Z</time></trkpt><trkpt lat="45.31511680871573" lon="7.590790947579189"><ele>449.0</ele><time>2026-05-02T12:37:21Z</time></trkpt><trkpt lat="45.31506893804844" lon="7.590864395316998"><ele>449.0</ele><time>2026-05-02T12:37:22Z</time></trkpt><trkpt lat="45.31502906888723" lon="7.590978122774043"><ele>449.0</ele><time>2026-05-02T12:37:24Z</time></trkpt><trkpt lat="45.314954308398775" lon="7.591100549407551"><ele>449.0</ele><time>2026-05-02T12:37:26Z</time></trkpt><trkpt lat="45.31492293556512" lon="7.591244198439524"><ele>449.0</ele><time>2026-05-02T12:37:28Z</time></trkpt><trkpt lat="45.3149118777142" lon="7.591352603591251"><ele>450.2</ele><time>2026-05-02T12:37:29Z</time></trkpt><trkpt lat="45.31489205019879" lon="7.591517654671125"><ele>451.4</ele><time>2026-05-02T12:37:31Z</time></trkpt><trkpt lat="45.31491502377514" lon="7.591614648275853"><ele>452.6</ele><time>2026-05-02T12:37:33Z</time></trkpt><trkpt lat="45.314966051315785" lon="7.5916993836669695"><ele>453.8</ele><time>2026-05-02T12:37:35Z</time></trkpt><trkpt lat="45.315010303143566" lon="7.591841128872319"><ele>455.0</ele><time>2026-05-02T12:37:37Z</time></trkpt><trkpt lat="45.315055595113755" lon="7.592023265336131"><ele>455.0</ele><time>2026-05-02T12:37:39Z</time></trkpt><trkpt lat="45.31507487370234" lon="7.592145770148474"><ele>455.0</ele><time>2026-05-02T12:37:41Z</time></trkpt><trkpt lat="45.3151234710796" lon="7.592251056722891"><ele>455.0</ele><time>2026-05-02T12:37:43Z</time></trkpt><trkpt lat="45.315128265159906" lon="7.59235551299826"><ele>455.0</ele><time>2026-05-02T12:37:45Z</time></trkpt><trkpt lat="45.31519190306987" lon="7.592506237312387"><ele>455.0</ele><time>2026-05-02T12:37:47Z</time></trkpt><trkpt lat="45.31524874539232" lon="7.592616477528425"><ele>455.0</ele><time>2026-05-02T12:37:48Z</time></trkpt><trkpt lat="45.31533999579165" lon="7.592650101041795"><ele>455.0</ele><time>2026-05-02T12:37:50Z</time></trkpt><trkpt lat="45.31540565796325" lon="7.592695945911208"><ele>455.0</ele><time>2026-05-02T12:37:51Z</time></trkpt><trkpt lat="45.31550965705202" lon="7.592703370847375"><ele>455.0</ele><time>2026-05-02T12:37:52Z</time></trkpt><trkpt lat="45.31564000204722" lon="7.592737749745357"><ele>455.0</ele><time>2026-05-02T12:37:53Z</time></trkpt><trkpt lat="45.3157886507321" lon="7.592740296494709"><ele>458.0</ele><time>2026-05-02T12:37:54Z</time></trkpt><trkpt lat="45.31589760715905" lon="7.592757501916714"><ele>461.0</ele><time>2026-05-02T12:37:55Z</time></trkpt><trkpt lat="45.31601087381188" lon="7.5927564803921905"><ele>464.0</ele><time>2026-05-02T12:37:57Z</time></trkpt><trkpt lat="45.31613158477887" lon="7.592752784739907"><ele>467.0</ele><time>2026-05-02T12:37:59Z</time></trkpt><trkpt lat="45.31626391596302" lon="7.59279471761986"><ele>467.0</ele><time>2026-05-02T12:38:00Z</time></trkpt><trkpt lat="45.31635365063123" lon="7.5927453064173"><ele>467.00000000000006</ele><time>2026-05-02T12:38:01Z</time></trkpt><trkpt lat="45.316466699466005" lon="7.592674897165869"><ele>467.00000000000006</ele><time>2026-05-02T12:38:03Z</time></trkpt><trkpt lat="45.31652208320882" lon="7.592624928660547"><ele>467.0</ele><time>2026-05-02T12:38:04Z</time></trkpt><trkpt lat="45.31657466123271" lon="7.592575266030643"><ele>467.0</ele><time>2026-05-02T12:38:05Z</time></trkpt><trkpt lat="45.316661608384635" lon="7.592500862230226"><ele>467.3333333333333</ele><time>2026-05-02T12:38:06Z</time></trkpt><trkpt lat="45.31674572273394" lon="7.592439795810557"><ele>467.66666666666663</ele><time>2026-05-02T12:38:07Z</time></trkpt><trkpt lat="45.31674950327782" lon="7.592305918948838"><ele>468.0</ele><time>2026-05-02T12:38:08Z</time></trkpt><trkpt lat="45.31682386529451" lon="7.592259419937147"><ele>468.33333333333337</ele><time>2026-05-02T12:38:10Z</time></trkpt><trkpt lat="45.31689287533844" lon="7.592283626585645"><ele>468.6666666666667</ele><time>2026-05-02T12:38:12Z</time></trkpt><trkpt lat="45.31695588099715" lon="7.592339617042011"><ele>469.0</ele><time>2026-05-02T12:38:16Z</time></trkpt><trkpt lat="45.31703965429532" lon="7.592302882371002"><ele>469.0</ele><time>2026-05-02T12:38:19Z</time></trkpt><trkpt lat="45.31713488031438" lon="7.592256756883497"><ele>469.0</ele><time>2026-05-02T12:38:22Z</time></trkpt><trkpt lat="45.31722523815868" lon="7.5922546790162775"><ele>469.0</ele><time>2026-05-02T12:38:24Z</time></trkpt><trkpt lat="45.31733613834784" lon="7.592330738264032"><ele>469.0</ele><time>2026-05-02T12:38:26Z</time></trkpt><trkpt lat="45.31738811464863" lon="7.592410304608871"><ele>469.0</ele><time>2026-05-02T12:38:28Z</time></trkpt><trkpt lat="45.31747247017783" lon="7.592447558508887"><ele>470.6</ele><time>2026-05-02T12:38:30Z</time></trkpt><trkpt lat="45.31753353459879" lon="7.592477974729091"><ele>472.2</ele><time>2026-05-02T12:38:31Z</time></trkpt><trkpt lat="45.31759827601713" lon="7.592521679567204"><ele>473.80000000000007</ele><time>2026-05-02T12:38:34Z</time></trkpt><trkpt lat="45.3176867568455" lon="7.5925938370735"><ele>475.40000000000003</ele><time>2026-05-02T12:38:41Z</time></trkpt><trkpt lat="45.31780890077183" lon="7.592602323438904"><ele>477.0</ele><time>2026-05-02T12:39:43Z</time></trkpt><trkpt lat="45.3179075834979" lon="7.592679616636686"><ele>477.0</ele><time>2026-05-02T12:39:45Z</time></trkpt><trkpt lat="45.31797914294226" lon="7.592702507997781"><ele>477.0</ele><time>2026-05-02T12:39:49Z</time></trkpt><trkpt lat="45.318049071356704" lon="7.592691840664013"><ele>477.0</ele><time>2026-05-02T12:40:09.999Z</time></trkpt><trkpt lat="45.31794641016232" lon="7.592652207467645"><ele>477.0</ele><time>2026-05-02T12:42:50Z</time></trkpt><trkpt lat="45.31801011279706" lon="7.5927421417653065"><ele>477.0</ele><time>2026-05-02T12:43:07Z</time></trkpt><trkpt lat="45.31810073556315" lon="7.592738470238935"><ele>477.0</ele><time>2026-05-02T12:46:07.999Z</time></trkpt><trkpt lat="45.31820758885639" lon="7.5927316263210685"><ele>478.6</ele><time>2026-05-02T12:46:09.999Z</time></trkpt><trkpt lat="45.31829592707115" lon="7.592691776835068"><ele>480.20000000000005</ele><time>2026-05-02T12:46:11.999Z</time></trkpt><trkpt lat="45.31838569804411" lon="7.592650493269948"><ele>481.8</ele><time>2026-05-02T12:46:13.999Z</time></trkpt><trkpt lat="45.31845111811401" lon="7.592725944253812"><ele>483.4</ele><time>2026-05-02T12:46:16.999Z</time></trkpt><trkpt lat="45.318480260166034" lon="7.592829210867777"><ele>485.0</ele><time>2026-05-02T12:46:19.999Z</time></trkpt><trkpt lat="45.31855437102487" lon="7.5929354224222205"><ele>484.0</ele><time>2026-05-02T12:46:21.999Z</time></trkpt><trkpt lat="45.318639418295184" lon="7.592963939436128"><ele>483.0</ele><time>2026-05-02T12:46:23.999Z</time></trkpt><trkpt lat="45.31873662758243" lon="7.5930213730881535"><ele>482.0</ele><time>2026-05-02T12:46:24.999Z</time></trkpt><trkpt lat="45.31883621450749" lon="7.593078322875077"><ele>481.0</ele><time>2026-05-02T12:46:25.999Z</time></trkpt><trkpt lat="45.31893030288668" lon="7.5931302278775705"><ele>480.0</ele><time>2026-05-02T12:46:27.999Z</time></trkpt><trkpt lat="45.319043504731255" lon="7.5931165444341"><ele>480.0</ele><time>2026-05-02T12:46:29.999Z</time></trkpt><trkpt lat="45.31911465342108" lon="7.5932061037742224"><ele>480.0</ele><time>2026-05-02T12:46:35Z</time></trkpt><trkpt lat="45.319138087722976" lon="7.593294775626536"><ele>480.0</ele><time>2026-05-02T12:46:37Z</time></trkpt><trkpt lat="45.31914297797466" lon="7.593384558796874"><ele>480.0</ele><time>2026-05-02T12:46:42Z</time></trkpt><trkpt lat="45.319191304284175" lon="7.593517048628195"><ele>480.0</ele><time>2026-05-02T12:46:56Z</time></trkpt><trkpt lat="45.31926207103428" lon="7.593611032409064"><ele>480.0</ele><time>2026-05-02T12:47:02Z</time></trkpt><trkpt lat="45.31936555533308" lon="7.593634259488349"><ele>479.4</ele><time>2026-05-02T12:47:04Z</time></trkpt><trkpt lat="45.319422588493985" lon="7.593676984352901"><ele>478.8</ele><time>2026-05-02T12:47:05Z</time></trkpt><trkpt lat="45.31956177854373" lon="7.593705248013484"><ele>478.20000000000005</ele><time>2026-05-02T12:47:07Z</time></trkpt><trkpt lat="45.319632174679846" lon="7.593684990919961"><ele>477.6</ele><time>2026-05-02T12:47:08Z</time></trkpt><trkpt lat="45.31974126420242" lon="7.593789467452559"><ele>477.0</ele><time>2026-05-02T12:47:11Z</time></trkpt><trkpt lat="45.31978066874287" lon="7.593867172035418"><ele>477.0</ele><time>2026-05-02T12:47:12Z</time></trkpt><trkpt lat="45.31983941868167" lon="7.593979958324129"><ele>477.0</ele><time>2026-05-02T12:47:13Z</time></trkpt><trkpt lat="45.319864906931194" lon="7.594069266256338"><ele>477.0</ele><time>2026-05-02T12:47:14Z</time></trkpt><trkpt lat="45.319933413114775" lon="7.594158587844434"><ele>477.0</ele><time>2026-05-02T12:47:16Z</time></trkpt><trkpt lat="45.32000620467441" lon="7.594148426133737"><ele>477.0</ele><time>2026-05-02T12:47:17Z</time></trkpt><trkpt lat="45.32010612980861" lon="7.594122310566212"><ele>477.0</ele><time>2026-05-02T12:47:18Z</time></trkpt><trkpt lat="45.32016650839138" lon="7.594063297499559"><ele>477.0</ele><time>2026-05-02T12:47:19Z</time></trkpt><trkpt lat="45.32022322732626" lon="7.593935415007369"><ele>477.0</ele><time>2026-05-02T12:47:21Z</time></trkpt><trkpt lat="45.32026761343569" lon="7.593871882847683"><ele>477.0</ele><time>2026-05-02T12:47:23Z</time></trkpt><trkpt lat="45.32028231839139" lon="7.593961098509903"><ele>477.0</ele><time>2026-05-02T12:47:25Z</time></trkpt><trkpt lat="45.32031734117469" lon="7.594086027716737"><ele>477.0</ele><time>2026-05-02T12:47:26Z</time></trkpt><trkpt lat="45.320364183804514" lon="7.5941710335261154"><ele>477.0</ele><time>2026-05-02T12:47:27Z</time></trkpt><trkpt lat="45.32045405793654" lon="7.594252131485236"><ele>477.0</ele><time>2026-05-02T12:47:29Z</time></trkpt><trkpt lat="45.32053784282582" lon="7.594328064724115"><ele>477.0</ele><time>2026-05-02T12:47:31Z</time></trkpt><trkpt lat="45.32053351376594" lon="7.594461284936842"><ele>477.0</ele><time>2026-05-02T12:47:33Z</time></trkpt><trkpt lat="45.32056260832751" lon="7.594551180220208"><ele>477.0</ele><time>2026-05-02T12:47:35Z</time></trkpt><trkpt lat="45.32060581854673" lon="7.594644360493574"><ele>477.0</ele><time>2026-05-02T12:47:36Z</time></trkpt><trkpt lat="45.32064421446219" lon="7.594734207352273"><ele>477.0</ele><time>2026-05-02T12:47:38Z</time></trkpt><trkpt lat="45.3206751006628" lon="7.594819376601318"><ele>477.5</ele><time>2026-05-02T12:47:39Z</time></trkpt><trkpt lat="45.32075625002642" lon="7.594903082028948"><ele>478.0</ele><time>2026-05-02T12:47:41Z</time></trkpt><trkpt lat="45.32083256301893" lon="7.59493849692947"><ele>478.5</ele><time>2026-05-02T12:47:43Z</time></trkpt><trkpt lat="45.32088690795438" lon="7.595003718959779"><ele>479.0</ele><time>2026-05-02T12:47:46Z</time></trkpt><trkpt lat="45.32095198199108" lon="7.595108459771196"><ele>479.5</ele><time>2026-05-02T12:48:07.999Z</time></trkpt><trkpt lat="45.32102640095238" lon="7.595174793338987"><ele>480.0</ele><time>2026-05-02T12:48:10.999Z</time></trkpt><trkpt lat="45.321086337693124" lon="7.595229163609745"><ele>480.0</ele><time>2026-05-02T12:48:12.999Z</time></trkpt><trkpt lat="45.32115590674598" lon="7.595287163889695"><ele>480.0</ele><time>2026-05-02T12:48:15.999Z</time></trkpt><trkpt lat="45.321255625996216" lon="7.595326311466723"><ele>480.0</ele><time>2026-05-02T12:48:17.999Z</time></trkpt><trkpt lat="45.321331796429334" lon="7.595389515884659"><ele>480.0</ele><time>2026-05-02T12:48:19.999Z</time></trkpt><trkpt lat="45.321344568913645" lon="7.5955059487309295"><ele>480.0</ele><time>2026-05-02T12:48:22.999Z</time></trkpt><trkpt lat="45.3213478814699" lon="7.5956031387901755"><ele>480.0</ele><time>2026-05-02T12:48:23.999Z</time></trkpt><trkpt lat="45.321383517721735" lon="7.595732965670885"><ele>481.8333333333333</ele><time>2026-05-02T12:48:25.999Z</time></trkpt><trkpt lat="45.32146136860916" lon="7.595749200557074"><ele>483.66666666666663</ele><time>2026-05-02T12:48:55Z</time></trkpt><trkpt lat="45.321549102051414" lon="7.595674841696833"><ele>485.5</ele><time>2026-05-02T12:49:20Z</time></trkpt><trkpt lat="45.32161051292073" lon="7.5955991647419365"><ele>487.3333333333333</ele><time>2026-05-02T12:49:22Z</time></trkpt><trkpt lat="45.32168735150686" lon="7.595568267032781"><ele>489.16666666666663</ele><time>2026-05-02T12:49:25Z</time></trkpt><trkpt lat="45.32162871223117" lon="7.595642824318733"><ele>491.0</ele><time>2026-05-02T12:50:06Z</time></trkpt><trkpt lat="45.321539959430254" lon="7.595696271114696"><ele>490.99999999999994</ele><time>2026-05-02T12:50:10Z</time></trkpt><trkpt lat="45.3214976635897" lon="7.595781156656404"><ele>491.0</ele><time>2026-05-02T12:50:15Z</time></trkpt><trkpt lat="45.321427785283724" lon="7.595782501351091"><ele>491.0</ele><time>2026-05-02T12:50:19Z</time></trkpt><trkpt lat="45.32145863063887" lon="7.5959025019271555"><ele>491.0</ele><time>2026-05-02T12:50:23.999Z</time></trkpt><trkpt lat="45.321535334169305" lon="7.595871142215015"><ele>490.99999999999994</ele><time>2026-05-02T12:50:28.999Z</time></trkpt><trkpt lat="45.32163457531635" lon="7.595868354958053"><ele>491.0</ele><time>2026-05-02T12:50:47Z</time></trkpt><trkpt lat="45.32176215962669" lon="7.595840222926084"><ele>491.0</ele><time>2026-05-02T12:50:49Z</time></trkpt><trkpt lat="45.321891392587915" lon="7.595797078694138"><ele>491.0</ele><time>2026-05-02T12:50:51Z</time></trkpt><trkpt lat="45.32198081968584" lon="7.595798851258333"><ele>491.0</ele><time>2026-05-02T12:50:52Z</time></trkpt><trkpt lat="45.322071104267046" lon="7.595832280924744"><ele>491.0</ele><time>2026-05-02T12:50:53Z</time></trkpt><trkpt lat="45.32214585103261" lon="7.595894272910961"><ele>491.0</ele><time>2026-05-02T12:50:55Z</time></trkpt><trkpt lat="45.322198520654865" lon="7.595955833568688"><ele>491.66666666666663</ele><time>2026-05-02T12:50:58Z</time></trkpt><trkpt lat="45.32226234961375" lon="7.595944288089166"><ele>492.3333333333333</ele><time>2026-05-02T12:52:34.999Z</time></trkpt><trkpt lat="45.32230156656489" lon="7.596074444993831"><ele>493.0</ele><time>2026-05-02T12:52:38.999Z</time></trkpt><trkpt lat="45.32235046519376" lon="7.596170692549803"><ele>493.66666666666663</ele><time>2026-05-02T12:53:10.999Z</time></trkpt><trkpt lat="45.322387101844086" lon="7.5960463318471465"><ele>494.3333333333333</ele><time>2026-05-02T12:53:15.999Z</time></trkpt><trkpt lat="45.32237259371333" lon="7.5959414799086025"><ele>495.0</ele><time>2026-05-02T12:53:17.999Z</time></trkpt><trkpt lat="45.3223961856784" lon="7.595801017801023"><ele>495.0</ele><time>2026-05-02T12:53:19.999Z</time></trkpt><trkpt lat="45.322399171259995" lon="7.595707444816861"><ele>495.0</ele><time>2026-05-02T12:53:23.999Z</time></trkpt><trkpt lat="45.32233420607132" lon="7.595616269454844"><ele>495.0</ele><time>2026-05-02T12:54:07.999Z</time></trkpt><trkpt lat="45.32228149589067" lon="7.595543989064759"><ele>495.0</ele><time>2026-05-02T12:54:09.999Z</time></trkpt><trkpt lat="45.32219912476646" lon="7.595462658410172"><ele>495.0</ele><time>2026-05-02T12:54:12.999Z</time></trkpt><trkpt lat="45.322124627120814" lon="7.595376377090518"><ele>495.0</ele><time>2026-05-02T12:54:14.999Z</time></trkpt><trkpt lat="45.32209302927795" lon="7.5952959215186695"><ele>496.3333333333333</ele><time>2026-05-02T12:54:16.999Z</time></trkpt><trkpt lat="45.32209445245498" lon="7.595205176977711"><ele>497.66666666666663</ele><time>2026-05-02T12:54:26.999Z</time></trkpt><trkpt lat="45.322019907674225" lon="7.595142759375476"><ele>499.0</ele><time>2026-05-02T12:54:28.999Z</time></trkpt><trkpt lat="45.32200585047793" lon="7.59504492276684"><ele>500.3333333333333</ele><time>2026-05-02T12:54:31.999Z</time></trkpt><trkpt lat="45.321962714192296" lon="7.594954532375199"><ele>501.66666666666663</ele><time>2026-05-02T12:54:34.999Z</time></trkpt><trkpt lat="45.32194103429754" lon="7.594824106996932"><ele>503.0</ele><time>2026-05-02T12:55:00.999Z</time></trkpt><trkpt lat="45.321875368353936" lon="7.5947766462858315"><ele>503.0</ele><time>2026-05-02T12:55:01.999Z</time></trkpt><trkpt lat="45.32176685714667" lon="7.594653237222877"><ele>503.0</ele><time>2026-05-02T12:55:03.999Z</time></trkpt><trkpt lat="45.32172426022095" lon="7.594477260539101"><ele>503.0</ele><time>2026-05-02T12:55:05.999Z</time></trkpt><trkpt lat="45.32165732672166" lon="7.594344525702988"><ele>503.0</ele><time>2026-05-02T12:55:07.999Z</time></trkpt><trkpt lat="45.32159710870578" lon="7.594207705452183"><ele>504.79999999999995</ele><time>2026-05-02T12:55:09.999Z</time></trkpt><trkpt lat="45.32158055216751" lon="7.594111059674512"><ele>506.59999999999997</ele><time>2026-05-02T12:55:11.999Z</time></trkpt><trkpt lat="45.32158392248995" lon="7.593989983771699"><ele>508.40000000000003</ele><time>2026-05-02T12:55:15.999Z</time></trkpt><trkpt lat="45.32162448347435" lon="7.5938146920742335"><ele>510.20000000000005</ele><time>2026-05-02T12:55:17.999Z</time></trkpt><trkpt lat="45.3216083717958" lon="7.593689542330855"><ele>512.0</ele><time>2026-05-02T12:55:20.999Z</time></trkpt><trkpt lat="45.32159845972949" lon="7.593578411164532"><ele>514.3333333333333</ele><time>2026-05-02T12:55:23.999Z</time></trkpt><trkpt lat="45.32159304066396" lon="7.593441019799439"><ele>516.6666666666666</ele><time>2026-05-02T12:55:25.999Z</time></trkpt><trkpt lat="45.32153324242492" lon="7.593352399708604"><ele>519.0</ele><time>2026-05-02T12:55:29Z</time></trkpt><trkpt lat="45.32152074295185" lon="7.593258380991833"><ele>521.3333333333334</ele><time>2026-05-02T12:55:30Z</time></trkpt><trkpt lat="45.3214666222131" lon="7.593099551141696"><ele>523.6666666666667</ele><time>2026-05-02T12:55:32Z</time></trkpt><trkpt lat="45.321417936742876" lon="7.593019982567017"><ele>526.0</ele><time>2026-05-02T12:55:39Z</time></trkpt><trkpt lat="45.32140770627493" lon="7.592919614786227"><ele>528.6</ele><time>2026-05-02T12:55:41Z</time></trkpt><trkpt lat="45.32136806023522" lon="7.592793802651033"><ele>531.2</ele><time>2026-05-02T12:55:50Z</time></trkpt><trkpt lat="45.32135174406539" lon="7.592659595433039"><ele>533.8</ele><time>2026-05-02T12:55:52Z</time></trkpt><trkpt lat="45.321315920841776" lon="7.592538889197269"><ele>536.4</ele><time>2026-05-02T12:55:54Z</time></trkpt><trkpt lat="45.32129218832409" lon="7.592439572944423"><ele>539.0</ele><time>2026-05-02T12:55:58Z</time></trkpt><trkpt lat="45.321276890356266" lon="7.592274615048855"><ele>539.0</ele><time>2026-05-02T12:56:00Z</time></trkpt><trkpt lat="45.321202760336675" lon="7.592277796341986"><ele>539.0</ele><time>2026-05-02T12:56:04Z</time></trkpt><trkpt lat="45.32112284740657" lon="7.592179252706438"><ele>539.0</ele><time>2026-05-02T12:56:07Z</time></trkpt><trkpt lat="45.321113834938544" lon="7.592082721685966"><ele>539.0</ele><time>2026-05-02T12:56:09Z</time></trkpt><trkpt lat="45.32104725803374" lon="7.592022604863017"><ele>539.0</ele><time>2026-05-02T12:56:12Z</time></trkpt><trkpt lat="45.321045779929875" lon="7.591918976895947"><ele>539.0</ele><time>2026-05-02T12:56:14Z</time></trkpt><trkpt lat="45.321045862711685" lon="7.591796203196735"><ele>542.3333333333333</ele><time>2026-05-02T12:56:16Z</time></trkpt><trkpt lat="45.3209997499672" lon="7.591704572946798"><ele>545.6666666666666</ele><time>2026-05-02T12:56:46Z</time></trkpt><trkpt lat="45.32096407437118" lon="7.591623122160201"><ele>549.0</ele><time>2026-05-02T12:57:16Z</time></trkpt><trkpt lat="45.32094183159828" lon="7.5915084275039675"><ele>552.3333333333334</ele><time>2026-05-02T12:57:18Z</time></trkpt><trkpt lat="45.32094009744124" lon="7.591411913205315"><ele>555.6666666666667</ele><time>2026-05-02T12:57:41Z</time></trkpt><trkpt lat="45.32091834739863" lon="7.591521138098105"><ele>559.0</ele><time>2026-05-02T12:57:47Z</time></trkpt><trkpt lat="45.32098040988803" lon="7.591576527483802"><ele>559.0</ele><time>2026-05-02T12:57:54Z</time></trkpt><trkpt lat="45.320995007756565" lon="7.591663949173228"><ele>559.0</ele><time>2026-05-02T12:58:05Z</time></trkpt><trkpt lat="45.32095063718477" lon="7.591572597579757"><ele>559.0</ele><time>2026-05-02T12:58:12Z</time></trkpt><trkpt lat="45.320951285667874" lon="7.591475269727934"><ele>559.0</ele><time>2026-05-02T12:58:13Z</time></trkpt><trkpt lat="45.32091675803722" lon="7.591387712143107"><ele>559.0</ele><time>2026-05-02T12:58:16Z</time></trkpt><trkpt lat="45.32095254659767" lon="7.591503694558518"><ele>559.0</ele><time>2026-05-02T13:30:43.999Z</time></trkpt><trkpt lat="45.32101087567555" lon="7.5915703945146875"><ele>559.0</ele><time>2026-05-02T13:30:47.999Z</time></trkpt><trkpt lat="45.32106871899568" lon="7.591619907504348"><ele>559.0</ele><time>2026-05-02T13:31:10Z</time></trkpt><trkpt lat="45.32102909195922" lon="7.591700536939334"><ele>559.0</ele><time>2026-05-02T13:31:58.999Z</time></trkpt><trkpt lat="45.32103336675132" lon="7.591596642824229"><ele>559.0</ele><time>2026-05-02T13:32:17.999Z</time></trkpt><trkpt lat="45.32107601600952" lon="7.591448816086693"><ele>559.0</ele><time>2026-05-02T13:32:19.999Z</time></trkpt><trkpt lat="45.32114484516977" lon="7.591321441264918"><ele>559.0</ele><time>2026-05-02T13:32:20.999Z</time></trkpt><trkpt lat="45.321242682529295" lon="7.591233364112813"><ele>560.2</ele><time>2026-05-02T13:32:21.999Z</time></trkpt><trkpt lat="45.321326779817255" lon="7.591156836549136"><ele>561.4</ele><time>2026-05-02T13:32:22.999Z</time></trkpt><trkpt lat="45.32139031941398" lon="7.591108080783098"><ele>562.6</ele><time>2026-05-02T13:32:23.999Z</time></trkpt><trkpt lat="45.321405301671355" lon="7.590985898716996"><ele>563.8</ele><time>2026-05-02T13:32:24.999Z</time></trkpt><trkpt lat="45.321451488419726" lon="7.59076244015755"><ele>565.0</ele><time>2026-05-02T13:32:26.999Z</time></trkpt><trkpt lat="45.32144772270014" lon="7.590661077077005"><ele>565.0</ele><time>2026-05-02T13:32:27.999Z</time></trkpt><trkpt lat="45.32141856526995" lon="7.590520934334336"><ele>565.0</ele><time>2026-05-02T13:32:28.999Z</time></trkpt><trkpt lat="45.32137366566061" lon="7.59034862357056"><ele>565.0</ele><time>2026-05-02T13:32:29.999Z</time></trkpt><trkpt lat="45.32135385144792" lon="7.590213266874123"><ele>565.0</ele><time>2026-05-02T13:32:30.999Z</time></trkpt><trkpt lat="45.32139754656909" lon="7.590045845999961"><ele>568.75</ele><time>2026-05-02T13:32:32.999Z</time></trkpt><trkpt lat="45.32142508720648" lon="7.589842879438912"><ele>572.5</ele><time>2026-05-02T13:32:34.999Z</time></trkpt><trkpt lat="45.321431842466176" lon="7.589710596607932"><ele>576.25</ele><time>2026-05-02T13:32:35.999Z</time></trkpt><trkpt lat="45.32143193956716" lon="7.589542549968692"><ele>580.0</ele><time>2026-05-02T13:32:36.999Z</time></trkpt><trkpt lat="45.32144050343028" lon="7.5893409917710235"><ele>581.6666666666667</ele><time>2026-05-02T13:32:37.999Z</time></trkpt><trkpt lat="45.32142156259108" lon="7.589186610173925"><ele>583.3333333333334</ele><time>2026-05-02T13:32:38.999Z</time></trkpt><trkpt lat="45.32139951760062" lon="7.5890846877399385"><ele>585.0</ele><time>2026-05-02T13:32:39.999Z</time></trkpt><trkpt lat="45.321327421752635" lon="7.589103023190463"><ele>586.6666666666666</ele><time>2026-05-02T13:32:42.999Z</time></trkpt><trkpt lat="45.3212660168267" lon="7.589152374998736"><ele>588.3333333333333</ele><time>2026-05-02T13:32:44.999Z</time></trkpt><trkpt lat="45.3211919040464" lon="7.589100861018862"><ele>590.0</ele><time>2026-05-02T13:32:53.999Z</time></trkpt><trkpt lat="45.32114698244827" lon="7.58903420070838"><ele>590.0</ele><time>2026-05-02T13:32:55.999Z</time></trkpt><trkpt lat="45.32114693233556" lon="7.588936601030424"><ele>590.0</ele><time>2026-05-02T13:32:56.999Z</time></trkpt><trkpt lat="45.321158680199986" lon="7.588812576641092"><ele>590.0</ele><time>2026-05-02T13:32:57.999Z</time></trkpt><trkpt lat="45.32112569743908" lon="7.588705846647021"><ele>590.0</ele><time>2026-05-02T13:32:58.999Z</time></trkpt><trkpt lat="45.3210987196599" lon="7.588604571674608"><ele>590.0</ele><time>2026-05-02T13:33:00.999Z</time></trkpt><trkpt lat="45.321111132425706" lon="7.5884938809240285"><ele>590.0</ele><time>2026-05-02T13:33:01.999Z</time></trkpt><trkpt lat="45.321143278150736" lon="7.588393084464325"><ele>592.0</ele><time>2026-05-02T13:33:02.999Z</time></trkpt><trkpt lat="45.321180592909656" lon="7.5882941209745365"><ele>594.0</ele><time>2026-05-02T13:33:03.999Z</time></trkpt><trkpt lat="45.32122839438411" lon="7.588202966979464"><ele>596.0</ele><time>2026-05-02T13:33:04.999Z</time></trkpt><trkpt lat="45.321309457478236" lon="7.588085721823195"><ele>598.0</ele><time>2026-05-02T13:33:05.999Z</time></trkpt><trkpt lat="45.321364657908774" lon="7.5880066431072235"><ele>600.0</ele><time>2026-05-02T13:33:06.999Z</time></trkpt><trkpt lat="45.3214332510579" lon="7.587927618280346"><ele>602.0</ele><time>2026-05-02T13:33:07.999Z</time></trkpt><trkpt lat="45.32147781914888" lon="7.587770305293708"><ele>606.8000000000001</ele><time>2026-05-02T13:33:08.999Z</time></trkpt><trkpt lat="45.32154171817196" lon="7.58758152115242"><ele>611.6</ele><time>2026-05-02T13:33:09.999Z</time></trkpt><trkpt lat="45.32160630065544" lon="7.587422071629145"><ele>616.4000000000001</ele><time>2026-05-02T13:33:10.999Z</time></trkpt><trkpt lat="45.32164277377608" lon="7.587287884663423"><ele>621.2</ele><time>2026-05-02T13:33:11.999Z</time></trkpt><trkpt lat="45.321686970486624" lon="7.587211746567702"><ele>626.0</ele><time>2026-05-02T13:33:12.999Z</time></trkpt><trkpt lat="45.32172903139562" lon="7.587081392182106"><ele>627.2</ele><time>2026-05-02T13:33:13.999Z</time></trkpt><trkpt lat="45.32177064678414" lon="7.586868763624231"><ele>628.4000000000001</ele><time>2026-05-02T13:33:14.999Z</time></trkpt><trkpt lat="45.32180289569664" lon="7.586742053171535"><ele>629.6</ele><time>2026-05-02T13:33:15.999Z</time></trkpt><trkpt lat="45.321840592483476" lon="7.586656911644476"><ele>630.8000000000001</ele><time>2026-05-02T13:33:17.999Z</time></trkpt><trkpt lat="45.32188578085647" lon="7.58657348137069"><ele>632.0</ele><time>2026-05-02T13:33:18.999Z</time></trkpt><trkpt lat="45.3219685829104" lon="7.586429194720843"><ele>632.0</ele><time>2026-05-02T13:33:20.999Z</time></trkpt><trkpt lat="45.32202757651655" lon="7.586367130162776"><ele>632.0</ele><time>2026-05-02T13:33:21.999Z</time></trkpt><trkpt lat="45.32207942193963" lon="7.586214008248717"><ele>632.0</ele><time>2026-05-02T13:33:23.999Z</time></trkpt><trkpt lat="45.32212680954757" lon="7.586056975336008"><ele>632.0</ele><time>2026-05-02T13:33:24.999Z</time></trkpt><trkpt lat="45.32216259541993" lon="7.585943435077771"><ele>632.0</ele><time>2026-05-02T13:33:25.999Z</time></trkpt><trkpt lat="45.32214659333333" lon="7.585828701140173"><ele>633.0</ele><time>2026-05-02T13:33:27.999Z</time></trkpt><trkpt lat="45.32214746134442" lon="7.585716240631881"><ele>634.0</ele><time>2026-05-02T13:33:29.999Z</time></trkpt><trkpt lat="45.322185460512806" lon="7.585612803408638"><ele>635.0</ele><time>2026-05-02T13:33:31.999Z</time></trkpt><trkpt lat="45.322216275176956" lon="7.5854961090242545"><ele>636.0</ele><time>2026-05-02T13:33:36.999Z</time></trkpt><trkpt lat="45.322305021607136" lon="7.585561107448298"><ele>637.0</ele><time>2026-05-02T13:33:37.999Z</time></trkpt><trkpt lat="45.32241768295718" lon="7.5854749512836195"><ele>641.2</ele><time>2026-05-02T13:33:50.999Z</time></trkpt><trkpt lat="45.322486918883115" lon="7.585468765417551"><ele>645.4000000000001</ele><time>2026-05-02T13:34:55Z</time></trkpt><trkpt lat="45.32251805670587" lon="7.585339640800441"><ele>649.5999999999999</ele><time>2026-05-02T13:34:58Z</time></trkpt><trkpt lat="45.32257936756571" lon="7.585263101795824"><ele>653.8</ele><time>2026-05-02T13:35:00Z</time></trkpt><trkpt lat="45.32265172238906" lon="7.585133278009923"><ele>658.0</ele><time>2026-05-02T13:35:02Z</time></trkpt><trkpt lat="45.32265268553857" lon="7.584995053518713"><ele>660.8</ele><time>2026-05-02T13:35:04Z</time></trkpt><trkpt lat="45.32268656556101" lon="7.584887421330679"><ele>663.5999999999999</ele><time>2026-05-02T13:35:05Z</time></trkpt><trkpt lat="45.3227120918598" lon="7.584773400467375"><ele>666.4000000000001</ele><time>2026-05-02T13:35:06Z</time></trkpt><trkpt lat="45.32273432507516" lon="7.5846794948010405"><ele>669.2</ele><time>2026-05-02T13:35:07Z</time></trkpt><trkpt lat="45.322792413093424" lon="7.584537901438368"><ele>672.0</ele><time>2026-05-02T13:35:09Z</time></trkpt><trkpt lat="45.32278276233247" lon="7.584355453316219"><ele>674.1666666666666</ele><time>2026-05-02T13:35:11Z</time></trkpt><trkpt lat="45.3227950734654" lon="7.584254453677753"><ele>676.3333333333334</ele><time>2026-05-02T13:35:13Z</time></trkpt><trkpt lat="45.32287046788596" lon="7.584169695215279"><ele>678.5</ele><time>2026-05-02T13:35:15Z</time></trkpt><trkpt lat="45.32289480163601" lon="7.584080758683099"><ele>680.6666666666667</ele><time>2026-05-02T13:35:16Z</time></trkpt><trkpt lat="45.32293523515435" lon="7.584008905053215"><ele>682.8333333333334</ele><time>2026-05-02T13:35:17Z</time></trkpt><trkpt lat="45.323016468974366" lon="7.58387499551676"><ele>685.0</ele><time>2026-05-02T13:35:19Z</time></trkpt><trkpt lat="45.32307423075602" lon="7.583811980177163"><ele>687.5</ele><time>2026-05-02T13:35:20Z</time></trkpt><trkpt lat="45.323155485968506" lon="7.583711499955124"><ele>690.0</ele><time>2026-05-02T13:35:22Z</time></trkpt><trkpt lat="45.32318432685077" lon="7.583617095763392"><ele>692.5</ele><time>2026-05-02T13:35:23Z</time></trkpt><trkpt lat="45.32321298237799" lon="7.583521357492238"><ele>695.0</ele><time>2026-05-02T13:35:24Z</time></trkpt><trkpt lat="45.323264335166144" lon="7.583413480188951"><ele>697.5</ele><time>2026-05-02T13:35:25Z</time></trkpt><trkpt lat="45.32332453008784" lon="7.583292492030567"><ele>700.0</ele><time>2026-05-02T13:35:26Z</time></trkpt><trkpt lat="45.32338296672965" lon="7.583209490153449"><ele>703.5</ele><time>2026-05-02T13:35:28Z</time></trkpt><trkpt lat="45.3233928091455" lon="7.583108845221556"><ele>707.0</ele><time>2026-05-02T13:35:30Z</time></trkpt><trkpt lat="45.32340622870203" lon="7.582986790339089"><ele>710.5</ele><time>2026-05-02T13:35:31Z</time></trkpt><trkpt lat="45.32344348718669" lon="7.582907982192822"><ele>714.0</ele><time>2026-05-02T13:35:33Z</time></trkpt><trkpt lat="45.32349714657922" lon="7.5828464422339135"><ele>717.5</ele><time>2026-05-02T13:35:34Z</time></trkpt><trkpt lat="45.323558111287255" lon="7.582763559049268"><ele>721.0</ele><time>2026-05-02T13:35:37Z</time></trkpt><trkpt lat="45.32363040196423" lon="7.582723776915417"><ele>723.1666666666667</ele><time>2026-05-02T13:35:40Z</time></trkpt><trkpt lat="45.323677439783374" lon="7.582645407248439"><ele>725.3333333333334</ele><time>2026-05-02T13:35:42Z</time></trkpt><trkpt lat="45.32375894716488" lon="7.5826262935872375"><ele>727.5</ele><time>2026-05-02T13:35:45Z</time></trkpt><trkpt lat="45.323768678171014" lon="7.58252483409441"><ele>729.6666666666666</ele><time>2026-05-02T13:35:48Z</time></trkpt><trkpt lat="45.323856882167206" lon="7.582528252083581"><ele>731.8333333333333</ele><time>2026-05-02T13:35:50Z</time></trkpt><trkpt lat="45.323925882517145" lon="7.582546286163131"><ele>734.0</ele><time>2026-05-02T13:35:54Z</time></trkpt><trkpt lat="45.324041316556695" lon="7.58245074330804"><ele>737.0</ele><time>2026-05-02T13:35:56Z</time></trkpt><trkpt lat="45.32412848867744" lon="7.582289282839465"><ele>740.0</ele><time>2026-05-02T13:35:57Z</time></trkpt><trkpt lat="45.32419291353013" lon="7.582184384255851"><ele>743.0</ele><time>2026-05-02T13:35:59Z</time></trkpt><trkpt lat="45.32421674955999" lon="7.582095675677189"><ele>746.0</ele><time>2026-05-02T13:36:00Z</time></trkpt><trkpt lat="45.32430466886455" lon="7.582040852938755"><ele>749.0</ele><time>2026-05-02T13:36:03Z</time></trkpt><trkpt lat="45.32433572001629" lon="7.581943614158652"><ele>751.25</ele><time>2026-05-02T13:36:05Z</time></trkpt><trkpt lat="45.32431940517352" lon="7.5818133201871465"><ele>753.5</ele><time>2026-05-02T13:36:07Z</time></trkpt><trkpt lat="45.32439798804438" lon="7.581765905458326"><ele>755.75</ele><time>2026-05-02T13:36:09Z</time></trkpt><trkpt lat="45.324409780510024" lon="7.581657524158515"><ele>758.0</ele><time>2026-05-02T13:36:11Z</time></trkpt><trkpt lat="45.32510592559836" lon="7.580340535027487"><ele>767.0</ele><time>2026-05-02T13:36:12Z</time></trkpt><trkpt lat="45.3250655320425" lon="7.580248016722805"><ele>776.0</ele><time>2026-05-02T13:36:13Z</time></trkpt><trkpt lat="45.32504845898491" lon="7.5801360640214925"><ele>785.0</ele><time>2026-05-02T13:36:14Z</time></trkpt><trkpt lat="45.32477084308615" lon="7.580842320292755"><ele>777.6666666666667</ele><time>2026-05-02T13:36:32Z</time></trkpt><trkpt lat="45.32458237561303" lon="7.581151887208934"><ele>770.3333333333334</ele><time>2026-05-02T13:36:35Z</time></trkpt><trkpt lat="45.32466577286472" lon="7.581000081792319"><ele>763.0</ele><time>2026-05-02T13:36:43Z</time></trkpt><trkpt lat="45.324699942812195" lon="7.580906877148602"><ele>767.4</ele><time>2026-05-02T13:36:48Z</time></trkpt><trkpt lat="45.32478362222325" lon="7.580710772313731"><ele>771.8</ele><time>2026-05-02T13:37:02Z</time></trkpt><trkpt lat="45.32481176515012" lon="7.580582528852299"><ele>776.2</ele><time>2026-05-02T13:37:07Z</time></trkpt><trkpt lat="45.324829747941706" lon="7.580432876608021"><ele>780.6</ele><time>2026-05-02T13:37:09Z</time></trkpt><trkpt lat="45.32483865241492" lon="7.580330717926178"><ele>785.0</ele><time>2026-05-02T13:37:10Z</time></trkpt><trkpt lat="45.324853002637774" lon="7.58016433658882"><ele>786.5714285714286</ele><time>2026-05-02T13:37:12Z</time></trkpt><trkpt lat="45.32484871084219" lon="7.58007239993658"><ele>788.1428571428571</ele><time>2026-05-02T13:37:13Z</time></trkpt><trkpt lat="45.3248471117401" lon="7.579981763041112"><ele>789.7142857142857</ele><time>2026-05-02T13:37:14Z</time></trkpt><trkpt lat="45.324870216173494" lon="7.579853230490399"><ele>791.2857142857142</ele><time>2026-05-02T13:37:16Z</time></trkpt><trkpt lat="45.32491472303573" lon="7.5797867873633695"><ele>792.8571428571429</ele><time>2026-05-02T13:37:17Z</time></trkpt><trkpt lat="45.32495092205931" lon="7.579676729543583"><ele>794.4285714285713</ele><time>2026-05-02T13:37:19Z</time></trkpt><trkpt lat="45.324973216986386" lon="7.579583545862318"><ele>796.0</ele><time>2026-05-02T13:37:20Z</time></trkpt><trkpt lat="45.32499309797165" lon="7.579433310943322"><ele>796.5999999999999</ele><time>2026-05-02T13:37:21Z</time></trkpt><trkpt lat="45.32500145627411" lon="7.579328061192284"><ele>797.2</ele><time>2026-05-02T13:37:22Z</time></trkpt><trkpt lat="45.3250019838676" lon="7.579198255394109"><ele>797.8</ele><time>2026-05-02T13:37:23Z</time></trkpt><trkpt lat="45.324995398820654" lon="7.579033256616135"><ele>798.4000000000001</ele><time>2026-05-02T13:37:24Z</time></trkpt><trkpt lat="45.32497266447606" lon="7.578885925873658"><ele>799.0</ele><time>2026-05-02T13:37:25Z</time></trkpt><trkpt lat="45.324968157276544" lon="7.578736556463606"><ele>800.6</ele><time>2026-05-02T13:37:26Z</time></trkpt><trkpt lat="45.32501892642014" lon="7.578545671379196"><ele>802.2</ele><time>2026-05-02T13:37:27Z</time></trkpt><trkpt lat="45.32503375678043" lon="7.5784110316653885"><ele>803.8000000000001</ele><time>2026-05-02T13:37:28Z</time></trkpt><trkpt lat="45.32503063288857" lon="7.578266012277048"><ele>805.4000000000001</ele><time>2026-05-02T13:37:29Z</time></trkpt><trkpt lat="45.32504533092206" lon="7.578142394774801"><ele>807.0</ele><time>2026-05-02T13:37:30Z</time></trkpt><trkpt lat="45.325061156904525" lon="7.578037225227043"><ele>807.0</ele><time>2026-05-02T13:37:31Z</time></trkpt><trkpt lat="45.32511090355169" lon="7.577924626864041"><ele>807.0</ele><time>2026-05-02T13:37:32Z</time></trkpt><trkpt lat="45.325169273760224" lon="7.577755207187268"><ele>807.0</ele><time>2026-05-02T13:37:33Z</time></trkpt><trkpt lat="45.32520199769593" lon="7.577640765307748"><ele>807.0</ele><time>2026-05-02T13:37:34Z</time></trkpt><trkpt lat="45.32529625327979" lon="7.577547294328228"><ele>807.0</ele><time>2026-05-02T13:37:36Z</time></trkpt><trkpt lat="45.325386546978216" lon="7.577419465120112"><ele>807.0</ele><time>2026-05-02T13:37:37Z</time></trkpt><trkpt lat="45.32544942075074" lon="7.577272402966129"><ele>807.0</ele><time>2026-05-02T13:37:38Z</time></trkpt><trkpt lat="45.325502303268166" lon="7.577128998686444"><ele>807.0</ele><time>2026-05-02T13:37:39Z</time></trkpt><trkpt lat="45.3255410123995" lon="7.57696652907388"><ele>807.0</ele><time>2026-05-02T13:37:40Z</time></trkpt><trkpt lat="45.32558622745277" lon="7.576839565548793"><ele>814.0</ele><time>2026-05-02T13:37:41Z</time></trkpt><trkpt lat="45.32565018023775" lon="7.576727054086593"><ele>821.0</ele><time>2026-05-02T13:37:42Z</time></trkpt><trkpt lat="45.325749492910575" lon="7.5765926829280685"><ele>828.0</ele><time>2026-05-02T13:37:43Z</time></trkpt><trkpt lat="45.32585337075603" lon="7.576411285435413"><ele>835.0</ele><time>2026-05-02T13:37:44Z</time></trkpt><trkpt lat="45.325956870045296" lon="7.576286008644104"><ele>833.0</ele><time>2026-05-02T13:37:45Z</time></trkpt><trkpt lat="45.32607619055485" lon="7.576161648936533"><ele>831.0</ele><time>2026-05-02T13:37:46Z</time></trkpt><trkpt lat="45.32619825174319" lon="7.5759900351129135"><ele>829.0</ele><time>2026-05-02T13:37:47Z</time></trkpt><trkpt lat="45.32630366416073" lon="7.57583243201421"><ele>828.9999999999999</ele><time>2026-05-02T13:37:48Z</time></trkpt><trkpt lat="45.326379880931064" lon="7.5756958872481635"><ele>829.0</ele><time>2026-05-02T13:37:49Z</time></trkpt><trkpt lat="45.32643350575042" lon="7.575616584562066"><ele>829.0</ele><time>2026-05-02T13:37:50Z</time></trkpt><trkpt lat="45.32648915462299" lon="7.575554373038923"><ele>829.0</ele><time>2026-05-02T13:37:51Z</time></trkpt><trkpt lat="45.326526376501974" lon="7.575476758514507"><ele>828.9999999999999</ele><time>2026-05-02T13:37:52Z</time></trkpt><trkpt lat="45.32658261087219" lon="7.575403262093338"><ele>829.0</ele><time>2026-05-02T13:37:53Z</time></trkpt><trkpt lat="45.32666685923186" lon="7.575279027909195"><ele>833.0</ele><time>2026-05-02T13:37:54Z</time></trkpt><trkpt lat="45.326722767089805" lon="7.575141634295263"><ele>837.0</ele><time>2026-05-02T13:37:55Z</time></trkpt><trkpt lat="45.32679021610587" lon="7.575034538872252"><ele>841.0</ele><time>2026-05-02T13:37:56Z</time></trkpt><trkpt lat="45.326867715218874" lon="7.574935418969749"><ele>845.0</ele><time>2026-05-02T13:37:57Z</time></trkpt><trkpt lat="45.326943460912055" lon="7.5748555404898354"><ele>849.0</ele><time>2026-05-02T13:37:58Z</time></trkpt><trkpt lat="45.327026466773" lon="7.574757565231107"><ele>849.0</ele><time>2026-05-02T13:38:00Z</time></trkpt><trkpt lat="45.327111798004445" lon="7.574735863004211"><ele>849.0</ele><time>2026-05-02T13:38:01Z</time></trkpt><trkpt lat="45.32717176562446" lon="7.5747055237450205"><ele>849.0</ele><time>2026-05-02T13:38:02Z</time></trkpt><trkpt lat="45.32726140777401" lon="7.574674045694015"><ele>849.0</ele><time>2026-05-02T13:38:04Z</time></trkpt><trkpt lat="45.32735405924161" lon="7.574636371533379"><ele>849.0</ele><time>2026-05-02T13:38:06Z</time></trkpt><trkpt lat="45.32744854157502" lon="7.574579940535014"><ele>849.0</ele><time>2026-05-02T13:38:08Z</time></trkpt><trkpt lat="45.327517041197346" lon="7.574552044190794"><ele>854.8000000000001</ele><time>2026-05-02T13:38:09Z</time></trkpt><trkpt lat="45.32758486937164" lon="7.5745017872735225"><ele>860.6</ele><time>2026-05-02T13:38:10Z</time></trkpt><trkpt lat="45.327664612942925" lon="7.574462760609818"><ele>866.4</ele><time>2026-05-02T13:38:11Z</time></trkpt><trkpt lat="45.327789742652854" lon="7.574317257482231"><ele>872.2</ele><time>2026-05-02T13:38:13Z</time></trkpt><trkpt lat="45.327833030702365" lon="7.574208849330902"><ele>878.0</ele><time>2026-05-02T13:38:14Z</time></trkpt><trkpt lat="45.327843816337044" lon="7.574118935715433"><ele>878.0000000000001</ele><time>2026-05-02T13:38:15Z</time></trkpt><trkpt lat="45.32788473404468" lon="7.573906794450552"><ele>878.0</ele><time>2026-05-02T13:38:17Z</time></trkpt><trkpt lat="45.327894840325165" lon="7.573813650969216"><ele>878.0</ele><time>2026-05-02T13:38:18Z</time></trkpt><trkpt lat="45.32795555982234" lon="7.573757517157143"><ele>878.0</ele><time>2026-05-02T13:38:20Z</time></trkpt><trkpt lat="45.32798223472034" lon="7.573668984607838"><ele>878.0000000000001</ele><time>2026-05-02T13:38:25Z</time></trkpt><trkpt lat="45.32796739262297" lon="7.5735572832189195"><ele>878.0</ele><time>2026-05-02T13:38:28Z</time></trkpt><trkpt lat="45.327895053710634" lon="7.573390223441841"><ele>881.0</ele><time>2026-05-02T13:38:32Z</time></trkpt><trkpt lat="45.32785090809605" lon="7.573279812736921"><ele>884.0</ele><time>2026-05-02T13:38:33Z</time></trkpt><trkpt lat="45.32779314420787" lon="7.573173275577085"><ele>887.0</ele><time>2026-05-02T13:38:34Z</time></trkpt><trkpt lat="45.32775350023604" lon="7.573084975674838"><ele>890.0</ele><time>2026-05-02T13:38:36Z</time></trkpt><trkpt lat="45.327763325180115" lon="7.572957366359216"><ele>893.0</ele><time>2026-05-02T13:38:38Z</time></trkpt><trkpt lat="45.32778375818095" lon="7.5728144080191075"><ele>894.0000000000001</ele><time>2026-05-02T13:38:41Z</time></trkpt><trkpt lat="45.327807654780806" lon="7.572702293568012"><ele>895.0</ele><time>2026-05-02T13:38:44Z</time></trkpt><trkpt lat="45.32780322931257" lon="7.572589960692686"><ele>896.0</ele><time>2026-05-02T13:38:46Z</time></trkpt><trkpt lat="45.32780192425062" lon="7.572477334996629"><ele>897.0</ele><time>2026-05-02T13:38:49Z</time></trkpt><trkpt lat="45.32779559311984" lon="7.5723795887356395"><ele>898.0000000000001</ele><time>2026-05-02T13:38:51Z</time></trkpt><trkpt lat="45.32775835669412" lon="7.572275459425582"><ele>899.0</ele><time>2026-05-02T13:38:54Z</time></trkpt><trkpt lat="45.32773931731888" lon="7.5721870486369"><ele>899.0</ele><time>2026-05-02T13:39:15Z</time></trkpt><trkpt lat="45.32776783536991" lon="7.572273295554756"><ele>899.0000000000001</ele><time>2026-05-02T13:39:25Z</time></trkpt><trkpt lat="45.32779849048254" lon="7.572473831473505"><ele>899.0000000000001</ele><time>2026-05-02T13:39:27Z</time></trkpt><trkpt lat="45.327784493851155" lon="7.572589149274116"><ele>899.0</ele><time>2026-05-02T13:39:28Z</time></trkpt><trkpt lat="45.3277567811251" lon="7.572750511728263"><ele>899.0</ele><time>2026-05-02T13:39:29Z</time></trkpt><trkpt lat="45.32772783577072" lon="7.572872887477947"><ele>899.0000000000001</ele><time>2026-05-02T13:39:31Z</time></trkpt><trkpt lat="45.327732918851666" lon="7.572996794085212"><ele>899.0</ele><time>2026-05-02T13:39:33Z</time></trkpt><trkpt lat="45.32774956268369" lon="7.572867774397767"><ele>899.0</ele><time>2026-05-02T13:39:43Z</time></trkpt><trkpt lat="45.327773201090984" lon="7.572741605022113"><ele>899.0</ele><time>2026-05-02T13:39:46Z</time></trkpt><trkpt lat="45.32779530513414" lon="7.5726007745331865"><ele>899.0000000000001</ele><time>2026-05-02T13:39:49Z</time></trkpt><trkpt lat="45.32779536995046" lon="7.572510041752071"><ele>899.0</ele><time>2026-05-02T13:39:50Z</time></trkpt><trkpt lat="45.32779564336354" lon="7.572371480665857"><ele>899.0</ele><time>2026-05-02T13:39:52Z</time></trkpt><trkpt lat="45.32785270100619" lon="7.572276090984259"><ele>899.0000000000001</ele><time>2026-05-02T13:39:55Z</time></trkpt><trkpt lat="45.32790409470205" lon="7.572213075152083"><ele>899.0000000000001</ele><time>2026-05-02T13:39:59Z</time></trkpt><trkpt lat="45.32792142899158" lon="7.572125861196228"><ele>899.0</ele><time>2026-05-02T13:43:42Z</time></trkpt><trkpt lat="45.32792474873847" lon="7.571964769917542"><ele>899.0</ele><time>2026-05-02T13:43:45Z</time></trkpt><trkpt lat="45.32791674014977" lon="7.571771090899326"><ele>898.3333333333334</ele><time>2026-05-02T13:43:47Z</time></trkpt><trkpt lat="45.327927241125174" lon="7.571664481479827"><ele>897.6666666666667</ele><time>2026-05-02T13:43:48Z</time></trkpt><trkpt lat="45.32794656911966" lon="7.5715254714019835"><ele>897.0</ele><time>2026-05-02T13:43:50Z</time></trkpt><trkpt lat="45.32795434514771" lon="7.5714252273269285"><ele>896.3333333333333</ele><time>2026-05-02T13:43:51Z</time></trkpt><trkpt lat="45.328017931029386" lon="7.5713510685939385"><ele>895.6666666666666</ele><time>2026-05-02T13:43:53Z</time></trkpt><trkpt lat="45.32810664877318" lon="7.5712910753328"><ele>895.0</ele><time>2026-05-02T13:43:55Z</time></trkpt><trkpt lat="45.328172473201526" lon="7.571248763320212"><ele>900.2</ele><time>2026-05-02T13:43:57Z</time></trkpt><trkpt lat="45.32822697339723" lon="7.571151472697591"><ele>905.4</ele><time>2026-05-02T13:43:58Z</time></trkpt><trkpt lat="45.328315079770434" lon="7.571036344378921"><ele>910.5999999999999</ele><time>2026-05-02T13:44:00Z</time></trkpt><trkpt lat="45.32837522297872" lon="7.570942263418364"><ele>915.8</ele><time>2026-05-02T13:44:02Z</time></trkpt><trkpt lat="45.32841210927997" lon="7.570862849976838"><ele>921.0</ele><time>2026-05-02T13:44:03Z</time></trkpt><trkpt lat="45.32844639091482" lon="7.570738180142254"><ele>921.0</ele><time>2026-05-02T13:44:06Z</time></trkpt><trkpt lat="45.32856136540002" lon="7.570526750422808"><ele>920.9999999999999</ele><time>2026-05-02T13:44:09Z</time></trkpt><trkpt lat="45.32859471573832" lon="7.5704495151397735"><ele>920.9999999999999</ele><time>2026-05-02T13:44:10Z</time></trkpt><trkpt lat="45.32863386713575" lon="7.5703548113691745"><ele>921.0</ele><time>2026-05-02T13:44:12Z</time></trkpt><trkpt lat="45.32865645131925" lon="7.570255948126021"><ele>921.0</ele><time>2026-05-02T13:44:14Z</time></trkpt><trkpt lat="45.328696077918075" lon="7.570161454475738"><ele>920.6666666666666</ele><time>2026-05-02T13:44:17Z</time></trkpt><trkpt lat="45.32871750833729" lon="7.570060628302191"><ele>920.3333333333333</ele><time>2026-05-02T13:44:20Z</time></trkpt><trkpt lat="45.328753126864605" lon="7.5699843573103625"><ele>920.0</ele><time>2026-05-02T13:44:22Z</time></trkpt><trkpt lat="45.32880999105751" lon="7.569883346610843"><ele>919.6666666666666</ele><time>2026-05-02T13:44:26Z</time></trkpt><trkpt lat="45.328832317266105" lon="7.569788022015501"><ele>919.3333333333333</ele><time>2026-05-02T13:44:29Z</time></trkpt><trkpt lat="45.328912387536974" lon="7.56971593289199"><ele>919.0</ele><time>2026-05-02T13:44:30Z</time></trkpt><trkpt lat="45.32898464450714" lon="7.5695940016871575"><ele>927.5</ele><time>2026-05-02T13:44:31Z</time></trkpt><trkpt lat="45.32904195093245" lon="7.5694415749734345"><ele>936.0</ele><time>2026-05-02T13:44:32Z</time></trkpt><trkpt lat="45.32907497117393" lon="7.569341472718148"><ele>944.5</ele><time>2026-05-02T13:44:33Z</time></trkpt><trkpt lat="45.32913720255289" lon="7.569175977620778"><ele>953.0</ele><time>2026-05-02T13:44:35Z</time></trkpt><trkpt lat="45.32913312832825" lon="7.568983536410695"><ele>953.0000000000001</ele><time>2026-05-02T13:44:37Z</time></trkpt><trkpt lat="45.32918623947611" lon="7.568832688929091"><ele>953.0</ele><time>2026-05-02T13:44:38Z</time></trkpt><trkpt lat="45.32922240443243" lon="7.568718625313924"><ele>953.0</ele><time>2026-05-02T13:44:39Z</time></trkpt><trkpt lat="45.32925314152127" lon="7.568622941810906"><ele>953.0</ele><time>2026-05-02T13:44:40Z</time></trkpt><trkpt lat="45.32930028472577" lon="7.568542435364437"><ele>953.0000000000001</ele><time>2026-05-02T13:44:41Z</time></trkpt><trkpt lat="45.32933887073885" lon="7.568443516727862"><ele>953.0</ele><time>2026-05-02T13:44:42Z</time></trkpt><trkpt lat="45.32940350881049" lon="7.568321159129145"><ele>954.4</ele><time>2026-05-02T13:44:43Z</time></trkpt><trkpt lat="45.329460291514145" lon="7.568278897352581"><ele>955.8</ele><time>2026-05-02T13:44:44Z</time></trkpt><trkpt lat="45.329550720674334" lon="7.56822677323097"><ele>957.2</ele><time>2026-05-02T13:44:46Z</time></trkpt><trkpt lat="45.32963372092942" lon="7.568132533700102"><ele>958.6</ele><time>2026-05-02T13:44:48Z</time></trkpt><trkpt lat="45.329695913822796" lon="7.568027147820067"><ele>960.0</ele><time>2026-05-02T13:44:49Z</time></trkpt><trkpt lat="45.32974586347895" lon="7.56790056203367"><ele>963.1666666666666</ele><time>2026-05-02T13:44:50Z</time></trkpt><trkpt lat="45.329786825884284" lon="7.567814846701732"><ele>966.3333333333333</ele><time>2026-05-02T13:44:51Z</time></trkpt><trkpt lat="45.32987814163751" lon="7.56773338119848"><ele>969.5</ele><time>2026-05-02T13:44:53Z</time></trkpt><trkpt lat="45.32995652113112" lon="7.567697334647342"><ele>972.6666666666666</ele><time>2026-05-02T13:44:54Z</time></trkpt><trkpt lat="45.33003520921635" lon="7.567641071242347"><ele>975.8333333333333</ele><time>2026-05-02T13:44:55Z</time></trkpt><trkpt lat="45.33009889938202" lon="7.567580039084569"><ele>979.0</ele><time>2026-05-02T13:44:56Z</time></trkpt><trkpt lat="45.330130262487124" lon="7.567495112059121"><ele>978.9999999999999</ele><time>2026-05-02T13:44:57Z</time></trkpt><trkpt lat="45.33020069807492" lon="7.567408639456454"><ele>979.0</ele><time>2026-05-02T13:45:05Z</time></trkpt><trkpt lat="45.330248569444485" lon="7.567343177108409"><ele>979.0</ele><time>2026-05-02T13:45:07Z</time></trkpt><trkpt lat="45.33028742233314" lon="7.567266793146772"><ele>979.0</ele><time>2026-05-02T13:45:08Z</time></trkpt><trkpt lat="45.33031973335482" lon="7.5671773031501735"><ele>978.9999999999999</ele><time>2026-05-02T13:45:10Z</time></trkpt><trkpt lat="45.33042024270379" lon="7.567089867177402"><ele>979.0</ele><time>2026-05-02T13:45:12Z</time></trkpt><trkpt lat="45.33047606005059" lon="7.566991025392286"><ele>977.8333333333333</ele><time>2026-05-02T13:45:14Z</time></trkpt><trkpt lat="45.330505563414356" lon="7.566866160639971"><ele>976.6666666666666</ele><time>2026-05-02T13:45:16Z</time></trkpt><trkpt lat="45.330532987155884" lon="7.566780915626923"><ele>975.5</ele><time>2026-05-02T13:45:17Z</time></trkpt><trkpt lat="45.330603038000284" lon="7.566761413086949"><ele>974.3333333333333</ele><time>2026-05-02T13:45:19Z</time></trkpt><trkpt lat="45.33066684846674" lon="7.566717161971045"><ele>973.1666666666666</ele><time>2026-05-02T13:45:23Z</time></trkpt><trkpt lat="45.3307164671585" lon="7.566619017169538"><ele>972.0</ele><time>2026-05-02T13:45:48Z</time></trkpt><trkpt lat="45.330729558076214" lon="7.566482730170469"><ele>975.4000000000001</ele><time>2026-05-02T13:45:50Z</time></trkpt><trkpt lat="45.33066356026075" lon="7.566441394522914"><ele>978.8000000000001</ele><time>2026-05-02T13:45:52Z</time></trkpt><trkpt lat="45.330637187254844" lon="7.566294980577997"><ele>982.2</ele><time>2026-05-02T13:45:53Z</time></trkpt><trkpt lat="45.330592991522956" lon="7.566122092727761"><ele>985.6</ele><time>2026-05-02T13:45:55Z</time></trkpt><trkpt lat="45.33057724664167" lon="7.565968993967601"><ele>989.0</ele><time>2026-05-02T13:45:56Z</time></trkpt><trkpt lat="45.33056966372275" lon="7.565871893216186"><ele>990.8000000000001</ele><time>2026-05-02T13:45:57Z</time></trkpt><trkpt lat="45.33049940296493" lon="7.5657720051761"><ele>992.6000000000001</ele><time>2026-05-02T13:45:58Z</time></trkpt><trkpt lat="45.33052794746152" lon="7.565635588648419"><ele>994.4</ele><time>2026-05-02T13:46:00Z</time></trkpt><trkpt lat="45.33055206668674" lon="7.565505233808962"><ele>996.2</ele><time>2026-05-02T13:46:02Z</time></trkpt><trkpt lat="45.330643144748855" lon="7.565452257786107"><ele>998.0</ele><time>2026-05-02T13:46:03Z</time></trkpt><trkpt lat="45.330725698038954" lon="7.565411016380559"><ele>998.0000000000001</ele><time>2026-05-02T13:46:04Z</time></trkpt><trkpt lat="45.330794807575025" lon="7.565377002961913"><ele>998.0</ele><time>2026-05-02T13:46:05Z</time></trkpt><trkpt lat="45.33086341249241" lon="7.565319526987462"><ele>998.0</ele><time>2026-05-02T13:46:06Z</time></trkpt><trkpt lat="45.33092330906908" lon="7.565247740993804"><ele>998.0</ele><time>2026-05-02T13:46:07Z</time></trkpt><trkpt lat="45.33100725124026" lon="7.565195250774959"><ele>998.0000000000001</ele><time>2026-05-02T13:46:08Z</time></trkpt><trkpt lat="45.33106013708232" lon="7.565090490066796"><ele>998.0</ele><time>2026-05-02T13:46:13Z</time></trkpt><trkpt lat="45.33114120636388" lon="7.5650587183627716"><ele>999.0</ele><time>2026-05-02T13:46:18Z</time></trkpt><trkpt lat="45.331213373272774" lon="7.565031415075293"><ele>1000.0</ele><time>2026-05-02T13:46:21Z</time></trkpt><trkpt lat="45.331359916298005" lon="7.564874541589161"><ele>1001.0</ele><time>2026-05-02T13:46:24Z</time></trkpt><trkpt lat="45.331434715784134" lon="7.56477534036713"><ele>1002.0</ele><time>2026-05-02T13:46:25Z</time></trkpt><trkpt lat="45.33149748332019" lon="7.56465632713093"><ele>1002.5</ele><time>2026-05-02T13:46:27Z</time></trkpt><trkpt lat="45.3315620559192" lon="7.564585814753807"><ele>1003.0</ele><time>2026-05-02T13:46:30Z</time></trkpt><trkpt lat="45.33161709579908" lon="7.564510625067406"><ele>1003.5</ele><time>2026-05-02T13:46:32Z</time></trkpt><trkpt lat="45.33170744732902" lon="7.564400081438385"><ele>1004.0</ele><time>2026-05-02T13:46:33Z</time></trkpt><trkpt lat="45.3317613681316" lon="7.564335189189893"><ele>1004.5</ele><time>2026-05-02T13:46:34Z</time></trkpt><trkpt lat="45.33181105738075" lon="7.56423691034542"><ele>1005.0</ele><time>2026-05-02T13:46:35Z</time></trkpt><trkpt lat="45.331857516509665" lon="7.564155418711972"><ele>1005.4</ele><time>2026-05-02T13:46:36Z</time></trkpt><trkpt lat="45.33188870160546" lon="7.564066792851632"><ele>1005.8</ele><time>2026-05-02T13:46:37Z</time></trkpt><trkpt lat="45.331917338305935" lon="7.563951803245697"><ele>1006.2</ele><time>2026-05-02T13:46:38Z</time></trkpt><trkpt lat="45.33194788767525" lon="7.5638485185879825"><ele>1006.6</ele><time>2026-05-02T13:46:39Z</time></trkpt><trkpt lat="45.33199548732066" lon="7.563701155852257"><ele>1007.0</ele><time>2026-05-02T13:46:41Z</time></trkpt><trkpt lat="45.332067343967665" lon="7.563581396357498"><ele>1004.2</ele><time>2026-05-02T13:46:43Z</time></trkpt><trkpt lat="45.33213001707614" lon="7.56354676664525"><ele>1001.4000000000001</ele><time>2026-05-02T13:46:45Z</time></trkpt><trkpt lat="45.332183652944664" lon="7.56342101907438"><ele>998.5999999999999</ele><time>2026-05-02T13:46:47Z</time></trkpt><trkpt lat="45.33219693841246" lon="7.563314261452921"><ele>995.8</ele><time>2026-05-02T13:46:48Z</time></trkpt><trkpt lat="45.33228048429765" lon="7.56318457625429"><ele>993.0</ele><time>2026-05-02T13:46:50Z</time></trkpt><trkpt lat="45.33235888593781" lon="7.563121589686412"><ele>993.0</ele><time>2026-05-02T13:46:51Z</time></trkpt><trkpt lat="45.33244694853061" lon="7.562994185206763"><ele>993.0</ele><time>2026-05-02T13:46:53Z</time></trkpt><trkpt lat="45.332523332689725" lon="7.562880050586372"><ele>993.0</ele><time>2026-05-02T13:46:55Z</time></trkpt><trkpt lat="45.3325601010893" lon="7.562791728412746"><ele>993.0</ele><time>2026-05-02T13:46:55.999Z</time></trkpt><trkpt lat="45.33257906154642" lon="7.562634214685081"><ele>993.0</ele><time>2026-05-02T13:46:57.999Z</time></trkpt><trkpt lat="45.33262204612378" lon="7.562456892622458"><ele>991.2</ele><time>2026-05-02T13:46:58.999Z</time></trkpt><trkpt lat="45.33264162782107" lon="7.562307255761083"><ele>989.4</ele><time>2026-05-02T13:46:59.999Z</time></trkpt><trkpt lat="45.33270788636161" lon="7.562141194104142"><ele>987.6000000000001</ele><time>2026-05-02T13:47:01.999Z</time></trkpt><trkpt lat="45.332754985753894" lon="7.562069228947732"><ele>985.8000000000001</ele><time>2026-05-02T13:47:02.999Z</time></trkpt><trkpt lat="45.33281626669906" lon="7.561994858580726"><ele>984.0</ele><time>2026-05-02T13:47:05.999Z</time></trkpt><trkpt lat="45.3328734514074" lon="7.5619301727786254"><ele>984.6</ele><time>2026-05-02T13:47:36Z</time></trkpt><trkpt lat="45.33292396615515" lon="7.561786962294961"><ele>985.2</ele><time>2026-05-02T13:47:38Z</time></trkpt><trkpt lat="45.332984692991204" lon="7.561666508187889"><ele>985.8000000000001</ele><time>2026-05-02T13:47:40Z</time></trkpt><trkpt lat="45.333041650252994" lon="7.561540762579051"><ele>986.4000000000001</ele><time>2026-05-02T13:47:41Z</time></trkpt><trkpt lat="45.333086801006935" lon="7.56147576241629"><ele>987.0</ele><time>2026-05-02T13:47:42Z</time></trkpt><trkpt lat="45.33319360321977" lon="7.561367844317404"><ele>987.0</ele><time>2026-05-02T13:47:44Z</time></trkpt><trkpt lat="45.333285847606966" lon="7.561227754186478"><ele>987.0</ele><time>2026-05-02T13:47:46Z</time></trkpt><trkpt lat="45.33333079485154" lon="7.561162918690004"><ele>987.0</ele><time>2026-05-02T13:47:47Z</time></trkpt><trkpt lat="45.33336393110524" lon="7.56108619498971"><ele>987.0</ele><time>2026-05-02T13:47:48Z</time></trkpt><trkpt lat="45.33342028707261" lon="7.56100802211654"><ele>987.0</ele><time>2026-05-02T13:47:49Z</time></trkpt><trkpt lat="45.33347781189533" lon="7.56087259465563"><ele>986.4000000000001</ele><time>2026-05-02T13:47:51Z</time></trkpt><trkpt lat="45.33354365171122" lon="7.5608252399102325"><ele>985.8000000000001</ele><time>2026-05-02T13:47:53Z</time></trkpt><trkpt lat="45.333583313262785" lon="7.560716025470888"><ele>985.2</ele><time>2026-05-02T13:47:56Z</time></trkpt><trkpt lat="45.333683315101034" lon="7.5606163659178955"><ele>984.6</ele><time>2026-05-02T13:47:58Z</time></trkpt><trkpt lat="45.333763673642316" lon="7.560498384642275"><ele>984.0</ele><time>2026-05-02T13:48:00Z</time></trkpt><trkpt lat="45.33381528134022" lon="7.560431542857494"><ele>985.6</ele><time>2026-05-02T13:48:03Z</time></trkpt><trkpt lat="45.333875344559935" lon="7.560316975005602"><ele>987.2</ele><time>2026-05-02T13:48:05Z</time></trkpt><trkpt lat="45.33395665132424" lon="7.560222424972912"><ele>988.8000000000001</ele><time>2026-05-02T13:48:06Z</time></trkpt><trkpt lat="45.334035343907644" lon="7.56014592617352"><ele>990.4000000000001</ele><time>2026-05-02T13:48:07Z</time></trkpt><trkpt lat="45.33410304753656" lon="7.56006782443193"><ele>992.0</ele><time>2026-05-02T13:48:08Z</time></trkpt><trkpt lat="45.334160031161" lon="7.559996779508829"><ele>992.0000000000001</ele><time>2026-05-02T13:48:09Z</time></trkpt><trkpt lat="45.334262744508585" lon="7.559953872243268"><ele>992.0</ele><time>2026-05-02T13:48:12Z</time></trkpt><trkpt lat="45.33433972470908" lon="7.559923465919965"><ele>992.0</ele><time>2026-05-02T13:48:14Z</time></trkpt><trkpt lat="45.334396599395184" lon="7.559884309393232"><ele>992.0</ele><time>2026-05-02T13:48:16Z</time></trkpt><trkpt lat="45.33446697023002" lon="7.559847606156933"><ele>992.0000000000001</ele><time>2026-05-02T13:48:18Z</time></trkpt><trkpt lat="45.33452030768352" lon="7.559761316668563"><ele>992.0</ele><time>2026-05-02T13:48:21Z</time></trkpt><trkpt lat="45.33456469607671" lon="7.559663605786285"><ele>992.0000000000001</ele><time>2026-05-02T13:48:23Z</time></trkpt><trkpt lat="45.3346276909287" lon="7.559574874935458"><ele>992.0</ele><time>2026-05-02T13:48:26Z</time></trkpt><trkpt lat="45.33468619139594" lon="7.5595132523654"><ele>992.0</ele><time>2026-05-02T13:48:29Z</time></trkpt><trkpt lat="45.33474498643465" lon="7.559397684320582"><ele>992.0</ele><time>2026-05-02T13:48:32Z</time></trkpt><trkpt lat="45.33477903718125" lon="7.559307853769696"><ele>992.0000000000001</ele><time>2026-05-02T13:48:33Z</time></trkpt><trkpt lat="45.334812880311674" lon="7.559218581656842"><ele>992.0</ele><time>2026-05-02T13:48:35Z</time></trkpt><trkpt lat="45.33486497417596" lon="7.559143864114201"><ele>991.4000000000001</ele><time>2026-05-02T13:48:39Z</time></trkpt><trkpt lat="45.334908647039626" lon="7.559038776721534"><ele>990.8000000000001</ele><time>2026-05-02T13:49:09.999Z</time></trkpt><trkpt lat="45.334982397837365" lon="7.558945452773953"><ele>990.2</ele><time>2026-05-02T13:49:22.999Z</time></trkpt><trkpt lat="45.33507711788354" lon="7.558845025788864"><ele>989.6</ele><time>2026-05-02T13:49:24.999Z</time></trkpt><trkpt lat="45.3351699998931" lon="7.558776630551347"><ele>989.0</ele><time>2026-05-02T13:49:26.999Z</time></trkpt><trkpt lat="45.33522436951615" lon="7.558685473370712"><ele>988.6666666666667</ele><time>2026-05-02T13:49:31.999Z</time></trkpt><trkpt lat="45.33531163800392" lon="7.558600297756854"><ele>988.3333333333334</ele><time>2026-05-02T13:49:35Z</time></trkpt><trkpt lat="45.33536562826262" lon="7.558525805338181"><ele>988.0</ele><time>2026-05-02T13:49:37Z</time></trkpt><trkpt lat="45.33541948777406" lon="7.558435094780314"><ele>987.6666666666667</ele><time>2026-05-02T13:49:39Z</time></trkpt><trkpt lat="45.335468213239466" lon="7.558347217842102"><ele>987.3333333333334</ele><time>2026-05-02T13:49:41Z</time></trkpt><trkpt lat="45.33552775056912" lon="7.5582387480311555"><ele>987.0</ele><time>2026-05-02T13:49:43Z</time></trkpt><trkpt lat="45.335567901858326" lon="7.55816902189716"><ele>987.0</ele><time>2026-05-02T13:49:45Z</time></trkpt><trkpt lat="45.3356414395954" lon="7.558081908884889"><ele>987.0</ele><time>2026-05-02T13:49:47Z</time></trkpt><trkpt lat="45.33569849982598" lon="7.558024753838523"><ele>987.0</ele><time>2026-05-02T13:49:48Z</time></trkpt><trkpt lat="45.335764645883884" lon="7.55792202687641"><ele>987.0</ele><time>2026-05-02T13:49:50Z</time></trkpt><trkpt lat="45.335830917613634" lon="7.557940742502482"><ele>987.0</ele><time>2026-05-02T13:49:52Z</time></trkpt><trkpt lat="45.335947913686056" lon="7.557891846515779"><ele>987.0</ele><time>2026-05-02T13:49:54Z</time></trkpt><trkpt lat="45.33603742397205" lon="7.5578764754506205"><ele>987.0</ele><time>2026-05-02T13:49:56Z</time></trkpt><trkpt lat="45.33610840915714" lon="7.557956140050564"><ele>987.0</ele><time>2026-05-02T13:49:58Z</time></trkpt><trkpt lat="45.3362400406606" lon="7.557907306854791"><ele>987.0</ele><time>2026-05-02T13:50:00Z</time></trkpt><trkpt lat="45.336325641091996" lon="7.557909143414465"><ele>987.0</ele><time>2026-05-02T13:50:02Z</time></trkpt><trkpt lat="45.3364512635" lon="7.557903532981166"><ele>988.2</ele><time>2026-05-02T13:50:04Z</time></trkpt><trkpt lat="45.33651938880496" lon="7.557898283721172"><ele>989.4000000000001</ele><time>2026-05-02T13:50:05Z</time></trkpt><trkpt lat="45.336586688942916" lon="7.557883204013535"><ele>990.5999999999999</ele><time>2026-05-02T13:50:07Z</time></trkpt><trkpt lat="45.336696537818995" lon="7.557821134510658"><ele>991.8</ele><time>2026-05-02T13:50:09Z</time></trkpt><trkpt lat="45.336777977771" lon="7.557738120386293"><ele>993.0</ele><time>2026-05-02T13:50:11Z</time></trkpt><trkpt lat="45.336870073599606" lon="7.557635768717413"><ele>993.0</ele><time>2026-05-02T13:50:13Z</time></trkpt><trkpt lat="45.33693654694637" lon="7.557532461828836"><ele>993.0</ele><time>2026-05-02T13:50:15Z</time></trkpt><trkpt lat="45.33699874203272" lon="7.557454741439901"><ele>993.0</ele><time>2026-05-02T13:50:18Z</time></trkpt><trkpt lat="45.33703661563747" lon="7.5573735899139916"><ele>993.0</ele><time>2026-05-02T13:50:20Z</time></trkpt><trkpt lat="45.3370980662813" lon="7.5573517531165155"><ele>993.0</ele><time>2026-05-02T13:50:23Z</time></trkpt><trkpt lat="45.337148772923214" lon="7.5572942307975595"><ele>993.0</ele><time>2026-05-02T13:50:25Z</time></trkpt><trkpt lat="45.33718510370069" lon="7.557210910692237"><ele>993.0</ele><time>2026-05-02T13:50:27Z</time></trkpt><trkpt lat="45.33722100420881" lon="7.557118357149804"><ele>991.6666666666666</ele><time>2026-05-02T13:50:30Z</time></trkpt><trkpt lat="45.33729192414347" lon="7.557030406652054"><ele>990.3333333333333</ele><time>2026-05-02T13:50:33Z</time></trkpt><trkpt lat="45.33734263015695" lon="7.556955626914951"><ele>989.0</ele><time>2026-05-02T13:50:37Z</time></trkpt><trkpt lat="45.337402159785526" lon="7.556923088391297"><ele>987.6666666666666</ele><time>2026-05-02T13:50:40Z</time></trkpt><trkpt lat="45.33749747592973" lon="7.556910859887745"><ele>986.3333333333333</ele><time>2026-05-02T13:51:44Z</time></trkpt><trkpt lat="45.33757932990178" lon="7.556839311293415"><ele>985.0</ele><time>2026-05-02T13:51:56Z</time></trkpt><trkpt lat="45.337631463936106" lon="7.5567716987648135"><ele>984.9999999999999</ele><time>2026-05-02T13:51:57Z</time></trkpt><trkpt lat="45.337702053041404" lon="7.556699792345764"><ele>985.0</ele><time>2026-05-02T13:51:59Z</time></trkpt><trkpt lat="45.3377440917543" lon="7.556618779233269"><ele>985.0</ele><time>2026-05-02T13:52:01Z</time></trkpt><trkpt lat="45.3378161317012" lon="7.556562851469217"><ele>985.0</ele><time>2026-05-02T13:52:03Z</time></trkpt><trkpt lat="45.3378923363309" lon="7.556506553941348"><ele>984.9999999999999</ele><time>2026-05-02T13:52:05Z</time></trkpt><trkpt lat="45.33796364274422" lon="7.5564753118641494"><ele>985.0</ele><time>2026-05-02T13:54:46Z</time></trkpt><trkpt lat="45.33800726798559" lon="7.556389869813652"><ele>983.6666666666666</ele><time>2026-05-02T14:02:18Z</time></trkpt><trkpt lat="45.33807607979592" lon="7.556404302677548"><ele>982.3333333333333</ele><time>2026-05-02T14:03:08Z</time></trkpt><trkpt lat="45.33810737629058" lon="7.556486046430348"><ele>981.0</ele><time>2026-05-02T14:03:11Z</time></trkpt><trkpt lat="45.33811454088428" lon="7.556592140802785"><ele>979.6666666666667</ele><time>2026-05-02T14:03:13Z</time></trkpt><trkpt lat="45.33814150911356" lon="7.556696424454878"><ele>978.3333333333334</ele><time>2026-05-02T14:03:15Z</time></trkpt><trkpt lat="45.33817131205625" lon="7.556821311177975"><ele>977.0</ele><time>2026-05-02T14:03:17Z</time></trkpt><trkpt lat="45.33822971391708" lon="7.556947521148193"><ele>971.6</ele><time>2026-05-02T14:03:19Z</time></trkpt><trkpt lat="45.338254561182296" lon="7.557037765816254"><ele>966.2</ele><time>2026-05-02T14:03:21Z</time></trkpt><trkpt lat="45.338299777447965" lon="7.55710702340593"><ele>960.8</ele><time>2026-05-02T14:03:23Z</time></trkpt><trkpt lat="45.33835461450117" lon="7.55727512501135"><ele>955.4</ele><time>2026-05-02T14:03:25Z</time></trkpt><trkpt lat="45.33841681542141" lon="7.557393820391181"><ele>950.0</ele><time>2026-05-02T14:03:28.999Z</time></trkpt><trkpt lat="45.33851757590712" lon="7.557399030210421"><ele>950.0</ele><time>2026-05-02T14:03:30.999Z</time></trkpt><trkpt lat="45.33862183227674" lon="7.557386845553493"><ele>950.0</ele><time>2026-05-02T14:03:32.999Z</time></trkpt><trkpt lat="45.33872500379905" lon="7.557381857105453"><ele>950.0</ele><time>2026-05-02T14:03:34.999Z</time></trkpt><trkpt lat="45.3387843201293" lon="7.557456631913099"><ele>950.0</ele><time>2026-05-02T14:03:35.999Z</time></trkpt><trkpt lat="45.33887151557329" lon="7.557549294241695"><ele>950.0</ele><time>2026-05-02T14:03:37.999Z</time></trkpt><trkpt lat="45.338976941786775" lon="7.557621030017751"><ele>951.4</ele><time>2026-05-02T14:03:39.999Z</time></trkpt><trkpt lat="45.33905748282757" lon="7.557685789469533"><ele>952.8</ele><time>2026-05-02T14:03:41.999Z</time></trkpt><trkpt lat="45.33918229831278" lon="7.55769044258966"><ele>954.2</ele><time>2026-05-02T14:03:44.999Z</time></trkpt><trkpt lat="45.33925309853698" lon="7.557666372996755"><ele>955.6</ele><time>2026-05-02T14:03:45.999Z</time></trkpt><trkpt lat="45.33936353081607" lon="7.55764923689293"><ele>957.0</ele><time>2026-05-02T14:03:46.999Z</time></trkpt><trkpt lat="45.33944414488855" lon="7.557640568507335"><ele>957.0</ele><time>2026-05-02T14:03:47.999Z</time></trkpt><trkpt lat="45.33954485840638" lon="7.557639039147566"><ele>957.0</ele><time>2026-05-02T14:03:48.999Z</time></trkpt><trkpt lat="45.339615784686075" lon="7.557622435615414"><ele>957.0</ele><time>2026-05-02T14:03:49.999Z</time></trkpt><trkpt lat="45.33975387862702" lon="7.557525979620158"><ele>957.0</ele><time>2026-05-02T14:03:51.999Z</time></trkpt><trkpt lat="45.33983184881955" lon="7.557516634452878"><ele>957.0</ele><time>2026-05-02T14:03:52.999Z</time></trkpt><trkpt lat="45.339896230937256" lon="7.557472834132884"><ele>953.6666666666666</ele><time>2026-05-02T14:03:53.999Z</time></trkpt><trkpt lat="45.33996641536128" lon="7.557481069389971"><ele>950.3333333333333</ele><time>2026-05-02T14:03:55.999Z</time></trkpt><trkpt lat="45.34008026341962" lon="7.557479803960456"><ele>947.0</ele><time>2026-05-02T14:03:57.999Z</time></trkpt><trkpt lat="45.340123051766376" lon="7.557375197469685"><ele>943.6666666666666</ele><time>2026-05-02T14:04:00.999Z</time></trkpt><trkpt lat="45.34020945100729" lon="7.557412820198845"><ele>940.3333333333333</ele><time>2026-05-02T14:04:13.999Z</time></trkpt><trkpt lat="45.34026131677868" lon="7.557342076563359"><ele>937.0</ele><time>2026-05-02T14:04:43Z</time></trkpt><trkpt lat="45.34028131707148" lon="7.55725426107945"><ele>936.9999999999999</ele><time>2026-05-02T14:04:49Z</time></trkpt><trkpt lat="45.340319950398055" lon="7.557121790821721"><ele>937.0</ele><time>2026-05-02T14:04:52Z</time></trkpt><trkpt lat="45.340355703485145" lon="7.557008323321315"><ele>937.0</ele><time>2026-05-02T14:04:54Z</time></trkpt><trkpt lat="45.340382684478875" lon="7.5568864799698225"><ele>937.0</ele><time>2026-05-02T14:04:57Z</time></trkpt><trkpt lat="45.34044979360566" lon="7.556796214689602"><ele>936.9999999999999</ele><time>2026-05-02T14:05:12Z</time></trkpt><trkpt lat="45.34049522632358" lon="7.556711906296179"><ele>937.0</ele><time>2026-05-02T14:05:16Z</time></trkpt><trkpt lat="45.340543970795245" lon="7.556650393762642"><ele>935.0</ele><time>2026-05-02T14:05:18Z</time></trkpt><trkpt lat="45.340598738207575" lon="7.556569093690253"><ele>933.0</ele><time>2026-05-02T14:05:21Z</time></trkpt><trkpt lat="45.34063952279715" lon="7.556494803398113"><ele>931.0</ele><time>2026-05-02T14:05:24Z</time></trkpt><trkpt lat="45.34069132092978" lon="7.556392143967482"><ele>929.0</ele><time>2026-05-02T14:05:27Z</time></trkpt><trkpt lat="45.340708443147484" lon="7.5562910741511455"><ele>927.0</ele><time>2026-05-02T14:05:29Z</time></trkpt><trkpt lat="45.34073993136595" lon="7.556212638688642"><ele>925.0</ele><time>2026-05-02T14:05:31Z</time></trkpt><trkpt lat="45.34080490909049" lon="7.556250069060456"><ele>923.0</ele><time>2026-05-02T14:05:34.999Z</time></trkpt><trkpt lat="45.34088312375856" lon="7.5562668534483315"><ele>923.0000000000001</ele><time>2026-05-02T14:05:37.999Z</time></trkpt><trkpt lat="45.34096351277029" lon="7.556261330678682"><ele>923.0</ele><time>2026-05-02T14:05:40.999Z</time></trkpt><trkpt lat="45.341059457673424" lon="7.5562417215400774"><ele>923.0</ele><time>2026-05-02T14:05:43.999Z</time></trkpt><trkpt lat="45.34112535151338" lon="7.556205375737557"><ele>923.0</ele><time>2026-05-02T14:05:45.999Z</time></trkpt><trkpt lat="45.34121172567731" lon="7.556141151760826"><ele>923.0000000000001</ele><time>2026-05-02T14:05:48.999Z</time></trkpt><trkpt lat="45.341270209842826" lon="7.556089008334695"><ele>923.0</ele><time>2026-05-02T14:05:50.999Z</time></trkpt><trkpt lat="45.34132617528088" lon="7.556021657315138"><ele>925.1666666666667</ele><time>2026-05-02T14:05:53.999Z</time></trkpt><trkpt lat="45.34139157054217" lon="7.556053546905176"><ele>927.3333333333334</ele><time>2026-05-02T14:05:59.999Z</time></trkpt><trkpt lat="45.34148662313571" lon="7.556020580810985"><ele>929.5</ele><time>2026-05-02T14:06:01.999Z</time></trkpt><trkpt lat="45.34158566763527" lon="7.5560573144889505"><ele>931.6666666666667</ele><time>2026-05-02T14:06:27Z</time></trkpt><trkpt lat="45.341673290942595" lon="7.556040083264788"><ele>933.8333333333334</ele><time>2026-05-02T14:07:39.999Z</time></trkpt><trkpt lat="45.341709656202255" lon="7.555936063059975"><ele>936.0</ele><time>2026-05-02T14:07:41.999Z</time></trkpt><trkpt lat="45.341761231616516" lon="7.5558413465938035"><ele>936.0</ele><time>2026-05-02T14:07:44.999Z</time></trkpt><trkpt lat="45.34185974598636" lon="7.555824146527426"><ele>935.9999999999999</ele><time>2026-05-02T14:07:48.999Z</time></trkpt><trkpt lat="45.341944550289476" lon="7.555784635023914"><ele>935.9999999999999</ele><time>2026-05-02T14:07:49.999Z</time></trkpt><trkpt lat="45.342009322224335" lon="7.555704041012022"><ele>936.0</ele><time>2026-05-02T14:07:51.999Z</time></trkpt><trkpt lat="45.342094717728585" lon="7.555604673823187"><ele>936.0</ele><time>2026-05-02T14:07:53.999Z</time></trkpt><trkpt lat="45.342165946948505" lon="7.555519124086275"><ele>936.0</ele><time>2026-05-02T14:07:55.999Z</time></trkpt><trkpt lat="45.34221221369888" lon="7.555398638993693"><ele>936.0</ele><time>2026-05-02T14:07:57.999Z</time></trkpt><trkpt lat="45.342257149203235" lon="7.555331614144976"><ele>936.0</ele><time>2026-05-02T14:08:02.999Z</time></trkpt><trkpt lat="45.34229705569009" lon="7.555256653547639"><ele>936.0</ele><time>2026-05-02T14:08:08.999Z</time></trkpt><trkpt lat="45.34236413340468" lon="7.5551890205472"><ele>936.0</ele><time>2026-05-02T14:09:13Z</time></trkpt><trkpt lat="45.342428181595245" lon="7.55515107693358"><ele>936.0</ele><time>2026-05-02T14:09:21Z</time></trkpt><trkpt lat="45.342353786344574" lon="7.555130770546859"><ele>937.5</ele><time>2026-05-02T14:09:30Z</time></trkpt><trkpt lat="45.3423150955001" lon="7.555237018296966"><ele>939.0</ele><time>2026-05-02T14:09:39Z</time></trkpt><trkpt lat="45.34223768815814" lon="7.555288176832893"><ele>940.5</ele><time>2026-05-02T14:09:42Z</time></trkpt><trkpt lat="45.342259734601434" lon="7.555388778713144"><ele>942.0</ele><time>2026-05-02T14:09:46Z</time></trkpt><trkpt lat="45.34225866284436" lon="7.555282310797277"><ele>943.5</ele><time>2026-05-02T14:10:01.999Z</time></trkpt><trkpt lat="45.34231094220402" lon="7.555207509130373"><ele>945.0</ele><time>2026-05-02T14:10:49Z</time></trkpt><trkpt lat="45.3423975186946" lon="7.555071273806543"><ele>945.0</ele><time>2026-05-02T14:11:30Z</time></trkpt><trkpt lat="45.34233766451784" lon="7.5551307708898445"><ele>945.0</ele><time>2026-05-02T14:11:39Z</time></trkpt><trkpt lat="45.34229929371234" lon="7.555236101933798"><ele>945.0</ele><time>2026-05-02T14:12:03.999Z</time></trkpt><trkpt lat="45.34225750775187" lon="7.555342831925302"><ele>945.0</ele><time>2026-05-02T14:12:08.999Z</time></trkpt><trkpt lat="45.34223800835189" lon="7.555451057534014"><ele>945.0</ele><time>2026-05-02T14:12:13.999Z</time></trkpt><trkpt lat="45.34228832536161" lon="7.555364539637732"><ele>945.0</ele><time>2026-05-02T14:12:23.999Z</time></trkpt><trkpt lat="45.342288594521065" lon="7.555272939789045"><ele>945.0</ele><time>2026-05-02T14:12:27.999Z</time></trkpt><trkpt lat="45.342313534411865" lon="7.5551736753648315"><ele>945.0</ele><time>2026-05-02T14:13:20Z</time></trkpt><trkpt lat="45.3423749917978" lon="7.555059686344375"><ele>945.0</ele><time>2026-05-02T14:13:24Z</time></trkpt><trkpt lat="45.34241704889256" lon="7.554985438960704"><ele>945.0</ele><time>2026-05-02T14:13:30Z</time></trkpt><trkpt lat="45.34244474865794" lon="7.554904997575888"><ele>945.0</ele><time>2026-05-02T14:13:37Z</time></trkpt><trkpt lat="45.342531013960766" lon="7.554835061918132"><ele>945.0</ele><time>2026-05-02T14:14:49Z</time></trkpt><trkpt lat="45.34258790831902" lon="7.554763430822677"><ele>945.0</ele><time>2026-05-02T14:15:02Z</time></trkpt><trkpt lat="45.342654009502205" lon="7.5546602819527156"><ele>945.0</ele><time>2026-05-02T14:15:07Z</time></trkpt><trkpt lat="45.34270989254573" lon="7.554607103079251"><ele>945.0</ele><time>2026-05-02T14:15:10Z</time></trkpt><trkpt lat="45.34276326041562" lon="7.554537482291929"><ele>945.0</ele><time>2026-05-02T14:15:14Z</time></trkpt><trkpt lat="45.342833032124716" lon="7.554476355406901"><ele>945.0</ele><time>2026-05-02T14:15:17Z</time></trkpt><trkpt lat="45.34290227727499" lon="7.5544434503894085"><ele>945.0</ele><time>2026-05-02T14:15:19Z</time></trkpt><trkpt lat="45.34299286630017" lon="7.554458949117518"><ele>946.1666666666666</ele><time>2026-05-02T14:15:21Z</time></trkpt><trkpt lat="45.34308185997737" lon="7.554409350412299"><ele>947.3333333333333</ele><time>2026-05-02T14:15:25Z</time></trkpt><trkpt lat="45.343158738806665" lon="7.554381454947444"><ele>948.5</ele><time>2026-05-02T14:15:28Z</time></trkpt><trkpt lat="45.3432473804052" lon="7.5543442404621155"><ele>949.6666666666666</ele><time>2026-05-02T14:15:31Z</time></trkpt><trkpt lat="45.34330786386289" lon="7.554274024539095"><ele>950.8333333333333</ele><time>2026-05-02T14:15:33Z</time></trkpt><trkpt lat="45.34338493185421" lon="7.554194539947178"><ele>952.0</ele><time>2026-05-02T14:15:37Z</time></trkpt><trkpt lat="45.34344749738792" lon="7.554210930801352"><ele>952.0</ele><time>2026-05-02T14:15:38Z</time></trkpt><trkpt lat="45.343494120529236" lon="7.554134968524313"><ele>952.0</ele><time>2026-05-02T14:15:39Z</time></trkpt><trkpt lat="45.34357203491157" lon="7.55405575719665"><ele>952.0</ele><time>2026-05-02T14:15:41Z</time></trkpt><trkpt lat="45.343656904165634" lon="7.554009158196414"><ele>952.0</ele><time>2026-05-02T14:15:43Z</time></trkpt><trkpt lat="45.34374441190128" lon="7.553936540593642"><ele>952.0</ele><time>2026-05-02T14:15:45Z</time></trkpt><trkpt lat="45.34381432013306" lon="7.5538202778596"><ele>953.6666666666666</ele><time>2026-05-02T14:15:47Z</time></trkpt><trkpt lat="45.343909538529374" lon="7.553767311368266"><ele>955.3333333333333</ele><time>2026-05-02T14:15:49Z</time></trkpt><trkpt lat="45.34397334058025" lon="7.553759152596021"><ele>957.0</ele><time>2026-05-02T14:15:50Z</time></trkpt><trkpt lat="45.3440919843804" lon="7.5537299662701365"><ele>958.6666666666667</ele><time>2026-05-02T14:15:52Z</time></trkpt><trkpt lat="45.34416289747402" lon="7.553681492871521"><ele>960.3333333333334</ele><time>2026-05-02T14:15:53Z</time></trkpt><trkpt lat="45.34422202472818" lon="7.553642475746199"><ele>962.0</ele><time>2026-05-02T14:15:54Z</time></trkpt><trkpt lat="45.3442857667476" lon="7.553604032747887"><ele>962.0000000000001</ele><time>2026-05-02T14:15:56Z</time></trkpt><trkpt lat="45.34431403032731" lon="7.553453053725046"><ele>962.0</ele><time>2026-05-02T14:15:59Z</time></trkpt><trkpt lat="45.34433539637824" lon="7.5533621007852005"><ele>962.0</ele><time>2026-05-02T14:16:01Z</time></trkpt><trkpt lat="45.34430975467095" lon="7.553256438612363"><ele>962.0</ele><time>2026-05-02T14:16:03Z</time></trkpt><trkpt lat="45.344271629486435" lon="7.553117902842022"><ele>962.0000000000001</ele><time>2026-05-02T14:16:05Z</time></trkpt><trkpt lat="45.34431777461684" lon="7.553031867911894"><ele>962.0</ele><time>2026-05-02T14:16:15.999Z</time></trkpt><trkpt lat="45.3443020350606" lon="7.552905365793836"><ele>962.3333333333334</ele><time>2026-05-02T14:16:23.999Z</time></trkpt><trkpt lat="45.34425722386915" lon="7.5528082979561955"><ele>962.6666666666667</ele><time>2026-05-02T14:16:25.999Z</time></trkpt><trkpt lat="45.34425658041543" lon="7.552698349390378"><ele>963.0</ele><time>2026-05-02T14:16:27.999Z</time></trkpt><trkpt lat="45.34423660246644" lon="7.552564217557851"><ele>963.3333333333333</ele><time>2026-05-02T14:16:29.999Z</time></trkpt><trkpt lat="45.34420660816346" lon="7.552437989884386"><ele>963.6666666666666</ele><time>2026-05-02T14:16:31.999Z</time></trkpt><trkpt lat="45.34417344592696" lon="7.552310964013281"><ele>964.0</ele><time>2026-05-02T14:16:33.999Z</time></trkpt><trkpt lat="45.34416167216358" lon="7.552173144112257"><ele>965.0</ele><time>2026-05-02T14:16:35.999Z</time></trkpt><trkpt lat="45.34415987751656" lon="7.5520332843127"><ele>966.0000000000001</ele><time>2026-05-02T14:16:37.999Z</time></trkpt><trkpt lat="45.34412972459584" lon="7.551917494316991"><ele>967.0000000000001</ele><time>2026-05-02T14:16:39.999Z</time></trkpt><trkpt lat="45.34411715245904" lon="7.55181315624686"><ele>968.0</ele><time>2026-05-02T14:16:41.999Z</time></trkpt><trkpt lat="45.344104633898496" lon="7.551690504548217"><ele>969.0</ele><time>2026-05-02T14:16:45.999Z</time></trkpt><trkpt lat="45.3440955109652" lon="7.55151641434339"><ele>969.0</ele><time>2026-05-02T14:16:48.999Z</time></trkpt><trkpt lat="45.34408832945307" lon="7.5513740323785745"><ele>969.0</ele><time>2026-05-02T14:16:51Z</time></trkpt><trkpt lat="45.34410703966851" lon="7.551278391504629"><ele>969.0</ele><time>2026-05-02T14:16:53Z</time></trkpt><trkpt lat="45.3440455815094" lon="7.551186233208798"><ele>969.0</ele><time>2026-05-02T14:16:56Z</time></trkpt><trkpt lat="45.34404776645493" lon="7.551091160081251"><ele>969.0</ele><time>2026-05-02T14:17:01Z</time></trkpt><trkpt lat="45.34404797658429" lon="7.55094229269604"><ele>969.0</ele><time>2026-05-02T14:17:04Z</time></trkpt><trkpt lat="45.34405246002841" lon="7.550808087460243"><ele>971.3333333333334</ele><time>2026-05-02T14:17:34Z</time></trkpt><trkpt lat="45.34408266087635" lon="7.550693082765847"><ele>973.6666666666667</ele><time>2026-05-02T14:18:21.999Z</time></trkpt><trkpt lat="45.34408976227276" lon="7.5506020172211095"><ele>976.0</ele><time>2026-05-02T14:20:42.999Z</time></trkpt><trkpt lat="45.34396963332015" lon="7.550560645979428"><ele>978.3333333333334</ele><time>2026-05-02T14:21:05Z</time></trkpt><trkpt lat="45.344049161804655" lon="7.550594412948343"><ele>980.6666666666667</ele><time>2026-05-02T14:21:30Z</time></trkpt><trkpt lat="45.343994869117466" lon="7.550526358016084"><ele>983.0</ele><time>2026-05-02T14:21:48Z</time></trkpt><trkpt lat="45.34396968040478" lon="7.550618540468323"><ele>983.0000000000001</ele><time>2026-05-02T14:22:18.999Z</time></trkpt><trkpt lat="45.344061861124445" lon="7.550633594148561"><ele>983.0</ele><time>2026-05-02T14:22:22.999Z</time></trkpt><trkpt lat="45.34414350591849" lon="7.550691814925933"><ele>983.0</ele><time>2026-05-02T14:22:24.999Z</time></trkpt><trkpt lat="45.34420351514125" lon="7.550729680081686"><ele>983.0</ele><time>2026-05-02T14:22:26.999Z</time></trkpt><trkpt lat="45.34424327552213" lon="7.550803107815125"><ele>983.0000000000001</ele><time>2026-05-02T14:22:28.999Z</time></trkpt><trkpt lat="45.34432277907133" lon="7.550878016637357"><ele>983.0</ele><time>2026-05-02T14:22:30.999Z</time></trkpt><trkpt lat="45.34439543345892" lon="7.5508572273253405"><ele>983.0</ele><time>2026-05-02T14:22:32.999Z</time></trkpt><trkpt lat="45.34447798265755" lon="7.5509797732452055"><ele>983.0</ele><time>2026-05-02T14:22:35.999Z</time></trkpt><trkpt lat="45.34455711901385" lon="7.551045037572401"><ele>983.0</ele><time>2026-05-02T14:22:38.999Z</time></trkpt><trkpt lat="45.344632651326044" lon="7.5510919037459985"><ele>983.0</ele><time>2026-05-02T14:22:42.999Z</time></trkpt><trkpt lat="45.34470964159868" lon="7.55120800792489"><ele>983.0</ele><time>2026-05-02T14:23:02.999Z</time></trkpt><trkpt lat="45.344738151039316" lon="7.551127523279865"><ele>982.9999999999999</ele><time>2026-05-02T14:23:22Z</time></trkpt><trkpt lat="45.344690815813706" lon="7.551067203386265"><ele>983.0</ele><time>2026-05-02T14:23:29Z</time></trkpt><trkpt lat="45.34463806258742" lon="7.550998522784115"><ele>982.9999999999999</ele><time>2026-05-02T14:23:34Z</time></trkpt><trkpt lat="45.344589049462016" lon="7.550941899097309"><ele>982.9999999999999</ele><time>2026-05-02T14:23:39Z</time></trkpt><trkpt lat="45.34453488466197" lon="7.5508767806200545"><ele>983.0</ele><time>2026-05-02T14:23:44Z</time></trkpt><trkpt lat="45.344462799325754" lon="7.550827964192018"><ele>982.9999999999999</ele><time>2026-05-02T14:23:49Z</time></trkpt><trkpt lat="45.344411820898046" lon="7.5507748948916324"><ele>982.9999999999999</ele><time>2026-05-02T14:23:53Z</time></trkpt><trkpt lat="45.344357703019995" lon="7.550728839830677"><ele>982.9999999999999</ele><time>2026-05-02T14:23:59Z</time></trkpt><trkpt lat="45.344296670050745" lon="7.550638432543785"><ele>983.0</ele><time>2026-05-02T14:24:17Z</time></trkpt><trkpt lat="45.34423883355372" lon="7.5505892114729845"><ele>982.9999999999999</ele><time>2026-05-02T14:24:50.999Z</time></trkpt><trkpt lat="45.34417585900741" lon="7.55058070375694"><ele>982.9999999999999</ele><time>2026-05-02T14:24:55.999Z</time></trkpt><trkpt lat="45.3441120854374" lon="7.550592518888588"><ele>983.0</ele><time>2026-05-02T14:25:08.999Z</time></trkpt><trkpt lat="45.3440714548094" lon="7.550523338332874"><ele>982.9999999999999</ele><time>2026-05-02T14:25:26Z</time></trkpt><trkpt lat="45.34414600412285" lon="7.550600392358945"><ele>982.9999999999999</ele><time>2026-05-02T14:25:40Z</time></trkpt><trkpt lat="45.34421057858948" lon="7.550639127216714"><ele>983.0000000000001</ele><time>2026-05-02T14:25:49Z</time></trkpt><trkpt lat="45.34426967639032" lon="7.550690721662049"><ele>983.0</ele><time>2026-05-02T14:25:57Z</time></trkpt><trkpt lat="45.344336813391976" lon="7.550722151284726"><ele>983.0</ele><time>2026-05-02T14:26:02Z</time></trkpt><trkpt lat="45.3443971537464" lon="7.550758229090074"><ele>983.0</ele><time>2026-05-02T14:26:09Z</time></trkpt><trkpt lat="45.34448530029126" lon="7.550762529968463"><ele>983.0000000000001</ele><time>2026-05-02T14:26:36Z</time></trkpt><trkpt lat="45.344481028202146" lon="7.550903564995729"><ele>983.0</ele><time>2026-05-02T14:27:45Z</time></trkpt><trkpt lat="45.34454785796479" lon="7.550932739124602"><ele>982.9999999999999</ele><time>2026-05-02T14:28:22Z</time></trkpt><trkpt lat="45.34460299713821" lon="7.551000298288632"><ele>983.0</ele><time>2026-05-02T14:28:29.999Z</time></trkpt><trkpt lat="45.344659427878376" lon="7.551048231120958"><ele>982.9999999999999</ele><time>2026-05-02T14:28:36.999Z</time></trkpt><trkpt lat="45.34473154418135" lon="7.551109978902316"><ele>982.9999999999999</ele><time>2026-05-02T14:28:42.999Z</time></trkpt><trkpt lat="45.3447888037881" lon="7.551181996588134"><ele>983.0</ele><time>2026-05-02T14:28:52.999Z</time></trkpt><trkpt lat="45.344826551102344" lon="7.551260590174639"><ele>982.9999999999999</ele><time>2026-05-02T14:29:06.999Z</time></trkpt><trkpt lat="45.344885894457" lon="7.551343046758666"><ele>982.9999999999999</ele><time>2026-05-02T14:30:14Z</time></trkpt><trkpt lat="45.34493693160763" lon="7.551410158120347"><ele>980.6666666666667</ele><time>2026-05-02T14:30:17Z</time></trkpt><trkpt lat="45.344989140152144" lon="7.551513921694728"><ele>978.3333333333334</ele><time>2026-05-02T14:30:19Z</time></trkpt><trkpt lat="45.345048876328626" lon="7.55157296564666"><ele>976.0</ele><time>2026-05-02T14:30:21Z</time></trkpt><trkpt lat="45.34511496965335" lon="7.551648369568101"><ele>973.6666666666667</ele><time>2026-05-02T14:30:22Z</time></trkpt><trkpt lat="45.34518629335446" lon="7.551661937161999"><ele>971.3333333333334</ele><time>2026-05-02T14:30:25Z</time></trkpt><trkpt lat="45.34529494837886" lon="7.55160086410419"><ele>969.0</ele><time>2026-05-02T14:30:27Z</time></trkpt><trkpt lat="45.34536571863137" lon="7.551506819822731"><ele>969.0</ele><time>2026-05-02T14:30:29Z</time></trkpt><trkpt lat="45.345410148324966" lon="7.551423292378083"><ele>969.0</ele><time>2026-05-02T14:30:31.999Z</time></trkpt><trkpt lat="45.34544321911206" lon="7.551324458653589"><ele>969.0</ele><time>2026-05-02T14:30:33.999Z</time></trkpt><trkpt lat="45.34546283959064" lon="7.551196546920997"><ele>969.0</ele><time>2026-05-02T14:30:35.999Z</time></trkpt><trkpt lat="45.34553726110754" lon="7.551210692618556"><ele>969.0</ele><time>2026-05-02T14:30:49.999Z</time></trkpt><trkpt lat="45.345601905432794" lon="7.551218601261819"><ele>969.0</ele><time>2026-05-02T14:30:51.999Z</time></trkpt><trkpt lat="45.34562043139562" lon="7.551335232182962"><ele>969.0</ele><time>2026-05-02T14:31:00.999Z</time></trkpt><trkpt lat="45.34565717376984" lon="7.551239180810854"><ele>969.0</ele><time>2026-05-02T14:31:03.999Z</time></trkpt><trkpt lat="45.34570454620045" lon="7.55130938917475"><ele>969.0</ele><time>2026-05-02T14:31:17.999Z</time></trkpt><trkpt lat="45.34578176217431" lon="7.551358879304679"><ele>969.0</ele><time>2026-05-02T14:31:47Z</time></trkpt><trkpt lat="45.34587609100102" lon="7.551394921751759"><ele>969.0</ele><time>2026-05-02T14:31:50Z</time></trkpt><trkpt lat="45.345961095276095" lon="7.551489963874989"><ele>969.0</ele><time>2026-05-02T14:31:52Z</time></trkpt><trkpt lat="45.34602429067171" lon="7.551591832752423"><ele>969.0</ele><time>2026-05-02T14:31:54Z</time></trkpt><trkpt lat="45.346090991740716" lon="7.5516558544996135"><ele>969.0</ele><time>2026-05-02T14:31:56Z</time></trkpt><trkpt lat="45.34616486620646" lon="7.551724981521379"><ele>969.0</ele><time>2026-05-02T14:31:58Z</time></trkpt><trkpt lat="45.34626195741986" lon="7.5517817683426545"><ele>969.0</ele><time>2026-05-02T14:32:01Z</time></trkpt><trkpt lat="45.34633236970703" lon="7.551823722556962"><ele>969.0</ele><time>2026-05-02T14:32:03Z</time></trkpt><trkpt lat="45.34640878560122" lon="7.55184475993619"><ele>969.0</ele><time>2026-05-02T14:32:05Z</time></trkpt><trkpt lat="45.34649042445522" lon="7.551844881425189"><ele>967.7142857142856</ele><time>2026-05-02T14:32:07Z</time></trkpt><trkpt lat="45.346554757004874" lon="7.551908328358078"><ele>966.4285714285713</ele><time>2026-05-02T14:32:10Z</time></trkpt><trkpt lat="45.34663190236533" lon="7.551914582658413"><ele>965.1428571428571</ele><time>2026-05-02T14:32:12Z</time></trkpt><trkpt lat="45.34670235390284" lon="7.551907204225429"><ele>963.8571428571428</ele><time>2026-05-02T14:32:18Z</time></trkpt><trkpt lat="45.346773488098165" lon="7.55189399436676"><ele>962.5714285714284</ele><time>2026-05-02T14:32:25Z</time></trkpt><trkpt lat="45.34679469411119" lon="7.551980986577993"><ele>961.2857142857143</ele><time>2026-05-02T14:32:32Z</time></trkpt><trkpt lat="45.34687006834329" lon="7.552018762893219"><ele>960.0</ele><time>2026-05-02T14:32:35Z</time></trkpt><trkpt lat="45.34694156872135" lon="7.552058817406588"><ele>960.0</ele><time>2026-05-02T14:32:37Z</time></trkpt><trkpt lat="45.34699953484072" lon="7.5521124918945635"><ele>960.0</ele><time>2026-05-02T14:32:39Z</time></trkpt><trkpt lat="45.34702789517934" lon="7.552223130680981"><ele>960.0</ele><time>2026-05-02T14:32:47Z</time></trkpt><trkpt lat="45.34711192197176" lon="7.552268880214812"><ele>960.0</ele><time>2026-05-02T14:32:50Z</time></trkpt><trkpt lat="45.3471807836703" lon="7.552411359802561"><ele>960.0</ele><time>2026-05-02T14:33:10Z</time></trkpt><trkpt lat="45.3472559042839" lon="7.552419788320338"><ele>960.0</ele><time>2026-05-02T14:33:19Z</time></trkpt><trkpt lat="45.3472462279743" lon="7.5525298424560585"><ele>961.1666666666666</ele><time>2026-05-02T14:34:22Z</time></trkpt><trkpt lat="45.347257574048975" lon="7.5526365349584434"><ele>962.3333333333333</ele><time>2026-05-02T14:34:24Z</time></trkpt><trkpt lat="45.34722894544816" lon="7.552753997786778"><ele>963.5</ele><time>2026-05-02T14:34:26Z</time></trkpt><trkpt lat="45.34727575394244" lon="7.55286290724047"><ele>964.6666666666666</ele><time>2026-05-02T14:34:28Z</time></trkpt><trkpt lat="45.34730760325534" lon="7.552985321625852"><ele>965.8333333333333</ele><time>2026-05-02T14:34:31Z</time></trkpt><trkpt lat="45.347336071775615" lon="7.553069510153259"><ele>967.0</ele><time>2026-05-02T14:34:33Z</time></trkpt><trkpt lat="45.34738164358548" lon="7.5531507437188665"><ele>966.9999999999999</ele><time>2026-05-02T14:34:35Z</time></trkpt><trkpt lat="45.34744123314006" lon="7.553266983362589"><ele>967.0</ele><time>2026-05-02T14:34:37Z</time></trkpt><trkpt lat="45.34750764029297" lon="7.553310258122264"><ele>967.0</ele><time>2026-05-02T14:34:38Z</time></trkpt><trkpt lat="45.3475569072328" lon="7.553378161139425"><ele>967.0</ele><time>2026-05-02T14:34:39Z</time></trkpt><trkpt lat="45.34763339132189" lon="7.553450027910494"><ele>966.9999999999999</ele><time>2026-05-02T14:34:41Z</time></trkpt><trkpt lat="45.34774508743124" lon="7.553456547181305"><ele>967.0</ele><time>2026-05-02T14:34:43Z</time></trkpt><trkpt lat="45.347826974655504" lon="7.553446020188006"><ele>967.0</ele><time>2026-05-02T14:34:45Z</time></trkpt><trkpt lat="45.347884845040966" lon="7.553402635004138"><ele>967.0</ele><time>2026-05-02T14:34:46Z</time></trkpt><trkpt lat="45.3479516186515" lon="7.553347233165885"><ele>967.0</ele><time>2026-05-02T14:34:47Z</time></trkpt><trkpt lat="45.3480369380132" lon="7.553286674498207"><ele>967.0</ele><time>2026-05-02T14:34:49Z</time></trkpt><trkpt lat="45.34809252832575" lon="7.553342466259237"><ele>967.0</ele><time>2026-05-02T14:34:56Z</time></trkpt><trkpt lat="45.34813745356354" lon="7.5534214486136"><ele>967.0</ele><time>2026-05-02T14:35:02Z</time></trkpt><trkpt lat="45.34818572791806" lon="7.553363064351413"><ele>967.0</ele><time>2026-05-02T14:35:16Z</time></trkpt><trkpt lat="45.34823850306488" lon="7.553511780358931"><ele>967.6666666666666</ele><time>2026-05-02T14:35:19Z</time></trkpt><trkpt lat="45.348302050846215" lon="7.5534876174103776"><ele>968.3333333333333</ele><time>2026-05-02T14:35:22Z</time></trkpt><trkpt lat="45.348387290421044" lon="7.553464725674385"><ele>969.0</ele><time>2026-05-02T14:35:24Z</time></trkpt><trkpt lat="45.34847011726823" lon="7.553420051600871"><ele>969.6666666666667</ele><time>2026-05-02T14:35:27Z</time></trkpt><trkpt lat="45.348527587850754" lon="7.553376213585637"><ele>970.3333333333334</ele><time>2026-05-02T14:35:29Z</time></trkpt><trkpt lat="45.3485941735272" lon="7.553303677155685"><ele>971.0</ele><time>2026-05-02T14:35:32Z</time></trkpt><trkpt lat="45.348645211987495" lon="7.553216310253286"><ele>971.0000000000001</ele><time>2026-05-02T14:35:35Z</time></trkpt><trkpt lat="45.34870878684232" lon="7.55317761285944"><ele>971.0</ele><time>2026-05-02T14:35:37Z</time></trkpt><trkpt lat="45.34876929510844" lon="7.553152696731355"><ele>971.0</ele><time>2026-05-02T14:35:40Z</time></trkpt><trkpt lat="45.34884486964163" lon="7.55315477765837"><ele>971.0</ele><time>2026-05-02T14:35:43Z</time></trkpt><trkpt lat="45.34892425747489" lon="7.553169583060061"><ele>971.0000000000001</ele><time>2026-05-02T14:35:48Z</time></trkpt><trkpt lat="45.348992299423855" lon="7.553159674280377"><ele>971.0</ele><time>2026-05-02T14:35:51Z</time></trkpt><trkpt lat="45.34909250507697" lon="7.553182028542211"><ele>967.1999999999999</ele><time>2026-05-02T14:35:56Z</time></trkpt><trkpt lat="45.349213580341434" lon="7.553226065261078"><ele>963.3999999999999</ele><time>2026-05-02T14:35:59Z</time></trkpt><trkpt lat="45.34928804652567" lon="7.553233447842571"><ele>959.6</ele><time>2026-05-02T14:36:01Z</time></trkpt><trkpt lat="45.34936823612017" lon="7.553244418243244"><ele>955.8</ele><time>2026-05-02T14:36:04Z</time></trkpt><trkpt lat="45.349445570106845" lon="7.5532879416725995"><ele>952.0</ele><time>2026-05-02T14:36:13Z</time></trkpt><trkpt lat="45.3495428229711" lon="7.55326965355922"><ele>952.0</ele><time>2026-05-02T14:36:16Z</time></trkpt><trkpt lat="45.34963287167633" lon="7.55329303144225"><ele>952.0</ele><time>2026-05-02T14:36:18Z</time></trkpt><trkpt lat="45.34972788742308" lon="7.5533164071865775"><ele>952.0</ele><time>2026-05-02T14:36:20Z</time></trkpt><trkpt lat="45.34982778392479" lon="7.5533578494579094"><ele>952.0</ele><time>2026-05-02T14:36:22Z</time></trkpt><trkpt lat="45.34989667022143" lon="7.553375013481068"><ele>952.0</ele><time>2026-05-02T14:36:24Z</time></trkpt><trkpt lat="45.35001662269224" lon="7.553366916429182"><ele>949.6666666666666</ele><time>2026-05-02T14:36:26Z</time></trkpt><trkpt lat="45.35010210364742" lon="7.553335578024636"><ele>947.3333333333333</ele><time>2026-05-02T14:36:28Z</time></trkpt><trkpt lat="45.35016421933696" lon="7.55335697106802"><ele>945.0</ele><time>2026-05-02T14:36:29Z</time></trkpt><trkpt lat="45.35025796984512" lon="7.553374469278643"><ele>942.6666666666667</ele><time>2026-05-02T14:36:31Z</time></trkpt><trkpt lat="45.35037008070853" lon="7.553369685911728"><ele>940.3333333333334</ele><time>2026-05-02T14:36:33Z</time></trkpt><trkpt lat="45.350443503372865" lon="7.55341841693219"><ele>938.0</ele><time>2026-05-02T14:36:35Z</time></trkpt><trkpt lat="45.350515462500184" lon="7.5534315569329635"><ele>937.5000000000001</ele><time>2026-05-02T14:36:37Z</time></trkpt><trkpt lat="45.35056536648425" lon="7.553542005836881"><ele>937.0</ele><time>2026-05-02T14:36:41Z</time></trkpt><trkpt lat="45.35060388173083" lon="7.553429322250922"><ele>936.5</ele><time>2026-05-02T14:36:43Z</time></trkpt><trkpt lat="45.35069721144442" lon="7.553448935129251"><ele>936.0</ele><time>2026-05-02T14:36:48Z</time></trkpt><trkpt lat="45.350754052022914" lon="7.553393970978883"><ele>935.5000000000001</ele><time>2026-05-02T14:36:50Z</time></trkpt><trkpt lat="45.35081637734608" lon="7.553314607923048"><ele>935.0</ele><time>2026-05-02T14:36:53Z</time></trkpt><trkpt lat="45.35089969197891" lon="7.553248919079402"><ele>935.0000000000001</ele><time>2026-05-02T14:36:58Z</time></trkpt><trkpt lat="45.35096274545648" lon="7.55316064502304"><ele>935.0</ele><time>2026-05-02T14:37:00Z</time></trkpt><trkpt lat="45.35102866706302" lon="7.553192047695829"><ele>935.0</ele><time>2026-05-02T14:37:02Z</time></trkpt><trkpt lat="45.3510994260511" lon="7.553070606789797"><ele>935.0</ele><time>2026-05-02T14:37:04Z</time></trkpt><trkpt lat="45.35118270697944" lon="7.553060987989933"><ele>935.0000000000001</ele><time>2026-05-02T14:37:08Z</time></trkpt><trkpt lat="45.35124143488888" lon="7.553000464913946"><ele>935.0</ele><time>2026-05-02T14:37:10Z</time></trkpt><trkpt lat="45.351297913505455" lon="7.552949218926355"><ele>935.0000000000001</ele><time>2026-05-02T14:37:13Z</time></trkpt><trkpt lat="45.351371895946016" lon="7.552926397296445"><ele>935.0</ele><time>2026-05-02T14:37:16Z</time></trkpt><trkpt lat="45.35144114652595" lon="7.552924759683507"><ele>935.0</ele><time>2026-05-02T14:37:18Z</time></trkpt><trkpt lat="45.351578648413955" lon="7.552926387339504"><ele>935.0</ele><time>2026-05-02T14:37:45Z</time></trkpt><trkpt lat="45.35159494448862" lon="7.553036480550112"><ele>935.0000000000001</ele><time>2026-05-02T14:38:41Z</time></trkpt><trkpt lat="45.35164162940406" lon="7.553100114244044"><ele>935.0</ele><time>2026-05-02T14:38:43Z</time></trkpt><trkpt lat="45.35168090300847" lon="7.553172162212257"><ele>932.0000000000001</ele><time>2026-05-02T14:38:45Z</time></trkpt><trkpt lat="45.351748256633854" lon="7.553204520902173"><ele>929.0</ele><time>2026-05-02T14:38:48Z</time></trkpt><trkpt lat="45.35183387447332" lon="7.553236275895976"><ele>926.0</ele><time>2026-05-02T14:39:22Z</time></trkpt><trkpt lat="45.35190060698816" lon="7.553191196529767"><ele>923.0</ele><time>2026-05-02T14:39:26Z</time></trkpt><trkpt lat="45.351958595270354" lon="7.5531276472880045"><ele>920.0000000000001</ele><time>2026-05-02T14:39:29Z</time></trkpt><trkpt lat="45.3520157567991" lon="7.553047242033347"><ele>917.0</ele><time>2026-05-02T14:39:32Z</time></trkpt><trkpt lat="45.35209308437214" lon="7.552942263290819"><ele>917.0000000000001</ele><time>2026-05-02T14:39:51Z</time></trkpt><trkpt lat="45.352060087862455" lon="7.5530769248273515"><ele>917.0</ele><time>2026-05-02T14:39:53Z</time></trkpt><trkpt lat="45.351980759353644" lon="7.553179334101829"><ele>917.0</ele><time>2026-05-02T14:39:55Z</time></trkpt><trkpt lat="45.351919065537864" lon="7.553203078089636"><ele>917.0</ele><time>2026-05-02T14:39:56Z</time></trkpt><trkpt lat="45.351824092416116" lon="7.553179256508067"><ele>917.0000000000001</ele><time>2026-05-02T14:39:58Z</time></trkpt><trkpt lat="45.351761888798" lon="7.553133831010362"><ele>917.0</ele><time>2026-05-02T14:40:00Z</time></trkpt><trkpt lat="45.35169901173769" lon="7.553091647870097"><ele>917.0000000000001</ele><time>2026-05-02T14:40:03Z</time></trkpt><trkpt lat="45.35169181718047" lon="7.552996747230669"><ele>917.0</ele><time>2026-05-02T14:40:06Z</time></trkpt><trkpt lat="45.351725427498536" lon="7.552855662725985"><ele>917.0</ele><time>2026-05-02T14:40:52Z</time></trkpt><trkpt lat="45.351681026820614" lon="7.552931418395898"><ele>917.0</ele><time>2026-05-02T14:41:11Z</time></trkpt><trkpt lat="45.35166090924563" lon="7.553019322370243"><ele>917.0000000000001</ele><time>2026-05-02T14:41:14Z</time></trkpt><trkpt lat="45.35170548821183" lon="7.553146010017853"><ele>917.0</ele><time>2026-05-02T14:41:18Z</time></trkpt><trkpt lat="45.35176671864581" lon="7.553200474354461"><ele>917.0000000000001</ele><time>2026-05-02T14:41:21Z</time></trkpt><trkpt lat="45.35184473124873" lon="7.553208161244787"><ele>917.0</ele><time>2026-05-02T14:41:24Z</time></trkpt><trkpt lat="45.3519317503635" lon="7.553160403557306"><ele>917.0</ele><time>2026-05-02T14:41:27Z</time></trkpt><trkpt lat="45.35198967412638" lon="7.553111852579308"><ele>917.0</ele><time>2026-05-02T14:41:30Z</time></trkpt><trkpt lat="45.35203983045079" lon="7.553036148530833"><ele>917.0000000000001</ele><time>2026-05-02T14:41:32Z</time></trkpt><trkpt lat="45.35210758739669" lon="7.5529562273390916"><ele>917.0</ele><time>2026-05-02T14:41:34Z</time></trkpt><trkpt lat="45.3521639807642" lon="7.552855759825843"><ele>916.3333333333334</ele><time>2026-05-02T14:41:36Z</time></trkpt><trkpt lat="45.35221591710404" lon="7.55278967263806"><ele>915.6666666666667</ele><time>2026-05-02T14:41:38Z</time></trkpt><trkpt lat="45.352295687541144" lon="7.552740758112508"><ele>915.0</ele><time>2026-05-02T14:41:40Z</time></trkpt><trkpt lat="45.3523553019184" lon="7.552695513153032"><ele>914.3333333333333</ele><time>2026-05-02T14:41:41Z</time></trkpt><trkpt lat="45.352455571637414" lon="7.552600303687958"><ele>913.6666666666666</ele><time>2026-05-02T14:41:42Z</time></trkpt><trkpt lat="45.35250703668603" lon="7.552523642853666"><ele>913.0</ele><time>2026-05-02T14:41:43Z</time></trkpt><trkpt lat="45.35262128349484" lon="7.552407131005825"><ele>913.0</ele><time>2026-05-02T14:41:45Z</time></trkpt><trkpt lat="45.3526935095544" lon="7.552322978802049"><ele>913.0</ele><time>2026-05-02T14:41:46Z</time></trkpt><trkpt lat="45.352809344724484" lon="7.55211792423802"><ele>913.0</ele><time>2026-05-02T14:41:47Z</time></trkpt><trkpt lat="45.352836809173006" lon="7.551988087425679"><ele>913.0</ele><time>2026-05-02T14:41:48Z</time></trkpt><trkpt lat="45.35290808412546" lon="7.551847662242469"><ele>914.8</ele><time>2026-05-02T14:41:50Z</time></trkpt><trkpt lat="45.352938819186114" lon="7.551719605008821"><ele>916.5999999999999</ele><time>2026-05-02T14:41:51Z</time></trkpt><trkpt lat="45.35299673012184" lon="7.5515809167054435"><ele>918.4000000000001</ele><time>2026-05-02T14:41:52Z</time></trkpt><trkpt lat="45.353035963583885" lon="7.551430340132923"><ele>920.2</ele><time>2026-05-02T14:41:53Z</time></trkpt><trkpt lat="45.353114120477684" lon="7.551366173881551"><ele>922.0</ele><time>2026-05-02T14:41:54Z</time></trkpt><trkpt lat="45.353186387551666" lon="7.5512763129670155"><ele>925.0</ele><time>2026-05-02T14:41:55Z</time></trkpt><trkpt lat="45.35322899194217" lon="7.551130262022332"><ele>928.0</ele><time>2026-05-02T14:41:56Z</time></trkpt><trkpt lat="45.35326141179406" lon="7.551019436701872"><ele>931.0</ele><time>2026-05-02T14:41:57Z</time></trkpt><trkpt lat="45.35336742557589" lon="7.5509972400108385"><ele>934.0</ele><time>2026-05-02T14:41:59Z</time></trkpt><trkpt lat="45.35351013701117" lon="7.550844307646674"><ele>934.0</ele><time>2026-05-02T14:42:01Z</time></trkpt><trkpt lat="45.353576384680466" lon="7.550791378542273"><ele>934.0000000000001</ele><time>2026-05-02T14:42:02Z</time></trkpt><trkpt lat="45.35362079968267" lon="7.550723162247182"><ele>934.0000000000001</ele><time>2026-05-02T14:42:04Z</time></trkpt><trkpt lat="45.353702396473274" lon="7.5507082483925645"><ele>934.0</ele><time>2026-05-02T14:42:22Z</time></trkpt><trkpt lat="45.353779090866844" lon="7.550779393969164"><ele>934.0</ele><time>2026-05-02T14:42:24Z</time></trkpt><trkpt lat="45.353753899509115" lon="7.550973551656598"><ele>933.9999999999999</ele><time>2026-05-02T14:42:31Z</time></trkpt><trkpt lat="45.35370238976763" lon="7.551047707743203"><ele>934.0</ele><time>2026-05-02T14:42:32Z</time></trkpt><trkpt lat="45.35366607118866" lon="7.5511371335720385"><ele>934.0</ele><time>2026-05-02T14:42:33Z</time></trkpt><trkpt lat="45.35360892309745" lon="7.551262916012031"><ele>934.0</ele><time>2026-05-02T14:42:34Z</time></trkpt><trkpt lat="45.35355402384283" lon="7.551358758218509"><ele>933.9999999999999</ele><time>2026-05-02T14:42:35Z</time></trkpt><trkpt lat="45.35351308766169" lon="7.551435221205175"><ele>934.0</ele><time>2026-05-02T14:42:36Z</time></trkpt><trkpt lat="45.35345306363114" lon="7.551601322489774"><ele>931.9999999999999</ele><time>2026-05-02T14:42:38Z</time></trkpt><trkpt lat="45.3534336284901" lon="7.551687151992695"><ele>930.0</ele><time>2026-05-02T14:42:39Z</time></trkpt><trkpt lat="45.35341333018464" lon="7.551789656579113"><ele>928.0</ele><time>2026-05-02T14:42:40Z</time></trkpt><trkpt lat="45.35341251448981" lon="7.5519169055711535"><ele>926.0</ele><time>2026-05-02T14:42:41Z</time></trkpt><trkpt lat="45.35338018280231" lon="7.552003307074333"><ele>923.9999999999999</ele><time>2026-05-02T14:42:42Z</time></trkpt><trkpt lat="45.35334497357809" lon="7.552114357203156"><ele>922.0</ele><time>2026-05-02T14:42:44Z</time></trkpt><trkpt lat="45.35330935706251" lon="7.55227298033657"><ele>919.8</ele><time>2026-05-02T14:42:46Z</time></trkpt><trkpt lat="45.35336208495611" lon="7.552443359763299"><ele>917.6</ele><time>2026-05-02T14:42:48Z</time></trkpt><trkpt lat="45.353348541145465" lon="7.552538191924506"><ele>915.3999999999999</ele><time>2026-05-02T14:42:52Z</time></trkpt><trkpt lat="45.353323029374735" lon="7.552654065517777"><ele>913.1999999999999</ele><time>2026-05-02T14:42:55Z</time></trkpt><trkpt lat="45.353385101623" lon="7.552691444311062"><ele>911.0</ele><time>2026-05-02T14:42:56Z</time></trkpt><trkpt lat="45.353468146448506" lon="7.552815543690041"><ele>908.75</ele><time>2026-05-02T14:42:57Z</time></trkpt><trkpt lat="45.3534986627871" lon="7.552919785678435"><ele>906.5</ele><time>2026-05-02T14:43:00Z</time></trkpt><trkpt lat="45.3535725213892" lon="7.5530482428127605"><ele>904.25</ele><time>2026-05-02T14:43:03Z</time></trkpt><trkpt lat="45.35360633253296" lon="7.553131359537624"><ele>902.0</ele><time>2026-05-02T14:43:04Z</time></trkpt><trkpt lat="45.35390906806002" lon="7.553761206150319"><ele>907.25</ele><time>2026-05-02T14:43:05Z</time></trkpt><trkpt lat="45.354013718494315" lon="7.5538955417470515"><ele>912.5</ele><time>2026-05-02T14:43:06Z</time></trkpt><trkpt lat="45.354026847191555" lon="7.554137550127309"><ele>917.75</ele><time>2026-05-02T14:43:07Z</time></trkpt><trkpt lat="45.35406204616944" lon="7.554298138139656"><ele>923.0</ele><time>2026-05-02T14:43:08Z</time></trkpt><trkpt lat="45.35408174622975" lon="7.554446562078353"><ele>924.5</ele><time>2026-05-02T14:43:09Z</time></trkpt><trkpt lat="45.35410370455736" lon="7.554553435284114"><ele>926.0</ele><time>2026-05-02T14:43:10Z</time></trkpt><trkpt lat="45.35405301847891" lon="7.554627547386703"><ele>927.5</ele><time>2026-05-02T14:43:11Z</time></trkpt><trkpt lat="45.35404542553917" lon="7.554982598449708"><ele>929.0</ele><time>2026-05-02T14:43:13Z</time></trkpt><trkpt lat="45.35400562188441" lon="7.555171544044102"><ele>929.0</ele><time>2026-05-02T14:43:14Z</time></trkpt><trkpt lat="45.353974750920976" lon="7.555349951071364"><ele>929.0</ele><time>2026-05-02T14:43:15Z</time></trkpt><trkpt lat="45.35391234658852" lon="7.555472672217356"><ele>929.0</ele><time>2026-05-02T14:43:16Z</time></trkpt><trkpt lat="45.353819413534616" lon="7.555600820409401"><ele>929.0</ele><time>2026-05-02T14:43:18Z</time></trkpt><trkpt lat="45.35385529593477" lon="7.555714899745031"><ele>928.6</ele><time>2026-05-02T14:43:19Z</time></trkpt><trkpt lat="45.35385068938705" lon="7.555827774356858"><ele>928.2</ele><time>2026-05-02T14:43:20Z</time></trkpt><trkpt lat="45.3538827509216" lon="7.556026839505183"><ele>927.8000000000001</ele><time>2026-05-02T14:43:21Z</time></trkpt><trkpt lat="45.3538458541811" lon="7.556122834000434"><ele>927.4000000000001</ele><time>2026-05-02T14:43:22Z</time></trkpt><trkpt lat="45.35389964594385" lon="7.5561984139432825"><ele>927.0</ele><time>2026-05-02T14:43:23Z</time></trkpt><trkpt lat="45.35384137507013" lon="7.556308259668179"><ele>918.25</ele><time>2026-05-02T14:43:26Z</time></trkpt><trkpt lat="45.35382981318281" lon="7.55640289801044"><ele>909.5</ele><time>2026-05-02T14:43:27Z</time></trkpt><trkpt lat="45.353813413214226" lon="7.556553170995836"><ele>900.75</ele><time>2026-05-02T14:43:28Z</time></trkpt><trkpt lat="45.353746906012326" lon="7.5567306135295516"><ele>892.0</ele><time>2026-05-02T14:43:30Z</time></trkpt><trkpt lat="45.35366862345905" lon="7.556914780788307"><ele>894.25</ele><time>2026-05-02T14:43:31Z</time></trkpt><trkpt lat="45.35359958081781" lon="7.557117865511784"><ele>896.5</ele><time>2026-05-02T14:43:32Z</time></trkpt><trkpt lat="45.35351816731109" lon="7.557270595125454"><ele>898.75</ele><time>2026-05-02T14:43:33Z</time></trkpt><trkpt lat="45.3534517795773" lon="7.5573200080445275"><ele>901.0</ele><time>2026-05-02T14:43:37Z</time></trkpt><trkpt lat="45.353380228020384" lon="7.557419334111155"><ele>901.0</ele><time>2026-05-02T14:43:57.999Z</time></trkpt><trkpt lat="45.353355599519944" lon="7.5575213134915575"><ele>900.9999999999999</ele><time>2026-05-02T14:44:00.999Z</time></trkpt><trkpt lat="45.353327812271374" lon="7.557702195560501"><ele>900.9999999999999</ele><time>2026-05-02T14:44:02.999Z</time></trkpt><trkpt lat="45.35331020640265" lon="7.557811699783136"><ele>901.0</ele><time>2026-05-02T14:44:03.999Z</time></trkpt><trkpt lat="45.35329044961536" lon="7.557952709744629"><ele>901.0</ele><time>2026-05-02T14:44:04.999Z</time></trkpt><trkpt lat="45.35326947645831" lon="7.558059183106538"><ele>901.8</ele><time>2026-05-02T14:44:05.999Z</time></trkpt><trkpt lat="45.35324261591074" lon="7.558155362427633"><ele>902.5999999999999</ele><time>2026-05-02T14:44:09Z</time></trkpt><trkpt lat="45.35320601791463" lon="7.558269068305197"><ele>903.4</ele><time>2026-05-02T14:44:12Z</time></trkpt><trkpt lat="45.353175192272374" lon="7.558380865789544"><ele>904.2</ele><time>2026-05-02T14:44:14Z</time></trkpt><trkpt lat="45.35315285475464" lon="7.558559693501613"><ele>905.0</ele><time>2026-05-02T14:44:16Z</time></trkpt><trkpt lat="45.35308236238402" lon="7.558695644031172"><ele>904.8</ele><time>2026-05-02T14:44:18Z</time></trkpt><trkpt lat="45.353077865447474" lon="7.5587939452518675"><ele>904.6</ele><time>2026-05-02T14:44:19Z</time></trkpt><trkpt lat="45.35303387471919" lon="7.558921286827298"><ele>904.4000000000001</ele><time>2026-05-02T14:44:21Z</time></trkpt><trkpt lat="45.3529803905904" lon="7.559070741425088"><ele>904.2</ele><time>2026-05-02T14:44:23Z</time></trkpt><trkpt lat="45.35295310797734" lon="7.55915782514181"><ele>904.0</ele><time>2026-05-02T14:44:25Z</time></trkpt><trkpt lat="45.352886210588544" lon="7.559332986978878"><ele>900.4285714285714</ele><time>2026-05-02T14:44:27Z</time></trkpt><trkpt lat="45.3528519357296" lon="7.559430050768852"><ele>896.8571428571428</ele><time>2026-05-02T14:44:28Z</time></trkpt><trkpt lat="45.352817529888355" lon="7.559526818767976"><ele>893.2857142857142</ele><time>2026-05-02T14:44:29Z</time></trkpt><trkpt lat="45.35278646899884" lon="7.559625812023623"><ele>889.7142857142858</ele><time>2026-05-02T14:44:30Z</time></trkpt><trkpt lat="45.35276297747852" lon="7.559717218463524"><ele>886.1428571428571</ele><time>2026-05-02T14:44:31Z</time></trkpt><trkpt lat="45.35274661573418" lon="7.559810341778066"><ele>882.5714285714286</ele><time>2026-05-02T14:44:32Z</time></trkpt><trkpt lat="45.35273962186866" lon="7.559906762517202"><ele>879.0</ele><time>2026-05-02T14:44:33Z</time></trkpt><trkpt lat="45.35271801353543" lon="7.5599994984760785"><ele>879.0</ele><time>2026-05-02T14:44:34Z</time></trkpt><trkpt lat="45.352734476961466" lon="7.560140440851453"><ele>879.0</ele><time>2026-05-02T14:44:36Z</time></trkpt><trkpt lat="45.35276018273782" lon="7.560248596962091"><ele>879.0</ele><time>2026-05-02T14:44:38Z</time></trkpt><trkpt lat="45.35277171709684" lon="7.5603634446181225"><ele>879.0</ele><time>2026-05-02T14:44:42Z</time></trkpt><trkpt lat="45.352827422642676" lon="7.5604320015992394"><ele>879.0</ele><time>2026-05-02T14:44:45Z</time></trkpt><trkpt lat="45.35293405802126" lon="7.560437431673008"><ele>879.0</ele><time>2026-05-02T14:44:47Z</time></trkpt><trkpt lat="45.353014368603006" lon="7.560446717146351"><ele>880.1666666666666</ele><time>2026-05-02T14:44:48Z</time></trkpt><trkpt lat="45.353099193063244" lon="7.560449473770696"><ele>881.3333333333333</ele><time>2026-05-02T14:44:49Z</time></trkpt><trkpt lat="45.353167951277385" lon="7.560443766272379"><ele>882.5</ele><time>2026-05-02T14:44:50Z</time></trkpt><trkpt lat="45.353265919584956" lon="7.560478835566663"><ele>883.6666666666666</ele><time>2026-05-02T14:44:52Z</time></trkpt><trkpt lat="45.353333190281596" lon="7.560497309405422"><ele>884.8333333333333</ele><time>2026-05-02T14:44:53Z</time></trkpt><trkpt lat="45.35340459824793" lon="7.56053350704882"><ele>886.0</ele><time>2026-05-02T14:44:54Z</time></trkpt><trkpt lat="45.35349461051899" lon="7.560506080290462"><ele>886.0</ele><time>2026-05-02T14:44:56Z</time></trkpt><trkpt lat="45.353547664711556" lon="7.560425079241224"><ele>885.9999999999999</ele><time>2026-05-02T14:44:59Z</time></trkpt><trkpt lat="45.35357873824312" lon="7.5603452066323555"><ele>885.9999999999999</ele><time>2026-05-02T14:45:14Z</time></trkpt><trkpt lat="45.35348275536503" lon="7.5602506499962825"><ele>886.0</ele><time>2026-05-02T14:45:29Z</time></trkpt><trkpt lat="45.353429199476324" lon="7.560426330247957"><ele>886.0</ele><time>2026-05-02T14:47:05Z</time></trkpt><trkpt lat="45.353396925509074" lon="7.560339949894164"><ele>885.9999999999999</ele><time>2026-05-02T14:47:15Z</time></trkpt><trkpt lat="45.3533530852059" lon="7.5602752100375215"><ele>886.0</ele><time>2026-05-02T14:47:24Z</time></trkpt><trkpt lat="45.35341747417641" lon="7.560273003927045"><ele>886.0</ele><time>2026-05-02T14:49:00Z</time></trkpt><trkpt lat="45.35350870620572" lon="7.560205975880536"><ele>886.0</ele><time>2026-05-02T14:50:11Z</time></trkpt><trkpt lat="45.35343093212671" lon="7.560215951407153"><ele>885.9999999999999</ele><time>2026-05-02T14:51:40Z</time></trkpt><trkpt lat="45.35343349987825" lon="7.560335533232901"><ele>886.0</ele><time>2026-05-02T14:51:43Z</time></trkpt><trkpt lat="45.35349404304625" lon="7.560430360053647"><ele>886.0</ele><time>2026-05-02T14:51:45Z</time></trkpt><trkpt lat="45.35341251892473" lon="7.560492913220324"><ele>885.9999999999999</ele><time>2026-05-02T14:51:48Z</time></trkpt><trkpt lat="45.353271841537094" lon="7.560441899273637"><ele>885.9999999999999</ele><time>2026-05-02T14:51:50Z</time></trkpt><trkpt lat="45.35319056456562" lon="7.560408043247474"><ele>886.0</ele><time>2026-05-02T14:51:51Z</time></trkpt><trkpt lat="45.35312183864443" lon="7.56039609860928"><ele>886.0</ele><time>2026-05-02T14:51:52Z</time></trkpt><trkpt lat="45.35304810946954" lon="7.560397241150097"><ele>884.1666666666666</ele><time>2026-05-02T14:51:53Z</time></trkpt><trkpt lat="45.35296592525496" lon="7.560407696520071"><ele>882.3333333333333</ele><time>2026-05-02T14:51:54Z</time></trkpt><trkpt lat="45.352897896077174" lon="7.560430181275381"><ele>880.5</ele><time>2026-05-02T14:51:55Z</time></trkpt><trkpt lat="45.3528057162521" lon="7.560537199858099"><ele>878.6666666666667</ele><time>2026-05-02T14:51:57Z</time></trkpt><trkpt lat="45.352744771538894" lon="7.560605713740124"><ele>876.8333333333334</ele><time>2026-05-02T14:51:58Z</time></trkpt><trkpt lat="45.35268644928908" lon="7.56065752856088"><ele>875.0</ele><time>2026-05-02T14:52:00Z</time></trkpt><trkpt lat="45.352650687099015" lon="7.560749128050605"><ele>875.0000000000001</ele><time>2026-05-02T14:52:02Z</time></trkpt><trkpt lat="45.35265486269755" lon="7.560844934041058"><ele>875.0</ele><time>2026-05-02T14:54:40Z</time></trkpt><trkpt lat="45.35260727567777" lon="7.560762381416909"><ele>875.0</ele><time>2026-05-02T14:57:36Z</time></trkpt><trkpt lat="45.352662320425736" lon="7.560837076170033"><ele>875.0</ele><time>2026-05-02T14:59:56Z</time></trkpt><trkpt lat="45.35264215501213" lon="7.560748243877319"><ele>875.0000000000001</ele><time>2026-05-02T15:13:35.999Z</time></trkpt><trkpt lat="45.35272239733486" lon="7.560818048805915"><ele>875.0</ele><time>2026-05-02T15:16:55Z</time></trkpt><trkpt lat="45.352809480565064" lon="7.560783846399268"><ele>875.0000000000001</ele><time>2026-05-02T15:16:57Z</time></trkpt><trkpt lat="45.352877342631935" lon="7.5607526557014815"><ele>875.0</ele><time>2026-05-02T15:16:58Z</time></trkpt><trkpt lat="45.35289360466013" lon="7.560665218117422"><ele>875.0</ele><time>2026-05-02T15:17:01Z</time></trkpt><trkpt lat="45.35284710568845" lon="7.560539092919992"><ele>875.0</ele><time>2026-05-02T15:17:05Z</time></trkpt><trkpt lat="45.352922050469545" lon="7.560474708276457"><ele>875.0000000000001</ele><time>2026-05-02T15:17:08Z</time></trkpt><trkpt lat="45.35302702898507" lon="7.560472841998129"><ele>875.0</ele><time>2026-05-02T15:17:10Z</time></trkpt><trkpt lat="45.35309411698988" lon="7.560452642406073"><ele>876.5714285714286</ele><time>2026-05-02T15:17:11Z</time></trkpt><trkpt lat="45.35317905755814" lon="7.560447451118588"><ele>878.1428571428571</ele><time>2026-05-02T15:17:12.001Z</time></trkpt><trkpt lat="45.353248476293366" lon="7.560482653546205"><ele>879.7142857142858</ele><time>2026-05-02T15:17:13.001Z</time></trkpt><trkpt lat="45.35330937892202" lon="7.560515018968434"><ele>881.2857142857142</ele><time>2026-05-02T15:17:14.001Z</time></trkpt><trkpt lat="45.35338735114124" lon="7.560530267597136"><ele>882.8571428571429</ele><time>2026-05-02T15:17:15.001Z</time></trkpt><trkpt lat="45.35345385880642" lon="7.560531123073819"><ele>884.4285714285714</ele><time>2026-05-02T15:17:16.001Z</time></trkpt><trkpt lat="45.35352048006502" lon="7.560480449184122"><ele>886.0</ele><time>2026-05-02T15:17:18.001Z</time></trkpt><trkpt lat="45.3535690509478" lon="7.560380916142617"><ele>888.1999999999999</ele><time>2026-05-02T15:17:21.001Z</time></trkpt><trkpt lat="45.35359924323958" lon="7.56029594453299"><ele>890.3999999999999</ele><time>2026-05-02T15:17:23.001Z</time></trkpt><trkpt lat="45.353633798358494" lon="7.560186810512212"><ele>892.6</ele><time>2026-05-02T15:17:25.001Z</time></trkpt><trkpt lat="45.35370929790462" lon="7.5600709176565175"><ele>894.8</ele><time>2026-05-02T15:17:27.001Z</time></trkpt><trkpt lat="45.35375517047482" lon="7.559987842139735"><ele>897.0</ele><time>2026-05-02T15:17:28.001Z</time></trkpt><trkpt lat="45.35386231718174" lon="7.559907065216446"><ele>901.0</ele><time>2026-05-02T15:17:30.001Z</time></trkpt><trkpt lat="45.3539724406526" lon="7.5599205924319275"><ele>905.0</ele><time>2026-05-02T15:17:33.001Z</time></trkpt><trkpt lat="45.354033722826486" lon="7.559980811188053"><ele>909.0</ele><time>2026-05-02T15:17:35.001Z</time></trkpt><trkpt lat="45.35439924315007" lon="7.559982100202448"><ele>926.0</ele><time>2026-05-02T15:17:42.001Z</time></trkpt><trkpt lat="45.354581606925294" lon="7.558883686900301"><ele>926.0</ele><time>2026-05-02T15:17:49.001Z</time></trkpt><trkpt lat="45.35464954322326" lon="7.558785743621145"><ele>925.9999999999999</ele><time>2026-05-02T15:17:51.001Z</time></trkpt><trkpt lat="45.354682270625005" lon="7.558631570533687"><ele>925.9999999999999</ele><time>2026-05-02T15:17:52.001Z</time></trkpt><trkpt lat="45.354745100989135" lon="7.5585546317767145"><ele>926.0</ele><time>2026-05-02T15:17:54.001Z</time></trkpt><trkpt lat="45.35469723290557" lon="7.558495505603994"><ele>926.0</ele><time>2026-05-02T15:17:57.001Z</time></trkpt><trkpt lat="45.35470567853676" lon="7.558353902615058"><ele>930.5000000000001</ele><time>2026-05-02T15:18:04.001Z</time></trkpt><trkpt lat="45.35471453233889" lon="7.55826260498115"><ele>935.0</ele><time>2026-05-02T15:18:06.001Z</time></trkpt><trkpt lat="45.35471067166144" lon="7.558135179664483"><ele>939.5</ele><time>2026-05-02T15:18:10.001Z</time></trkpt><trkpt lat="45.35473367528584" lon="7.558044395512766"><ele>944.0</ele><time>2026-05-02T15:18:12.001Z</time></trkpt><trkpt lat="45.35474903519495" lon="7.557882343505203"><ele>948.5000000000001</ele><time>2026-05-02T15:18:14.001Z</time></trkpt><trkpt lat="45.35479538484234" lon="7.557811129588928"><ele>953.0</ele><time>2026-05-02T15:18:18.001Z</time></trkpt><trkpt lat="45.3548479094575" lon="7.557607188326614"><ele>954.6666666666667</ele><time>2026-05-02T15:18:21.001Z</time></trkpt><trkpt lat="45.354948813512344" lon="7.557576562738621"><ele>956.3333333333334</ele><time>2026-05-02T15:18:45.001Z</time></trkpt><trkpt lat="45.3550244437075" lon="7.557548281197521"><ele>958.0</ele><time>2026-05-02T15:18:47.001Z</time></trkpt><trkpt lat="45.35509308135154" lon="7.557528365920446"><ele>959.6666666666667</ele><time>2026-05-02T15:18:55.001Z</time></trkpt><trkpt lat="45.355072754795394" lon="7.557407806314994"><ele>961.3333333333334</ele><time>2026-05-02T15:19:20.001Z</time></trkpt><trkpt lat="45.35500110589818" lon="7.55741535856497"><ele>963.0</ele><time>2026-05-02T15:19:33.001Z</time></trkpt><trkpt lat="45.354922150102325" lon="7.557446901896034"><ele>963.0</ele><time>2026-05-02T15:19:36.001Z</time></trkpt><trkpt lat="45.35493379087819" lon="7.557537162596271"><ele>963.0</ele><time>2026-05-02T15:19:53.001Z</time></trkpt><trkpt lat="45.35490950514627" lon="7.557642963730853"><ele>963.0</ele><time>2026-05-02T15:20:13Z</time></trkpt><trkpt lat="45.354949186470876" lon="7.557524507745061"><ele>963.0</ele><time>2026-05-02T15:20:21Z</time></trkpt><trkpt lat="45.354844704531224" lon="7.55762392477353"><ele>963.0</ele><time>2026-05-02T15:20:50Z</time></trkpt><trkpt lat="45.354868700505534" lon="7.5577179952421485"><ele>963.0</ele><time>2026-05-02T15:21:08Z</time></trkpt><trkpt lat="45.35479318508393" lon="7.557683785048229"><ele>963.0000000000001</ele><time>2026-05-02T15:22:03Z</time></trkpt><trkpt lat="45.35486178877064" lon="7.557584095440012"><ele>963.0</ele><time>2026-05-02T15:22:27Z</time></trkpt><trkpt lat="45.3548578284687" lon="7.557674692110613"><ele>963.0000000000001</ele><time>2026-05-02T15:22:37Z</time></trkpt><trkpt lat="45.35478562104411" lon="7.557711465457293"><ele>963.0000000000001</ele><time>2026-05-02T15:23:22Z</time></trkpt><trkpt lat="45.35485082525892" lon="7.557649971037193"><ele>963.0</ele><time>2026-05-02T15:24:15Z</time></trkpt><trkpt lat="45.354786655879614" lon="7.557660771709585"><ele>963.0000000000001</ele><time>2026-05-02T15:24:45Z</time></trkpt><trkpt lat="45.354841809691095" lon="7.557709732122546"><ele>963.0000000000001</ele><time>2026-05-02T15:25:34Z</time></trkpt><trkpt lat="45.35491763939978" lon="7.557646787405488"><ele>963.0</ele><time>2026-05-02T15:29:05Z</time></trkpt><trkpt lat="45.354905584789016" lon="7.557550353683091"><ele>963.0</ele><time>2026-05-02T15:29:11Z</time></trkpt><trkpt lat="45.354980329512664" lon="7.5575308117032645"><ele>963.0</ele><time>2026-05-02T15:30:07Z</time></trkpt><trkpt lat="45.355038357758524" lon="7.557477888340422"><ele>963.0</ele><time>2026-05-02T15:30:15Z</time></trkpt><trkpt lat="45.35512040210229" lon="7.557514925153859"><ele>963.0</ele><time>2026-05-02T15:30:18Z</time></trkpt><trkpt lat="45.3552103550557" lon="7.5575619437401285"><ele>963.0</ele><time>2026-05-02T15:30:20Z</time></trkpt><trkpt lat="45.3552703385068" lon="7.55748295640041"><ele>963.0</ele><time>2026-05-02T15:30:22Z</time></trkpt><trkpt lat="45.3553075003342" lon="7.5574016095745575"><ele>963.0</ele><time>2026-05-02T15:30:23Z</time></trkpt><trkpt lat="45.35538135584106" lon="7.5572647058413"><ele>963.0</ele><time>2026-05-02T15:30:25Z</time></trkpt><trkpt lat="45.35548058925526" lon="7.557225045099506"><ele>963.0</ele><time>2026-05-02T15:30:27Z</time></trkpt><trkpt lat="45.35556799265351" lon="7.5573269716745495"><ele>963.0</ele><time>2026-05-02T15:30:29Z</time></trkpt><trkpt lat="45.35565699531876" lon="7.557327508233299"><ele>967.0</ele><time>2026-05-02T15:30:31Z</time></trkpt><trkpt lat="45.35574112531277" lon="7.557186524384784"><ele>971.0</ele><time>2026-05-02T15:30:33Z</time></trkpt><trkpt lat="45.35579001186404" lon="7.557111287133192"><ele>975.0</ele><time>2026-05-02T15:30:34Z</time></trkpt><trkpt lat="45.35586736693449" lon="7.557021756382742"><ele>979.0</ele><time>2026-05-02T15:30:35Z</time></trkpt><trkpt lat="45.35593799399172" lon="7.556930644868594"><ele>983.0</ele><time>2026-05-02T15:30:36Z</time></trkpt><trkpt lat="45.35600449838532" lon="7.5568702471335625"><ele>983.0000000000001</ele><time>2026-05-02T15:30:37Z</time></trkpt><trkpt lat="45.35607018717974" lon="7.556817912781242"><ele>983.0</ele><time>2026-05-02T15:30:38Z</time></trkpt><trkpt lat="45.35613266348465" lon="7.556773805918104"><ele>983.0</ele><time>2026-05-02T15:30:39Z</time></trkpt><trkpt lat="45.35619408542637" lon="7.5567364811139415"><ele>983.0</ele><time>2026-05-02T15:30:40Z</time></trkpt><trkpt lat="45.35624542300586" lon="7.556673092461748"><ele>983.0000000000001</ele><time>2026-05-02T15:30:41Z</time></trkpt><trkpt lat="45.356309671429635" lon="7.5566007957220345"><ele>983.0</ele><time>2026-05-02T15:30:42Z</time></trkpt><trkpt lat="45.35638576408025" lon="7.556515944256412"><ele>985.6666666666667</ele><time>2026-05-02T15:30:43Z</time></trkpt><trkpt lat="45.356455483227734" lon="7.556415792511088"><ele>988.3333333333334</ele><time>2026-05-02T15:30:44Z</time></trkpt><trkpt lat="45.3565313699752" lon="7.556301358001031"><ele>991.0</ele><time>2026-05-02T15:30:45Z</time></trkpt><trkpt lat="45.356585964869076" lon="7.556209674658147"><ele>993.6666666666667</ele><time>2026-05-02T15:30:46Z</time></trkpt><trkpt lat="45.356618420286274" lon="7.556106782351572"><ele>996.3333333333334</ele><time>2026-05-02T15:30:47Z</time></trkpt><trkpt lat="45.356636805463914" lon="7.55601459933565"><ele>999.0</ele><time>2026-05-02T15:30:48Z</time></trkpt><trkpt lat="45.35671224518511" lon="7.555944816043833"><ele>1000.5</ele><time>2026-05-02T15:30:50Z</time></trkpt><trkpt lat="45.35678890080807" lon="7.555946349861753"><ele>1002.0</ele><time>2026-05-02T15:30:51Z</time></trkpt><trkpt lat="45.35689403972277" lon="7.555904031304489"><ele>1003.5</ele><time>2026-05-02T15:30:52Z</time></trkpt><trkpt lat="45.35701049700321" lon="7.555821040208559"><ele>1005.0</ele><time>2026-05-02T15:30:53Z</time></trkpt><trkpt lat="45.35713419992859" lon="7.555739430193813"><ele>1007.5</ele><time>2026-05-02T15:30:54Z</time></trkpt><trkpt lat="45.357246582874566" lon="7.555648571144433"><ele>1010.0</ele><time>2026-05-02T15:30:55Z</time></trkpt><trkpt lat="45.357391559929894" lon="7.555595765949493"><ele>1012.5</ele><time>2026-05-02T15:30:56Z</time></trkpt><trkpt lat="45.3575292196931" lon="7.555584050002181"><ele>1015.0</ele><time>2026-05-02T15:30:57Z</time></trkpt><trkpt lat="45.35764631722778" lon="7.5556220979772455"><ele>1015.0</ele><time>2026-05-02T15:30:58Z</time></trkpt><trkpt lat="45.35772401538658" lon="7.555608721427836"><ele>1015.0</ele><time>2026-05-02T15:30:59Z</time></trkpt><trkpt lat="45.357806978155466" lon="7.555595162402046"><ele>1015.0</ele><time>2026-05-02T15:31:00Z</time></trkpt><trkpt lat="45.357910041009106" lon="7.5555504689670006"><ele>1015.0</ele><time>2026-05-02T15:31:01Z</time></trkpt><trkpt lat="45.3580009947062" lon="7.555488956816874"><ele>1015.0</ele><time>2026-05-02T15:31:02Z</time></trkpt><trkpt lat="45.358076651574365" lon="7.5554044882303355"><ele>1016.4285714285714</ele><time>2026-05-02T15:31:07Z</time></trkpt><trkpt lat="45.358139167621495" lon="7.555313013822981"><ele>1017.8571428571429</ele><time>2026-05-02T15:31:31Z</time></trkpt><trkpt lat="45.35819929966462" lon="7.555277971273792"><ele>1019.2857142857142</ele><time>2026-05-02T15:31:32Z</time></trkpt><trkpt lat="45.35815617198794" lon="7.55520234777524"><ele>1020.7142857142857</ele><time>2026-05-02T15:31:43Z</time></trkpt><trkpt lat="45.35822222698486" lon="7.555179469365595"><ele>1022.1428571428571</ele><time>2026-05-02T15:32:08Z</time></trkpt><trkpt lat="45.358161249736725" lon="7.555247737694322"><ele>1023.5714285714284</ele><time>2026-05-02T15:32:11Z</time></trkpt><trkpt lat="45.35813529469874" lon="7.555337863135816"><ele>1025.0</ele><time>2026-05-02T15:32:15Z</time></trkpt><trkpt lat="45.35815075461995" lon="7.555448310361171"><ele>1025.0</ele><time>2026-05-02T15:32:17Z</time></trkpt><trkpt lat="45.3580769867084" lon="7.5554461130207535"><ele>1025.0</ele><time>2026-05-02T15:32:20Z</time></trkpt><trkpt lat="45.357999059777946" lon="7.555533587896725"><ele>1025.0</ele><time>2026-05-02T15:32:41Z</time></trkpt><trkpt lat="45.35806171436537" lon="7.555479770706002"><ele>1025.0</ele><time>2026-05-02T15:32:49Z</time></trkpt><trkpt lat="45.35814626487451" lon="7.555403743491352"><ele>1025.0</ele><time>2026-05-02T15:32:51Z</time></trkpt><trkpt lat="45.35819905185391" lon="7.555301417551643"><ele>1025.0</ele><time>2026-05-02T15:32:54Z</time></trkpt><trkpt lat="45.3581463292633" lon="7.555353080536211"><ele>1025.0</ele><time>2026-05-02T15:33:14Z</time></trkpt><trkpt lat="45.35820874531675" lon="7.555259253792106"><ele>1025.0</ele><time>2026-05-02T15:33:20Z</time></trkpt><trkpt lat="45.358163396516545" lon="7.555343651370243"><ele>1025.0</ele><time>2026-05-02T15:33:34Z</time></trkpt><trkpt lat="45.35811988329101" lon="7.555429612860228"><ele>1025.0</ele><time>2026-05-02T15:33:39Z</time></trkpt><trkpt lat="45.358054057398334" lon="7.555488122658844"><ele>1025.0</ele><time>2026-05-02T15:33:43Z</time></trkpt><trkpt lat="45.35809921571191" lon="7.555382274522792"><ele>1025.0</ele><time>2026-05-02T15:33:51Z</time></trkpt><trkpt lat="45.35815604983131" lon="7.555333366016489"><ele>1027.8333333333335</ele><time>2026-05-02T15:33:54Z</time></trkpt><trkpt lat="45.35821754870256" lon="7.555308627498181"><ele>1030.6666666666667</ele><time>2026-05-02T15:33:56Z</time></trkpt><trkpt lat="45.35819899428511" lon="7.55513364425632"><ele>1033.5</ele><time>2026-05-02T15:34:29Z</time></trkpt><trkpt lat="45.35821950514457" lon="7.555225942495122"><ele>1036.3333333333333</ele><time>2026-05-02T15:34:40Z</time></trkpt><trkpt lat="45.358163946945254" lon="7.555317512679006"><ele>1039.1666666666665</ele><time>2026-05-02T15:34:46Z</time></trkpt><trkpt lat="45.35809188165136" lon="7.555357183404749"><ele>1042.0</ele><time>2026-05-02T15:35:07Z</time></trkpt><trkpt lat="45.35816597302491" lon="7.555278164957844"><ele>1042.0</ele><time>2026-05-02T15:36:08Z</time></trkpt><trkpt lat="45.358242321049524" lon="7.555258875958667"><ele>1042.0</ele><time>2026-05-02T15:36:10Z</time></trkpt><trkpt lat="45.358298329542016" lon="7.555204198578524"><ele>1042.0</ele><time>2026-05-02T15:36:44Z</time></trkpt><trkpt lat="45.358240641008685" lon="7.555297321824783"><ele>1042.0</ele><time>2026-05-02T15:36:58Z</time></trkpt><trkpt lat="45.35820625615205" lon="7.555377803899586"><ele>1042.0</ele><time>2026-05-02T15:36:59Z</time></trkpt><trkpt lat="45.35812487198543" lon="7.5554001806332245"><ele>1042.0</ele><time>2026-05-02T15:37:02Z</time></trkpt><trkpt lat="45.358054891038776" lon="7.555370426049716"><ele>1040.0</ele><time>2026-05-02T15:37:03Z</time></trkpt><trkpt lat="45.3579547940108" lon="7.555312486837676"><ele>1038.0</ele><time>2026-05-02T15:37:05Z</time></trkpt><trkpt lat="45.35784839669898" lon="7.555280918903252"><ele>1036.0</ele><time>2026-05-02T15:37:07Z</time></trkpt><trkpt lat="45.357771119133034" lon="7.5552568635385695"><ele>1034.0</ele><time>2026-05-02T15:37:08Z</time></trkpt><trkpt lat="45.357715536643994" lon="7.555213315602014"><ele>1032.0</ele><time>2026-05-02T15:37:09Z</time></trkpt><trkpt lat="45.35772065098658" lon="7.555106323357006"><ele>1030.0</ele><time>2026-05-02T15:37:13Z</time></trkpt><trkpt lat="45.35771737451339" lon="7.554987744644403"><ele>1030.0</ele><time>2026-05-02T15:37:16Z</time></trkpt><trkpt lat="45.35777066156646" lon="7.554914806511163"><ele>1030.0</ele><time>2026-05-02T15:37:21Z</time></trkpt><trkpt lat="45.35778588454369" lon="7.554823880854642"><ele>1030.0</ele><time>2026-05-02T15:37:22Z</time></trkpt><trkpt lat="45.35780746320025" lon="7.554735685614835"><ele>1030.0</ele><time>2026-05-02T15:37:23Z</time></trkpt><trkpt lat="45.35783584593854" lon="7.554548693559738"><ele>1030.0</ele><time>2026-05-02T15:37:25Z</time></trkpt><trkpt lat="45.357918792779984" lon="7.554521926894166"><ele>1030.0</ele><time>2026-05-02T15:37:28Z</time></trkpt><trkpt lat="45.35796277535577" lon="7.554450080154809"><ele>1034.8</ele><time>2026-05-02T15:37:30Z</time></trkpt><trkpt lat="45.358042267001075" lon="7.554478897360463"><ele>1039.6</ele><time>2026-05-02T15:37:32Z</time></trkpt><trkpt lat="45.35807354553117" lon="7.554358783376657"><ele>1044.4</ele><time>2026-05-02T15:37:34Z</time></trkpt><trkpt lat="45.35806556104152" lon="7.554235526445083"><ele>1049.2</ele><time>2026-05-02T15:37:36Z</time></trkpt><trkpt lat="45.358105016277634" lon="7.554097516989711"><ele>1054.0</ele><time>2026-05-02T15:37:38Z</time></trkpt><trkpt lat="45.35810389384352" lon="7.553412991923388"><ele>1053.75</ele><time>2026-05-02T15:37:40Z</time></trkpt><trkpt lat="45.358005672600214" lon="7.553276642093028"><ele>1053.5</ele><time>2026-05-02T15:37:41Z</time></trkpt><trkpt lat="45.35791660849274" lon="7.553117654355198"><ele>1053.25</ele><time>2026-05-02T15:37:42Z</time></trkpt><trkpt lat="45.3578319679125" lon="7.552936953481746"><ele>1053.0</ele><time>2026-05-02T15:37:43Z</time></trkpt><trkpt lat="45.357723510783224" lon="7.552846593567494"><ele>1056.5</ele><time>2026-05-02T15:37:44Z</time></trkpt><trkpt lat="45.357614846878235" lon="7.5526994552882005"><ele>1060.0</ele><time>2026-05-02T15:37:45Z</time></trkpt><trkpt lat="45.35749264452964" lon="7.552536393351131"><ele>1063.5</ele><time>2026-05-02T15:37:46Z</time></trkpt><trkpt lat="45.357417919295614" lon="7.552406000393038"><ele>1067.0</ele><time>2026-05-02T15:37:47Z</time></trkpt><trkpt lat="45.3574535717668" lon="7.552289129706424"><ele>1067.0</ele><time>2026-05-02T15:37:49Z</time></trkpt><trkpt lat="45.35745169049527" lon="7.552185344451114"><ele>1067.0</ele><time>2026-05-02T15:37:50Z</time></trkpt><trkpt lat="45.35748752388592" lon="7.552034505908145"><ele>1067.0</ele><time>2026-05-02T15:37:51Z</time></trkpt><trkpt lat="45.35750395417281" lon="7.551809879011258"><ele>1067.0</ele><time>2026-05-02T15:37:52Z</time></trkpt><trkpt lat="45.357509257143754" lon="7.5516334629574535"><ele>1069.2</ele><time>2026-05-02T15:37:53Z</time></trkpt><trkpt lat="45.357513950300174" lon="7.5514917126856815"><ele>1071.4</ele><time>2026-05-02T15:37:54Z</time></trkpt><trkpt lat="45.35746360740819" lon="7.5514160045772485"><ele>1073.6</ele><time>2026-05-02T15:37:55Z</time></trkpt><trkpt lat="45.35742597853308" lon="7.551269626117449"><ele>1075.8</ele><time>2026-05-02T15:37:56Z</time></trkpt><trkpt lat="45.35737132504719" lon="7.551107956370295"><ele>1078.0</ele><time>2026-05-02T15:37:57Z</time></trkpt><trkpt lat="45.357320300791194" lon="7.551027054555434"><ele>1078.75</ele><time>2026-05-02T15:37:58Z</time></trkpt><trkpt lat="45.35732519730855" lon="7.550877939290657"><ele>1079.5</ele><time>2026-05-02T15:37:59Z</time></trkpt><trkpt lat="45.35733452319019" lon="7.550693142189456"><ele>1080.25</ele><time>2026-05-02T15:38:00Z</time></trkpt><trkpt lat="45.35738861372444" lon="7.550479192170154"><ele>1081.0</ele><time>2026-05-02T15:38:01Z</time></trkpt><trkpt lat="45.35740485417167" lon="7.550311299482792"><ele>1081.0</ele><time>2026-05-02T15:38:02Z</time></trkpt><trkpt lat="45.357427196933024" lon="7.55022022339207"><ele>1081.0</ele><time>2026-05-02T15:38:03Z</time></trkpt><trkpt lat="45.35761219356406" lon="7.550297963764781"><ele>1081.0</ele><time>2026-05-02T15:38:06Z</time></trkpt><trkpt lat="45.3577023788532" lon="7.550322670351403"><ele>1081.0</ele><time>2026-05-02T15:38:07Z</time></trkpt><trkpt lat="45.357828320247286" lon="7.550339168350192"><ele>1081.0</ele><time>2026-05-02T15:38:08Z</time></trkpt><trkpt lat="45.35793042515205" lon="7.550362642667207"><ele>1081.0</ele><time>2026-05-02T15:38:09Z</time></trkpt><trkpt lat="45.35801040762218" lon="7.550411849201204"><ele>1081.0</ele><time>2026-05-02T15:38:10Z</time></trkpt><trkpt lat="45.35809032365522" lon="7.550498773106254"><ele>1081.0</ele><time>2026-05-02T15:38:19Z</time></trkpt><trkpt lat="45.358159769703605" lon="7.550564164758193"><ele>1081.0</ele><time>2026-05-02T15:38:21Z</time></trkpt><trkpt lat="45.35817713050687" lon="7.550762943016915"><ele>1086.3999999999999</ele><time>2026-05-02T15:38:23Z</time></trkpt><trkpt lat="45.35817185617475" lon="7.550921346174547"><ele>1091.8</ele><time>2026-05-02T15:38:25Z</time></trkpt><trkpt lat="45.35816164885709" lon="7.551043465825761"><ele>1097.1999999999998</ele><time>2026-05-02T15:38:27Z</time></trkpt><trkpt lat="45.358176383097245" lon="7.551212045854584"><ele>1102.6</ele><time>2026-05-02T15:38:28Z</time></trkpt><trkpt lat="45.35822536199565" lon="7.551268721726671"><ele>1108.0</ele><time>2026-05-02T15:38:29Z</time></trkpt><trkpt lat="45.358303328011594" lon="7.551390118029632"><ele>1108.0</ele><time>2026-05-02T15:38:30Z</time></trkpt><trkpt lat="45.358369539455815" lon="7.551416324264495"><ele>1108.0</ele><time>2026-05-02T15:38:31Z</time></trkpt><trkpt lat="45.35848724369648" lon="7.5514607468475035"><ele>1108.0</ele><time>2026-05-02T15:38:32Z</time></trkpt><trkpt lat="45.35863593251809" lon="7.551469250482124"><ele>1108.0</ele><time>2026-05-02T15:38:33Z</time></trkpt><trkpt lat="45.3588147693612" lon="7.551490214709362"><ele>1110.6666666666665</ele><time>2026-05-02T15:38:34Z</time></trkpt><trkpt lat="45.358889652521086" lon="7.5515262644470935"><ele>1113.3333333333333</ele><time>2026-05-02T15:38:35Z</time></trkpt><trkpt lat="45.35896912354574" lon="7.551567163789516"><ele>1116.0</ele><time>2026-05-02T15:38:36Z</time></trkpt><trkpt lat="45.35900660982799" lon="7.55164642859308"><ele>1118.6666666666667</ele><time>2026-05-02T15:38:36.999Z</time></trkpt><trkpt lat="45.35907648545199" lon="7.551738626708508"><ele>1121.3333333333335</ele><time>2026-05-02T15:38:37.999Z</time></trkpt><trkpt lat="45.35912381791084" lon="7.551820708009374"><ele>1124.0</ele><time>2026-05-02T15:38:38.999Z</time></trkpt><trkpt lat="45.35920265937522" lon="7.551850003223977"><ele>1124.0</ele><time>2026-05-02T15:38:39.999Z</time></trkpt><trkpt lat="45.3592953700442" lon="7.551868470707759"><ele>1124.0</ele><time>2026-05-02T15:38:40.999Z</time></trkpt><trkpt lat="45.359382532098465" lon="7.551874775112128"><ele>1124.0</ele><time>2026-05-02T15:38:41.999Z</time></trkpt><trkpt lat="45.359478184193435" lon="7.551900179652723"><ele>1124.0</ele><time>2026-05-02T15:38:42.999Z</time></trkpt><trkpt lat="45.359561911662325" lon="7.551926655983321"><ele>1124.0</ele><time>2026-05-02T15:38:43.999Z</time></trkpt><trkpt lat="45.359649992702174" lon="7.551972657818913"><ele>1125.0</ele><time>2026-05-02T15:38:45Z</time></trkpt><trkpt lat="45.35972497106763" lon="7.552040566863135"><ele>1126.0</ele><time>2026-05-02T15:38:46Z</time></trkpt><trkpt lat="45.35981209900792" lon="7.552099250176876"><ele>1127.0</ele><time>2026-05-02T15:38:47Z</time></trkpt><trkpt lat="45.35988966372185" lon="7.55216514755625"><ele>1128.0</ele><time>2026-05-02T15:38:48Z</time></trkpt><trkpt lat="45.35997082886131" lon="7.552243300078734"><ele>1129.0</ele><time>2026-05-02T15:38:49Z</time></trkpt><trkpt lat="45.36004766021811" lon="7.552343683311728"><ele>1129.0</ele><time>2026-05-02T15:38:50Z</time></trkpt><trkpt lat="45.36012530318166" lon="7.552428094803303"><ele>1129.0</ele><time>2026-05-02T15:38:51Z</time></trkpt><trkpt lat="45.36022868523321" lon="7.552498333387125"><ele>1129.0</ele><time>2026-05-02T15:38:52Z</time></trkpt><trkpt lat="45.36030366577156" lon="7.5525774488026025"><ele>1129.0</ele><time>2026-05-02T15:38:53Z</time></trkpt><trkpt lat="45.36037481797124" lon="7.552660015404474"><ele>1129.0</ele><time>2026-05-02T15:38:54Z</time></trkpt><trkpt lat="45.360404040562344" lon="7.552740421787183"><ele>1129.0</ele><time>2026-05-02T15:38:55Z</time></trkpt><trkpt lat="45.3604669548094" lon="7.552817823980559"><ele>1129.0</ele><time>2026-05-02T15:38:56Z</time></trkpt><trkpt lat="45.36057139805445" lon="7.5529237608320425"><ele>1129.0</ele><time>2026-05-02T15:38:57Z</time></trkpt><trkpt lat="45.36065439260014" lon="7.553047398981849"><ele>1129.0</ele><time>2026-05-02T15:38:58Z</time></trkpt><trkpt lat="45.3607221431868" lon="7.5531458196661765"><ele>1129.0</ele><time>2026-05-02T15:38:59Z</time></trkpt><trkpt lat="45.36078714061064" lon="7.553226674386582"><ele>1131.6000000000001</ele><time>2026-05-02T15:39:00Z</time></trkpt><trkpt lat="45.36091490114371" lon="7.553327979894396"><ele>1134.2</ele><time>2026-05-02T15:39:02Z</time></trkpt><trkpt lat="45.360979312609935" lon="7.553394667452571"><ele>1136.8000000000002</ele><time>2026-05-02T15:39:03Z</time></trkpt><trkpt lat="45.36103379530566" lon="7.553338641227379"><ele>1139.4</ele><time>2026-05-02T15:39:06Z</time></trkpt><trkpt lat="45.36110419384436" lon="7.553284537869603"><ele>1142.0</ele><time>2026-05-02T15:39:16Z</time></trkpt><trkpt lat="45.36123919237495" lon="7.553447207177288"><ele>1142.0</ele><time>2026-05-02T15:39:18Z</time></trkpt><trkpt lat="45.3612882601329" lon="7.553584136979663"><ele>1142.0</ele><time>2026-05-02T15:39:20Z</time></trkpt><trkpt lat="45.36135763025471" lon="7.553690468081464"><ele>1142.0</ele><time>2026-05-02T15:39:22Z</time></trkpt><trkpt lat="45.361420436626716" lon="7.55372714984005"><ele>1142.0</ele><time>2026-05-02T15:39:27Z</time></trkpt><trkpt lat="45.361358476621675" lon="7.553606142694538"><ele>1142.0</ele><time>2026-05-02T15:39:31Z</time></trkpt><trkpt lat="45.36129193999803" lon="7.553479365610145"><ele>1142.0</ele><time>2026-05-02T15:39:32Z</time></trkpt><trkpt lat="45.361231350647834" lon="7.553337016826366"><ele>1142.0</ele><time>2026-05-02T15:39:33Z</time></trkpt><trkpt lat="45.36116536340255" lon="7.553263752332063"><ele>1142.0</ele><time>2026-05-02T15:39:34Z</time></trkpt><trkpt lat="45.361089804874176" lon="7.553239052814578"><ele>1142.0</ele><time>2026-05-02T15:39:35Z</time></trkpt><trkpt lat="45.361018238589686" lon="7.55323924938033"><ele>1142.0</ele><time>2026-05-02T15:39:38Z</time></trkpt><trkpt lat="45.36102864315885" lon="7.553132788697314"><ele>1142.0</ele><time>2026-05-02T15:39:44Z</time></trkpt><trkpt lat="45.36100497041064" lon="7.5530068696202015"><ele>1142.0</ele><time>2026-05-02T15:39:46Z</time></trkpt><trkpt lat="45.36099492223887" lon="7.5529087231756815"><ele>1142.0</ele><time>2026-05-02T15:39:47Z</time></trkpt><trkpt lat="45.36097714303044" lon="7.552808332687889"><ele>1142.0</ele><time>2026-05-02T15:39:48Z</time></trkpt><trkpt lat="45.360967195730076" lon="7.5527103716777075"><ele>1142.0</ele><time>2026-05-02T15:39:49Z</time></trkpt><trkpt lat="45.360993173218446" lon="7.552604131490071"><ele>1142.0</ele><time>2026-05-02T15:39:50Z</time></trkpt><trkpt lat="45.361028237244184" lon="7.552481190714011"><ele>1142.0</ele><time>2026-05-02T15:39:51Z</time></trkpt><trkpt lat="45.3610856373512" lon="7.552312603506876"><ele>1144.5</ele><time>2026-05-02T15:39:52Z</time></trkpt><trkpt lat="45.36112836342375" lon="7.552145106512368"><ele>1147.0</ele><time>2026-05-02T15:39:53Z</time></trkpt><trkpt lat="45.361199549591795" lon="7.551939472677981"><ele>1149.5</ele><time>2026-05-02T15:39:54Z</time></trkpt><trkpt lat="45.36125940770712" lon="7.551767724054981"><ele>1152.0</ele><time>2026-05-02T15:39:55Z</time></trkpt><trkpt lat="45.3612958271184" lon="7.551653756123577"><ele>1152.0</ele><time>2026-05-02T15:39:56Z</time></trkpt><trkpt lat="45.36136982935587" lon="7.551599882998652"><ele>1152.0</ele><time>2026-05-02T15:39:58Z</time></trkpt><trkpt lat="45.36137273143286" lon="7.551692024366197"><ele>1152.0</ele><time>2026-05-02T15:39:59Z</time></trkpt><trkpt lat="45.361376220996256" lon="7.551843065745106"><ele>1152.0</ele><time>2026-05-02T15:40:01Z</time></trkpt><trkpt lat="45.3613288837942" lon="7.5519239819457376"><ele>1152.0</ele><time>2026-05-02T15:40:04Z</time></trkpt><trkpt lat="45.36133685900232" lon="7.552039780790201"><ele>1152.0</ele><time>2026-05-02T15:40:07Z</time></trkpt><trkpt lat="45.36134768330627" lon="7.552200763480035"><ele>1156.0</ele><time>2026-05-02T15:40:08Z</time></trkpt><trkpt lat="45.361390330398386" lon="7.5523493329929545"><ele>1160.0</ele><time>2026-05-02T15:40:09Z</time></trkpt><trkpt lat="45.36143578494957" lon="7.552450680846234"><ele>1164.0</ele><time>2026-05-02T15:40:10Z</time></trkpt><trkpt lat="45.36147037367925" lon="7.552555793320444"><ele>1168.0</ele><time>2026-05-02T15:40:11Z</time></trkpt><trkpt lat="45.3615523068032" lon="7.552638637052319"><ele>1172.0</ele><time>2026-05-02T15:40:12Z</time></trkpt><trkpt lat="45.36162536951475" lon="7.552678680294443"><ele>1172.0</ele><time>2026-05-02T15:40:13Z</time></trkpt><trkpt lat="45.361702361383315" lon="7.5527225059747085"><ele>1172.0</ele><time>2026-05-02T15:40:14Z</time></trkpt><trkpt lat="45.36177412034674" lon="7.552779547431784"><ele>1172.0</ele><time>2026-05-02T15:40:15Z</time></trkpt><trkpt lat="45.36181040627847" lon="7.552855703593788"><ele>1172.0</ele><time>2026-05-02T15:40:17Z</time></trkpt><trkpt lat="45.36183691961909" lon="7.552995767000959"><ele>1172.0</ele><time>2026-05-02T15:40:19Z</time></trkpt><trkpt lat="45.36185263505813" lon="7.553094584066293"><ele>1172.0</ele><time>2026-05-02T15:40:22Z</time></trkpt><trkpt lat="45.361860806693" lon="7.553224665362923"><ele>1170.2</ele><time>2026-05-02T15:40:41.999Z</time></trkpt><trkpt lat="45.36188976264189" lon="7.553367175822624"><ele>1168.4</ele><time>2026-05-02T15:40:43.999Z</time></trkpt><trkpt lat="45.3619583548413" lon="7.553386826330643"><ele>1166.6</ele><time>2026-05-02T15:40:47.999Z</time></trkpt><trkpt lat="45.3619422670969" lon="7.553245139847922"><ele>1164.8</ele><time>2026-05-02T15:40:49.999Z</time></trkpt><trkpt lat="45.36190492484485" lon="7.553114502324929"><ele>1163.0</ele><time>2026-05-02T15:40:51Z</time></trkpt><trkpt lat="45.361875172985314" lon="7.552983598760976"><ele>1163.0</ele><time>2026-05-02T15:40:52Z</time></trkpt><trkpt lat="45.36184690274092" lon="7.552899173289692"><ele>1163.0</ele><time>2026-05-02T15:40:53Z</time></trkpt><trkpt lat="45.3618022294425" lon="7.552817760650249"><ele>1163.0</ele><time>2026-05-02T15:40:54Z</time></trkpt><trkpt lat="45.36169779453008" lon="7.552753700683723"><ele>1163.0</ele><time>2026-05-02T15:40:56Z</time></trkpt><trkpt lat="45.36161023798058" lon="7.552720300308774"><ele>1163.0</ele><time>2026-05-02T15:40:57Z</time></trkpt><trkpt lat="45.36153161237979" lon="7.552676288173795"><ele>1163.0</ele><time>2026-05-02T15:40:58Z</time></trkpt><trkpt lat="45.36147660686258" lon="7.5525902964083445"><ele>1162.0</ele><time>2026-05-02T15:40:59Z</time></trkpt><trkpt lat="45.36140925651653" lon="7.552512607358183"><ele>1161.0</ele><time>2026-05-02T15:41:00Z</time></trkpt><trkpt lat="45.361382711488936" lon="7.552418914981838"><ele>1160.0</ele><time>2026-05-02T15:41:01Z</time></trkpt><trkpt lat="45.361347146910994" lon="7.552300248742107"><ele>1159.0</ele><time>2026-05-02T15:41:02Z</time></trkpt><trkpt lat="45.36133462284228" lon="7.552190694052382"><ele>1158.0</ele><time>2026-05-02T15:41:03Z</time></trkpt><trkpt lat="45.3613323198398" lon="7.552072244000925"><ele>1157.0</ele><time>2026-05-02T15:41:04Z</time></trkpt><trkpt lat="45.36131843149355" lon="7.551943590104546"><ele>1157.0</ele><time>2026-05-02T15:41:05Z</time></trkpt><trkpt lat="45.36132142854458" lon="7.551851382087615"><ele>1157.0</ele><time>2026-05-02T15:41:07Z</time></trkpt><trkpt lat="45.36137472236418" lon="7.551926095979388"><ele>1157.0</ele><time>2026-05-02T15:41:20Z</time></trkpt><trkpt lat="45.361405519466146" lon="7.5520182749217195"><ele>1157.0</ele><time>2026-05-02T15:41:22Z</time></trkpt><trkpt lat="45.36145589763639" lon="7.5520728142289615"><ele>1157.0</ele><time>2026-05-02T15:41:23Z</time></trkpt><trkpt lat="45.36152164682994" lon="7.552148856243934"><ele>1157.0</ele><time>2026-05-02T15:41:24Z</time></trkpt><trkpt lat="45.36161393837955" lon="7.55218736977673"><ele>1159.5</ele><time>2026-05-02T15:41:26Z</time></trkpt><trkpt lat="45.36168468072284" lon="7.552176550624821"><ele>1162.0</ele><time>2026-05-02T15:41:28Z</time></trkpt><trkpt lat="45.36178056755412" lon="7.552142653570152"><ele>1164.5</ele><time>2026-05-02T15:41:58Z</time></trkpt><trkpt lat="45.361874630066644" lon="7.5520787840199555"><ele>1167.0</ele><time>2026-05-02T15:41:59Z</time></trkpt><trkpt lat="45.361937960174664" lon="7.5519905710568205"><ele>1169.5</ele><time>2026-05-02T15:42:00Z</time></trkpt><trkpt lat="45.36200404008753" lon="7.551969171370623"><ele>1172.0</ele><time>2026-05-02T15:42:02Z</time></trkpt><trkpt lat="45.36209838251887" lon="7.552187485932887"><ele>1172.0</ele><time>2026-05-02T15:42:03Z</time></trkpt><trkpt lat="45.36217461656208" lon="7.5523013145215785"><ele>1172.0</ele><time>2026-05-02T15:42:04Z</time></trkpt><trkpt lat="45.36224330265203" lon="7.55236702369816"><ele>1172.0</ele><time>2026-05-02T15:42:05Z</time></trkpt><trkpt lat="45.36233759876784" lon="7.5524059914434405"><ele>1172.0</ele><time>2026-05-02T15:42:07Z</time></trkpt><trkpt lat="45.36225760986194" lon="7.552374510441089"><ele>1172.0</ele><time>2026-05-02T15:42:14Z</time></trkpt><trkpt lat="45.36212363520958" lon="7.552240533485869"><ele>1172.0</ele><time>2026-05-02T15:42:16Z</time></trkpt><trkpt lat="45.362063083596496" lon="7.552157132086189"><ele>1172.0</ele><time>2026-05-02T15:42:17Z</time></trkpt><trkpt lat="45.36202832979619" lon="7.552061719188297"><ele>1172.0</ele><time>2026-05-02T15:42:18Z</time></trkpt><trkpt lat="45.361930473510675" lon="7.5519870782108525"><ele>1172.0</ele><time>2026-05-02T15:42:20Z</time></trkpt><trkpt lat="45.36186604443641" lon="7.552030238998965"><ele>1172.0</ele><time>2026-05-02T15:42:20.999Z</time></trkpt><trkpt lat="45.36178975404475" lon="7.552113856485496"><ele>1172.0</ele><time>2026-05-02T15:42:21.999Z</time></trkpt><trkpt lat="45.36169595680594" lon="7.552174226543761"><ele>1172.0</ele><time>2026-05-02T15:42:22.999Z</time></trkpt><trkpt lat="45.361606785438845" lon="7.552185977029621"><ele>1172.0</ele><time>2026-05-02T15:42:23.999Z</time></trkpt><trkpt lat="45.36151421648066" lon="7.55216394126985"><ele>1172.0</ele><time>2026-05-02T15:42:24.999Z</time></trkpt><trkpt lat="45.36144152192722" lon="7.5521311329671725"><ele>1172.0</ele><time>2026-05-02T15:42:25.999Z</time></trkpt><trkpt lat="45.36139433634192" lon="7.552065600354505"><ele>1172.0</ele><time>2026-05-02T15:42:26.999Z</time></trkpt><trkpt lat="45.36136532561274" lon="7.551917906133729"><ele>1172.0</ele><time>2026-05-02T15:42:28.999Z</time></trkpt><trkpt lat="45.36135241819121" lon="7.552012824589467"><ele>1172.0</ele><time>2026-05-02T15:42:34.999Z</time></trkpt><trkpt lat="45.36135346784874" lon="7.552159224454978"><ele>1172.0</ele><time>2026-05-02T15:42:37.999Z</time></trkpt><trkpt lat="45.36134223399703" lon="7.552267726945884"><ele>1172.0</ele><time>2026-05-02T15:42:39.999Z</time></trkpt><trkpt lat="45.36135756116697" lon="7.5523914928006155"><ele>1172.0</ele><time>2026-05-02T15:42:41.999Z</time></trkpt><trkpt lat="45.36138917850562" lon="7.552530090626915"><ele>1172.0</ele><time>2026-05-02T15:42:43.999Z</time></trkpt><trkpt lat="45.3614417647835" lon="7.552649154388014"><ele>1172.0</ele><time>2026-05-02T15:42:45.999Z</time></trkpt><trkpt lat="45.36150879537177" lon="7.552715746380761"><ele>1172.0</ele><time>2026-05-02T15:42:47.999Z</time></trkpt><trkpt lat="45.36158297736602" lon="7.552781479848348"><ele>1172.0</ele><time>2026-05-02T15:42:49.999Z</time></trkpt><trkpt lat="45.36166712233871" lon="7.55281109949192"><ele>1172.0</ele><time>2026-05-02T15:42:51.999Z</time></trkpt><trkpt lat="45.361735187645294" lon="7.552832440300999"><ele>1172.0</ele><time>2026-05-02T15:42:53.999Z</time></trkpt><trkpt lat="45.36179969364257" lon="7.552890839282238"><ele>1172.0</ele><time>2026-05-02T15:42:55.999Z</time></trkpt><trkpt lat="45.3618385406273" lon="7.553083737597813"><ele>1170.2</ele><time>2026-05-02T15:42:58Z</time></trkpt><trkpt lat="45.36185906179851" lon="7.553237393632852"><ele>1168.4</ele><time>2026-05-02T15:42:59Z</time></trkpt><trkpt lat="45.36192307229692" lon="7.5533822551097485"><ele>1166.6</ele><time>2026-05-02T15:43:00Z</time></trkpt><trkpt lat="45.36195004707371" lon="7.553525145607192"><ele>1164.8</ele><time>2026-05-02T15:43:01Z</time></trkpt><trkpt lat="45.361985062113874" lon="7.553635554254658"><ele>1163.0</ele><time>2026-05-02T15:43:02Z</time></trkpt><trkpt lat="45.36203150678956" lon="7.5537381772863945"><ele>1165.5</ele><time>2026-05-02T15:43:03Z</time></trkpt><trkpt lat="45.362106323879715" lon="7.5538131305074545"><ele>1168.0</ele><time>2026-05-02T15:43:04Z</time></trkpt><trkpt lat="45.362223792325196" lon="7.554021497529813"><ele>1170.5</ele><time>2026-05-02T15:43:05Z</time></trkpt><trkpt lat="45.36229581839337" lon="7.5541422953045565"><ele>1173.0</ele><time>2026-05-02T15:43:06Z</time></trkpt><trkpt lat="45.36239462906536" lon="7.55426949463503"><ele>1173.0</ele><time>2026-05-02T15:43:07Z</time></trkpt><trkpt lat="45.362447282304394" lon="7.554354331890605"><ele>1173.0</ele><time>2026-05-02T15:43:08Z</time></trkpt><trkpt lat="45.362528690880126" lon="7.5544214677696"><ele>1173.0</ele><time>2026-05-02T15:43:09Z</time></trkpt><trkpt lat="45.362620925665404" lon="7.554449705849442"><ele>1173.0</ele><time>2026-05-02T15:43:10Z</time></trkpt><trkpt lat="45.36268814487535" lon="7.554552143906746"><ele>1173.0</ele><time>2026-05-02T15:43:12Z</time></trkpt><trkpt lat="45.36270704694687" lon="7.55468518715083"><ele>1171.4</ele><time>2026-05-02T15:43:14Z</time></trkpt><trkpt lat="45.362718474117486" lon="7.554816930186569"><ele>1169.8</ele><time>2026-05-02T15:43:15Z</time></trkpt><trkpt lat="45.36273942912121" lon="7.554901468087165"><ele>1168.2</ele><time>2026-05-02T15:43:16Z</time></trkpt><trkpt lat="45.36277573885842" lon="7.555046723459042"><ele>1166.6</ele><time>2026-05-02T15:43:17Z</time></trkpt><trkpt lat="45.362842743341496" lon="7.555208914147005"><ele>1165.0</ele><time>2026-05-02T15:43:19Z</time></trkpt><trkpt lat="45.362888339015804" lon="7.5553023953670575"><ele>1163.8</ele><time>2026-05-02T15:43:20Z</time></trkpt><trkpt lat="45.36293584352536" lon="7.555388637924893"><ele>1162.6</ele><time>2026-05-02T15:43:21Z</time></trkpt><trkpt lat="45.362970133118495" lon="7.555484614761234"><ele>1161.4</ele><time>2026-05-02T15:43:22Z</time></trkpt><trkpt lat="45.36301062319095" lon="7.5556131390590044"><ele>1160.2</ele><time>2026-05-02T15:43:24Z</time></trkpt><trkpt lat="45.36302811391969" lon="7.555732377339526"><ele>1159.0</ele><time>2026-05-02T15:43:42Z</time></trkpt><trkpt lat="45.36309238082551" lon="7.555931766387656"><ele>1163.0</ele><time>2026-05-02T15:43:44Z</time></trkpt><trkpt lat="45.36308943988124" lon="7.556038687976455"><ele>1167.0</ele><time>2026-05-02T15:43:45Z</time></trkpt><trkpt lat="45.36308934119825" lon="7.5561763628176255"><ele>1171.0</ele><time>2026-05-02T15:43:47Z</time></trkpt><trkpt lat="45.36306325339626" lon="7.556267246116588"><ele>1175.0</ele><time>2026-05-02T15:43:48Z</time></trkpt><trkpt lat="45.36304795136288" lon="7.556358683350829"><ele>1179.0</ele><time>2026-05-02T15:43:49Z</time></trkpt><trkpt lat="45.36306185741103" lon="7.556542538979706"><ele>1183.0</ele><time>2026-05-02T15:43:51Z</time></trkpt><trkpt lat="45.36306089392486" lon="7.556663228834466"><ele>1183.1666666666665</ele><time>2026-05-02T15:43:52Z</time></trkpt><trkpt lat="45.36305117910681" lon="7.556819807146401"><ele>1183.3333333333333</ele><time>2026-05-02T15:43:54Z</time></trkpt><trkpt lat="45.36303440143138" lon="7.5567258748074995"><ele>1183.5</ele><time>2026-05-02T15:43:56Z</time></trkpt><trkpt lat="45.36300508032537" lon="7.556824482917358"><ele>1183.6666666666667</ele><time>2026-05-02T15:43:58Z</time></trkpt><trkpt lat="45.362959818219856" lon="7.556928243040897"><ele>1183.8333333333335</ele><time>2026-05-02T15:44:01Z</time></trkpt><trkpt lat="45.36293417267749" lon="7.55701756140126"><ele>1184.0</ele><time>2026-05-02T15:44:11.999Z</time></trkpt><trkpt lat="45.362902347423926" lon="7.5571014784501624"><ele>1181.0</ele><time>2026-05-02T15:44:16.999Z</time></trkpt><trkpt lat="45.36289240510489" lon="7.557212041318098"><ele>1178.0</ele><time>2026-05-02T15:44:52.999Z</time></trkpt><trkpt lat="45.362894077187406" lon="7.557349978035351"><ele>1175.0</ele><time>2026-05-02T15:44:55.999Z</time></trkpt><trkpt lat="45.36292526467591" lon="7.557474883756681"><ele>1172.0</ele><time>2026-05-02T15:44:57.999Z</time></trkpt><trkpt lat="45.36294842991062" lon="7.557561826830291"><ele>1169.0</ele><time>2026-05-02T15:44:58.999Z</time></trkpt><trkpt lat="45.362954795858386" lon="7.557659199310376"><ele>1166.0</ele><time>2026-05-02T15:44:59.999Z</time></trkpt><trkpt lat="45.363014938165925" lon="7.557736361917265"><ele>1169.6666666666667</ele><time>2026-05-02T15:45:01.999Z</time></trkpt><trkpt lat="45.36306232365699" lon="7.557795649511498"><ele>1173.3333333333335</ele><time>2026-05-02T15:45:03.999Z</time></trkpt><trkpt lat="45.36310404396441" lon="7.557876758950913"><ele>1177.0</ele><time>2026-05-02T15:45:05.999Z</time></trkpt><trkpt lat="45.36314772628999" lon="7.557967768548634"><ele>1180.6666666666667</ele><time>2026-05-02T15:45:08Z</time></trkpt><trkpt lat="45.36319918363055" lon="7.558084972128332"><ele>1184.3333333333333</ele><time>2026-05-02T15:45:10Z</time></trkpt><trkpt lat="45.363266555308726" lon="7.558129659623348"><ele>1188.0</ele><time>2026-05-02T15:45:13Z</time></trkpt><trkpt lat="45.363200859697976" lon="7.558068938294302"><ele>1188.0</ele><time>2026-05-02T15:45:45Z</time></trkpt><trkpt lat="45.3631429101254" lon="7.558011019844986"><ele>1188.0</ele><time>2026-05-02T15:46:02.999Z</time></trkpt><trkpt lat="45.36310613833618" lon="7.5579335408800805"><ele>1188.0</ele><time>2026-05-02T15:46:06.999Z</time></trkpt><trkpt lat="45.36305486422409" lon="7.55785730725715"><ele>1188.0</ele><time>2026-05-02T15:46:34.999Z</time></trkpt><trkpt lat="45.36302244316708" lon="7.5577774293015905"><ele>1188.0</ele><time>2026-05-02T15:46:39.999Z</time></trkpt><trkpt lat="45.362985453611685" lon="7.557697633087759"><ele>1188.0</ele><time>2026-05-02T15:47:35Z</time></trkpt><trkpt lat="45.362958449584504" lon="7.557609714479356"><ele>1188.0</ele><time>2026-05-02T15:47:41Z</time></trkpt><trkpt lat="45.36294050453713" lon="7.557516901061378"><ele>1184.3333333333333</ele><time>2026-05-02T15:48:06Z</time></trkpt><trkpt lat="45.36293181374074" lon="7.557420555187465"><ele>1180.6666666666667</ele><time>2026-05-02T15:48:18Z</time></trkpt><trkpt lat="45.3629200408753" lon="7.557325488482229"><ele>1177.0</ele><time>2026-05-02T15:48:22Z</time></trkpt><trkpt lat="45.36288452540798" lon="7.557240200276128"><ele>1173.3333333333335</ele><time>2026-05-02T15:50:06Z</time></trkpt><trkpt lat="45.362931426211226" lon="7.557086619706319"><ele>1169.6666666666667</ele><time>2026-05-02T15:50:08Z</time></trkpt><trkpt lat="45.362981789752894" lon="7.556977043857952"><ele>1166.0</ele><time>2026-05-02T15:50:10Z</time></trkpt><trkpt lat="45.36302678616412" lon="7.556849374001027"><ele>1168.8333333333335</ele><time>2026-05-02T15:50:12Z</time></trkpt><trkpt lat="45.36308594815058" lon="7.556717774218327"><ele>1171.6666666666667</ele><time>2026-05-02T15:50:14Z</time></trkpt><trkpt lat="45.36309719630032" lon="7.5566027024940325"><ele>1174.5</ele><time>2026-05-02T15:50:16Z</time></trkpt><trkpt lat="45.36310224279463" lon="7.556497135288142"><ele>1177.3333333333333</ele><time>2026-05-02T15:50:17Z</time></trkpt><trkpt lat="45.363095061074894" lon="7.556403126531102"><ele>1180.1666666666665</ele><time>2026-05-02T15:50:18Z</time></trkpt><trkpt lat="45.363093757070004" lon="7.556303874887599"><ele>1183.0</ele><time>2026-05-02T15:50:19Z</time></trkpt><trkpt lat="45.36308144970885" lon="7.556139321671562"><ele>1183.0</ele><time>2026-05-02T15:50:21Z</time></trkpt><trkpt lat="45.36307683249868" lon="7.556042000716595"><ele>1183.0</ele><time>2026-05-02T15:50:22Z</time></trkpt><trkpt lat="45.36306621961794" lon="7.555906812235849"><ele>1183.0</ele><time>2026-05-02T15:50:24Z</time></trkpt><trkpt lat="45.36306124412003" lon="7.5557903459327145"><ele>1183.0</ele><time>2026-05-02T15:50:28Z</time></trkpt><trkpt lat="45.36303964177393" lon="7.555670979315131"><ele>1183.0</ele><time>2026-05-02T15:50:30Z</time></trkpt><trkpt lat="45.3630190295477" lon="7.555581799871711"><ele>1183.0</ele><time>2026-05-02T15:50:35Z</time></trkpt><trkpt lat="45.36292263389176" lon="7.555595883601548"><ele>1178.5</ele><time>2026-05-02T15:50:58Z</time></trkpt><trkpt lat="45.36295180671898" lon="7.555449939515617"><ele>1174.0</ele><time>2026-05-02T15:52:48Z</time></trkpt><trkpt lat="45.36290620415032" lon="7.555298089374165"><ele>1169.5</ele><time>2026-05-02T15:52:50Z</time></trkpt><trkpt lat="45.3628695041528" lon="7.555133375121278"><ele>1165.0</ele><time>2026-05-02T15:52:52Z</time></trkpt><trkpt lat="45.36280425720872" lon="7.5549868862342215"><ele>1165.0</ele><time>2026-05-02T15:52:54Z</time></trkpt><trkpt lat="45.36279187593673" lon="7.5548538052122245"><ele>1165.0</ele><time>2026-05-02T15:52:56Z</time></trkpt><trkpt lat="45.36280535458846" lon="7.554759874786848"><ele>1165.0</ele><time>2026-05-02T15:52:57Z</time></trkpt><trkpt lat="45.362800181598736" lon="7.554603040740766"><ele>1165.0</ele><time>2026-05-02T15:52:59Z</time></trkpt><trkpt lat="45.362743063240245" lon="7.554385831163119"><ele>1165.0</ele><time>2026-05-02T15:53:01Z</time></trkpt><trkpt lat="45.36257900397823" lon="7.554330556831514"><ele>1167.6666666666665</ele><time>2026-05-02T15:53:03Z</time></trkpt><trkpt lat="45.362344072252476" lon="7.554174434032006"><ele>1170.3333333333333</ele><time>2026-05-02T15:53:04Z</time></trkpt><trkpt lat="45.36228996009609" lon="7.55408993465807"><ele>1173.0</ele><time>2026-05-02T15:53:05Z</time></trkpt><trkpt lat="45.36220866622278" lon="7.553939737458841"><ele>1170.5</ele><time>2026-05-02T15:53:06Z</time></trkpt><trkpt lat="45.362139847716485" lon="7.553814641432376"><ele>1168.0</ele><time>2026-05-02T15:53:07Z</time></trkpt><trkpt lat="45.3620561710497" lon="7.55369367907259"><ele>1165.5</ele><time>2026-05-02T15:53:08Z</time></trkpt><trkpt lat="45.361941367170346" lon="7.553506542052592"><ele>1163.0</ele><time>2026-05-02T15:53:10Z</time></trkpt><trkpt lat="45.36189805122167" lon="7.553406791880471"><ele>1163.0</ele><time>2026-05-02T15:53:11Z</time></trkpt><trkpt lat="45.36185092432497" lon="7.5532497763024855"><ele>1163.0</ele><time>2026-05-02T15:53:12Z</time></trkpt><trkpt lat="45.36181950842553" lon="7.55312941640449"><ele>1163.0</ele><time>2026-05-02T15:53:13Z</time></trkpt><trkpt lat="45.361802262998225" lon="7.552994603008414"><ele>1163.0</ele><time>2026-05-02T15:53:14Z</time></trkpt><trkpt lat="45.361688569741915" lon="7.552748626763491"><ele>1164.8</ele><time>2026-05-02T15:53:15Z</time></trkpt><trkpt lat="45.36159114681606" lon="7.552659918902082"><ele>1166.6</ele><time>2026-05-02T15:53:18Z</time></trkpt><trkpt lat="45.36147687209959" lon="7.552649951852055"><ele>1168.4</ele><time>2026-05-02T15:53:19Z</time></trkpt><trkpt lat="45.361406063761265" lon="7.552580379163579"><ele>1170.2</ele><time>2026-05-02T15:53:20Z</time></trkpt><trkpt lat="45.3613612724671" lon="7.552511602558697"><ele>1172.0</ele><time>2026-05-02T15:53:21Z</time></trkpt><trkpt lat="45.36132622015054" lon="7.552302136508741"><ele>1169.0</ele><time>2026-05-02T15:53:23Z</time></trkpt><trkpt lat="45.361308318283335" lon="7.552122441881861"><ele>1166.0</ele><time>2026-05-02T15:53:24Z</time></trkpt><trkpt lat="45.36131040614552" lon="7.551964270191891"><ele>1163.0</ele><time>2026-05-02T15:53:25Z</time></trkpt><trkpt lat="45.36131508814387" lon="7.551802587461465"><ele>1160.0</ele><time>2026-05-02T15:53:26Z</time></trkpt><trkpt lat="45.36135008510204" lon="7.551924048403379"><ele>1157.0</ele><time>2026-05-02T15:53:28Z</time></trkpt><trkpt lat="45.36129592730005" lon="7.551864048565403"><ele>1157.0</ele><time>2026-05-02T15:53:33Z</time></trkpt><trkpt lat="45.36132944158224" lon="7.55196317421579"><ele>1157.0</ele><time>2026-05-02T15:54:28Z</time></trkpt><trkpt lat="45.361339697025116" lon="7.552281830873249"><ele>1157.0</ele><time>2026-05-02T15:54:30Z</time></trkpt><trkpt lat="45.361350472566585" lon="7.552401331611833"><ele>1157.0</ele><time>2026-05-02T15:54:31Z</time></trkpt><trkpt lat="45.36136759113083" lon="7.552495692619864"><ele>1158.2</ele><time>2026-05-02T15:54:32Z</time></trkpt><trkpt lat="45.361401650764755" lon="7.552599876600073"><ele>1159.4</ele><time>2026-05-02T15:54:33Z</time></trkpt><trkpt lat="45.361460205237975" lon="7.552679343390633"><ele>1160.6</ele><time>2026-05-02T15:54:34Z</time></trkpt><trkpt lat="45.36153529633673" lon="7.552757907826988"><ele>1161.8</ele><time>2026-05-02T15:54:35Z</time></trkpt><trkpt lat="45.361671697175886" lon="7.55283544352135"><ele>1163.0</ele><time>2026-05-02T15:54:36Z</time></trkpt><trkpt lat="45.3617575127095" lon="7.552908634822839"><ele>1163.0</ele><time>2026-05-02T15:54:37Z</time></trkpt><trkpt lat="45.361830464629726" lon="7.552992387574085"><ele>1163.0</ele><time>2026-05-02T15:54:38Z</time></trkpt><trkpt lat="45.361903844092964" lon="7.553110221670834"><ele>1163.0</ele><time>2026-05-02T15:54:40Z</time></trkpt><trkpt lat="45.36192460352416" lon="7.55327388681184"><ele>1163.0</ele><time>2026-05-02T15:54:41Z</time></trkpt><trkpt lat="45.36194209884863" lon="7.553403870013499"><ele>1163.0</ele><time>2026-05-02T15:54:42Z</time></trkpt><trkpt lat="45.36197446749673" lon="7.5535707388510875"><ele>1163.0</ele><time>2026-05-02T15:54:43Z</time></trkpt><trkpt lat="45.36202593756923" lon="7.5536632244667015"><ele>1163.0</ele><time>2026-05-02T15:54:44Z</time></trkpt><trkpt lat="45.36208629244662" lon="7.553772452660524"><ele>1163.0</ele><time>2026-05-02T15:54:45Z</time></trkpt><trkpt lat="45.362145410748205" lon="7.553880625986793"><ele>1163.0</ele><time>2026-05-02T15:54:46Z</time></trkpt><trkpt lat="45.362218355887606" lon="7.554010754283591"><ele>1163.0</ele><time>2026-05-02T15:54:47Z</time></trkpt><trkpt lat="45.36226519171195" lon="7.554089439680234"><ele>1165.0</ele><time>2026-05-02T15:54:48Z</time></trkpt><trkpt lat="45.36233257509066" lon="7.554192282263792"><ele>1167.0</ele><time>2026-05-02T15:54:49Z</time></trkpt><trkpt lat="45.36242507498215" lon="7.55431167948941"><ele>1169.0</ele><time>2026-05-02T15:54:50Z</time></trkpt><trkpt lat="45.36250209113209" lon="7.554421547719218"><ele>1171.0</ele><time>2026-05-02T15:54:51Z</time></trkpt><trkpt lat="45.36256075558917" lon="7.554462611151098"><ele>1173.0</ele><time>2026-05-02T15:54:52Z</time></trkpt><trkpt lat="45.36264520789894" lon="7.554502166990275"><ele>1171.4</ele><time>2026-05-02T15:54:53Z</time></trkpt><trkpt lat="45.36272216920086" lon="7.55463099045301"><ele>1169.8</ele><time>2026-05-02T15:54:56Z</time></trkpt><trkpt lat="45.36276149845958" lon="7.554745988122139"><ele>1168.2</ele><time>2026-05-02T15:54:57Z</time></trkpt><trkpt lat="45.3628070090788" lon="7.5548761256072705"><ele>1166.6</ele><time>2026-05-02T15:54:58Z</time></trkpt><trkpt lat="45.36283898853263" lon="7.555029527525848"><ele>1165.0</ele><time>2026-05-02T15:54:59Z</time></trkpt><trkpt lat="45.36285353264928" lon="7.555175827233509"><ele>1165.0</ele><time>2026-05-02T15:55:00Z</time></trkpt><trkpt lat="45.36292393146927" lon="7.555335250485809"><ele>1165.0</ele><time>2026-05-02T15:55:02Z</time></trkpt><trkpt lat="45.36297144623346" lon="7.555469950596958"><ele>1165.0</ele><time>2026-05-02T15:55:03Z</time></trkpt><trkpt lat="45.363035686176744" lon="7.555583082038656"><ele>1165.0</ele><time>2026-05-02T15:55:04Z</time></trkpt><trkpt lat="45.36305073961897" lon="7.555672158953378"><ele>1165.0</ele><time>2026-05-02T15:55:05Z</time></trkpt><trkpt lat="45.36308920770626" lon="7.555802081834251"><ele>1168.6</ele><time>2026-05-02T15:55:06Z</time></trkpt><trkpt lat="45.36310502439025" lon="7.555946131267323"><ele>1172.2</ele><time>2026-05-02T15:55:07Z</time></trkpt><trkpt lat="45.363101554695106" lon="7.556066663121759"><ele>1175.8</ele><time>2026-05-02T15:55:08Z</time></trkpt><trkpt lat="45.363114818843876" lon="7.556238630868224"><ele>1179.4</ele><time>2026-05-02T15:55:09Z</time></trkpt><trkpt lat="45.363111128753914" lon="7.556360486009246"><ele>1183.0</ele><time>2026-05-02T15:55:10Z</time></trkpt><trkpt lat="45.36307879723418" lon="7.55649298799414"><ele>1183.1666666666665</ele><time>2026-05-02T15:55:11Z</time></trkpt><trkpt lat="45.36307928295145" lon="7.556594026083803"><ele>1183.3333333333333</ele><time>2026-05-02T15:55:12Z</time></trkpt><trkpt lat="45.36305587205356" lon="7.556680614457894"><ele>1183.5</ele><time>2026-05-02T15:55:13Z</time></trkpt><trkpt lat="45.363061330311986" lon="7.556836214959638"><ele>1183.6666666666667</ele><time>2026-05-02T15:55:14Z</time></trkpt><trkpt lat="45.3630390311221" lon="7.556967425407846"><ele>1183.8333333333335</ele><time>2026-05-02T15:55:15Z</time></trkpt><trkpt lat="45.36299709424373" lon="7.557061494926477"><ele>1184.0</ele><time>2026-05-02T15:55:16Z</time></trkpt><trkpt lat="45.3629358295902" lon="7.557180399776208"><ele>1184.6666666666667</ele><time>2026-05-02T15:55:17Z</time></trkpt><trkpt lat="45.36292179341897" lon="7.557289858069614"><ele>1185.3333333333335</ele><time>2026-05-02T15:55:19Z</time></trkpt><trkpt lat="45.3628864386884" lon="7.557392962000703"><ele>1186.0</ele><time>2026-05-02T15:55:21Z</time></trkpt><trkpt lat="45.36291580401748" lon="7.5575246301965295"><ele>1186.6666666666667</ele><time>2026-05-02T15:55:24Z</time></trkpt><trkpt lat="45.36295512638468" lon="7.557651647166541"><ele>1187.3333333333333</ele><time>2026-05-02T15:55:28Z</time></trkpt><trkpt lat="45.36300449843226" lon="7.55773887237783"><ele>1188.0</ele><time>2026-05-02T15:55:30Z</time></trkpt><trkpt lat="45.363045675049555" lon="7.557840157087446"><ele>1191.0</ele><time>2026-05-02T15:55:32Z</time></trkpt><trkpt lat="45.36311201417806" lon="7.557950051162702"><ele>1194.0</ele><time>2026-05-02T15:55:34Z</time></trkpt><trkpt lat="45.363206200086154" lon="7.558071463702137"><ele>1197.0</ele><time>2026-05-02T15:55:36Z</time></trkpt><trkpt lat="45.36328957375082" lon="7.558131519989316"><ele>1200.0</ele><time>2026-05-02T15:55:38Z</time></trkpt><trkpt lat="45.3633938990061" lon="7.55818196742174"><ele>1203.0</ele><time>2026-05-02T15:55:40Z</time></trkpt><trkpt lat="45.36349305335869" lon="7.558206666638735"><ele>1203.0</ele><time>2026-05-02T15:55:42Z</time></trkpt><trkpt lat="45.36357110000503" lon="7.558225039698621"><ele>1203.0</ele><time>2026-05-02T15:55:43Z</time></trkpt><trkpt lat="45.363668083541796" lon="7.558236284615122"><ele>1203.0</ele><time>2026-05-02T15:55:44Z</time></trkpt><trkpt lat="45.36375239725392" lon="7.558246236005394"><ele>1203.0</ele><time>2026-05-02T15:55:45Z</time></trkpt><trkpt lat="45.36387236229411" lon="7.558273423511369"><ele>1203.0</ele><time>2026-05-02T15:55:47Z</time></trkpt><trkpt lat="45.36393450502366" lon="7.558310183912014"><ele>1205.8</ele><time>2026-05-02T15:55:49Z</time></trkpt><trkpt lat="45.3639262543954" lon="7.558415621001121"><ele>1208.6</ele><time>2026-05-02T15:55:53Z</time></trkpt><trkpt lat="45.3639020192763" lon="7.558536473779917"><ele>1211.4</ele><time>2026-05-02T15:55:55Z</time></trkpt><trkpt lat="45.36389287530615" lon="7.558676710476081"><ele>1214.2</ele><time>2026-05-02T15:55:57Z</time></trkpt><trkpt lat="45.36390410029851" lon="7.558829293150153"><ele>1217.0</ele><time>2026-05-02T15:55:59Z</time></trkpt><trkpt lat="45.363928081590345" lon="7.5589392718950545"><ele>1218.0</ele><time>2026-05-02T15:56:01Z</time></trkpt><trkpt lat="45.36393734188704" lon="7.559028953039952"><ele>1219.0</ele><time>2026-05-02T15:56:07Z</time></trkpt><trkpt lat="45.36391270494839" lon="7.559118131970023"><ele>1220.0</ele><time>2026-05-02T15:56:10Z</time></trkpt><trkpt lat="45.3638467296473" lon="7.5592021217145415"><ele>1221.0</ele><time>2026-05-02T15:56:13Z</time></trkpt><trkpt lat="45.36377447118441" lon="7.559242945061746"><ele>1222.0</ele><time>2026-05-02T15:56:15Z</time></trkpt><trkpt lat="45.36368062173015" lon="7.559281035654876"><ele>1223.0</ele><time>2026-05-02T15:56:18Z</time></trkpt><trkpt lat="45.36361618545682" lon="7.559330967823433"><ele>1223.0</ele><time>2026-05-02T15:56:19Z</time></trkpt><trkpt lat="45.363568205856666" lon="7.559414748270679"><ele>1223.0</ele><time>2026-05-02T15:56:22Z</time></trkpt><trkpt lat="45.36356922450454" lon="7.559515474417186"><ele>1223.0</ele><time>2026-05-02T15:56:24Z</time></trkpt><trkpt lat="45.36350217771904" lon="7.5595450068106285"><ele>1223.0</ele><time>2026-05-02T15:56:25Z</time></trkpt><trkpt lat="45.36342157975148" lon="7.559569968082879"><ele>1223.0</ele><time>2026-05-02T15:56:27Z</time></trkpt><trkpt lat="45.36335009435513" lon="7.559606800461136"><ele>1223.0</ele><time>2026-05-02T15:56:29Z</time></trkpt><trkpt lat="45.3633033499071" lon="7.5597361691325755"><ele>1223.8333333333335</ele><time>2026-05-02T15:59:43Z</time></trkpt><trkpt lat="45.36323981983338" lon="7.559774184494423"><ele>1224.6666666666667</ele><time>2026-05-02T15:59:56.999Z</time></trkpt><trkpt lat="45.36319620340357" lon="7.559847361475624"><ele>1225.5</ele><time>2026-05-02T15:59:59.999Z</time></trkpt><trkpt lat="45.3631517324014" lon="7.559925559884549"><ele>1226.3333333333333</ele><time>2026-05-02T16:00:01.999Z</time></trkpt><trkpt lat="45.363097899487535" lon="7.560008559976498"><ele>1227.1666666666665</ele><time>2026-05-02T16:00:21.999Z</time></trkpt><trkpt lat="45.36304529469146" lon="7.56011239624908"><ele>1228.0</ele><time>2026-05-02T16:00:24.999Z</time></trkpt><trkpt lat="45.36304032474143" lon="7.560244880041101"><ele>1224.0</ele><time>2026-05-02T16:00:29.999Z</time></trkpt><trkpt lat="45.36302092053148" lon="7.560384124000265"><ele>1220.0</ele><time>2026-05-02T16:00:31.999Z</time></trkpt><trkpt lat="45.36300058545051" lon="7.5604841696586345"><ele>1216.0</ele><time>2026-05-02T16:00:32.999Z</time></trkpt><trkpt lat="45.36299001834942" lon="7.560589810496223"><ele>1212.0</ele><time>2026-05-02T16:00:35.999Z</time></trkpt><trkpt lat="45.36293020922994" lon="7.5607353524440875"><ele>1208.0</ele><time>2026-05-02T16:00:37.999Z</time></trkpt><trkpt lat="45.36282967681079" lon="7.560867405062771"><ele>1208.0</ele><time>2026-05-02T16:00:39.999Z</time></trkpt><trkpt lat="45.36274577086554" lon="7.560976877456"><ele>1208.0</ele><time>2026-05-02T16:00:41.999Z</time></trkpt><trkpt lat="45.362675675641775" lon="7.561056575965394"><ele>1208.0</ele><time>2026-05-02T16:00:43.999Z</time></trkpt><trkpt lat="45.362604195183465" lon="7.561144837542004"><ele>1208.0</ele><time>2026-05-02T16:00:45.999Z</time></trkpt><trkpt lat="45.36255946253817" lon="7.561222057606584"><ele>1208.0</ele><time>2026-05-02T16:00:47.999Z</time></trkpt><trkpt lat="45.36249897698739" lon="7.561274091921384"><ele>1208.0</ele><time>2026-05-02T16:00:49.999Z</time></trkpt><trkpt lat="45.36245181870955" lon="7.561346254516359"><ele>1207.1666666666667</ele><time>2026-05-02T16:00:51.999Z</time></trkpt><trkpt lat="45.36244110417702" lon="7.561448650539792"><ele>1206.3333333333335</ele><time>2026-05-02T16:00:53.999Z</time></trkpt><trkpt lat="45.36247937568709" lon="7.561551723454912"><ele>1205.5</ele><time>2026-05-02T16:00:56.999Z</time></trkpt><trkpt lat="45.362497192581735" lon="7.561683367742284"><ele>1204.6666666666667</ele><time>2026-05-02T16:00:59.999Z</time></trkpt><trkpt lat="45.362518038840165" lon="7.561793431052992"><ele>1203.8333333333333</ele><time>2026-05-02T16:01:02.999Z</time></trkpt><trkpt lat="45.362517305935754" lon="7.56194359237511"><ele>1203.0</ele><time>2026-05-02T16:01:04.999Z</time></trkpt><trkpt lat="45.36250438343176" lon="7.562035270246383"><ele>1199.4</ele><time>2026-05-02T16:01:05.999Z</time></trkpt><trkpt lat="45.362493307403525" lon="7.562182923300299"><ele>1195.8</ele><time>2026-05-02T16:01:07.999Z</time></trkpt><trkpt lat="45.36250040268632" lon="7.56233494319989"><ele>1192.2</ele><time>2026-05-02T16:01:09.999Z</time></trkpt><trkpt lat="45.36249938790462" lon="7.562471119599272"><ele>1188.6</ele><time>2026-05-02T16:01:11.999Z</time></trkpt><trkpt lat="45.36251659699647" lon="7.5626272120740845"><ele>1185.0</ele><time>2026-05-02T16:01:13.999Z</time></trkpt><trkpt lat="45.36249320368955" lon="7.56272162583204"><ele>1182.5</ele><time>2026-05-02T16:01:16.999Z</time></trkpt><trkpt lat="45.36244432643973" lon="7.562918407017877"><ele>1180.0</ele><time>2026-05-02T16:01:19.999Z</time></trkpt><trkpt lat="45.36244218127361" lon="7.563075656082566"><ele>1177.5</ele><time>2026-05-02T16:01:21.999Z</time></trkpt><trkpt lat="45.36242992101136" lon="7.5633204083210686"><ele>1175.0</ele><time>2026-05-02T16:01:23.999Z</time></trkpt><trkpt lat="45.36244761261866" lon="7.563450948748792"><ele>1175.0</ele><time>2026-05-02T16:01:24.999Z</time></trkpt><trkpt lat="45.36247096378714" lon="7.563578303460023"><ele>1175.0</ele><time>2026-05-02T16:01:25.999Z</time></trkpt><trkpt lat="45.36249787785428" lon="7.563691429387267"><ele>1175.0</ele><time>2026-05-02T16:01:26.999Z</time></trkpt><trkpt lat="45.36250007770893" lon="7.56382308032619"><ele>1175.0</ele><time>2026-05-02T16:01:28.999Z</time></trkpt><trkpt lat="45.3624613799298" lon="7.5639130285302905"><ele>1175.0</ele><time>2026-05-02T16:01:30.999Z</time></trkpt><trkpt lat="45.36244325330417" lon="7.564035533036641"><ele>1175.0</ele><time>2026-05-02T16:01:33.999Z</time></trkpt><trkpt lat="45.36244435861457" lon="7.564162725662322"><ele>1173.6</ele><time>2026-05-02T16:01:35.999Z</time></trkpt><trkpt lat="45.36245502032147" lon="7.564326956286576"><ele>1172.2</ele><time>2026-05-02T16:01:37.999Z</time></trkpt><trkpt lat="45.36242910197633" lon="7.564465998656927"><ele>1170.8</ele><time>2026-05-02T16:01:39.999Z</time></trkpt><trkpt lat="45.36237112629417" lon="7.564584271314165"><ele>1169.4</ele><time>2026-05-02T16:01:41.999Z</time></trkpt><trkpt lat="45.36239557433541" lon="7.564759279417916"><ele>1168.0</ele><time>2026-05-02T16:01:44.999Z</time></trkpt><trkpt lat="45.36239212588425" lon="7.564894649274332"><ele>1166.6666666666665</ele><time>2026-05-02T16:01:45.999Z</time></trkpt><trkpt lat="45.362364005380236" lon="7.565019268232515"><ele>1165.3333333333333</ele><time>2026-05-02T16:01:46.999Z</time></trkpt><trkpt lat="45.36235020482009" lon="7.565113983215035"><ele>1164.0</ele><time>2026-05-02T16:01:47.999Z</time></trkpt><trkpt lat="45.36237516888077" lon="7.565273637092352"><ele>1162.6666666666667</ele><time>2026-05-02T16:01:49.999Z</time></trkpt><trkpt lat="45.36233805793826" lon="7.565382108067157"><ele>1161.3333333333335</ele><time>2026-05-02T16:01:53Z</time></trkpt><trkpt lat="45.362344176280665" lon="7.565497403705592"><ele>1160.0</ele><time>2026-05-02T16:01:57Z</time></trkpt><trkpt lat="45.36237204124856" lon="7.565646113099963"><ele>1159.2</ele><time>2026-05-02T16:02:00Z</time></trkpt><trkpt lat="45.36242756829646" lon="7.565778854246891"><ele>1158.4</ele><time>2026-05-02T16:02:02Z</time></trkpt><trkpt lat="45.362470077200186" lon="7.565895230352373"><ele>1157.6</ele><time>2026-05-02T16:02:04Z</time></trkpt><trkpt lat="45.36250953703929" lon="7.5660214619830874"><ele>1156.8</ele><time>2026-05-02T16:02:07Z</time></trkpt><trkpt lat="45.36251166209968" lon="7.566111755181571"><ele>1156.0</ele><time>2026-05-02T16:02:10Z</time></trkpt><trkpt lat="45.362553730701755" lon="7.566224259086382"><ele>1155.8</ele><time>2026-05-02T16:02:13Z</time></trkpt><trkpt lat="45.36254765975424" lon="7.566375193869855"><ele>1155.6</ele><time>2026-05-02T16:02:17Z</time></trkpt><trkpt lat="45.36248790097492" lon="7.566514681700779"><ele>1155.4</ele><time>2026-05-02T16:02:21Z</time></trkpt><trkpt lat="45.362418150800885" lon="7.566654056525903"><ele>1155.2</ele><time>2026-05-02T16:02:23Z</time></trkpt><trkpt lat="45.36238923644235" lon="7.566790873597194"><ele>1155.0</ele><time>2026-05-02T16:02:25Z</time></trkpt><trkpt lat="45.36236927777726" lon="7.56694079735033"><ele>1153.3333333333333</ele><time>2026-05-02T16:02:27Z</time></trkpt><trkpt lat="45.36235460389508" lon="7.567046326048132"><ele>1151.6666666666667</ele><time>2026-05-02T16:02:29Z</time></trkpt><trkpt lat="45.36240214735125" lon="7.567107064758533"><ele>1150.0</ele><time>2026-05-02T16:02:31Z</time></trkpt><trkpt lat="45.3624293595876" lon="7.567216174887918"><ele>1148.3333333333335</ele><time>2026-05-02T16:02:34Z</time></trkpt><trkpt lat="45.362460820924326" lon="7.567333826675799"><ele>1146.6666666666667</ele><time>2026-05-02T16:02:37Z</time></trkpt><trkpt lat="45.362484758557834" lon="7.567478510198998"><ele>1145.0</ele><time>2026-05-02T16:02:41Z</time></trkpt><trkpt lat="45.36248950425454" lon="7.5675734483055725"><ele>1145.0</ele><time>2026-05-02T16:02:43Z</time></trkpt><trkpt lat="45.362479402969264" lon="7.567663213605573"><ele>1145.0</ele><time>2026-05-02T16:02:45Z</time></trkpt><trkpt lat="45.36247964859316" lon="7.567774621989252"><ele>1145.0</ele><time>2026-05-02T16:02:48Z</time></trkpt><trkpt lat="45.3624778292718" lon="7.567886586679894"><ele>1145.0</ele><time>2026-05-02T16:02:51Z</time></trkpt><trkpt lat="45.362436589198616" lon="7.567974232508391"><ele>1145.0</ele><time>2026-05-02T16:02:54Z</time></trkpt><trkpt lat="45.36240085106253" lon="7.568064624064989"><ele>1145.0</ele><time>2026-05-02T16:02:56Z</time></trkpt><trkpt lat="45.362359789736125" lon="7.568165594753536"><ele>1143.8</ele><time>2026-05-02T16:02:58Z</time></trkpt><trkpt lat="45.36232212101823" lon="7.5682908924439625"><ele>1142.6</ele><time>2026-05-02T16:03:00Z</time></trkpt><trkpt lat="45.362301263790584" lon="7.568389574083817"><ele>1141.4</ele><time>2026-05-02T16:03:02Z</time></trkpt><trkpt lat="45.36225773966577" lon="7.568523266745646"><ele>1140.2</ele><time>2026-05-02T16:03:04Z</time></trkpt><trkpt lat="45.36220931871965" lon="7.568640152424591"><ele>1139.0</ele><time>2026-05-02T16:03:06Z</time></trkpt><trkpt lat="45.36219615988056" lon="7.568779477746801"><ele>1136.1666666666667</ele><time>2026-05-02T16:03:09Z</time></trkpt><trkpt lat="45.362199405989266" lon="7.568887878595203"><ele>1133.3333333333335</ele><time>2026-05-02T16:03:12Z</time></trkpt><trkpt lat="45.36217150362663" lon="7.568984313932783"><ele>1130.5</ele><time>2026-05-02T16:03:13Z</time></trkpt><trkpt lat="45.362156644063695" lon="7.569101158928094"><ele>1127.6666666666667</ele><time>2026-05-02T16:03:15Z</time></trkpt><trkpt lat="45.362137607687686" lon="7.569208271155169"><ele>1124.8333333333333</ele><time>2026-05-02T16:03:17Z</time></trkpt><trkpt lat="45.362119059170716" lon="7.569323517368341"><ele>1122.0</ele><time>2026-05-02T16:03:19Z</time></trkpt><trkpt lat="45.362080646058054" lon="7.569442750183581"><ele>1118.1666666666667</ele><time>2026-05-02T16:03:21Z</time></trkpt><trkpt lat="45.362080598946314" lon="7.569591597903031"><ele>1114.3333333333333</ele><time>2026-05-02T16:04:01.001Z</time></trkpt><trkpt lat="45.362072739772636" lon="7.569698062892075"><ele>1110.5</ele><time>2026-05-02T16:04:39Z</time></trkpt><trkpt lat="45.362111688302306" lon="7.569803371096898"><ele>1106.6666666666665</ele><time>2026-05-02T16:04:42Z</time></trkpt><trkpt lat="45.362175084624496" lon="7.569834551583617"><ele>1102.8333333333333</ele><time>2026-05-02T16:05:06Z</time></trkpt><trkpt lat="45.362200032020816" lon="7.569920729942676"><ele>1099.0</ele><time>2026-05-02T16:05:12Z</time></trkpt><trkpt lat="45.362218522802955" lon="7.570038834974948"><ele>1099.0</ele><time>2026-05-02T16:05:17Z</time></trkpt><trkpt lat="45.3622262459241" lon="7.570136706832187"><ele>1099.0</ele><time>2026-05-02T16:05:20Z</time></trkpt><trkpt lat="45.3622352834874" lon="7.57025876234597"><ele>1099.0</ele><time>2026-05-02T16:05:25Z</time></trkpt><trkpt lat="45.36225356732303" lon="7.570351225196484"><ele>1099.0</ele><time>2026-05-02T16:05:27Z</time></trkpt><trkpt lat="45.36223609917959" lon="7.57048503926414"><ele>1099.0</ele><time>2026-05-02T16:05:30Z</time></trkpt><trkpt lat="45.36225149272243" lon="7.570591650371609"><ele>1099.0</ele><time>2026-05-02T16:05:33Z</time></trkpt><trkpt lat="45.36222687681885" lon="7.570695009745875"><ele>1094.2</ele><time>2026-05-02T16:05:35Z</time></trkpt><trkpt lat="45.362209932372984" lon="7.5708292375787245"><ele>1089.4</ele><time>2026-05-02T16:05:38Z</time></trkpt><trkpt lat="45.36219397021579" lon="7.570942349622271"><ele>1084.6</ele><time>2026-05-02T16:05:40Z</time></trkpt><trkpt lat="45.36221247154334" lon="7.5710940066122205"><ele>1079.8</ele><time>2026-05-02T16:05:44Z</time></trkpt><trkpt lat="45.36217389154205" lon="7.571203172635755"><ele>1075.0</ele><time>2026-05-02T16:05:47Z</time></trkpt><trkpt lat="45.36215540136116" lon="7.571333031347745"><ele>1068.4</ele><time>2026-05-02T16:05:50Z</time></trkpt><trkpt lat="45.36213678578563" lon="7.57145381148808"><ele>1061.8</ele><time>2026-05-02T16:05:52Z</time></trkpt><trkpt lat="45.362115975660345" lon="7.5715671288855875"><ele>1055.2</ele><time>2026-05-02T16:05:54Z</time></trkpt><trkpt lat="45.36214069381543" lon="7.571717069894679"><ele>1048.6</ele><time>2026-05-02T16:05:56Z</time></trkpt><trkpt lat="45.36213639311347" lon="7.57189342958544"><ele>1042.0</ele><time>2026-05-02T16:05:58Z</time></trkpt><trkpt lat="45.362136144176986" lon="7.572050848981412"><ele>1039.6666666666665</ele><time>2026-05-02T16:06:00Z</time></trkpt><trkpt lat="45.36213523081222" lon="7.572142146235029"><ele>1037.3333333333333</ele><time>2026-05-02T16:06:01Z</time></trkpt><trkpt lat="45.362135476693354" lon="7.57226014604544"><ele>1035.0</ele><time>2026-05-02T16:06:02.999Z</time></trkpt><trkpt lat="45.3621297859922" lon="7.572355509599861"><ele>1032.6666666666667</ele><time>2026-05-02T16:06:04.999Z</time></trkpt><trkpt lat="45.36214487178028" lon="7.572469780988284"><ele>1030.3333333333335</ele><time>2026-05-02T16:06:07.999Z</time></trkpt><trkpt lat="45.36218009101255" lon="7.572570354732755"><ele>1028.0</ele><time>2026-05-02T16:06:10.999Z</time></trkpt><trkpt lat="45.362153444355734" lon="7.572690958112953"><ele>1028.0</ele><time>2026-05-02T16:06:12.999Z</time></trkpt><trkpt lat="45.362128012362305" lon="7.572786439555557"><ele>1028.0</ele><time>2026-05-02T16:06:16Z</time></trkpt><trkpt lat="45.362098360284755" lon="7.572900787568388"><ele>1028.0</ele><time>2026-05-02T16:06:18Z</time></trkpt><trkpt lat="45.36206296437235" lon="7.5729806814542995"><ele>1028.0</ele><time>2026-05-02T16:06:20Z</time></trkpt><trkpt lat="45.36199808440389" lon="7.573050718767683"><ele>1028.0</ele><time>2026-05-02T16:06:22Z</time></trkpt><trkpt lat="45.36193946986438" lon="7.573108111258796"><ele>1028.0</ele><time>2026-05-02T16:06:25Z</time></trkpt><trkpt lat="45.36188702777886" lon="7.573158207972382"><ele>1028.0</ele><time>2026-05-02T16:06:28Z</time></trkpt><trkpt lat="45.3618186896677" lon="7.573179565237149"><ele>1027.5</ele><time>2026-05-02T16:06:32Z</time></trkpt><trkpt lat="45.36177911909885" lon="7.573265317359735"><ele>1027.0</ele><time>2026-05-02T16:07:02Z</time></trkpt><trkpt lat="45.36174973073077" lon="7.573349034442992"><ele>1026.5</ele><time>2026-05-02T16:07:05Z</time></trkpt><trkpt lat="45.36172450677225" lon="7.573452813047392"><ele>1026.0</ele><time>2026-05-02T16:07:08Z</time></trkpt><trkpt lat="45.36168271929509" lon="7.573562695422291"><ele>1025.5</ele><time>2026-05-02T16:07:10Z</time></trkpt><trkpt lat="45.36161487346959" lon="7.573664127477379"><ele>1025.0</ele><time>2026-05-02T16:07:13Z</time></trkpt><trkpt lat="45.36157470208934" lon="7.57375281582998"><ele>1022.8571428571427</ele><time>2026-05-02T16:07:16Z</time></trkpt><trkpt lat="45.36157035660854" lon="7.5738690564523115"><ele>1020.7142857142857</ele><time>2026-05-02T16:07:20Z</time></trkpt><trkpt lat="45.36155463176419" lon="7.573974817932173"><ele>1018.5714285714284</ele><time>2026-05-02T16:07:23Z</time></trkpt><trkpt lat="45.36154542656651" lon="7.5740866228793156"><ele>1016.4285714285713</ele><time>2026-05-02T16:07:24Z</time></trkpt><trkpt lat="45.36152418211915" lon="7.574182173534543"><ele>1014.2857142857142</ele><time>2026-05-02T16:07:25Z</time></trkpt><trkpt lat="45.36150290580864" lon="7.574277845190363"><ele>1012.1428571428571</ele><time>2026-05-02T16:07:27Z</time></trkpt><trkpt lat="45.36150250320472" lon="7.574375854951555"><ele>1010.0</ele><time>2026-05-02T16:07:29Z</time></trkpt><trkpt lat="45.361511091491124" lon="7.574470038043622"><ele>1008.1428571428571</ele><time>2026-05-02T16:07:31Z</time></trkpt><trkpt lat="45.36152002560795" lon="7.574576430815695"><ele>1006.2857142857142</ele><time>2026-05-02T16:07:34Z</time></trkpt><trkpt lat="45.36150661466932" lon="7.574667368398577"><ele>1004.4285714285713</ele><time>2026-05-02T16:07:36Z</time></trkpt><trkpt lat="45.36148680410205" lon="7.574759869686233"><ele>1002.5714285714284</ele><time>2026-05-02T16:07:38Z</time></trkpt><trkpt lat="45.36143105332458" lon="7.574848809700719"><ele>1000.7142857142857</ele><time>2026-05-02T16:07:42Z</time></trkpt><trkpt lat="45.361436902902966" lon="7.574944588788353"><ele>998.8571428571427</ele><time>2026-05-02T16:07:56Z</time></trkpt><trkpt lat="45.3613752816281" lon="7.574971773946481"><ele>996.9999999999999</ele><time>2026-05-02T16:08:24Z</time></trkpt><trkpt lat="45.3613231473434" lon="7.575061169079999"><ele>994.3333333333333</ele><time>2026-05-02T16:08:42Z</time></trkpt><trkpt lat="45.36130972825986" lon="7.575163414913498"><ele>991.6666666666666</ele><time>2026-05-02T16:08:46Z</time></trkpt><trkpt lat="45.361267187818754" lon="7.575247890209375"><ele>989.0</ele><time>2026-05-02T16:08:49Z</time></trkpt><trkpt lat="45.36123675250259" lon="7.575331525398345"><ele>986.3333333333333</ele><time>2026-05-02T16:08:54Z</time></trkpt><trkpt lat="45.361170750243815" lon="7.575369077609174"><ele>983.6666666666666</ele><time>2026-05-02T16:08:58Z</time></trkpt><trkpt lat="45.36113421807861" lon="7.5754594205082"><ele>981.0</ele><time>2026-05-02T16:09:02Z</time></trkpt><trkpt lat="45.36111813842569" lon="7.575608708620155"><ele>980.8</ele><time>2026-05-02T16:09:06Z</time></trkpt><trkpt lat="45.36105342978784" lon="7.5757131792714425"><ele>980.5999999999999</ele><time>2026-05-02T16:09:08Z</time></trkpt><trkpt lat="45.36102885286098" lon="7.575815072911656"><ele>980.4</ele><time>2026-05-02T16:09:10Z</time></trkpt><trkpt lat="45.36098992278308" lon="7.575958663321355"><ele>980.2</ele><time>2026-05-02T16:09:12Z</time></trkpt><trkpt lat="45.36093955153793" lon="7.576065718362779"><ele>980.0</ele><time>2026-05-02T16:09:14Z</time></trkpt><trkpt lat="45.36088998070111" lon="7.576215837088548"><ele>978.8333333333334</ele><time>2026-05-02T16:09:16Z</time></trkpt><trkpt lat="45.360872534283175" lon="7.5763257307846965"><ele>977.6666666666667</ele><time>2026-05-02T16:09:17Z</time></trkpt><trkpt lat="45.36083853929986" lon="7.5764247054671205"><ele>976.5</ele><time>2026-05-02T16:09:19Z</time></trkpt><trkpt lat="45.3608286425785" lon="7.576551663459516"><ele>975.3333333333333</ele><time>2026-05-02T16:09:21Z</time></trkpt><trkpt lat="45.36081984022803" lon="7.576660677823161"><ele>974.1666666666666</ele><time>2026-05-02T16:09:22Z</time></trkpt><trkpt lat="45.36080248858072" lon="7.576803675056756"><ele>973.0</ele><time>2026-05-02T16:09:24Z</time></trkpt><trkpt lat="45.36079763027713" lon="7.576926818357875"><ele>972.5999999999999</ele><time>2026-05-02T16:09:27Z</time></trkpt><trkpt lat="45.36079071056542" lon="7.577079599183662"><ele>972.1999999999999</ele><time>2026-05-02T16:09:30Z</time></trkpt><trkpt lat="45.36077906414722" lon="7.577207091811151"><ele>971.8</ele><time>2026-05-02T16:09:32Z</time></trkpt><trkpt lat="45.36076855405757" lon="7.577353856943716"><ele>971.4</ele><time>2026-05-02T16:09:34Z</time></trkpt><trkpt lat="45.3608098273521" lon="7.577438675119539"><ele>971.0</ele><time>2026-05-02T16:09:38Z</time></trkpt><trkpt lat="45.36077879628353" lon="7.577546024502708"><ele>971.0000000000001</ele><time>2026-05-02T16:09:40Z</time></trkpt><trkpt lat="45.360799123169585" lon="7.577675872048033"><ele>971.0</ele><time>2026-05-02T16:09:42Z</time></trkpt><trkpt lat="45.360797147031526" lon="7.577774105242607"><ele>971.0</ele><time>2026-05-02T16:09:43Z</time></trkpt><trkpt lat="45.36080192590544" lon="7.577864359114625"><ele>971.0</ele><time>2026-05-02T16:09:44Z</time></trkpt><trkpt lat="45.36079824377749" lon="7.57799592790949"><ele>971.0000000000001</ele><time>2026-05-02T16:09:46Z</time></trkpt><trkpt lat="45.36079610457714" lon="7.5780931741365825"><ele>971.0</ele><time>2026-05-02T16:09:48Z</time></trkpt><trkpt lat="45.36078340475377" lon="7.578206009233478"><ele>970.0000000000001</ele><time>2026-05-02T16:09:50Z</time></trkpt><trkpt lat="45.36077245862871" lon="7.578296386008334"><ele>969.0</ele><time>2026-05-02T16:09:52Z</time></trkpt><trkpt lat="45.36077734442874" lon="7.578387577824064"><ele>968.0</ele><time>2026-05-02T16:09:54Z</time></trkpt><trkpt lat="45.36080444340078" lon="7.578510905643852"><ele>967.0</ele><time>2026-05-02T16:09:56Z</time></trkpt><trkpt lat="45.36084858188788" lon="7.578630632662466"><ele>966.0000000000001</ele><time>2026-05-02T16:09:58Z</time></trkpt><trkpt lat="45.36085148515132" lon="7.5787328905901905"><ele>965.0</ele><time>2026-05-02T16:09:59Z</time></trkpt><trkpt lat="45.36086098400507" lon="7.578844352184069"><ele>963.6666666666667</ele><time>2026-05-02T16:10:03Z</time></trkpt><trkpt lat="45.360812622059434" lon="7.57899614965443"><ele>962.3333333333334</ele><time>2026-05-02T16:10:09Z</time></trkpt><trkpt lat="45.360856433264594" lon="7.579073547793306"><ele>961.0</ele><time>2026-05-02T16:10:14Z</time></trkpt><trkpt lat="45.36088327506912" lon="7.579156205803648"><ele>959.6666666666667</ele><time>2026-05-02T16:10:18.001Z</time></trkpt><trkpt lat="45.360911561387155" lon="7.579252938969146"><ele>958.3333333333334</ele><time>2026-05-02T16:10:20.001Z</time></trkpt><trkpt lat="45.360939466221346" lon="7.579403366670636"><ele>957.0</ele><time>2026-05-02T16:10:22.001Z</time></trkpt><trkpt lat="45.36097357815723" lon="7.579532484770134"><ele>956.6666666666666</ele><time>2026-05-02T16:10:23.001Z</time></trkpt><trkpt lat="45.36100488624027" lon="7.57966775745771"><ele>956.3333333333333</ele><time>2026-05-02T16:10:24.001Z</time></trkpt><trkpt lat="45.361016106058486" lon="7.57977785159094"><ele>956.0</ele><time>2026-05-02T16:10:25.001Z</time></trkpt><trkpt lat="45.361027184114164" lon="7.579885693545476"><ele>955.6666666666666</ele><time>2026-05-02T16:10:26.001Z</time></trkpt><trkpt lat="45.361035103040685" lon="7.580013562277844"><ele>955.3333333333333</ele><time>2026-05-02T16:10:28.001Z</time></trkpt><trkpt lat="45.36106119447659" lon="7.5801215956524555"><ele>955.0</ele><time>2026-05-02T16:10:31.001Z</time></trkpt><trkpt lat="45.36107478510123" lon="7.580235768580867"><ele>954.9999999999999</ele><time>2026-05-02T16:10:32.001Z</time></trkpt><trkpt lat="45.36110207628744" lon="7.580332940029205"><ele>955.0</ele><time>2026-05-02T16:10:33.001Z</time></trkpt><trkpt lat="45.36107854523692" lon="7.580473326487043"><ele>955.0</ele><time>2026-05-02T16:10:35Z</time></trkpt><trkpt lat="45.36113182302767" lon="7.580552405936527"><ele>955.0</ele><time>2026-05-02T16:10:37Z</time></trkpt><trkpt lat="45.36121027192363" lon="7.580652022405318"><ele>954.9999999999999</ele><time>2026-05-02T16:10:39Z</time></trkpt><trkpt lat="45.361225121731685" lon="7.580771908589874"><ele>955.0</ele><time>2026-05-02T16:10:41Z</time></trkpt><trkpt lat="45.36123509143223" lon="7.580873501825098"><ele>954.4999999999999</ele><time>2026-05-02T16:10:43Z</time></trkpt><trkpt lat="45.36125703906385" lon="7.580987036375097"><ele>954.0</ele><time>2026-05-02T16:10:45Z</time></trkpt><trkpt lat="45.3612529105967" lon="7.580887450243643"><ele>953.5</ele><time>2026-05-02T16:10:50Z</time></trkpt><trkpt lat="45.36116522975679" lon="7.580827068014118"><ele>953.0</ele><time>2026-05-02T16:10:55Z</time></trkpt><trkpt lat="45.36113576306917" lon="7.580714110774573"><ele>952.4999999999999</ele><time>2026-05-02T16:10:56Z</time></trkpt><trkpt lat="45.36109072076945" lon="7.58061032799997"><ele>952.0</ele><time>2026-05-02T16:10:57Z</time></trkpt><trkpt lat="45.361105724154676" lon="7.5805057438824255"><ele>952.0</ele><time>2026-05-02T16:10:59Z</time></trkpt><trkpt lat="45.36109068806374" lon="7.580361746980818"><ele>952.0</ele><time>2026-05-02T16:11:00Z</time></trkpt><trkpt lat="45.361074106004835" lon="7.580249919943203"><ele>952.0</ele><time>2026-05-02T16:11:01Z</time></trkpt><trkpt lat="45.361041558648026" lon="7.580066112625395"><ele>952.0</ele><time>2026-05-02T16:11:03Z</time></trkpt><trkpt lat="45.36100965471412" lon="7.579890571663553"><ele>952.0</ele><time>2026-05-02T16:11:04Z</time></trkpt><trkpt lat="45.360975430144656" lon="7.579765138166235"><ele>952.4999999999999</ele><time>2026-05-02T16:11:05Z</time></trkpt><trkpt lat="45.360952121535966" lon="7.579649391472563"><ele>953.0</ele><time>2026-05-02T16:11:06Z</time></trkpt><trkpt lat="45.36091648204174" lon="7.579560308067966"><ele>953.5</ele><time>2026-05-02T16:11:08Z</time></trkpt><trkpt lat="45.360918748379575" lon="7.579458576320628"><ele>954.0</ele><time>2026-05-02T16:11:11Z</time></trkpt><trkpt lat="45.36092510172837" lon="7.579359578757673"><ele>954.4999999999999</ele><time>2026-05-02T16:11:14Z</time></trkpt><trkpt lat="45.360884067424294" lon="7.579291232719911"><ele>955.0</ele><time>2026-05-02T16:11:17Z</time></trkpt><trkpt lat="45.360886934644775" lon="7.579162323259902"><ele>955.2857142857142</ele><time>2026-05-02T16:11:19Z</time></trkpt><trkpt lat="45.360903849547135" lon="7.5790639034765475"><ele>955.5714285714286</ele><time>2026-05-02T16:11:21Z</time></trkpt><trkpt lat="45.36091670881693" lon="7.578975352789242"><ele>955.8571428571429</ele><time>2026-05-02T16:11:23Z</time></trkpt><trkpt lat="45.36095610675883" lon="7.578894992793585"><ele>956.1428571428571</ele><time>2026-05-02T16:11:25Z</time></trkpt><trkpt lat="45.36102013962079" lon="7.578840083409229"><ele>956.4285714285716</ele><time>2026-05-02T16:11:28Z</time></trkpt><trkpt lat="45.36108086988951" lon="7.578816236605468"><ele>956.7142857142858</ele><time>2026-05-02T16:11:30Z</time></trkpt><trkpt lat="45.36116416690208" lon="7.57878605675903"><ele>957.0</ele><time>2026-05-02T16:11:32Z</time></trkpt><trkpt lat="45.36122714777376" lon="7.578752198327053"><ele>957.0</ele><time>2026-05-02T16:11:34Z</time></trkpt><trkpt lat="45.361303652229296" lon="7.578736212872895"><ele>957.0</ele><time>2026-05-02T16:11:36Z</time></trkpt><trkpt lat="45.36138390640425" lon="7.5787216211906"><ele>957.0</ele><time>2026-05-02T16:11:38Z</time></trkpt><trkpt lat="45.36147198855507" lon="7.578699426128254"><ele>957.0</ele><time>2026-05-02T16:11:40Z</time></trkpt><trkpt lat="45.36153816797458" lon="7.578675883698287"><ele>957.0</ele><time>2026-05-02T16:11:42Z</time></trkpt><trkpt lat="45.36160784621427" lon="7.578647622887776"><ele>957.0</ele><time>2026-05-02T16:11:44Z</time></trkpt><trkpt lat="45.36169452859329" lon="7.578616623293222"><ele>953.6666666666666</ele><time>2026-05-02T16:11:46Z</time></trkpt><trkpt lat="45.361767081000735" lon="7.57854540020653"><ele>950.3333333333333</ele><time>2026-05-02T16:11:49Z</time></trkpt><trkpt lat="45.36184398889655" lon="7.57851226461584"><ele>947.0</ele><time>2026-05-02T16:11:51Z</time></trkpt><trkpt lat="45.36191778343083" lon="7.578455590945522"><ele>943.6666666666666</ele><time>2026-05-02T16:11:53Z</time></trkpt><trkpt lat="45.361996353662654" lon="7.578432410540184"><ele>940.3333333333333</ele><time>2026-05-02T16:11:56Z</time></trkpt><trkpt lat="45.362061098478755" lon="7.57836038537294"><ele>937.0</ele><time>2026-05-02T16:11:59Z</time></trkpt><trkpt lat="45.362148661541625" lon="7.578349040514451"><ele>936.9999999999999</ele><time>2026-05-02T16:12:04Z</time></trkpt><trkpt lat="45.3621791906505" lon="7.578260461034295"><ele>937.0</ele><time>2026-05-02T16:12:06Z</time></trkpt><trkpt lat="45.362264191429134" lon="7.57824261550822"><ele>937.0</ele><time>2026-05-02T16:12:14Z</time></trkpt><trkpt lat="45.36229739276089" lon="7.578158888548781"><ele>937.0</ele><time>2026-05-02T16:12:17Z</time></trkpt><trkpt lat="45.36234043894507" lon="7.578030789291539"><ele>936.9999999999999</ele><time>2026-05-02T16:12:19Z</time></trkpt><trkpt lat="45.36232923889482" lon="7.577919294328483"><ele>937.0</ele><time>2026-05-02T16:12:20Z</time></trkpt><trkpt lat="45.362310511519624" lon="7.577789767033837"><ele>931.9999999999999</ele><time>2026-05-02T16:12:22.001Z</time></trkpt><trkpt lat="45.36231814900849" lon="7.577665043006499"><ele>927.0</ele><time>2026-05-02T16:12:26.001Z</time></trkpt><trkpt lat="45.362311058188965" lon="7.5775689795607315"><ele>922.0</ele><time>2026-05-02T16:12:28.001Z</time></trkpt><trkpt lat="45.36225478044927" lon="7.577445982382456"><ele>917.0</ele><time>2026-05-02T16:12:30.001Z</time></trkpt><trkpt lat="45.36224403611411" lon="7.577333972774632"><ele>911.9999999999999</ele><time>2026-05-02T16:12:32.001Z</time></trkpt><trkpt lat="45.362254008032394" lon="7.577220063264476"><ele>907.0</ele><time>2026-05-02T16:12:33.001Z</time></trkpt><trkpt lat="45.36225619575309" lon="7.57712485171864"><ele>906.9999999999999</ele><time>2026-05-02T16:12:34.001Z</time></trkpt><trkpt lat="45.362264219624585" lon="7.577013714863698"><ele>907.0</ele><time>2026-05-02T16:12:38Z</time></trkpt><trkpt lat="45.362283913372124" lon="7.576925862828413"><ele>907.0</ele><time>2026-05-02T16:12:42Z</time></trkpt><trkpt lat="45.36234438057038" lon="7.576996050971158"><ele>907.0</ele><time>2026-05-02T16:12:54Z</time></trkpt><trkpt lat="45.36234190861351" lon="7.577126096182408"><ele>906.9999999999999</ele><time>2026-05-02T16:12:57Z</time></trkpt><trkpt lat="45.3623748613657" lon="7.5772221940459135"><ele>907.0</ele><time>2026-05-02T16:12:59Z</time></trkpt><trkpt lat="45.36242818526575" lon="7.577285957311183"><ele>906.9999999999999</ele><time>2026-05-02T16:13:02Z</time></trkpt><trkpt lat="45.362491216320805" lon="7.577337617207564"><ele>907.0</ele><time>2026-05-02T16:13:05Z</time></trkpt><trkpt lat="45.362560479613066" lon="7.57739849796952"><ele>907.0</ele><time>2026-05-02T16:13:08Z</time></trkpt><trkpt lat="45.36263361011504" lon="7.5774418805254316"><ele>907.0</ele><time>2026-05-02T16:13:11Z</time></trkpt><trkpt lat="45.36272513738527" lon="7.577483112180384"><ele>906.9999999999999</ele><time>2026-05-02T16:13:14Z</time></trkpt><trkpt lat="45.362790628404994" lon="7.577513307250004"><ele>907.0</ele><time>2026-05-02T16:13:15Z</time></trkpt><trkpt lat="45.362867161068195" lon="7.57754035092139"><ele>907.0000000000001</ele><time>2026-05-02T16:13:20Z</time></trkpt><trkpt lat="45.36294440150745" lon="7.5775660068237"><ele>907.0</ele><time>2026-05-02T16:13:23Z</time></trkpt><trkpt lat="45.36301472055723" lon="7.577571826937209"><ele>907.0000000000001</ele><time>2026-05-02T16:13:26Z</time></trkpt><trkpt lat="45.36308288313374" lon="7.577577722739604"><ele>907.0000000000001</ele><time>2026-05-02T16:13:29Z</time></trkpt><trkpt lat="45.363145814627686" lon="7.577591486217232"><ele>907.0</ele><time>2026-05-02T16:13:34Z</time></trkpt><trkpt lat="45.363202147544115" lon="7.5776585792696"><ele>907.0000000000001</ele><time>2026-05-02T16:13:42Z</time></trkpt><trkpt lat="45.36328620605496" lon="7.577709125613918"><ele>907.0000000000001</ele><time>2026-05-02T16:13:47Z</time></trkpt><trkpt lat="45.363387333655204" lon="7.577767615080796"><ele>900.1666666666666</ele><time>2026-05-02T16:13:55Z</time></trkpt><trkpt lat="45.36340323734154" lon="7.57792823386507"><ele>893.3333333333333</ele><time>2026-05-02T16:13:57Z</time></trkpt><trkpt lat="45.36333524832203" lon="7.57802059929476"><ele>886.5</ele><time>2026-05-02T16:14:02Z</time></trkpt><trkpt lat="45.363371113932025" lon="7.578095419469816"><ele>879.6666666666667</ele><time>2026-05-02T16:14:09Z</time></trkpt><trkpt lat="45.363321432531095" lon="7.578197020768559"><ele>872.8333333333334</ele><time>2026-05-02T16:14:18Z</time></trkpt><trkpt lat="45.363386020372914" lon="7.578258830307597"><ele>866.0</ele><time>2026-05-02T16:14:34Z</time></trkpt><trkpt lat="45.36346854086487" lon="7.578243179350211"><ele>866.0000000000001</ele><time>2026-05-02T16:14:38Z</time></trkpt><trkpt lat="45.36353480074832" lon="7.578244465406714"><ele>866.0</ele><time>2026-05-02T16:14:45Z</time></trkpt><trkpt lat="45.36345369123744" lon="7.578249013801385"><ele>866.0</ele><time>2026-05-02T16:15:03Z</time></trkpt><trkpt lat="45.363383912407976" lon="7.5782667994074915"><ele>866.0</ele><time>2026-05-02T16:15:51Z</time></trkpt><trkpt lat="45.36344706074154" lon="7.578231664463347"><ele>866.0000000000001</ele><time>2026-05-02T16:16:27.999Z</time></trkpt><trkpt lat="45.36357776978158" lon="7.578263468811461"><ele>866.0</ele><time>2026-05-02T16:16:33Z</time></trkpt><trkpt lat="45.36364663425043" lon="7.5783286913421275"><ele>866.0</ele><time>2026-05-02T16:16:34Z</time></trkpt><trkpt lat="45.36370271501377" lon="7.578389140009588"><ele>865.9999999999999</ele><time>2026-05-02T16:16:35Z</time></trkpt><trkpt lat="45.36376701439938" lon="7.578482018296412"><ele>865.9999999999999</ele><time>2026-05-02T16:16:36Z</time></trkpt><trkpt lat="45.363826218075744" lon="7.5785883305185235"><ele>866.0</ele><time>2026-05-02T16:16:37Z</time></trkpt><trkpt lat="45.36390260077977" lon="7.57870035867344"><ele>866.0</ele><time>2026-05-02T16:16:38Z</time></trkpt><trkpt lat="45.36395346301387" lon="7.578835845606501"><ele>858.0</ele><time>2026-05-02T16:16:39Z</time></trkpt><trkpt lat="45.36398766519438" lon="7.57897711977705"><ele>850.0</ele><time>2026-05-02T16:16:40Z</time></trkpt><trkpt lat="45.364019291866605" lon="7.579175059486759"><ele>842.0</ele><time>2026-05-02T16:16:41Z</time></trkpt><trkpt lat="45.36403384566363" lon="7.5793900176354905"><ele>834.0</ele><time>2026-05-02T16:16:42Z</time></trkpt><trkpt lat="45.36401208400417" lon="7.579583899436396"><ele>834.0</ele><time>2026-05-02T16:16:43Z</time></trkpt><trkpt lat="45.363965682617746" lon="7.579759084526597"><ele>834.0</ele><time>2026-05-02T16:16:44Z</time></trkpt><trkpt lat="45.36394757113084" lon="7.579881885741628"><ele>834.0</ele><time>2026-05-02T16:16:45Z</time></trkpt><trkpt lat="45.363952399002656" lon="7.579779441191756"><ele>834.0</ele><time>2026-05-02T16:16:56Z</time></trkpt><trkpt lat="45.36398758204443" lon="7.579919223252942"><ele>834.0</ele><time>2026-05-02T16:17:54Z</time></trkpt><trkpt lat="45.36407839046453" lon="7.579867355615568"><ele>834.0</ele><time>2026-05-02T16:18:52Z</time></trkpt><trkpt lat="45.36402358769534" lon="7.579982032008698"><ele>834.0</ele><time>2026-05-02T16:19:14Z</time></trkpt><trkpt lat="45.364022854320275" lon="7.580076388013951"><ele>834.0</ele><time>2026-05-02T16:19:15Z</time></trkpt><trkpt lat="45.36400147807101" lon="7.580212596401197"><ele>834.0</ele><time>2026-05-02T16:19:17Z</time></trkpt><trkpt lat="45.36405102606316" lon="7.580355639278204"><ele>834.0</ele><time>2026-05-02T16:19:20Z</time></trkpt><trkpt lat="45.36409094559961" lon="7.580457812561135"><ele>834.0</ele><time>2026-05-02T16:19:22Z</time></trkpt><trkpt lat="45.36412202261511" lon="7.580537353607382"><ele>834.0</ele><time>2026-05-02T16:19:27Z</time></trkpt><trkpt lat="45.36409067133615" lon="7.580432832198574"><ele>834.0</ele><time>2026-05-02T16:19:32Z</time></trkpt><trkpt lat="45.364051893691204" lon="7.580237540466342"><ele>834.0</ele><time>2026-05-02T16:19:33Z</time></trkpt><trkpt lat="45.36399680609928" lon="7.58011204525255"><ele>834.0</ele><time>2026-05-02T16:19:34Z</time></trkpt><trkpt lat="45.364007125401336" lon="7.579979903931066"><ele>834.0</ele><time>2026-05-02T16:19:35Z</time></trkpt><trkpt lat="45.36400361566112" lon="7.579882398457462"><ele>834.0</ele><time>2026-05-02T16:19:36Z</time></trkpt><trkpt lat="45.3639895586418" lon="7.580002600639471"><ele>834.0</ele><time>2026-05-02T16:20:04.999Z</time></trkpt><trkpt lat="45.36399945897893" lon="7.580123574473601"><ele>834.0</ele><time>2026-05-02T16:20:05.999Z</time></trkpt><trkpt lat="45.36403828523944" lon="7.5802657825134"><ele>834.0</ele><time>2026-05-02T16:20:06.999Z</time></trkpt><trkpt lat="45.364077792482895" lon="7.580370902550039"><ele>834.0</ele><time>2026-05-02T16:20:07.999Z</time></trkpt><trkpt lat="45.36415324161313" lon="7.580468380489862"><ele>834.8000000000001</ele><time>2026-05-02T16:20:12.999Z</time></trkpt><trkpt lat="45.36421550550922" lon="7.580599898377861"><ele>835.6</ele><time>2026-05-02T16:20:14.999Z</time></trkpt><trkpt lat="45.3642365355494" lon="7.580712649269872"><ele>836.4</ele><time>2026-05-02T16:20:16.999Z</time></trkpt><trkpt lat="45.36425967105131" lon="7.580837084382389"><ele>837.2</ele><time>2026-05-02T16:20:19.999Z</time></trkpt><trkpt lat="45.36425978690673" lon="7.581043079480639"><ele>838.0</ele><time>2026-05-02T16:20:23.999Z</time></trkpt><trkpt lat="45.36426788630858" lon="7.581168093681899"><ele>839.0</ele><time>2026-05-02T16:20:25.999Z</time></trkpt><trkpt lat="45.364260979773846" lon="7.581263711535994"><ele>840.0</ele><time>2026-05-02T16:20:26.999Z</time></trkpt><trkpt lat="45.36425472735472" lon="7.5813770080005884"><ele>841.0</ele><time>2026-05-02T16:20:27.999Z</time></trkpt><trkpt lat="45.364230399657885" lon="7.581491813662978"><ele>842.0</ele><time>2026-05-02T16:20:30.999Z</time></trkpt><trkpt lat="45.36423451051278" lon="7.581647371933186"><ele>843.0</ele><time>2026-05-02T16:20:31.999Z</time></trkpt><trkpt lat="45.36420244684675" lon="7.581805063344734"><ele>842.5</ele><time>2026-05-02T16:20:32.999Z</time></trkpt><trkpt lat="45.36416801770205" lon="7.582017373231745"><ele>842.0</ele><time>2026-05-02T16:20:33.999Z</time></trkpt><trkpt lat="45.36412835524195" lon="7.58220638155591"><ele>841.5</ele><time>2026-05-02T16:20:34.999Z</time></trkpt><trkpt lat="45.364088142588095" lon="7.582371609727742"><ele>841.0</ele><time>2026-05-02T16:20:35.999Z</time></trkpt><trkpt lat="45.36404786120759" lon="7.582521751751414"><ele>841.0</ele><time>2026-05-02T16:20:36.999Z</time></trkpt><trkpt lat="45.36402327469994" lon="7.582698661465817"><ele>841.0</ele><time>2026-05-02T16:20:37.999Z</time></trkpt><trkpt lat="45.363925030943264" lon="7.582895724013789"><ele>841.0</ele><time>2026-05-02T16:20:38.999Z</time></trkpt><trkpt lat="45.36382420321556" lon="7.5830514839674565"><ele>841.0</ele><time>2026-05-02T16:20:39.999Z</time></trkpt><trkpt lat="45.36375811069936" lon="7.583186366497914"><ele>841.5</ele><time>2026-05-02T16:20:40.999Z</time></trkpt><trkpt lat="45.363720644239024" lon="7.5833299385685695"><ele>842.0</ele><time>2026-05-02T16:20:41.999Z</time></trkpt><trkpt lat="45.36371981122618" lon="7.58353941461334"><ele>842.5</ele><time>2026-05-02T16:20:42.999Z</time></trkpt><trkpt lat="45.36368377809152" lon="7.5838004484790105"><ele>843.0</ele><time>2026-05-02T16:20:43.999Z</time></trkpt><trkpt lat="45.363683364137934" lon="7.584078178320709"><ele>843.0</ele><time>2026-05-02T16:20:45Z</time></trkpt><trkpt lat="45.36372920747479" lon="7.584278764600614"><ele>843.0</ele><time>2026-05-02T16:20:46Z</time></trkpt><trkpt lat="45.36375952972029" lon="7.5844443597635385"><ele>843.0</ele><time>2026-05-02T16:20:47Z</time></trkpt><trkpt lat="45.363813851580495" lon="7.5845864869017605"><ele>843.0</ele><time>2026-05-02T16:20:48Z</time></trkpt><trkpt lat="45.363789096615065" lon="7.5847690483922126"><ele>840.8</ele><time>2026-05-02T16:20:49Z</time></trkpt><trkpt lat="45.363804128469525" lon="7.584893146817213"><ele>838.5999999999999</ele><time>2026-05-02T16:20:50Z</time></trkpt><trkpt lat="45.363813588386215" lon="7.584985854001937"><ele>836.4000000000001</ele><time>2026-05-02T16:20:51Z</time></trkpt><trkpt lat="45.36382833946252" lon="7.585130414375459"><ele>834.2</ele><time>2026-05-02T16:20:53Z</time></trkpt><trkpt lat="45.36384455694986" lon="7.5852415374092015"><ele>832.0</ele><time>2026-05-02T16:20:55Z</time></trkpt><trkpt lat="45.36418469032401" lon="7.58524871405544"><ele>827.9999999999999</ele><time>2026-05-02T16:20:56Z</time></trkpt><trkpt lat="45.36427253296708" lon="7.585318488986598"><ele>824.0</ele><time>2026-05-02T16:20:57Z</time></trkpt><trkpt lat="45.364347731960905" lon="7.585374475349116"><ele>820.0</ele><time>2026-05-02T16:20:58Z</time></trkpt><trkpt lat="45.364425528932564" lon="7.585418068325585"><ele>816.0</ele><time>2026-05-02T16:20:59Z</time></trkpt><trkpt lat="45.364490629915366" lon="7.585456805443935"><ele>811.9999999999999</ele><time>2026-05-02T16:21:00Z</time></trkpt><trkpt lat="45.3645766421732" lon="7.585500819990622"><ele>808.0</ele><time>2026-05-02T16:21:02Z</time></trkpt><trkpt lat="45.364591978033644" lon="7.585295581707241"><ele>807.9999999999999</ele><time>2026-05-02T16:21:05Z</time></trkpt><trkpt lat="45.36459626186992" lon="7.585168857119735"><ele>808.0</ele><time>2026-05-02T16:21:06Z</time></trkpt><trkpt lat="45.36460229866419" lon="7.5850708755787615"><ele>808.0</ele><time>2026-05-02T16:21:07Z</time></trkpt><trkpt lat="45.36466132141314" lon="7.58502388692728"><ele>808.0</ele><time>2026-05-02T16:21:11Z</time></trkpt><trkpt lat="45.364736297135785" lon="7.585040625665875"><ele>807.9999999999999</ele><time>2026-05-02T16:21:12Z</time></trkpt><trkpt lat="45.36481354634204" lon="7.585102244791129"><ele>808.0</ele><time>2026-05-02T16:21:14Z</time></trkpt><trkpt lat="45.364863480508774" lon="7.585168546508"><ele>805.6666666666666</ele><time>2026-05-02T16:21:15Z</time></trkpt><trkpt lat="45.36491913244038" lon="7.585244986992655"><ele>803.3333333333333</ele><time>2026-05-02T16:21:16Z</time></trkpt><trkpt lat="45.364972059695646" lon="7.585334494277422"><ele>801.0</ele><time>2026-05-02T16:21:17Z</time></trkpt><trkpt lat="45.36505489963406" lon="7.585360679180406"><ele>798.6666666666667</ele><time>2026-05-02T16:21:18Z</time></trkpt><trkpt lat="45.36512994061184" lon="7.585399954116599"><ele>796.3333333333334</ele><time>2026-05-02T16:21:19Z</time></trkpt><trkpt lat="45.36519002368656" lon="7.585469199382674"><ele>794.0</ele><time>2026-05-02T16:21:20Z</time></trkpt><trkpt lat="45.36524378978603" lon="7.585529468617946"><ele>794.0</ele><time>2026-05-02T16:21:21Z</time></trkpt><trkpt lat="45.365301086766664" lon="7.585700064205969"><ele>794.0</ele><time>2026-05-02T16:21:23Z</time></trkpt><trkpt lat="45.36530177137552" lon="7.585826874173846"><ele>794.0</ele><time>2026-05-02T16:21:24Z</time></trkpt><trkpt lat="45.365285137474" lon="7.5859740696534175"><ele>794.0</ele><time>2026-05-02T16:21:25Z</time></trkpt><trkpt lat="45.36526622750184" lon="7.586182522381766"><ele>793.3333333333334</ele><time>2026-05-02T16:21:26Z</time></trkpt><trkpt lat="45.365235018988024" lon="7.586415162965593"><ele>792.6666666666667</ele><time>2026-05-02T16:21:27Z</time></trkpt><trkpt lat="45.36519550747255" lon="7.58666105716495"><ele>792.0</ele><time>2026-05-02T16:21:28Z</time></trkpt><trkpt lat="45.36515187674055" lon="7.586882256886531"><ele>791.2</ele><time>2026-05-02T16:21:29Z</time></trkpt><trkpt lat="45.36512112514843" lon="7.587074418651454"><ele>790.4000000000001</ele><time>2026-05-02T16:21:30Z</time></trkpt><trkpt lat="45.36511617927358" lon="7.587241375699739"><ele>789.5999999999999</ele><time>2026-05-02T16:21:31Z</time></trkpt><trkpt lat="45.3651189611298" lon="7.587382458557856"><ele>788.8</ele><time>2026-05-02T16:21:32Z</time></trkpt><trkpt lat="45.365136178827285" lon="7.587494574025916"><ele>788.0</ele><time>2026-05-02T16:21:33Z</time></trkpt><trkpt lat="45.36516626259145" lon="7.587635910061715"><ele>788.0</ele><time>2026-05-02T16:21:34Z</time></trkpt><trkpt lat="45.365201030467105" lon="7.587782069296665"><ele>788.0</ele><time>2026-05-02T16:21:35Z</time></trkpt><trkpt lat="45.36521327189558" lon="7.587931833735906"><ele>788.0</ele><time>2026-05-02T16:21:36Z</time></trkpt><trkpt lat="45.365219091043905" lon="7.588113671207003"><ele>788.0</ele><time>2026-05-02T16:21:37Z</time></trkpt><trkpt lat="45.3652268318311" lon="7.588370797758917"><ele>788.0</ele><time>2026-05-02T16:21:38Z</time></trkpt><trkpt lat="45.365262615903255" lon="7.588638122633435"><ele>788.0</ele><time>2026-05-02T16:21:39Z</time></trkpt><trkpt lat="45.36526482263676" lon="7.588829877044042"><ele>788.0</ele><time>2026-05-02T16:21:40Z</time></trkpt><trkpt lat="45.36530163987457" lon="7.588981089375679"><ele>788.0</ele><time>2026-05-02T16:21:41Z</time></trkpt><trkpt lat="45.365377768134465" lon="7.589098989836448"><ele>785.0</ele><time>2026-05-02T16:21:42Z</time></trkpt><trkpt lat="45.365486723882356" lon="7.589216773745576"><ele>782.0</ele><time>2026-05-02T16:21:43Z</time></trkpt><trkpt lat="45.3656275903108" lon="7.589374327820871"><ele>779.0</ele><time>2026-05-02T16:21:43.999Z</time></trkpt><trkpt lat="45.36579630588214" lon="7.589541169286017"><ele>775.6666666666667</ele><time>2026-05-02T16:21:44.999Z</time></trkpt><trkpt lat="45.365929055468975" lon="7.589702310903746"><ele>772.3333333333333</ele><time>2026-05-02T16:21:45.999Z</time></trkpt><trkpt lat="45.366045941474" lon="7.589889220649376"><ele>769.0</ele><time>2026-05-02T16:21:46.999Z</time></trkpt><trkpt lat="45.36612457604546" lon="7.590047466204285"><ele>769.0</ele><time>2026-05-02T16:21:47.999Z</time></trkpt><trkpt lat="45.36619931107269" lon="7.590191187764459"><ele>769.0</ele><time>2026-05-02T16:21:48.999Z</time></trkpt><trkpt lat="45.36626429314779" lon="7.5903174157672355"><ele>769.0</ele><time>2026-05-02T16:21:49.999Z</time></trkpt><trkpt lat="45.36633304636122" lon="7.590461882038953"><ele>769.0</ele><time>2026-05-02T16:21:50.999Z</time></trkpt><trkpt lat="45.366370793683835" lon="7.590606775936628"><ele>768.6666666666666</ele><time>2026-05-02T16:21:51.999Z</time></trkpt><trkpt lat="45.36637444525493" lon="7.590776869212237"><ele>768.3333333333333</ele><time>2026-05-02T16:21:52.999Z</time></trkpt><trkpt lat="45.366343625097116" lon="7.590991675653628"><ele>768.0</ele><time>2026-05-02T16:21:53.999Z</time></trkpt><trkpt lat="45.36628514315609" lon="7.591240695431767"><ele>767.6666666666666</ele><time>2026-05-02T16:21:54.999Z</time></trkpt><trkpt lat="45.36621773037415" lon="7.5914653130014615"><ele>767.3333333333333</ele><time>2026-05-02T16:21:55.999Z</time></trkpt><trkpt lat="45.36620801868621" lon="7.591717952233755"><ele>767.0</ele><time>2026-05-02T16:21:56.999Z</time></trkpt><trkpt lat="45.366204199398055" lon="7.591962963087281"><ele>767.6666666666666</ele><time>2026-05-02T16:21:57.999Z</time></trkpt><trkpt lat="45.36620761334432" lon="7.592164919697394"><ele>768.3333333333333</ele><time>2026-05-02T16:21:58.999Z</time></trkpt><trkpt lat="45.366227256573225" lon="7.592377333541212"><ele>769.0</ele><time>2026-05-02T16:21:59.999Z</time></trkpt><trkpt lat="45.36627195894912" lon="7.592619638185147"><ele>768.75</ele><time>2026-05-02T16:22:00.999Z</time></trkpt><trkpt lat="45.36628185978632" lon="7.592862429477128"><ele>768.5</ele><time>2026-05-02T16:22:01.999Z</time></trkpt><trkpt lat="45.366278114038444" lon="7.593077555921953"><ele>768.25</ele><time>2026-05-02T16:22:02.999Z</time></trkpt><trkpt lat="45.36627598331187" lon="7.59322938700505"><ele>768.0</ele><time>2026-05-02T16:22:03.999Z</time></trkpt><trkpt lat="45.36627209431419" lon="7.59333227795119"><ele>768.0</ele><time>2026-05-02T16:22:04.999Z</time></trkpt><trkpt lat="45.36624486155851" lon="7.593454757551778"><ele>768.0</ele><time>2026-05-02T16:22:06.999Z</time></trkpt><trkpt lat="45.366186585718765" lon="7.593594049894823"><ele>768.0</ele><time>2026-05-02T16:22:08.999Z</time></trkpt><trkpt lat="45.366141574011145" lon="7.593754343250961"><ele>768.0</ele><time>2026-05-02T16:22:09.999Z</time></trkpt><trkpt lat="45.36609683858691" lon="7.5939080828672445"><ele>768.0</ele><time>2026-05-02T16:22:10.999Z</time></trkpt><trkpt lat="45.36608076240603" lon="7.594017018124257"><ele>770.2</ele><time>2026-05-02T16:22:11.999Z</time></trkpt><trkpt lat="45.36609211895589" lon="7.59414592655461"><ele>772.4</ele><time>2026-05-02T16:22:12.999Z</time></trkpt><trkpt lat="45.366113977912974" lon="7.59430366394733"><ele>774.6</ele><time>2026-05-02T16:22:13.999Z</time></trkpt><trkpt lat="45.36612152817384" lon="7.594448044956042"><ele>776.8000000000001</ele><time>2026-05-02T16:22:14.999Z</time></trkpt><trkpt lat="45.36621901111363" lon="7.594544466173408"><ele>779.0</ele><time>2026-05-02T16:22:16.999Z</time></trkpt><trkpt lat="45.36624560593632" lon="7.59468009171734"><ele>780.4000000000001</ele><time>2026-05-02T16:22:17.999Z</time></trkpt><trkpt lat="45.36629619136523" lon="7.594763718425945"><ele>781.8</ele><time>2026-05-02T16:22:19.999Z</time></trkpt><trkpt lat="45.36647545295163" lon="7.594591302305673"><ele>783.2</ele><time>2026-05-02T16:22:23.999Z</time></trkpt><trkpt lat="45.366518203495716" lon="7.594509358670366"><ele>784.5999999999999</ele><time>2026-05-02T16:22:27.999Z</time></trkpt><trkpt lat="45.36656513851364" lon="7.59443178163709"><ele>786.0</ele><time>2026-05-02T16:22:28.999Z</time></trkpt><trkpt lat="45.366663208720134" lon="7.594389159007736"><ele>786.5</ele><time>2026-05-02T16:22:30.999Z</time></trkpt><trkpt lat="45.366744066970114" lon="7.594406889705931"><ele>787.0</ele><time>2026-05-02T16:22:32.999Z</time></trkpt><trkpt lat="45.36681032923037" lon="7.594387706971644"><ele>787.5</ele><time>2026-05-02T16:22:34.999Z</time></trkpt><trkpt lat="45.36690634026991" lon="7.594349447552174"><ele>788.0</ele><time>2026-05-02T16:22:37.999Z</time></trkpt><trkpt lat="45.36698915597611" lon="7.594333548227142"><ele>788.5</ele><time>2026-05-02T16:22:39.999Z</time></trkpt><trkpt lat="45.36707084068031" lon="7.594380720221228"><ele>789.0</ele><time>2026-05-02T16:22:42.999Z</time></trkpt><trkpt lat="45.36712138120065" lon="7.59449660474239"><ele>784.8333333333334</ele><time>2026-05-02T16:22:44.999Z</time></trkpt><trkpt lat="45.367203742924055" lon="7.594575394404254"><ele>780.6666666666666</ele><time>2026-05-02T16:22:46.999Z</time></trkpt><trkpt lat="45.3672755702356" lon="7.5946369908850855"><ele>776.5</ele><time>2026-05-02T16:22:49.999Z</time></trkpt><trkpt lat="45.36736764873779" lon="7.594679638387136"><ele>772.3333333333333</ele><time>2026-05-02T16:22:53Z</time></trkpt><trkpt lat="45.367454398407745" lon="7.594735416810759"><ele>768.1666666666666</ele><time>2026-05-02T16:23:01Z</time></trkpt><trkpt lat="45.36752748937939" lon="7.594747517672701"><ele>764.0</ele><time>2026-05-02T16:23:07Z</time></trkpt><trkpt lat="45.36760028810457" lon="7.594811044725259"><ele>764.0</ele><time>2026-05-02T16:23:43Z</time></trkpt><trkpt lat="45.36767024185267" lon="7.594891836599131"><ele>764.0</ele><time>2026-05-02T16:23:58.999Z</time></trkpt><trkpt lat="45.367720818838556" lon="7.594955782567862"><ele>764.0</ele><time>2026-05-02T16:24:03.999Z</time></trkpt><trkpt lat="45.36776564640095" lon="7.595043893090161"><ele>764.0</ele><time>2026-05-02T16:24:07.999Z</time></trkpt><trkpt lat="45.367815221273254" lon="7.595133836439004"><ele>764.0</ele><time>2026-05-02T16:24:11.999Z</time></trkpt><trkpt lat="45.36786059721496" lon="7.59521199461601"><ele>764.0</ele><time>2026-05-02T16:24:14.999Z</time></trkpt><trkpt lat="45.367923092759796" lon="7.595316808335384"><ele>761.1666666666666</ele><time>2026-05-02T16:24:17.999Z</time></trkpt><trkpt lat="45.36797818614672" lon="7.59544007169863"><ele>758.3333333333333</ele><time>2026-05-02T16:24:19.999Z</time></trkpt><trkpt lat="45.36802585512916" lon="7.595523989257201"><ele>755.5</ele><time>2026-05-02T16:24:21.999Z</time></trkpt><trkpt lat="45.36806326813957" lon="7.595606664459304"><ele>752.6666666666666</ele><time>2026-05-02T16:24:23.999Z</time></trkpt><trkpt lat="45.36812838610788" lon="7.595647091060008"><ele>749.8333333333334</ele><time>2026-05-02T16:24:26.999Z</time></trkpt><trkpt lat="45.36818207492668" lon="7.595734824509178"><ele>747.0</ele><time>2026-05-02T16:24:28.999Z</time></trkpt><trkpt lat="45.368224226477544" lon="7.59580781221522"><ele>742.5714285714286</ele><time>2026-05-02T16:24:31.999Z</time></trkpt><trkpt lat="45.36828702340982" lon="7.5958334054013115"><ele>738.1428571428571</ele><time>2026-05-02T16:24:34.999Z</time></trkpt><trkpt lat="45.368340775291195" lon="7.595914149501256"><ele>733.7142857142858</ele><time>2026-05-02T16:24:38.999Z</time></trkpt><trkpt lat="45.368389315038925" lon="7.595975918871974"><ele>729.2857142857142</ele><time>2026-05-02T16:24:41.999Z</time></trkpt><trkpt lat="45.368430039581604" lon="7.59605236547808"><ele>724.8571428571429</ele><time>2026-05-02T16:24:44.999Z</time></trkpt><trkpt lat="45.36846492325354" lon="7.59612726599168"><ele>720.4285714285714</ele><time>2026-05-02T16:24:47.999Z</time></trkpt><trkpt lat="45.36850219846586" lon="7.596215452039778"><ele>716.0</ele><time>2026-05-02T16:24:50.999Z</time></trkpt><trkpt lat="45.368547118338235" lon="7.596316176656491"><ele>714.1666666666666</ele><time>2026-05-02T16:24:53.999Z</time></trkpt><trkpt lat="45.3686298773183" lon="7.59637459412103"><ele>712.3333333333333</ele><time>2026-05-02T16:24:59Z</time></trkpt><trkpt lat="45.368678092701046" lon="7.596447246559311"><ele>710.5</ele><time>2026-05-02T16:25:01Z</time></trkpt><trkpt lat="45.36872175617633" lon="7.596529821457923"><ele>708.6666666666666</ele><time>2026-05-02T16:25:03Z</time></trkpt><trkpt lat="45.368755274662696" lon="7.59664637742561"><ele>706.8333333333334</ele><time>2026-05-02T16:25:06Z</time></trkpt><trkpt lat="45.368793119123445" lon="7.596745948897919"><ele>705.0</ele><time>2026-05-02T16:25:12Z</time></trkpt><trkpt lat="45.368799709732045" lon="7.596849112610221"><ele>705.0</ele><time>2026-05-02T16:25:14Z</time></trkpt><trkpt lat="45.3688029885868" lon="7.596941512633647"><ele>705.0</ele><time>2026-05-02T16:25:16Z</time></trkpt><trkpt lat="45.368808609985955" lon="7.597058267287178"><ele>705.0</ele><time>2026-05-02T16:25:18Z</time></trkpt><trkpt lat="45.36882716639055" lon="7.597213218077107"><ele>705.0</ele><time>2026-05-02T16:25:20Z</time></trkpt><trkpt lat="45.36885299744644" lon="7.597317527968611"><ele>705.0</ele><time>2026-05-02T16:25:22Z</time></trkpt><trkpt lat="45.368889899153245" lon="7.597395432136523"><ele>705.0</ele><time>2026-05-02T16:25:24Z</time></trkpt><trkpt lat="45.368928621728124" lon="7.597498981723906"><ele>698.1666666666666</ele><time>2026-05-02T16:25:27Z</time></trkpt><trkpt lat="45.369007579638655" lon="7.597566252933306"><ele>691.3333333333334</ele><time>2026-05-02T16:25:30Z</time></trkpt><trkpt lat="45.3690548706223" lon="7.597671270891167"><ele>684.5</ele><time>2026-05-02T16:25:32Z</time></trkpt><trkpt lat="45.369105409992414" lon="7.597764262542771"><ele>677.6666666666667</ele><time>2026-05-02T16:25:34Z</time></trkpt><trkpt lat="45.369138006763755" lon="7.597868492623096"><ele>670.8333333333334</ele><time>2026-05-02T16:25:36Z</time></trkpt><trkpt lat="45.369155458568784" lon="7.597957285256578"><ele>664.0</ele><time>2026-05-02T16:25:38Z</time></trkpt><trkpt lat="45.369187046848154" lon="7.598044643386502"><ele>662.8333333333334</ele><time>2026-05-02T16:25:41Z</time></trkpt><trkpt lat="45.36911924469193" lon="7.598099852845142"><ele>661.6666666666667</ele><time>2026-05-02T16:25:48Z</time></trkpt><trkpt lat="45.369055898922205" lon="7.597974821540603"><ele>660.5</ele><time>2026-05-02T16:25:50Z</time></trkpt><trkpt lat="45.368987697616134" lon="7.598040590508263"><ele>659.3333333333334</ele><time>2026-05-02T16:25:54Z</time></trkpt><trkpt lat="45.368917737547086" lon="7.598087259822706"><ele>658.1666666666666</ele><time>2026-05-02T16:25:58Z</time></trkpt><trkpt lat="45.36887288089865" lon="7.598178359340284"><ele>657.0</ele><time>2026-05-02T16:26:02Z</time></trkpt><trkpt lat="45.36883598771847" lon="7.598308852623904"><ele>660.0</ele><time>2026-05-02T16:26:05Z</time></trkpt><trkpt lat="45.3688031429188" lon="7.598453076265384"><ele>663.0</ele><time>2026-05-02T16:26:07Z</time></trkpt><trkpt lat="45.36878467216427" lon="7.5985458860876065"><ele>666.0</ele><time>2026-05-02T16:26:09Z</time></trkpt><trkpt lat="45.36872853283341" lon="7.59866416406846"><ele>669.0</ele><time>2026-05-02T16:26:12Z</time></trkpt><trkpt lat="45.36865539753609" lon="7.598744255756821"><ele>672.0</ele><time>2026-05-02T16:26:14Z</time></trkpt><trkpt lat="45.36857654800204" lon="7.598902669122743"><ele>672.0</ele><time>2026-05-02T16:26:16Z</time></trkpt><trkpt lat="45.368559425017985" lon="7.599003693587269"><ele>672.0</ele><time>2026-05-02T16:26:17Z</time></trkpt><trkpt lat="45.36854053865342" lon="7.599115076120968"><ele>672.0</ele><time>2026-05-02T16:26:19Z</time></trkpt><trkpt lat="45.36852173113328" lon="7.599237547998053"><ele>672.0</ele><time>2026-05-02T16:26:20.999Z</time></trkpt><trkpt lat="45.36849347192504" lon="7.599335833542833"><ele>672.0</ele><time>2026-05-02T16:26:23.999Z</time></trkpt><trkpt lat="45.36849241316834" lon="7.5994298713492405"><ele>672.0</ele><time>2026-05-02T16:26:26.999Z</time></trkpt><trkpt lat="45.368492559616854" lon="7.599543857386741"><ele>669.8333333333334</ele><time>2026-05-02T16:26:29.999Z</time></trkpt><trkpt lat="45.36849889567656" lon="7.599676895670864"><ele>667.6666666666666</ele><time>2026-05-02T16:26:32.999Z</time></trkpt><trkpt lat="45.3684972229594" lon="7.5997866086792385"><ele>665.5</ele><time>2026-05-02T16:26:34.999Z</time></trkpt><trkpt lat="45.368506585277046" lon="7.599929795680187"><ele>663.3333333333333</ele><time>2026-05-02T16:26:37.999Z</time></trkpt><trkpt lat="45.36850812911318" lon="7.600024012337491"><ele>661.1666666666666</ele><time>2026-05-02T16:26:40.999Z</time></trkpt><trkpt lat="45.36851563599039" lon="7.600125613360351"><ele>659.0</ele><time>2026-05-02T16:26:42.999Z</time></trkpt><trkpt lat="45.36854700886415" lon="7.600235709219469"><ele>656.8000000000001</ele><time>2026-05-02T16:26:45.999Z</time></trkpt><trkpt lat="45.368545750675516" lon="7.600386294932768"><ele>654.6</ele><time>2026-05-02T16:26:55.999Z</time></trkpt><trkpt lat="45.36852822028278" lon="7.6004911607743075"><ele>652.4</ele><time>2026-05-02T16:26:57.999Z</time></trkpt><trkpt lat="45.36851117358054" lon="7.600632016207383"><ele>650.2</ele><time>2026-05-02T16:26:58.999Z</time></trkpt><trkpt lat="45.36845815371002" lon="7.600741721798847"><ele>648.0</ele><time>2026-05-02T16:27:00.999Z</time></trkpt><trkpt lat="45.36841950678759" lon="7.600902874324553"><ele>648.0</ele><time>2026-05-02T16:27:03Z</time></trkpt><trkpt lat="45.368408682579435" lon="7.600996185588197"><ele>648.0</ele><time>2026-05-02T16:27:05Z</time></trkpt><trkpt lat="45.36834480957155" lon="7.60110550439183"><ele>648.0</ele><time>2026-05-02T16:27:07Z</time></trkpt><trkpt lat="45.368321423587155" lon="7.6012190734569"><ele>648.0</ele><time>2026-05-02T16:27:09Z</time></trkpt><trkpt lat="45.368273633678825" lon="7.601393094431286"><ele>648.0</ele><time>2026-05-02T16:27:12Z</time></trkpt><trkpt lat="45.36825169400617" lon="7.601504756093224"><ele>646.0</ele><time>2026-05-02T16:27:14Z</time></trkpt><trkpt lat="45.368200049212994" lon="7.601586286526184"><ele>644.0</ele><time>2026-05-02T16:27:15Z</time></trkpt><trkpt lat="45.36819793870144" lon="7.601717082086388"><ele>642.0</ele><time>2026-05-02T16:27:17Z</time></trkpt><trkpt lat="45.36820771316208" lon="7.601865674674893"><ele>640.0</ele><time>2026-05-02T16:27:18Z</time></trkpt><trkpt lat="45.36819436712039" lon="7.601954149195178"><ele>638.0</ele><time>2026-05-02T16:27:19Z</time></trkpt><trkpt lat="45.368119566288385" lon="7.602014631294055"><ele>636.0</ele><time>2026-05-02T16:27:20Z</time></trkpt><trkpt lat="45.36810545101902" lon="7.60217235136396"><ele>633.5</ele><time>2026-05-02T16:27:23Z</time></trkpt><trkpt lat="45.36807387561481" lon="7.602282395523465"><ele>631.0</ele><time>2026-05-02T16:27:25Z</time></trkpt><trkpt lat="45.3680431745822" lon="7.602394381427925"><ele>628.5</ele><time>2026-05-02T16:27:27Z</time></trkpt><trkpt lat="45.368020486200656" lon="7.602538241493189"><ele>626.0</ele><time>2026-05-02T16:27:29Z</time></trkpt><trkpt lat="45.36798270074183" lon="7.6026572492379385"><ele>623.5</ele><time>2026-05-02T16:27:31Z</time></trkpt><trkpt lat="45.36795524532498" lon="7.6027405550369"><ele>621.0</ele><time>2026-05-02T16:27:33Z</time></trkpt><trkpt lat="45.3679484167115" lon="7.602847744318565"><ele>632.0</ele><time>2026-05-02T16:27:36Z</time></trkpt><trkpt lat="45.36796988334622" lon="7.6029588611842165"><ele>643.0</ele><time>2026-05-02T16:27:39Z</time></trkpt><trkpt lat="45.36795780859692" lon="7.603098215840374"><ele>654.0</ele><time>2026-05-02T16:27:41Z</time></trkpt><trkpt lat="45.367979570083094" lon="7.603217649598281"><ele>665.0</ele><time>2026-05-02T16:27:42Z</time></trkpt><trkpt lat="45.36798928811322" lon="7.603374060073181"><ele>676.0</ele><time>2026-05-02T16:27:44Z</time></trkpt><trkpt lat="45.367979111220926" lon="7.603482742259737"><ele>676.0</ele><time>2026-05-02T16:27:46Z</time></trkpt><trkpt lat="45.36800571769359" lon="7.60357142998718"><ele>676.0</ele><time>2026-05-02T16:27:48Z</time></trkpt><trkpt lat="45.368049527080224" lon="7.603682566174646"><ele>676.0</ele><time>2026-05-02T16:27:51Z</time></trkpt><trkpt lat="45.36806555801537" lon="7.6038128736741095"><ele>676.0</ele><time>2026-05-02T16:27:54Z</time></trkpt><trkpt lat="45.3680432370395" lon="7.603944343655719"><ele>676.0</ele><time>2026-05-02T16:27:57Z</time></trkpt><trkpt lat="45.36804706126325" lon="7.604060484560857"><ele>676.0</ele><time>2026-05-02T16:28:00Z</time></trkpt><trkpt lat="45.368103493248455" lon="7.604157633338898"><ele>669.3333333333334</ele><time>2026-05-02T16:28:03Z</time></trkpt><trkpt lat="45.36814151218935" lon="7.6042621855854735"><ele>662.6666666666667</ele><time>2026-05-02T16:28:06Z</time></trkpt><trkpt lat="45.36819908898845" lon="7.604334037467476"><ele>656.0</ele><time>2026-05-02T16:28:10Z</time></trkpt><trkpt lat="45.36822727297985" lon="7.604435705969602"><ele>649.3333333333334</ele><time>2026-05-02T16:28:14Z</time></trkpt><trkpt lat="45.36829032067383" lon="7.604509211124416"><ele>642.6666666666666</ele><time>2026-05-02T16:28:17Z</time></trkpt><trkpt lat="45.36833100087338" lon="7.604580326633876"><ele>636.0</ele><time>2026-05-02T16:28:19Z</time></trkpt><trkpt lat="45.36835508757789" lon="7.604681848126425"><ele>636.0</ele><time>2026-05-02T16:28:21Z</time></trkpt><trkpt lat="45.36841789031277" lon="7.604750114270301"><ele>636.0</ele><time>2026-05-02T16:28:23.999Z</time></trkpt><trkpt lat="45.368458520351915" lon="7.604875639101475"><ele>636.0</ele><time>2026-05-02T16:28:25.999Z</time></trkpt><trkpt lat="45.368538153544954" lon="7.605042632874898"><ele>636.0</ele><time>2026-05-02T16:28:27.999Z</time></trkpt><trkpt lat="45.368572588837544" lon="7.605180439847013"><ele>636.0</ele><time>2026-05-02T16:28:29.999Z</time></trkpt><trkpt lat="45.36861194486907" lon="7.605285132209144"><ele>641.0</ele><time>2026-05-02T16:28:31.999Z</time></trkpt><trkpt lat="45.36865859223509" lon="7.605393053168713"><ele>646.0</ele><time>2026-05-02T16:28:33.999Z</time></trkpt><trkpt lat="45.36868905063137" lon="7.605511544183046"><ele>651.0</ele><time>2026-05-02T16:28:35.999Z</time></trkpt><trkpt lat="45.36874674067853" lon="7.605646585823431"><ele>656.0</ele><time>2026-05-02T16:28:37.999Z</time></trkpt><trkpt lat="45.368796894466584" lon="7.605705476243783"><ele>661.0</ele><time>2026-05-02T16:28:38.999Z</time></trkpt><trkpt lat="45.368910455006294" lon="7.6057554161422765"><ele>653.1999999999999</ele><time>2026-05-02T16:28:40.999Z</time></trkpt><trkpt lat="45.36900211339922" lon="7.605828247063526"><ele>645.4</ele><time>2026-05-02T16:28:43.999Z</time></trkpt><trkpt lat="45.369023104255135" lon="7.6059231102177645"><ele>637.6</ele><time>2026-05-02T16:28:45.999Z</time></trkpt><trkpt lat="45.36903344029864" lon="7.606097029567656"><ele>629.8</ele><time>2026-05-02T16:28:47.999Z</time></trkpt><trkpt lat="45.36907334358465" lon="7.606258943294549"><ele>622.0</ele><time>2026-05-02T16:28:48.999Z</time></trkpt><trkpt lat="45.36913185184823" lon="7.606473250455982"><ele>622.0</ele><time>2026-05-02T16:28:49.999Z</time></trkpt><trkpt lat="45.36920794407712" lon="7.606621036518849"><ele>622.0</ele><time>2026-05-02T16:28:50.999Z</time></trkpt><trkpt lat="45.36925707551964" lon="7.606807339931891"><ele>622.0</ele><time>2026-05-02T16:28:51.999Z</time></trkpt><trkpt lat="45.369301707359405" lon="7.607001449847738"><ele>622.0</ele><time>2026-05-02T16:28:52.999Z</time></trkpt><trkpt lat="45.36932562531695" lon="7.6071742118585695"><ele>624.2</ele><time>2026-05-02T16:28:53.999Z</time></trkpt><trkpt lat="45.369332871963515" lon="7.6072761471230175"><ele>626.4000000000001</ele><time>2026-05-02T16:28:54.999Z</time></trkpt><trkpt lat="45.369310230194095" lon="7.60740908072557"><ele>628.5999999999999</ele><time>2026-05-02T16:28:56.999Z</time></trkpt><trkpt lat="45.369313341495186" lon="7.607524359311063"><ele>630.8</ele><time>2026-05-02T16:28:57.999Z</time></trkpt><trkpt lat="45.36935740791756" lon="7.607690902024063"><ele>633.0</ele><time>2026-05-02T16:28:59.999Z</time></trkpt><trkpt lat="45.369354270975755" lon="7.607946331382541"><ele>633.75</ele><time>2026-05-02T16:29:00.999Z</time></trkpt><trkpt lat="45.36939497980867" lon="7.608156770845939"><ele>634.5</ele><time>2026-05-02T16:29:01.999Z</time></trkpt><trkpt lat="45.369436666499915" lon="7.608321475322693"><ele>635.25</ele><time>2026-05-02T16:29:02.999Z</time></trkpt><trkpt lat="45.36946450698325" lon="7.608493122545373"><ele>636.0</ele><time>2026-05-02T16:29:03.999Z</time></trkpt><trkpt lat="45.36948042761473" lon="7.608768956984413"><ele>634.4</ele><time>2026-05-02T16:29:04.999Z</time></trkpt><trkpt lat="45.36949982000335" lon="7.608994698123176"><ele>632.8</ele><time>2026-05-02T16:29:05.999Z</time></trkpt><trkpt lat="45.36950206930835" lon="7.609097122536324"><ele>631.1999999999999</ele><time>2026-05-02T16:29:06.999Z</time></trkpt><trkpt lat="45.36949023568338" lon="7.609237656032536"><ele>629.6</ele><time>2026-05-02T16:29:07.999Z</time></trkpt><trkpt lat="45.369439897601865" lon="7.609382178155938"><ele>628.0</ele><time>2026-05-02T16:29:09Z</time></trkpt><trkpt lat="45.36939714779069" lon="7.609540596063218"><ele>626.1999999999999</ele><time>2026-05-02T16:29:10Z</time></trkpt><trkpt lat="45.369362957953236" lon="7.609631602529754"><ele>624.4</ele><time>2026-05-02T16:29:11Z</time></trkpt><trkpt lat="45.369286762538984" lon="7.609698956071834"><ele>622.5999999999999</ele><time>2026-05-02T16:29:15Z</time></trkpt><trkpt lat="45.36917937479389" lon="7.609738814261823"><ele>620.8</ele><time>2026-05-02T16:29:17Z</time></trkpt><trkpt lat="45.369144389222825" lon="7.609843112772731"><ele>619.0</ele><time>2026-05-02T16:29:18Z</time></trkpt><trkpt lat="45.36910345963903" lon="7.6100356129024105"><ele>632.5</ele><time>2026-05-02T16:29:21Z</time></trkpt><trkpt lat="45.36878508608816" lon="7.6102010957284"><ele>646.0</ele><time>2026-05-02T16:29:22Z</time></trkpt><trkpt lat="45.368692463628406" lon="7.610321308429409"><ele>643.0</ele><time>2026-05-02T16:29:23Z</time></trkpt><trkpt lat="45.36862173035267" lon="7.610425478862767"><ele>640.0</ele><time>2026-05-02T16:29:24Z</time></trkpt><trkpt lat="45.36866870677603" lon="7.610702900482779"><ele>637.0</ele><time>2026-05-02T16:29:25Z</time></trkpt><trkpt lat="45.368590991724716" lon="7.61088294421536"><ele>637.0</ele><time>2026-05-02T16:29:26Z</time></trkpt><trkpt lat="45.3685030785689" lon="7.611059285012071"><ele>637.0</ele><time>2026-05-02T16:29:27Z</time></trkpt><trkpt lat="45.36842799069068" lon="7.611168567409485"><ele>637.0</ele><time>2026-05-02T16:29:28Z</time></trkpt><trkpt lat="45.368390673733934" lon="7.611256196040412"><ele>637.0</ele><time>2026-05-02T16:29:29Z</time></trkpt><trkpt lat="45.368422148335576" lon="7.611350739721716"><ele>637.0</ele><time>2026-05-02T16:29:30Z</time></trkpt><trkpt lat="45.36848284005081" lon="7.6115206634077905"><ele>635.0</ele><time>2026-05-02T16:29:31Z</time></trkpt><trkpt lat="45.36846611774073" lon="7.611620266668895"><ele>633.0</ele><time>2026-05-02T16:29:32Z</time></trkpt><trkpt lat="45.36841408052428" lon="7.611829669031092"><ele>631.0</ele><time>2026-05-02T16:29:33Z</time></trkpt><trkpt lat="45.36841134399201" lon="7.611973809033364"><ele>629.0</ele><time>2026-05-02T16:29:34Z</time></trkpt><trkpt lat="45.36839982130852" lon="7.6121034418645275"><ele>627.0</ele><time>2026-05-02T16:29:35Z</time></trkpt><trkpt lat="45.368343617910064" lon="7.612229705325616"><ele>629.0</ele><time>2026-05-02T16:29:36Z</time></trkpt><trkpt lat="45.36830286597191" lon="7.6123489210080475"><ele>631.0</ele><time>2026-05-02T16:29:37Z</time></trkpt><trkpt lat="45.368241196935" lon="7.612422760048379"><ele>633.0</ele><time>2026-05-02T16:29:38Z</time></trkpt><trkpt lat="45.368053462989906" lon="7.6125250475446435"><ele>635.0</ele><time>2026-05-02T16:29:40Z</time></trkpt><trkpt lat="45.368011174967044" lon="7.612622424467055"><ele>635.0</ele><time>2026-05-02T16:29:42Z</time></trkpt><trkpt lat="45.36795550368176" lon="7.6128036065494005"><ele>635.0</ele><time>2026-05-02T16:29:43Z</time></trkpt><trkpt lat="45.367946774803876" lon="7.612913854221973"><ele>635.0</ele><time>2026-05-02T16:29:44Z</time></trkpt><trkpt lat="45.367901632810444" lon="7.612996730449572"><ele>635.0</ele><time>2026-05-02T16:29:45Z</time></trkpt><trkpt lat="45.367839120023554" lon="7.613085343609732"><ele>635.0</ele><time>2026-05-02T16:29:47Z</time></trkpt><trkpt lat="45.36771495080717" lon="7.613113467721105"><ele>630.8</ele><time>2026-05-02T16:29:48Z</time></trkpt><trkpt lat="45.36757700495635" lon="7.6131349437424065"><ele>626.6</ele><time>2026-05-02T16:29:49Z</time></trkpt><trkpt lat="45.36745375390274" lon="7.613123466243736"><ele>622.4</ele><time>2026-05-02T16:29:50Z</time></trkpt><trkpt lat="45.36738889950716" lon="7.613130901682855"><ele>618.2</ele><time>2026-05-02T16:29:51Z</time></trkpt><trkpt lat="45.36729967576382" lon="7.613165056253281"><ele>614.0</ele><time>2026-05-02T16:29:53Z</time></trkpt><trkpt lat="45.36723714705233" lon="7.613253115240267"><ele>612.75</ele><time>2026-05-02T16:29:54Z</time></trkpt><trkpt lat="45.367169197749924" lon="7.613406485172754"><ele>611.5</ele><time>2026-05-02T16:29:55Z</time></trkpt><trkpt lat="45.36710241004111" lon="7.613608301867587"><ele>610.25</ele><time>2026-05-02T16:29:56Z</time></trkpt><trkpt lat="45.36703110588136" lon="7.613809118789244"><ele>609.0</ele><time>2026-05-02T16:29:57Z</time></trkpt><trkpt lat="45.366965964026775" lon="7.613980027973988"><ele>609.0</ele><time>2026-05-02T16:29:58Z</time></trkpt><trkpt lat="45.366916409257264" lon="7.614146815799581"><ele>609.0</ele><time>2026-05-02T16:29:59Z</time></trkpt><trkpt lat="45.366834552696865" lon="7.614323722768796"><ele>609.0</ele><time>2026-05-02T16:30:00Z</time></trkpt><trkpt lat="45.36679754054232" lon="7.614457830522212"><ele>609.0</ele><time>2026-05-02T16:30:01Z</time></trkpt><trkpt lat="45.36671614681273" lon="7.614554229261505"><ele>607.6666666666666</ele><time>2026-05-02T16:30:02Z</time></trkpt><trkpt lat="45.36663874505843" lon="7.61463264902172"><ele>606.3333333333334</ele><time>2026-05-02T16:30:03Z</time></trkpt><trkpt lat="45.366576283104166" lon="7.6147184616257775"><ele>605.0</ele><time>2026-05-02T16:30:04Z</time></trkpt><trkpt lat="45.366523727574375" lon="7.6148173241641475"><ele>603.6666666666667</ele><time>2026-05-02T16:30:05Z</time></trkpt><trkpt lat="45.366449524720494" lon="7.614911613961564"><ele>602.3333333333334</ele><time>2026-05-02T16:30:06Z</time></trkpt><trkpt lat="45.36639475512789" lon="7.614983633345937"><ele>601.0</ele><time>2026-05-02T16:30:07Z</time></trkpt><trkpt lat="45.36633520962017" lon="7.615029860832923"><ele>601.0</ele><time>2026-05-02T16:30:08Z</time></trkpt><trkpt lat="45.36627994872679" lon="7.615076920451996"><ele>601.0</ele><time>2026-05-02T16:30:09Z</time></trkpt><trkpt lat="45.36618709773373" lon="7.615086972019963"><ele>601.0</ele><time>2026-05-02T16:30:11Z</time></trkpt><trkpt lat="45.36610782858438" lon="7.614990812239273"><ele>601.0</ele><time>2026-05-02T16:30:14Z</time></trkpt><trkpt lat="45.36606789077659" lon="7.6149049242480755"><ele>601.0</ele><time>2026-05-02T16:30:15Z</time></trkpt><trkpt lat="45.36602434185601" lon="7.614838674023166"><ele>601.0</ele><time>2026-05-02T16:30:16Z</time></trkpt><trkpt lat="45.3658855421414" lon="7.614749274501377"><ele>601.0</ele><time>2026-05-02T16:30:18Z</time></trkpt><trkpt lat="45.365810919288975" lon="7.614713786385082"><ele>601.0</ele><time>2026-05-02T16:30:19Z</time></trkpt><trkpt lat="45.36574172853743" lon="7.614633308243643"><ele>601.0</ele><time>2026-05-02T16:30:20Z</time></trkpt><trkpt lat="45.365686012690226" lon="7.614557822232966"><ele>601.0</ele><time>2026-05-02T16:30:21Z</time></trkpt><trkpt lat="45.36561081098764" lon="7.6145199908698915"><ele>601.0</ele><time>2026-05-02T16:30:23Z</time></trkpt><trkpt lat="45.36548295855638" lon="7.61455240816578"><ele>600.1666666666667</ele><time>2026-05-02T16:30:25Z</time></trkpt><trkpt lat="45.36536019690657" lon="7.614609594730283"><ele>599.3333333333334</ele><time>2026-05-02T16:30:27Z</time></trkpt><trkpt lat="45.365293867798535" lon="7.61461993543841"><ele>598.5</ele><time>2026-05-02T16:30:28Z</time></trkpt><trkpt lat="45.36522927364229" lon="7.614648806375386"><ele>597.6666666666666</ele><time>2026-05-02T16:30:29Z</time></trkpt><trkpt lat="45.365171340720885" lon="7.614690162248113"><ele>596.8333333333333</ele><time>2026-05-02T16:30:30Z</time></trkpt><trkpt lat="45.36512416214328" lon="7.614758652952432"><ele>596.0</ele><time>2026-05-02T16:30:31Z</time></trkpt><trkpt lat="45.36509256215326" lon="7.614883377634129"><ele>596.0</ele><time>2026-05-02T16:30:33Z</time></trkpt><trkpt lat="45.36515613336646" lon="7.614947382322613"><ele>596.0</ele><time>2026-05-02T16:30:36Z</time></trkpt><trkpt lat="45.3650497804488" lon="7.615065406879601"><ele>596.0</ele><time>2026-05-02T16:30:38Z</time></trkpt><trkpt lat="45.36503417340265" lon="7.614975848882036"><ele>596.0</ele><time>2026-05-02T16:30:39Z</time></trkpt><trkpt lat="45.36493838755906" lon="7.615024231668172"><ele>596.0</ele><time>2026-05-02T16:30:40Z</time></trkpt><trkpt lat="45.36484206220298" lon="7.615077411288904"><ele>596.0</ele><time>2026-05-02T16:30:41Z</time></trkpt><trkpt lat="45.364739290215894" lon="7.6151341514438"><ele>596.0</ele><time>2026-05-02T16:30:42Z</time></trkpt><trkpt lat="45.36464405699016" lon="7.61517657355579"><ele>596.0</ele><time>2026-05-02T16:30:42.999Z</time></trkpt><trkpt lat="45.36454730431091" lon="7.615221603783291"><ele>596.0</ele><time>2026-05-02T16:30:43.999Z</time></trkpt><trkpt lat="45.36446765680621" lon="7.6152698470828595"><ele>596.0</ele><time>2026-05-02T16:30:44.999Z</time></trkpt><trkpt lat="45.36450720979253" lon="7.615825573666833"><ele>597.0</ele><time>2026-05-02T16:30:45.999Z</time></trkpt><trkpt lat="45.36448185113128" lon="7.616010300485544"><ele>598.0</ele><time>2026-05-02T16:30:46.999Z</time></trkpt><trkpt lat="45.364486309570395" lon="7.616167159287965"><ele>599.0</ele><time>2026-05-02T16:30:47.999Z</time></trkpt><trkpt lat="45.36449950591288" lon="7.61633285549398"><ele>600.0</ele><time>2026-05-02T16:30:48.999Z</time></trkpt><trkpt lat="45.36455170345399" lon="7.616521629944296"><ele>600.0</ele><time>2026-05-02T16:30:49.999Z</time></trkpt><trkpt lat="45.3646284246657" lon="7.616751683208024"><ele>600.0</ele><time>2026-05-02T16:30:50.999Z</time></trkpt><trkpt lat="45.36470458201279" lon="7.616991104416975"><ele>600.0</ele><time>2026-05-02T16:30:51.999Z</time></trkpt><trkpt lat="45.36475415152415" lon="7.617203813162582"><ele>597.0</ele><time>2026-05-02T16:30:52.999Z</time></trkpt><trkpt lat="45.36479718085102" lon="7.617395164425603"><ele>594.0</ele><time>2026-05-02T16:30:53.999Z</time></trkpt><trkpt lat="45.36481744177728" lon="7.617602876100685"><ele>591.0</ele><time>2026-05-02T16:30:54.999Z</time></trkpt><trkpt lat="45.36483726902321" lon="7.617807648706666"><ele>588.0</ele><time>2026-05-02T16:30:55.999Z</time></trkpt><trkpt lat="45.364854233860385" lon="7.617990959892287"><ele>588.0</ele><time>2026-05-02T16:30:56.999Z</time></trkpt><trkpt lat="45.36486577809587" lon="7.61819929437683"><ele>588.0</ele><time>2026-05-02T16:30:57.999Z</time></trkpt><trkpt lat="45.36484754324054" lon="7.6184167240578065"><ele>588.0</ele><time>2026-05-02T16:30:58.999Z</time></trkpt><trkpt lat="45.36480581441362" lon="7.6186773281707"><ele>586.3333333333334</ele><time>2026-05-02T16:30:59.999Z</time></trkpt><trkpt lat="45.36475001048979" lon="7.618908849482702"><ele>584.6666666666667</ele><time>2026-05-02T16:31:00.999Z</time></trkpt><trkpt lat="45.364700737849724" lon="7.6191126406448015"><ele>583.0</ele><time>2026-05-02T16:31:01.999Z</time></trkpt><trkpt lat="45.36464757102952" lon="7.619296120345311"><ele>584.0</ele><time>2026-05-02T16:31:02.999Z</time></trkpt><trkpt lat="45.36457676426574" lon="7.619479458723268"><ele>585.0</ele><time>2026-05-02T16:31:03.999Z</time></trkpt><trkpt lat="45.36450221445442" lon="7.619669063081877"><ele>586.0</ele><time>2026-05-02T16:31:04.999Z</time></trkpt><trkpt lat="45.3644382372341" lon="7.619850131223215"><ele>587.0</ele><time>2026-05-02T16:31:05.999Z</time></trkpt><trkpt lat="45.36438524536897" lon="7.620000336618454"><ele>587.0</ele><time>2026-05-02T16:31:06.999Z</time></trkpt><trkpt lat="45.36435794024455" lon="7.620116265070408"><ele>587.0</ele><time>2026-05-02T16:31:07.999Z</time></trkpt><trkpt lat="45.364308141006106" lon="7.620195121643609"><ele>587.0</ele><time>2026-05-02T16:31:08.999Z</time></trkpt><trkpt lat="45.36426681541935" lon="7.620293349274052"><ele>587.0</ele><time>2026-05-02T16:31:09.999Z</time></trkpt><trkpt lat="45.36415200980496" lon="7.620336905965181"><ele>587.0</ele><time>2026-05-02T16:31:10.999Z</time></trkpt><trkpt lat="45.36405928542457" lon="7.6203791885247405"><ele>586.0</ele><time>2026-05-02T16:31:11.999Z</time></trkpt><trkpt lat="45.36396203410779" lon="7.620363325839039"><ele>585.0</ele><time>2026-05-02T16:31:12.999Z</time></trkpt><trkpt lat="45.36383400868975" lon="7.620421085595485"><ele>584.0</ele><time>2026-05-02T16:31:13.999Z</time></trkpt><trkpt lat="45.363698618664635" lon="7.620452280445072"><ele>583.0</ele><time>2026-05-02T16:31:15Z</time></trkpt><trkpt lat="45.3635878098846" lon="7.620493274438034"><ele>581.25</ele><time>2026-05-02T16:31:16Z</time></trkpt><trkpt lat="45.36348553809283" lon="7.6205769671892"><ele>579.5</ele><time>2026-05-02T16:31:17Z</time></trkpt><trkpt lat="45.36335341912637" lon="7.620725415148098"><ele>577.75</ele><time>2026-05-02T16:31:18Z</time></trkpt><trkpt lat="45.3632521060553" lon="7.620882430086068"><ele>576.0</ele><time>2026-05-02T16:31:19Z</time></trkpt><trkpt lat="45.36316419443034" lon="7.6209907092269"><ele>576.0</ele><time>2026-05-02T16:31:20Z</time></trkpt><trkpt lat="45.36307387531674" lon="7.621066960194798"><ele>576.0</ele><time>2026-05-02T16:31:21Z</time></trkpt><trkpt lat="45.362975014157094" lon="7.6211283076798715"><ele>576.0</ele><time>2026-05-02T16:31:22Z</time></trkpt><trkpt lat="45.36288848694688" lon="7.6211883275395715"><ele>576.0</ele><time>2026-05-02T16:31:23Z</time></trkpt><trkpt lat="45.362809511553166" lon="7.621266837739062"><ele>576.0</ele><time>2026-05-02T16:31:24Z</time></trkpt><trkpt lat="45.36273863212155" lon="7.621388987441677"><ele>572.25</ele><time>2026-05-02T16:31:25Z</time></trkpt><trkpt lat="45.36266875071831" lon="7.621534227507712"><ele>568.5</ele><time>2026-05-02T16:31:26Z</time></trkpt><trkpt lat="45.36260048254112" lon="7.6216631387345"><ele>564.75</ele><time>2026-05-02T16:31:27Z</time></trkpt><trkpt lat="45.36249693869436" lon="7.621727332382898"><ele>561.0</ele><time>2026-05-02T16:31:28Z</time></trkpt><trkpt lat="45.362391287200616" lon="7.621829158674943"><ele>561.0</ele><time>2026-05-02T16:31:29Z</time></trkpt><trkpt lat="45.36230501864055" lon="7.621913854547932"><ele>561.0</ele><time>2026-05-02T16:31:30Z</time></trkpt><trkpt lat="45.362205007390145" lon="7.622062594786617"><ele>561.0</ele><time>2026-05-02T16:31:31Z</time></trkpt><trkpt lat="45.36211921473058" lon="7.622259395810337"><ele>561.0</ele><time>2026-05-02T16:31:32Z</time></trkpt><trkpt lat="45.362049766280634" lon="7.6224106462566725"><ele>556.5</ele><time>2026-05-02T16:31:33Z</time></trkpt><trkpt lat="45.3619933875396" lon="7.622543909070189"><ele>552.0</ele><time>2026-05-02T16:31:34Z</time></trkpt><trkpt lat="45.361955539869754" lon="7.622689579123508"><ele>547.5</ele><time>2026-05-02T16:31:35Z</time></trkpt><trkpt lat="45.36191444748995" lon="7.6228459684776695"><ele>543.0</ele><time>2026-05-02T16:31:36Z</time></trkpt><trkpt lat="45.36186204849951" lon="7.6229981397244035"><ele>542.1999999999999</ele><time>2026-05-02T16:31:37Z</time></trkpt><trkpt lat="45.36183430120673" lon="7.623117192860651"><ele>541.4</ele><time>2026-05-02T16:31:38Z</time></trkpt><trkpt lat="45.3618190360128" lon="7.623241958590181"><ele>540.5999999999999</ele><time>2026-05-02T16:31:39Z</time></trkpt><trkpt lat="45.36181839923477" lon="7.623381224911298"><ele>539.8</ele><time>2026-05-02T16:31:40Z</time></trkpt><trkpt lat="45.36183621894988" lon="7.623515645605954"><ele>539.0</ele><time>2026-05-02T16:31:41Z</time></trkpt><trkpt lat="45.361843420551146" lon="7.623676765471017"><ele>537.8333333333333</ele><time>2026-05-02T16:31:42Z</time></trkpt><trkpt lat="45.36185920490778" lon="7.623807581395517"><ele>536.6666666666666</ele><time>2026-05-02T16:31:43Z</time></trkpt><trkpt lat="45.361892184510815" lon="7.623944678489783"><ele>535.5</ele><time>2026-05-02T16:31:44Z</time></trkpt><trkpt lat="45.361915413879366" lon="7.624038116725395"><ele>534.3333333333334</ele><time>2026-05-02T16:31:45Z</time></trkpt><trkpt lat="45.3619257760563" lon="7.6241440425897675"><ele>533.1666666666667</ele><time>2026-05-02T16:31:47Z</time></trkpt><trkpt lat="45.361900831582936" lon="7.624283584310114"><ele>532.0</ele><time>2026-05-02T16:31:49Z</time></trkpt><trkpt lat="45.36184565719051" lon="7.624397463379195"><ele>531.0</ele><time>2026-05-02T16:31:50Z</time></trkpt><trkpt lat="45.36180689346557" lon="7.624508070981521"><ele>530.0</ele><time>2026-05-02T16:31:51Z</time></trkpt><trkpt lat="45.361752089826815" lon="7.624690523136676"><ele>529.0</ele><time>2026-05-02T16:31:52Z</time></trkpt><trkpt lat="45.36171802983072" lon="7.624809745473868"><ele>528.0</ele><time>2026-05-02T16:31:53Z</time></trkpt><trkpt lat="45.36171206291442" lon="7.624907885255357"><ele>527.0</ele><time>2026-05-02T16:31:54Z</time></trkpt><trkpt lat="45.361703286245216" lon="7.625013739534866"><ele>527.0</ele><time>2026-05-02T16:31:55Z</time></trkpt><trkpt lat="45.36173207071513" lon="7.625124269502129"><ele>527.0</ele><time>2026-05-02T16:31:56Z</time></trkpt><trkpt lat="45.36180457209886" lon="7.625252500013108"><ele>527.0</ele><time>2026-05-02T16:31:57Z</time></trkpt><trkpt lat="45.3618867313124" lon="7.6254507181156805"><ele>527.0</ele><time>2026-05-02T16:31:58Z</time></trkpt><trkpt lat="45.36196489151854" lon="7.6256096669480655"><ele>525.1666666666666</ele><time>2026-05-02T16:31:59Z</time></trkpt><trkpt lat="45.362015294619425" lon="7.625706611357629"><ele>523.3333333333333</ele><time>2026-05-02T16:32:00Z</time></trkpt><trkpt lat="45.36205328152564" lon="7.625806929097016"><ele>521.5</ele><time>2026-05-02T16:32:02Z</time></trkpt><trkpt lat="45.36199898904956" lon="7.625876738915616"><ele>519.6666666666666</ele><time>2026-05-02T16:32:04Z</time></trkpt><trkpt lat="45.36190686450536" lon="7.625913508295388"><ele>517.8333333333334</ele><time>2026-05-02T16:32:05Z</time></trkpt><trkpt lat="45.36184784467287" lon="7.625978783553047"><ele>516.0</ele><time>2026-05-02T16:32:06Z</time></trkpt><trkpt lat="45.36181900058099" lon="7.626071600390236"><ele>515.0</ele><time>2026-05-02T16:32:07Z</time></trkpt><trkpt lat="45.3617947755262" lon="7.62619242496559"><ele>514.0</ele><time>2026-05-02T16:32:08Z</time></trkpt><trkpt lat="45.36178737656801" lon="7.626323137733962"><ele>513.0</ele><time>2026-05-02T16:32:09Z</time></trkpt><trkpt lat="45.36178563282183" lon="7.626501133798495"><ele>512.0</ele><time>2026-05-02T16:32:11Z</time></trkpt><trkpt lat="45.361854759170235" lon="7.626630318027498"><ele>511.0</ele><time>2026-05-02T16:32:12Z</time></trkpt><trkpt lat="45.36194918263895" lon="7.626741656147986"><ele>511.0</ele><time>2026-05-02T16:32:13Z</time></trkpt><trkpt lat="45.36199684448455" lon="7.626809748567666"><ele>511.0</ele><time>2026-05-02T16:32:14Z</time></trkpt><trkpt lat="45.361987699761265" lon="7.627019481959199"><ele>511.0</ele><time>2026-05-02T16:32:16Z</time></trkpt><trkpt lat="45.36200138136584" lon="7.627168528442559"><ele>511.0</ele><time>2026-05-02T16:32:17Z</time></trkpt><trkpt lat="45.36200646372656" lon="7.627290526197038"><ele>511.0</ele><time>2026-05-02T16:32:18Z</time></trkpt><trkpt lat="45.3620681354095" lon="7.627432440273363"><ele>508.5</ele><time>2026-05-02T16:32:19Z</time></trkpt><trkpt lat="45.36218295597069" lon="7.627599333260299"><ele>506.0</ele><time>2026-05-02T16:32:20Z</time></trkpt><trkpt lat="45.362278833616244" lon="7.627745013676772"><ele>503.5</ele><time>2026-05-02T16:32:21Z</time></trkpt><trkpt lat="45.36232728813513" lon="7.627833129327797"><ele>501.0</ele><time>2026-05-02T16:32:22Z</time></trkpt><trkpt lat="45.362347454540526" lon="7.62803029208891"><ele>500.75</ele><time>2026-05-02T16:32:24Z</time></trkpt><trkpt lat="45.362330266768026" lon="7.628219262071274"><ele>500.5</ele><time>2026-05-02T16:32:25Z</time></trkpt><trkpt lat="45.362259803486126" lon="7.628387018657408"><ele>500.25</ele><time>2026-05-02T16:32:26Z</time></trkpt><trkpt lat="45.36220445833234" lon="7.628581982760417"><ele>500.0</ele><time>2026-05-02T16:32:26.999Z</time></trkpt><trkpt lat="45.36218262029037" lon="7.6287445962979294"><ele>500.0</ele><time>2026-05-02T16:32:27.999Z</time></trkpt><trkpt lat="45.362171284883225" lon="7.62889418647567"><ele>500.0</ele><time>2026-05-02T16:32:28.999Z</time></trkpt><trkpt lat="45.36210922529266" lon="7.629019381595714"><ele>500.0</ele><time>2026-05-02T16:32:29.999Z</time></trkpt><trkpt lat="45.36205144711031" lon="7.629176202166045"><ele>500.0</ele><time>2026-05-02T16:32:30.999Z</time></trkpt><trkpt lat="45.36197187967313" lon="7.6293315398098"><ele>500.2</ele><time>2026-05-02T16:32:31.999Z</time></trkpt><trkpt lat="45.36190957734949" lon="7.629492379083398"><ele>500.4</ele><time>2026-05-02T16:32:32.999Z</time></trkpt><trkpt lat="45.36185842934811" lon="7.629625742001969"><ele>500.6</ele><time>2026-05-02T16:32:33.999Z</time></trkpt><trkpt lat="45.36181688895375" lon="7.629746323253687"><ele>500.8</ele><time>2026-05-02T16:32:34.999Z</time></trkpt><trkpt lat="45.36180232190911" lon="7.629896303473393"><ele>501.0</ele><time>2026-05-02T16:32:35.999Z</time></trkpt><trkpt lat="45.361800455508344" lon="7.630024504590926"><ele>501.0</ele><time>2026-05-02T16:32:36.999Z</time></trkpt><trkpt lat="45.36182260897422" lon="7.630159635243112"><ele>501.0</ele><time>2026-05-02T16:32:37.999Z</time></trkpt><trkpt lat="45.36183903875138" lon="7.630264102888455"><ele>501.0</ele><time>2026-05-02T16:32:38.999Z</time></trkpt><trkpt lat="45.36185375794183" lon="7.630364152738999"><ele>501.0</ele><time>2026-05-02T16:32:39.999Z</time></trkpt><trkpt lat="45.3618833025028" lon="7.630507121783622"><ele>501.0</ele><time>2026-05-02T16:32:40.999Z</time></trkpt><trkpt lat="45.36193599713978" lon="7.6306786786181995"><ele>501.25</ele><time>2026-05-02T16:32:41.999Z</time></trkpt><trkpt lat="45.36198833571183" lon="7.630844600662075"><ele>501.5</ele><time>2026-05-02T16:32:42.999Z</time></trkpt><trkpt lat="45.362032312799535" lon="7.630966905125831"><ele>501.75</ele><time>2026-05-02T16:32:43.999Z</time></trkpt><trkpt lat="45.36210088134784" lon="7.63108390212831"><ele>502.0</ele><time>2026-05-02T16:32:44.999Z</time></trkpt><trkpt lat="45.36222980292967" lon="7.63122812896915"><ele>502.0</ele><time>2026-05-02T16:32:45.999Z</time></trkpt><trkpt lat="45.36234920806888" lon="7.631357213387912"><ele>502.0</ele><time>2026-05-02T16:32:46.999Z</time></trkpt><trkpt lat="45.362437878777484" lon="7.631462859848299"><ele>502.0</ele><time>2026-05-02T16:32:47.999Z</time></trkpt><trkpt lat="45.362500605635425" lon="7.631588101444775"><ele>502.0</ele><time>2026-05-02T16:32:48.999Z</time></trkpt><trkpt lat="45.36256198633338" lon="7.631766121880082"><ele>502.0</ele><time>2026-05-02T16:32:49.999Z</time></trkpt><trkpt lat="45.362647549077685" lon="7.631891676872117"><ele>502.00000000000006</ele><time>2026-05-02T16:32:50.999Z</time></trkpt><trkpt lat="45.36269993566086" lon="7.6319761497993275"><ele>502.00000000000006</ele><time>2026-05-02T16:32:51.999Z</time></trkpt><trkpt lat="45.362747271958646" lon="7.632086729362159"><ele>502.0</ele><time>2026-05-02T16:32:53.999Z</time></trkpt><trkpt lat="45.3627265589402" lon="7.632194759464929"><ele>502.0</ele><time>2026-05-02T16:32:54.999Z</time></trkpt><trkpt lat="45.36266253235552" lon="7.632331745545765"><ele>499.40000000000003</ele><time>2026-05-02T16:32:55.999Z</time></trkpt><trkpt lat="45.362601761275386" lon="7.632466966682743"><ele>496.80000000000007</ele><time>2026-05-02T16:32:56.999Z</time></trkpt><trkpt lat="45.36255519031029" lon="7.6325784087275474"><ele>494.2</ele><time>2026-05-02T16:32:57.999Z</time></trkpt><trkpt lat="45.36251947560654" lon="7.632732515007831"><ele>491.6</ele><time>2026-05-02T16:32:59.999Z</time></trkpt><trkpt lat="45.36253696142166" lon="7.632871767390497"><ele>489.0</ele><time>2026-05-02T16:33:00.999Z</time></trkpt><trkpt lat="45.3625983807781" lon="7.633036908272747"><ele>487.4</ele><time>2026-05-02T16:33:01.999Z</time></trkpt><trkpt lat="45.36267304354608" lon="7.633178323838379"><ele>485.79999999999995</ele><time>2026-05-02T16:33:02.999Z</time></trkpt><trkpt lat="45.36274022774057" lon="7.633271531868314"><ele>484.20000000000005</ele><time>2026-05-02T16:33:03.999Z</time></trkpt><trkpt lat="45.362828599248836" lon="7.633354471439821"><ele>482.6</ele><time>2026-05-02T16:33:04.999Z</time></trkpt><trkpt lat="45.36293404220454" lon="7.633426273913937"><ele>481.0</ele><time>2026-05-02T16:33:05.999Z</time></trkpt><trkpt lat="45.36300595413359" lon="7.633463574786997"><ele>483.6</ele><time>2026-05-02T16:33:06.999Z</time></trkpt><trkpt lat="45.36310870194457" lon="7.633471016358147"><ele>486.20000000000005</ele><time>2026-05-02T16:33:42Z</time></trkpt><trkpt lat="45.363188952386004" lon="7.633551670244122"><ele>488.79999999999995</ele><time>2026-05-02T16:33:43Z</time></trkpt><trkpt lat="45.363244854854436" lon="7.633656662156439"><ele>491.4</ele><time>2026-05-02T16:33:44Z</time></trkpt><trkpt lat="45.363245470437924" lon="7.63380162303309"><ele>494.0</ele><time>2026-05-02T16:33:45Z</time></trkpt><trkpt lat="45.3632806777073" lon="7.633974286280008"><ele>494.0</ele><time>2026-05-02T16:33:46Z</time></trkpt><trkpt lat="45.36333336060921" lon="7.634140470768379"><ele>494.0</ele><time>2026-05-02T16:33:47Z</time></trkpt><trkpt lat="45.36337042303508" lon="7.6342768266743315"><ele>494.0</ele><time>2026-05-02T16:33:48Z</time></trkpt><trkpt lat="45.363381486947276" lon="7.634375985503273"><ele>494.0</ele><time>2026-05-02T16:33:49Z</time></trkpt><trkpt lat="45.3633417183662" lon="7.634498740203059"><ele>494.0</ele><time>2026-05-02T16:33:51Z</time></trkpt><trkpt lat="45.36326190005896" lon="7.634550566657177"><ele>493.5</ele><time>2026-05-02T16:33:52Z</time></trkpt><trkpt lat="45.363136696382526" lon="7.6346202108424945"><ele>493.0</ele><time>2026-05-02T16:33:53Z</time></trkpt><trkpt lat="45.36301961711567" lon="7.634714606130268"><ele>492.5</ele><time>2026-05-02T16:33:54Z</time></trkpt><trkpt lat="45.36293974787108" lon="7.634815253738035"><ele>492.0</ele><time>2026-05-02T16:33:55Z</time></trkpt><trkpt lat="45.36287804707033" lon="7.634898746840195"><ele>491.0</ele><time>2026-05-02T16:33:56Z</time></trkpt><trkpt lat="45.36282190866586" lon="7.634996160116302"><ele>490.00000000000006</ele><time>2026-05-02T16:33:57Z</time></trkpt><trkpt lat="45.362751294321136" lon="7.635104841978306"><ele>489.00000000000006</ele><time>2026-05-02T16:33:59Z</time></trkpt><trkpt lat="45.36264902267791" lon="7.635172290242384"><ele>488.0</ele><time>2026-05-02T16:34:01Z</time></trkpt><trkpt lat="45.36255873363027" lon="7.635233470643267"><ele>487.0</ele><time>2026-05-02T16:34:02Z</time></trkpt><trkpt lat="45.36243384058793" lon="7.635340407318853"><ele>487.0</ele><time>2026-05-02T16:34:03Z</time></trkpt><trkpt lat="45.3623195522475" lon="7.635447057845917"><ele>487.00000000000006</ele><time>2026-05-02T16:34:04Z</time></trkpt><trkpt lat="45.36222266858494" lon="7.635532991043498"><ele>487.00000000000006</ele><time>2026-05-02T16:34:05Z</time></trkpt><trkpt lat="45.362137919443" lon="7.635628413184971"><ele>487.0</ele><time>2026-05-02T16:34:06Z</time></trkpt><trkpt lat="45.36209046743825" lon="7.635734016880387"><ele>487.0</ele><time>2026-05-02T16:34:07Z</time></trkpt><trkpt lat="45.36203431154723" lon="7.635859899881129"><ele>487.0</ele><time>2026-05-02T16:34:08Z</time></trkpt><trkpt lat="45.36195916843515" lon="7.635960324305259"><ele>487.00000000000006</ele><time>2026-05-02T16:34:09Z</time></trkpt><trkpt lat="45.36188454579255" lon="7.636030360717999"><ele>487.00000000000006</ele><time>2026-05-02T16:34:10Z</time></trkpt><trkpt lat="45.36180388084966" lon="7.636063195837453"><ele>487.0</ele><time>2026-05-02T16:34:12Z</time></trkpt><trkpt lat="45.36173380823028" lon="7.63587402339927"><ele>487.0</ele><time>2026-05-02T16:34:14Z</time></trkpt><trkpt lat="45.3616961474821" lon="7.635762591143644"><ele>487.0</ele><time>2026-05-02T16:34:15Z</time></trkpt><trkpt lat="45.3616479049082" lon="7.635702024035239"><ele>487.0</ele><time>2026-05-02T16:34:16Z</time></trkpt><trkpt lat="45.36148988728406" lon="7.635759073419962"><ele>487.0</ele><time>2026-05-02T16:34:18Z</time></trkpt><trkpt lat="45.36138460894195" lon="7.635835233545364"><ele>487.0</ele><time>2026-05-02T16:34:19Z</time></trkpt><trkpt lat="45.361272505125854" lon="7.635908116311459"><ele>483.33333333333337</ele><time>2026-05-02T16:34:20Z</time></trkpt><trkpt lat="45.361105426541904" lon="7.63597756430593"><ele>479.66666666666663</ele><time>2026-05-02T16:34:21Z</time></trkpt><trkpt lat="45.360958478731995" lon="7.636019330003526"><ele>476.0</ele><time>2026-05-02T16:34:22Z</time></trkpt><trkpt lat="45.360825965691305" lon="7.6361092181043215"><ele>474.3333333333333</ele><time>2026-05-02T16:34:23Z</time></trkpt><trkpt lat="45.36067678770647" lon="7.6362300022178315"><ele>472.66666666666663</ele><time>2026-05-02T16:34:24Z</time></trkpt><trkpt lat="45.36051122058517" lon="7.636320264015725"><ele>471.0</ele><time>2026-05-02T16:34:25Z</time></trkpt><trkpt lat="45.36037956942485" lon="7.6363697417207135"><ele>470.6</ele><time>2026-05-02T16:34:26Z</time></trkpt><trkpt lat="45.36029358152627" lon="7.636462429300868"><ele>470.20000000000005</ele><time>2026-05-02T16:34:27Z</time></trkpt><trkpt lat="45.36019919370613" lon="7.63653512305427"><ele>469.79999999999995</ele><time>2026-05-02T16:34:28Z</time></trkpt><trkpt lat="45.360107549230165" lon="7.636607839223717"><ele>469.4</ele><time>2026-05-02T16:34:29Z</time></trkpt><trkpt lat="45.36001887936724" lon="7.636644988761643"><ele>469.0</ele><time>2026-05-02T16:34:30Z</time></trkpt><trkpt lat="45.35996038987234" lon="7.636703559222515"><ele>469.00000000000006</ele><time>2026-05-02T16:34:31Z</time></trkpt><trkpt lat="45.35989476751744" lon="7.636716340819552"><ele>469.0</ele><time>2026-05-02T16:34:32.999Z</time></trkpt><trkpt lat="45.35998855998683" lon="7.636706888026684"><ele>469.0</ele><time>2026-05-02T16:34:36.999Z</time></trkpt><trkpt lat="45.36004914953526" lon="7.636649319589879"><ele>469.0</ele><time>2026-05-02T16:34:37.999Z</time></trkpt><trkpt lat="45.36011536185839" lon="7.636597429163175"><ele>469.00000000000006</ele><time>2026-05-02T16:34:38.999Z</time></trkpt><trkpt lat="45.360184146703425" lon="7.636550815936189"><ele>469.0</ele><time>2026-05-02T16:34:39.999Z</time></trkpt><trkpt lat="45.36028383213615" lon="7.636536403573822"><ele>469.0</ele><time>2026-05-02T16:34:41.999Z</time></trkpt><trkpt lat="45.360439015012396" lon="7.636487847686344"><ele>469.0</ele><time>2026-05-02T16:34:43.999Z</time></trkpt><trkpt lat="45.360487439984844" lon="7.636383836811141"><ele>469.0</ele><time>2026-05-02T16:34:44.999Z</time></trkpt><trkpt lat="45.360567982182005" lon="7.636451297268002"><ele>469.0</ele><time>2026-05-02T16:34:45.999Z</time></trkpt><trkpt lat="45.36059040666099" lon="7.636592201172058"><ele>469.0</ele><time>2026-05-02T16:34:48.999Z</time></trkpt><trkpt lat="45.36061905437495" lon="7.636721705905913"><ele>469.4</ele><time>2026-05-02T16:34:49.999Z</time></trkpt><trkpt lat="45.360619053991485" lon="7.636820217740426"><ele>469.79999999999995</ele><time>2026-05-02T16:34:50.999Z</time></trkpt><trkpt lat="45.36065053800447" lon="7.637035757751598"><ele>470.20000000000005</ele><time>2026-05-02T16:34:52.999Z</time></trkpt><trkpt lat="45.3607624806809" lon="7.6371759931040755"><ele>470.6</ele><time>2026-05-02T16:34:54.999Z</time></trkpt><trkpt lat="45.360819026299765" lon="7.637239967461098"><ele>471.0</ele><time>2026-05-02T16:34:55.999Z</time></trkpt><trkpt lat="45.36086363195919" lon="7.637409698170657"><ele>468.4</ele><time>2026-05-02T16:34:57.999Z</time></trkpt><trkpt lat="45.36093886320557" lon="7.637536602070348"><ele>465.8</ele><time>2026-05-02T16:34:59.999Z</time></trkpt><trkpt lat="45.36098859038633" lon="7.6376071457650285"><ele>463.19999999999993</ele><time>2026-05-02T16:35:00.999Z</time></trkpt><trkpt lat="45.36112985456741" lon="7.637634424926634"><ele>460.59999999999997</ele><time>2026-05-02T16:35:02.999Z</time></trkpt><trkpt lat="45.36121972132386" lon="7.637629043725894"><ele>458.0</ele><time>2026-05-02T16:35:03.999Z</time></trkpt><trkpt lat="45.3613143351265" lon="7.6376856587950135"><ele>457.0</ele><time>2026-05-02T16:35:06.999Z</time></trkpt><trkpt lat="45.36129303548253" lon="7.637807214380317"><ele>455.99999999999994</ele><time>2026-05-02T16:35:07.999Z</time></trkpt><trkpt lat="45.36126405325058" lon="7.637955908340284"><ele>454.99999999999994</ele><time>2026-05-02T16:35:08.999Z</time></trkpt><trkpt lat="45.36124181586147" lon="7.638128938926674"><ele>454.0</ele><time>2026-05-02T16:35:09.999Z</time></trkpt><trkpt lat="45.361244840801255" lon="7.6382461690805625"><ele>453.0</ele><time>2026-05-02T16:35:10.999Z</time></trkpt><trkpt lat="45.36118485398039" lon="7.638390426558369"><ele>453.0</ele><time>2026-05-02T16:35:11.999Z</time></trkpt><trkpt lat="45.361140271270166" lon="7.638493055970837"><ele>453.0</ele><time>2026-05-02T16:35:12.999Z</time></trkpt><trkpt lat="45.361082814754674" lon="7.63859086751433"><ele>453.0</ele><time>2026-05-02T16:35:13.999Z</time></trkpt><trkpt lat="45.36103659347661" lon="7.638691954544939"><ele>453.0</ele><time>2026-05-02T16:35:15.999Z</time></trkpt><trkpt lat="45.36096781246145" lon="7.6386785062107"><ele>453.0</ele><time>2026-05-02T16:35:16.999Z</time></trkpt><trkpt lat="45.360909479340286" lon="7.638726839217298"><ele>453.0</ele><time>2026-05-02T16:35:17.999Z</time></trkpt><trkpt lat="45.360861252832244" lon="7.638811312507816"><ele>452.0</ele><time>2026-05-02T16:35:19.999Z</time></trkpt><trkpt lat="45.360817174524875" lon="7.63888333801724"><ele>451.0</ele><time>2026-05-02T16:35:20.999Z</time></trkpt><trkpt lat="45.36078048409852" lon="7.638989221116044"><ele>450.0</ele><time>2026-05-02T16:35:21.999Z</time></trkpt><trkpt lat="45.360772336480515" lon="7.639140788121118"><ele>449.0</ele><time>2026-05-02T16:35:22.999Z</time></trkpt><trkpt lat="45.3607793465494" lon="7.63924567780512"><ele>448.0</ele><time>2026-05-02T16:35:23.999Z</time></trkpt><trkpt lat="45.360813656071365" lon="7.639331451466218"><ele>447.0</ele><time>2026-05-02T16:35:27Z</time></trkpt><trkpt lat="45.360872543845225" lon="7.639462823623412"><ele>445.0</ele><time>2026-05-02T16:35:29Z</time></trkpt><trkpt lat="45.36092201016521" lon="7.6395681260584"><ele>443.0</ele><time>2026-05-02T16:35:30Z</time></trkpt><trkpt lat="45.36092082544587" lon="7.639713144999165"><ele>441.0</ele><time>2026-05-02T16:35:32Z</time></trkpt><trkpt lat="45.36095225292152" lon="7.639872450216155"><ele>439.0</ele><time>2026-05-02T16:35:34Z</time></trkpt><trkpt lat="45.36095808917162" lon="7.640143275346132"><ele>436.4</ele><time>2026-05-02T16:35:36Z</time></trkpt><trkpt lat="45.360928146730714" lon="7.640343746867166"><ele>433.79999999999995</ele><time>2026-05-02T16:35:37Z</time></trkpt><trkpt lat="45.360912402771646" lon="7.640476510082326"><ele>431.20000000000005</ele><time>2026-05-02T16:35:38Z</time></trkpt><trkpt lat="45.36090518532667" lon="7.640570871058502"><ele>428.6</ele><time>2026-05-02T16:35:39Z</time></trkpt><trkpt lat="45.36097319192895" lon="7.6406161374659884"><ele>426.0</ele><time>2026-05-02T16:35:43Z</time></trkpt><trkpt lat="45.361031289741824" lon="7.640557845796235"><ele>426.0</ele><time>2026-05-02T16:35:44Z</time></trkpt><trkpt lat="45.361057099853376" lon="7.6404308162941765"><ele>426.0</ele><time>2026-05-02T16:35:49Z</time></trkpt><trkpt lat="45.36108614769105" lon="7.640334769867342"><ele>426.0</ele><time>2026-05-02T16:35:51Z</time></trkpt><trkpt lat="45.36116756391354" lon="7.640174799656367"><ele>426.0</ele><time>2026-05-02T16:35:53Z</time></trkpt><trkpt lat="45.36122762094204" lon="7.640135720442628"><ele>426.0</ele><time>2026-05-02T16:35:56Z</time></trkpt><trkpt lat="45.36131395222485" lon="7.640013493467883"><ele>423.75</ele><time>2026-05-02T16:35:57Z</time></trkpt><trkpt lat="45.36140328285964" lon="7.6399418236851275"><ele>421.5</ele><time>2026-05-02T16:35:58Z</time></trkpt><trkpt lat="45.36149115920759" lon="7.63992470393794"><ele>419.25</ele><time>2026-05-02T16:36:00Z</time></trkpt><trkpt lat="45.36157512026991" lon="7.6398113800451295"><ele>417.0</ele><time>2026-05-02T16:36:02Z</time></trkpt><trkpt lat="45.361620256676964" lon="7.639594026007665"><ele>421.25</ele><time>2026-05-02T16:36:04Z</time></trkpt><trkpt lat="45.361659226485315" lon="7.639433426313137"><ele>425.5</ele><time>2026-05-02T16:36:05Z</time></trkpt><trkpt lat="45.36167651432514" lon="7.639290115709928"><ele>429.75</ele><time>2026-05-02T16:36:06Z</time></trkpt><trkpt lat="45.36168657992412" lon="7.639149975820136"><ele>434.0</ele><time>2026-05-02T16:36:07Z</time></trkpt><trkpt lat="45.36177139095387" lon="7.6389175212259435"><ele>434.0</ele><time>2026-05-02T16:36:09Z</time></trkpt><trkpt lat="45.36183441662626" lon="7.638731666258321"><ele>434.0</ele><time>2026-05-02T16:36:10Z</time></trkpt><trkpt lat="45.361866235251405" lon="7.638581888416768"><ele>434.0</ele><time>2026-05-02T16:36:11Z</time></trkpt><trkpt lat="45.36186512734144" lon="7.638489607166032"><ele>434.0</ele><time>2026-05-02T16:36:12Z</time></trkpt><trkpt lat="45.36184457366131" lon="7.638293650745386"><ele>437.0</ele><time>2026-05-02T16:36:14Z</time></trkpt><trkpt lat="45.361820133724216" lon="7.638192918895551"><ele>440.0</ele><time>2026-05-02T16:36:17Z</time></trkpt><trkpt lat="45.36186123191032" lon="7.638072477898939"><ele>443.0</ele><time>2026-05-02T16:36:18Z</time></trkpt><trkpt lat="45.36194375717564" lon="7.637963391337637"><ele>446.0</ele><time>2026-05-02T16:36:19Z</time></trkpt><trkpt lat="45.36205334498478" lon="7.637825049521891"><ele>449.0</ele><time>2026-05-02T16:36:20Z</time></trkpt><trkpt lat="45.3621472681198" lon="7.637703570828549"><ele>449.79999999999995</ele><time>2026-05-02T16:36:21Z</time></trkpt><trkpt lat="45.362210956383514" lon="7.637632797478842"><ele>450.59999999999997</ele><time>2026-05-02T16:36:22Z</time></trkpt><trkpt lat="45.36229552573765" lon="7.637577723955626"><ele>451.4</ele><time>2026-05-02T16:36:23Z</time></trkpt><trkpt lat="45.362378845910655" lon="7.637513183088298"><ele>452.2</ele><time>2026-05-02T16:36:24Z</time></trkpt><trkpt lat="45.36245298297025" lon="7.637444334712819"><ele>453.0</ele><time>2026-05-02T16:36:26Z</time></trkpt><trkpt lat="45.36252690025131" lon="7.637556804588247"><ele>453.0</ele><time>2026-05-02T16:36:28Z</time></trkpt><trkpt lat="45.362588021767856" lon="7.637619781289548"><ele>452.99999999999994</ele><time>2026-05-02T16:36:29Z</time></trkpt><trkpt lat="45.36266854210138" lon="7.637729144809973"><ele>452.99999999999994</ele><time>2026-05-02T16:36:31Z</time></trkpt><trkpt lat="45.36270128138768" lon="7.63781093881849"><ele>453.0</ele><time>2026-05-02T16:36:32Z</time></trkpt><trkpt lat="45.362871253907954" lon="7.637816109394461"><ele>453.0</ele><time>2026-05-02T16:36:35Z</time></trkpt><trkpt lat="45.36301362192689" lon="7.637814328703369"><ele>454.25</ele><time>2026-05-02T16:36:36Z</time></trkpt><trkpt lat="45.36309420548785" lon="7.637823784699954"><ele>455.5</ele><time>2026-05-02T16:36:37Z</time></trkpt><trkpt lat="45.36328234584129" lon="7.637779558911996"><ele>456.75</ele><time>2026-05-02T16:36:38.999Z</time></trkpt><trkpt lat="45.36338793843244" lon="7.637730265260301"><ele>458.0</ele><time>2026-05-02T16:36:39.999Z</time></trkpt><trkpt lat="45.363533012218134" lon="7.6376654987318915"><ele>458.0</ele><time>2026-05-02T16:36:41.999Z</time></trkpt><trkpt lat="45.36362827427853" lon="7.637572692273319"><ele>457.99999999999994</ele><time>2026-05-02T16:36:42.999Z</time></trkpt><trkpt lat="45.363704445193164" lon="7.63752311003792"><ele>457.99999999999994</ele><time>2026-05-02T16:36:43.999Z</time></trkpt><trkpt lat="45.36375345469711" lon="7.637635532960991"><ele>458.0</ele><time>2026-05-02T16:36:46.999Z</time></trkpt><trkpt lat="45.36377310271278" lon="7.637726417921446"><ele>458.0</ele><time>2026-05-02T16:36:47.999Z</time></trkpt><trkpt lat="45.363789495958535" lon="7.637860608711148"><ele>456.2</ele><time>2026-05-02T16:36:49.999Z</time></trkpt><trkpt lat="45.36385741579478" lon="7.6378936555009185"><ele>454.4</ele><time>2026-05-02T16:36:50.999Z</time></trkpt><trkpt lat="45.36397460286335" lon="7.637874495423327"><ele>452.59999999999997</ele><time>2026-05-02T16:36:51.999Z</time></trkpt><trkpt lat="45.36408093633109" lon="7.637859365708778"><ele>450.79999999999995</ele><time>2026-05-02T16:36:52.999Z</time></trkpt><trkpt lat="45.36417358063001" lon="7.637852495873427"><ele>449.0</ele><time>2026-05-02T16:36:53.999Z</time></trkpt><trkpt lat="45.36422970547941" lon="7.637906723134525"><ele>449.0</ele><time>2026-05-02T16:37:11.999Z</time></trkpt><trkpt lat="45.36421058115584" lon="7.638051181655308"><ele>449.0</ele><time>2026-05-02T16:37:16.999Z</time></trkpt><trkpt lat="45.36416448819948" lon="7.638227547516533"><ele>449.0</ele><time>2026-05-02T16:37:19.999Z</time></trkpt><trkpt lat="45.36411705873336" lon="7.638386415185488"><ele>449.0</ele><time>2026-05-02T16:37:21.999Z</time></trkpt><trkpt lat="45.364103972238695" lon="7.638507338292991"><ele>449.0</ele><time>2026-05-02T16:37:22.999Z</time></trkpt><trkpt lat="45.36398307489266" lon="7.638617993526972"><ele>450.3333333333333</ele><time>2026-05-02T16:37:25.999Z</time></trkpt><trkpt lat="45.36390392424872" lon="7.638720082736473"><ele>451.66666666666663</ele><time>2026-05-02T16:37:27.999Z</time></trkpt><trkpt lat="45.36375225437544" lon="7.638826086312548"><ele>453.0</ele><time>2026-05-02T16:37:28.999Z</time></trkpt><trkpt lat="45.36358594700505" lon="7.638945594814987"><ele>451.5</ele><time>2026-05-02T16:37:29.999Z</time></trkpt><trkpt lat="45.3634588849338" lon="7.639029693098253"><ele>450.0</ele><time>2026-05-02T16:37:30.999Z</time></trkpt><trkpt lat="45.363356402894304" lon="7.639119554134782"><ele>448.5</ele><time>2026-05-02T16:37:31.999Z</time></trkpt><trkpt lat="45.363244494067445" lon="7.639268149498576"><ele>447.0</ele><time>2026-05-02T16:37:33Z</time></trkpt><trkpt lat="45.36310987174478" lon="7.639482998689076"><ele>440.66666666666663</ele><time>2026-05-02T16:37:34Z</time></trkpt><trkpt lat="45.362996387992496" lon="7.639716681425849"><ele>434.3333333333333</ele><time>2026-05-02T16:37:35Z</time></trkpt><trkpt lat="45.36291810728832" lon="7.639887585038368"><ele>428.0</ele><time>2026-05-02T16:37:36Z</time></trkpt><trkpt lat="45.36283339848614" lon="7.640035875804418"><ele>428.0</ele><time>2026-05-02T16:37:37Z</time></trkpt><trkpt lat="45.36273746588002" lon="7.640166903499467"><ele>428.0</ele><time>2026-05-02T16:37:38Z</time></trkpt><trkpt lat="45.36264112169843" lon="7.640276900242476"><ele>428.0</ele><time>2026-05-02T16:37:39Z</time></trkpt><trkpt lat="45.36256383708797" lon="7.640392639943869"><ele>428.0</ele><time>2026-05-02T16:37:40Z</time></trkpt><trkpt lat="45.36250356035785" lon="7.640517502912087"><ele>427.2</ele><time>2026-05-02T16:37:41Z</time></trkpt><trkpt lat="45.36246154121892" lon="7.640646400176338"><ele>426.4</ele><time>2026-05-02T16:37:42Z</time></trkpt><trkpt lat="45.362431212824454" lon="7.640781328972246"><ele>425.59999999999997</ele><time>2026-05-02T16:37:43Z</time></trkpt><trkpt lat="45.362412849542345" lon="7.640909044787762"><ele>424.79999999999995</ele><time>2026-05-02T16:37:44Z</time></trkpt><trkpt lat="45.36241643425461" lon="7.641058187447848"><ele>424.0</ele><time>2026-05-02T16:37:45Z</time></trkpt><trkpt lat="45.36243575883764" lon="7.641206229588451"><ele>424.0</ele><time>2026-05-02T16:37:46Z</time></trkpt><trkpt lat="45.36241234569542" lon="7.6413128529539875"><ele>424.0</ele><time>2026-05-02T16:37:48Z</time></trkpt><trkpt lat="45.362317449799754" lon="7.641276167482414"><ele>424.0</ele><time>2026-05-02T16:37:50Z</time></trkpt><trkpt lat="45.362258180461545" lon="7.641165754022996"><ele>424.0</ele><time>2026-05-02T16:37:51Z</time></trkpt><trkpt lat="45.36222214434607" lon="7.641016520275803"><ele>424.0</ele><time>2026-05-02T16:37:52Z</time></trkpt><trkpt lat="45.36219661202602" lon="7.6409114106384415"><ele>424.00000000000006</ele><time>2026-05-02T16:37:53Z</time></trkpt><trkpt lat="45.362198090153726" lon="7.640798931042412"><ele>424.0</ele><time>2026-05-02T16:37:54Z</time></trkpt><trkpt lat="45.36223060840267" lon="7.6406412823140775"><ele>424.0</ele><time>2026-05-02T16:37:55Z</time></trkpt><trkpt lat="45.36224937225974" lon="7.64052003152195"><ele>424.0</ele><time>2026-05-02T16:37:56Z</time></trkpt><trkpt lat="45.36228387829711" lon="7.640429071715727"><ele>424.00000000000006</ele><time>2026-05-02T16:37:57Z</time></trkpt><trkpt lat="45.36222497525045" lon="7.640353676768648"><ele>424.0</ele><time>2026-05-02T16:37:59Z</time></trkpt><trkpt lat="45.36213248374759" lon="7.640471386127756"><ele>420.0</ele><time>2026-05-02T16:38:01Z</time></trkpt><trkpt lat="45.362068239513576" lon="7.640585411882792"><ele>416.0</ele><time>2026-05-02T16:38:02Z</time></trkpt><trkpt lat="45.361993467706725" lon="7.640735092710615"><ele>412.0</ele><time>2026-05-02T16:38:03Z</time></trkpt><trkpt lat="45.361913713459984" lon="7.640894710156746"><ele>408.0</ele><time>2026-05-02T16:38:04Z</time></trkpt><trkpt lat="45.36184870464606" lon="7.64101828228666"><ele>406.75</ele><time>2026-05-02T16:38:05Z</time></trkpt><trkpt lat="45.36181196140236" lon="7.641149949164939"><ele>405.5</ele><time>2026-05-02T16:38:06Z</time></trkpt><trkpt lat="45.361822591778825" lon="7.641315330960117"><ele>404.25</ele><time>2026-05-02T16:38:07Z</time></trkpt><trkpt lat="45.36181419517681" lon="7.641488265327204"><ele>403.0</ele><time>2026-05-02T16:38:08Z</time></trkpt><trkpt lat="45.36187298018379" lon="7.641705052999406"><ele>403.0</ele><time>2026-05-02T16:38:09Z</time></trkpt><trkpt lat="45.36194865994854" lon="7.641952868556539"><ele>403.0</ele><time>2026-05-02T16:38:10Z</time></trkpt><trkpt lat="45.362034518905666" lon="7.642160916135758"><ele>403.0</ele><time>2026-05-02T16:38:11Z</time></trkpt><trkpt lat="45.36209192003372" lon="7.642341075829295"><ele>403.0</ele><time>2026-05-02T16:38:12Z</time></trkpt><trkpt lat="45.36212866842741" lon="7.642487110507147"><ele>403.0</ele><time>2026-05-02T16:38:13Z</time></trkpt><trkpt lat="45.36213911091887" lon="7.6427354411326505"><ele>403.0</ele><time>2026-05-02T16:38:14Z</time></trkpt><trkpt lat="45.36217154929842" lon="7.6430532962266575"><ele>403.6666666666667</ele><time>2026-05-02T16:38:15Z</time></trkpt><trkpt lat="45.36221214211959" lon="7.6433368256054335"><ele>404.33333333333337</ele><time>2026-05-02T16:38:16Z</time></trkpt><trkpt lat="45.362234668508535" lon="7.6435563043880945"><ele>405.0</ele><time>2026-05-02T16:38:17Z</time></trkpt><trkpt lat="45.3622541540572" lon="7.643743334665493"><ele>401.75</ele><time>2026-05-02T16:38:18Z</time></trkpt><trkpt lat="45.362287385818924" lon="7.643917265919301"><ele>398.5</ele><time>2026-05-02T16:38:19Z</time></trkpt><trkpt lat="45.36235340504749" lon="7.644100974854905"><ele>395.25</ele><time>2026-05-02T16:38:20Z</time></trkpt><trkpt lat="45.362442452009276" lon="7.6442757802831665"><ele>392.0</ele><time>2026-05-02T16:38:21Z</time></trkpt><trkpt lat="45.36252083535973" lon="7.644387324441147"><ele>391.20000000000005</ele><time>2026-05-02T16:38:22Z</time></trkpt><trkpt lat="45.36258271896711" lon="7.644475961513512"><ele>390.4</ele><time>2026-05-02T16:38:23Z</time></trkpt><trkpt lat="45.36259318650543" lon="7.644600343142987"><ele>389.6</ele><time>2026-05-02T16:38:25Z</time></trkpt><trkpt lat="45.36252525719417" lon="7.644674265627404"><ele>388.79999999999995</ele><time>2026-05-02T16:38:26Z</time></trkpt><trkpt lat="45.36240610411658" lon="7.644776282390753"><ele>388.0</ele><time>2026-05-02T16:38:27Z</time></trkpt><trkpt lat="45.36231217079923" lon="7.644889136523506"><ele>388.0</ele><time>2026-05-02T16:38:28Z</time></trkpt><trkpt lat="45.36224745651206" lon="7.645063295436451"><ele>388.0</ele><time>2026-05-02T16:38:29Z</time></trkpt><trkpt lat="45.3621805947911" lon="7.645300299013605"><ele>388.0</ele><time>2026-05-02T16:38:30Z</time></trkpt><trkpt lat="45.36213766779694" lon="7.645494245882463"><ele>387.0</ele><time>2026-05-02T16:38:31Z</time></trkpt><trkpt lat="45.362092424053984" lon="7.645652509321001"><ele>386.0</ele><time>2026-05-02T16:38:32Z</time></trkpt><trkpt lat="45.36205894753031" lon="7.64581293342088"><ele>385.0</ele><time>2026-05-02T16:38:33Z</time></trkpt><trkpt lat="45.36202282797815" lon="7.646027916515476"><ele>384.0</ele><time>2026-05-02T16:38:34Z</time></trkpt><trkpt lat="45.36197519170996" lon="7.646266212266342"><ele>382.6</ele><time>2026-05-02T16:38:35Z</time></trkpt><trkpt lat="45.36193528709547" lon="7.6464293737086075"><ele>381.2</ele><time>2026-05-02T16:38:35.999Z</time></trkpt><trkpt lat="45.36189779367551" lon="7.646532864174727"><ele>379.8</ele><time>2026-05-02T16:38:37.999Z</time></trkpt><trkpt lat="45.36192400635483" lon="7.6464264302469624"><ele>378.40000000000003</ele><time>2026-05-02T16:38:41.999Z</time></trkpt><trkpt lat="45.36196666164172" lon="7.646275795314129"><ele>377.0</ele><time>2026-05-02T16:38:42.999Z</time></trkpt><trkpt lat="45.36199542309151" lon="7.646161837762947"><ele>377.0</ele><time>2026-05-02T16:38:43.999Z</time></trkpt><trkpt lat="45.36203754278316" lon="7.646065674732222"><ele>377.0</ele><time>2026-05-02T16:38:49.999Z</time></trkpt><trkpt lat="45.36205668454925" lon="7.6459681356425175"><ele>377.0</ele><time>2026-05-02T16:38:53.999Z</time></trkpt><trkpt lat="45.36201527622078" lon="7.646145748926082"><ele>377.0</ele><time>2026-05-02T16:38:59.999Z</time></trkpt><trkpt lat="45.361986543728975" lon="7.646304907857448"><ele>377.0</ele><time>2026-05-02T16:39:00.999Z</time></trkpt><trkpt lat="45.3619264908499" lon="7.646504801695868"><ele>377.0</ele><time>2026-05-02T16:39:01.999Z</time></trkpt><trkpt lat="45.361855067372815" lon="7.646722902047465"><ele>377.0</ele><time>2026-05-02T16:39:02.999Z</time></trkpt><trkpt lat="45.361817840470074" lon="7.646911647700819"><ele>377.0</ele><time>2026-05-02T16:39:03.999Z</time></trkpt><trkpt lat="45.36181543946583" lon="7.647079939532448"><ele>377.0</ele><time>2026-05-02T16:39:04.999Z</time></trkpt><trkpt lat="45.36184595514602" lon="7.647216144810519"><ele>376.5</ele><time>2026-05-02T16:39:05.999Z</time></trkpt><trkpt lat="45.361878880196976" lon="7.647338730844618"><ele>376.0</ele><time>2026-05-02T16:39:06.999Z</time></trkpt><trkpt lat="45.361896204743715" lon="7.64746364912412"><ele>375.5</ele><time>2026-05-02T16:39:07.999Z</time></trkpt><trkpt lat="45.361900312498165" lon="7.6475912829515575"><ele>375.0</ele><time>2026-05-02T16:39:08.999Z</time></trkpt><trkpt lat="45.36189831240526" lon="7.647695522735254"><ele>374.5</ele><time>2026-05-02T16:39:09.999Z</time></trkpt><trkpt lat="45.36187955309058" lon="7.647797361073428"><ele>374.0</ele><time>2026-05-02T16:39:11.999Z</time></trkpt><trkpt lat="45.36182424373427" lon="7.647846414674567"><ele>373.2</ele><time>2026-05-02T16:39:12.999Z</time></trkpt><trkpt lat="45.36179139554544" lon="7.64793393591482"><ele>372.4</ele><time>2026-05-02T16:39:13.999Z</time></trkpt><trkpt lat="45.36176356491231" lon="7.648041690611471"><ele>371.6</ele><time>2026-05-02T16:39:14.999Z</time></trkpt><trkpt lat="45.36178022257301" lon="7.648225122827072"><ele>370.8</ele><time>2026-05-02T16:39:15.999Z</time></trkpt><trkpt lat="45.36180297641047" lon="7.648408836941797"><ele>370.0</ele><time>2026-05-02T16:39:16.999Z</time></trkpt><trkpt lat="45.3618020786566" lon="7.648529938861183"><ele>369.6</ele><time>2026-05-02T16:39:17.999Z</time></trkpt><trkpt lat="45.36174974424922" lon="7.648664444087373"><ele>369.2</ele><time>2026-05-02T16:39:19.999Z</time></trkpt><trkpt lat="45.361686210767765" lon="7.6486971720661225"><ele>368.79999999999995</ele><time>2026-05-02T16:39:20.999Z</time></trkpt><trkpt lat="45.36160959990281" lon="7.648817614304925"><ele>368.4</ele><time>2026-05-02T16:39:22.999Z</time></trkpt><trkpt lat="45.3615830059115" lon="7.648948657296311"><ele>368.0</ele><time>2026-05-02T16:39:23.999Z</time></trkpt><trkpt lat="45.361582638207594" lon="7.649146564769332"><ele>368.0</ele><time>2026-05-02T16:39:24.999Z</time></trkpt><trkpt lat="45.36160195846524" lon="7.649401498023231"><ele>368.0</ele><time>2026-05-02T16:39:25.999Z</time></trkpt><trkpt lat="45.36161960796612" lon="7.649608284186246"><ele>368.0</ele><time>2026-05-02T16:39:26.999Z</time></trkpt><trkpt lat="45.36163257760906" lon="7.6497613713663695"><ele>368.0</ele><time>2026-05-02T16:39:27.999Z</time></trkpt><trkpt lat="45.361627286460816" lon="7.649883144904112"><ele>367.5</ele><time>2026-05-02T16:39:28.999Z</time></trkpt><trkpt lat="45.36159464469225" lon="7.650030741071048"><ele>367.0</ele><time>2026-05-02T16:39:29.999Z</time></trkpt><trkpt lat="45.36151605456316" lon="7.6502198990106836"><ele>366.5</ele><time>2026-05-02T16:39:30.999Z</time></trkpt><trkpt lat="45.36142278735912" lon="7.650448557373684"><ele>366.0</ele><time>2026-05-02T16:39:31.999Z</time></trkpt><trkpt lat="45.36134973147153" lon="7.650641593270281"><ele>365.8333333333333</ele><time>2026-05-02T16:39:32.999Z</time></trkpt><trkpt lat="45.36131077974636" lon="7.650786432729049"><ele>365.6666666666667</ele><time>2026-05-02T16:39:33.999Z</time></trkpt><trkpt lat="45.36130259077306" lon="7.650900935742845"><ele>365.5</ele><time>2026-05-02T16:39:34.999Z</time></trkpt><trkpt lat="45.361265417611165" lon="7.650996259696283"><ele>365.33333333333337</ele><time>2026-05-02T16:39:36.999Z</time></trkpt><trkpt lat="45.36120077343036" lon="7.650978424883801"><ele>365.1666666666667</ele><time>2026-05-02T16:39:37.999Z</time></trkpt><trkpt lat="45.36111929938114" lon="7.650945888693895"><ele>365.0</ele><time>2026-05-02T16:39:39Z</time></trkpt><trkpt lat="45.36097629652931" lon="7.650937835231134"><ele>365.0</ele><time>2026-05-02T16:39:40Z</time></trkpt><trkpt lat="45.360782783409974" lon="7.650915585104395"><ele>365.0</ele><time>2026-05-02T16:39:41Z</time></trkpt><trkpt lat="45.36059029185834" lon="7.650895957475776"><ele>365.0</ele><time>2026-05-02T16:39:42Z</time></trkpt><trkpt lat="45.36043054311987" lon="7.6508836125138355"><ele>364.5</ele><time>2026-05-02T16:39:43Z</time></trkpt><trkpt lat="45.36029045871702" lon="7.650875361148723"><ele>364.0</ele><time>2026-05-02T16:39:44Z</time></trkpt><trkpt lat="45.36016366343654" lon="7.65088270778308"><ele>363.5</ele><time>2026-05-02T16:39:45Z</time></trkpt><trkpt lat="45.360029272114126" lon="7.650923759310148"><ele>363.0</ele><time>2026-05-02T16:39:46Z</time></trkpt><trkpt lat="45.35994190224742" lon="7.650950639255832"><ele>363.0</ele><time>2026-05-02T16:39:47Z</time></trkpt><trkpt lat="45.35985128025163" lon="7.650937658673657"><ele>363.0</ele><time>2026-05-02T16:39:49Z</time></trkpt><trkpt lat="45.35982477373327" lon="7.6507697123226"><ele>363.0</ele><time>2026-05-02T16:39:51Z</time></trkpt><trkpt lat="45.359793161175155" lon="7.650591583803722"><ele>363.0</ele><time>2026-05-02T16:39:52Z</time></trkpt><trkpt lat="45.35976513879325" lon="7.65044720050568"><ele>363.0</ele><time>2026-05-02T16:39:53Z</time></trkpt><trkpt lat="45.35970083687642" lon="7.650356616770794"><ele>361.75</ele><time>2026-05-02T16:39:55Z</time></trkpt><trkpt lat="45.35962183000692" lon="7.650349158000981"><ele>360.5</ele><time>2026-05-02T16:39:56Z</time></trkpt><trkpt lat="45.35948734582752" lon="7.6503608135411785"><ele>359.25</ele><time>2026-05-02T16:39:57Z</time></trkpt><trkpt lat="45.35932106284961" lon="7.650364207326473"><ele>358.0</ele><time>2026-05-02T16:39:58Z</time></trkpt><trkpt lat="45.35915404953456" lon="7.650350632658115"><ele>358.0</ele><time>2026-05-02T16:39:59Z</time></trkpt><trkpt lat="45.35905414627088" lon="7.650305715046832"><ele>358.0</ele><time>2026-05-02T16:40:00Z</time></trkpt><trkpt lat="45.35896094031982" lon="7.650273302962405"><ele>358.0</ele><time>2026-05-02T16:40:01Z</time></trkpt><trkpt lat="45.35888091996139" lon="7.650245135358365"><ele>358.0</ele><time>2026-05-02T16:40:02Z</time></trkpt><trkpt lat="45.35878110690514" lon="7.650233559274163"><ele>358.0</ele><time>2026-05-02T16:40:04Z</time></trkpt><trkpt lat="45.35883417337672" lon="7.65028254671283"><ele>358.0</ele><time>2026-05-02T16:40:07Z</time></trkpt><trkpt lat="45.35890111594619" lon="7.650292005658472"><ele>358.0</ele><time>2026-05-02T16:40:08Z</time></trkpt><trkpt lat="45.35900003179102" lon="7.650291259205613"><ele>358.0</ele><time>2026-05-02T16:40:09Z</time></trkpt><trkpt lat="45.359130468483116" lon="7.650312287926431"><ele>358.0</ele><time>2026-05-02T16:40:10Z</time></trkpt><trkpt lat="45.35928041600284" lon="7.650345815845488"><ele>358.0</ele><time>2026-05-02T16:40:11Z</time></trkpt><trkpt lat="45.359442017952844" lon="7.650358684606588"><ele>358.0</ele><time>2026-05-02T16:40:12Z</time></trkpt><trkpt lat="45.35955993480907" lon="7.650369852446643"><ele>358.0</ele><time>2026-05-02T16:40:13Z</time></trkpt><trkpt lat="45.359659291996095" lon="7.650366632248563"><ele>358.0</ele><time>2026-05-02T16:40:14Z</time></trkpt><trkpt lat="45.35972524717136" lon="7.650371357042172"><ele>358.0</ele><time>2026-05-02T16:40:15Z</time></trkpt><trkpt lat="45.35977606507393" lon="7.650468233749945"><ele>358.0</ele><time>2026-05-02T16:40:17Z</time></trkpt><trkpt lat="45.359791492586965" lon="7.650587186520414"><ele>359.0</ele><time>2026-05-02T16:40:18Z</time></trkpt><trkpt lat="45.35981705087158" lon="7.650759663719363"><ele>360.0</ele><time>2026-05-02T16:40:19Z</time></trkpt><trkpt lat="45.3598488273635" lon="7.650894183056655"><ele>361.0</ele><time>2026-05-02T16:40:20Z</time></trkpt><trkpt lat="45.3599001466262" lon="7.650972607485937"><ele>362.0</ele><time>2026-05-02T16:40:22Z</time></trkpt><trkpt lat="45.359980124525826" lon="7.650946387815762"><ele>363.0</ele><time>2026-05-02T16:40:23Z</time></trkpt><trkpt lat="45.36010677246654" lon="7.650905577095886"><ele>363.0</ele><time>2026-05-02T16:40:24Z</time></trkpt><trkpt lat="45.3602636539217" lon="7.650867323064822"><ele>363.0</ele><time>2026-05-02T16:40:25Z</time></trkpt><trkpt lat="45.360438381479106" lon="7.6508563357554715"><ele>363.0</ele><time>2026-05-02T16:40:26Z</time></trkpt><trkpt lat="45.36059729321375" lon="7.650879408460571"><ele>363.6666666666667</ele><time>2026-05-02T16:40:27Z</time></trkpt><trkpt lat="45.36076916862575" lon="7.650905663953723"><ele>364.33333333333337</ele><time>2026-05-02T16:40:28Z</time></trkpt><trkpt lat="45.3609522535841" lon="7.650919244467136"><ele>365.0</ele><time>2026-05-02T16:40:29Z</time></trkpt><trkpt lat="45.36109421516328" lon="7.650944276727586"><ele>365.0</ele><time>2026-05-02T16:40:30Z</time></trkpt><trkpt lat="45.36119712278307" lon="7.650969520533833"><ele>365.0</ele><time>2026-05-02T16:40:31Z</time></trkpt><trkpt lat="45.36129953799308" lon="7.650974715975648"><ele>365.0</ele><time>2026-05-02T16:40:33Z</time></trkpt><trkpt lat="45.36131940879355" lon="7.650876606427341"><ele>365.0</ele><time>2026-05-02T16:40:35Z</time></trkpt><trkpt lat="45.36133241223626" lon="7.650756077123972"><ele>365.0</ele><time>2026-05-02T16:40:36Z</time></trkpt><trkpt lat="45.36135639732936" lon="7.650623991603257"><ele>365.2</ele><time>2026-05-02T16:40:37Z</time></trkpt><trkpt lat="45.36139608463829" lon="7.650486311407395"><ele>365.4</ele><time>2026-05-02T16:40:38Z</time></trkpt><trkpt lat="45.3614525390563" lon="7.650350156344887"><ele>365.6</ele><time>2026-05-02T16:40:39Z</time></trkpt><trkpt lat="45.36151581283052" lon="7.6502188310480035"><ele>365.8</ele><time>2026-05-02T16:40:40Z</time></trkpt><trkpt lat="45.36157141439116" lon="7.6500929875166985"><ele>366.0</ele><time>2026-05-02T16:40:41Z</time></trkpt><trkpt lat="45.36162059592963" lon="7.649938862551524"><ele>366.0</ele><time>2026-05-02T16:40:42Z</time></trkpt><trkpt lat="45.361645663797276" lon="7.649764568486337"><ele>366.0</ele><time>2026-05-02T16:40:43Z</time></trkpt><trkpt lat="45.36164307632711" lon="7.649610930848025"><ele>366.0</ele><time>2026-05-02T16:40:44Z</time></trkpt><trkpt lat="45.36161753159752" lon="7.649393553343205"><ele>366.0</ele><time>2026-05-02T16:40:45Z</time></trkpt><trkpt lat="45.36159224238949" lon="7.649199523093584"><ele>366.4</ele><time>2026-05-02T16:40:46Z</time></trkpt><trkpt lat="45.361592040825556" lon="7.649047279495637"><ele>366.8</ele><time>2026-05-02T16:40:46.999Z</time></trkpt><trkpt lat="45.361594071176306" lon="7.648926299185648"><ele>367.2</ele><time>2026-05-02T16:40:47.999Z</time></trkpt><trkpt lat="45.36164181548527" lon="7.648779393617149"><ele>367.59999999999997</ele><time>2026-05-02T16:40:49.999Z</time></trkpt><trkpt lat="45.361702508347314" lon="7.648720649264451"><ele>368.0</ele><time>2026-05-02T16:40:51.999Z</time></trkpt><trkpt lat="45.36174462686344" lon="7.648617948929039"><ele>368.4</ele><time>2026-05-02T16:40:53.999Z</time></trkpt><trkpt lat="45.36182968798931" lon="7.648497765488521"><ele>368.79999999999995</ele><time>2026-05-02T16:40:55.999Z</time></trkpt><trkpt lat="45.3618460101764" lon="7.648336554475552"><ele>369.2</ele><time>2026-05-02T16:40:57.999Z</time></trkpt><trkpt lat="45.361834246814425" lon="7.648224989532864"><ele>369.6</ele><time>2026-05-02T16:40:58.999Z</time></trkpt><trkpt lat="45.361812690380994" lon="7.648105704425544"><ele>370.0</ele><time>2026-05-02T16:40:59.999Z</time></trkpt><trkpt lat="45.361802772196384" lon="7.6479776347748345"><ele>370.0</ele><time>2026-05-02T16:41:00.999Z</time></trkpt><trkpt lat="45.36181364261651" lon="7.647882712005659"><ele>370.0</ele><time>2026-05-02T16:41:01.999Z</time></trkpt><trkpt lat="45.36186552122236" lon="7.647812591348805"><ele>370.0</ele><time>2026-05-02T16:41:05.999Z</time></trkpt><trkpt lat="45.36192883418798" lon="7.647714319327604"><ele>370.0</ele><time>2026-05-02T16:41:07.999Z</time></trkpt><trkpt lat="45.361911790236135" lon="7.647557401751316"><ele>370.0</ele><time>2026-05-02T16:41:09.999Z</time></trkpt><trkpt lat="45.361883807626405" lon="7.647404544940386"><ele>371.0</ele><time>2026-05-02T16:41:11.999Z</time></trkpt><trkpt lat="45.36187489122074" lon="7.647269534355395"><ele>372.0</ele><time>2026-05-02T16:41:12.999Z</time></trkpt><trkpt lat="45.361857762561904" lon="7.647105834146715"><ele>373.0</ele><time>2026-05-02T16:41:13.999Z</time></trkpt><trkpt lat="45.36185026311175" lon="7.646927546532432"><ele>374.0</ele><time>2026-05-02T16:41:14.999Z</time></trkpt><trkpt lat="45.36186788642085" lon="7.6467338220701615"><ele>375.0</ele><time>2026-05-02T16:41:15.999Z</time></trkpt><trkpt lat="45.36192034106052" lon="7.6464983502392965"><ele>376.0</ele><time>2026-05-02T16:41:16.999Z</time></trkpt><trkpt lat="45.362008336979315" lon="7.646227106785401"><ele>377.0</ele><time>2026-05-02T16:41:17.999Z</time></trkpt><trkpt lat="45.362057091192185" lon="7.646022579232603"><ele>378.40000000000003</ele><time>2026-05-02T16:41:18.999Z</time></trkpt><trkpt lat="45.36210014020484" lon="7.645888236517704"><ele>379.8</ele><time>2026-05-02T16:41:19.999Z</time></trkpt><trkpt lat="45.36215222359519" lon="7.645760410416581"><ele>381.2</ele><time>2026-05-02T16:41:20.999Z</time></trkpt><trkpt lat="45.36220252982002" lon="7.645615785710365"><ele>382.6</ele><time>2026-05-02T16:41:21.999Z</time></trkpt><trkpt lat="45.36223421286302" lon="7.645476530774073"><ele>384.0</ele><time>2026-05-02T16:41:22.999Z</time></trkpt><trkpt lat="45.362278608799755" lon="7.645325775163403"><ele>386.0</ele><time>2026-05-02T16:41:24.999Z</time></trkpt><trkpt lat="45.362428356729495" lon="7.645352761005819"><ele>388.0</ele><time>2026-05-02T16:41:25.999Z</time></trkpt><trkpt lat="45.36253240011919" lon="7.64533803523096"><ele>390.0</ele><time>2026-05-02T16:41:26.999Z</time></trkpt><trkpt lat="45.362635579990844" lon="7.645330415483252"><ele>392.0</ele><time>2026-05-02T16:41:27.999Z</time></trkpt><trkpt lat="45.36270141677584" lon="7.645333850890026"><ele>394.0</ele><time>2026-05-02T16:41:28.999Z</time></trkpt><trkpt lat="45.36267931295988" lon="7.645435762083647"><ele>394.00000000000006</ele><time>2026-05-02T16:41:31.999Z</time></trkpt><trkpt lat="45.36260231103433" lon="7.645539434092135"><ele>394.0</ele><time>2026-05-02T16:42:08Z</time></trkpt><trkpt lat="45.36257343417488" lon="7.645628487695987"><ele>394.0</ele><time>2026-05-02T16:42:09Z</time></trkpt><trkpt lat="45.36255239715452" lon="7.645719601656542"><ele>394.0</ele><time>2026-05-02T16:42:10Z</time></trkpt><trkpt lat="45.36250732652312" lon="7.645807616799716"><ele>394.00000000000006</ele><time>2026-05-02T16:42:12Z</time></trkpt><trkpt lat="45.362474980629536" lon="7.645893139338714"><ele>394.0</ele><time>2026-05-02T16:42:15Z</time></trkpt><trkpt lat="45.36246188554059" lon="7.6459814727214885"><ele>394.0</ele><time>2026-05-02T16:43:54Z</time></trkpt><trkpt lat="45.36246188554059" lon="7.6459814727214885"><ele>394.0</ele><time>2026-05-02T16:43:54Z</time></trkpt></trkseg></trk></gpx>